<?xml version="1.0" encoding="UTF-8" standalone="no" ?>
<gpx xmlns="http://www.topografix.com/GPX/1/1" xmlns:xsi="http://www.w3.org/2001/XMLSchema-instance" xsi:schemaLocation="http://www.topografix.com/GPX/1/1 http://www.topografix.com/GPX/1/1/gpx.xsd" version="1.1" creator="VisuGPX - https://www.visugpx.com">
  <metadata>
    <name>E-O-Bord de loire Sud Nord Oudon</name>
    <desc><![CDATA[E-O-Bord de loire Sud Nord Oudon]]></desc>
  </metadata>
  <trk>
    <name><![CDATA[1 juin 2020 16:52:43]]></name>
    <trkseg>
      <trkpt lat="47.175" lon="-1.6144">
        <ele>57</ele>
        <time>2020-06-01T14:53:32.000Z</time>
      </trkpt>
      <trkpt lat="47.17507" lon="-1.61427">
        <ele>67</ele>
        <time>2020-06-01T14:53:33.000Z</time>
      </trkpt>
      <trkpt lat="47.17511" lon="-1.61411">
        <ele>62</ele>
        <time>2020-06-01T14:53:35.000Z</time>
      </trkpt>
      <trkpt lat="47.17516" lon="-1.61394">
        <ele>55</ele>
        <time>2020-06-01T14:53:37.000Z</time>
      </trkpt>
      <trkpt lat="47.17521" lon="-1.61377">
        <ele>54</ele>
        <time>2020-06-01T14:53:39.000Z</time>
      </trkpt>
      <trkpt lat="47.17524" lon="-1.61364">
        <ele>51</ele>
        <time>2020-06-01T14:53:41.000Z</time>
      </trkpt>
      <trkpt lat="47.17521" lon="-1.61348">
        <ele>51</ele>
        <time>2020-06-01T14:53:46.000Z</time>
      </trkpt>
      <trkpt lat="47.17514" lon="-1.61331">
        <ele>49</ele>
        <time>2020-06-01T14:53:49.000Z</time>
      </trkpt>
      <trkpt lat="47.17513" lon="-1.61312">
        <ele>50</ele>
        <time>2020-06-01T14:53:51.000Z</time>
      </trkpt>
      <trkpt lat="47.17512" lon="-1.61294">
        <ele>49</ele>
        <time>2020-06-01T14:53:53.000Z</time>
      </trkpt>
      <trkpt lat="47.17508" lon="-1.61273">
        <ele>49</ele>
        <time>2020-06-01T14:53:55.000Z</time>
      </trkpt>
      <trkpt lat="47.175" lon="-1.61259">
        <ele>50</ele>
        <time>2020-06-01T14:53:57.000Z</time>
      </trkpt>
      <trkpt lat="47.17492" lon="-1.61246">
        <ele>48</ele>
        <time>2020-06-01T14:53:59.000Z</time>
      </trkpt>
      <trkpt lat="47.17488" lon="-1.61228">
        <ele>52</ele>
        <time>2020-06-01T14:54:01.000Z</time>
      </trkpt>
      <trkpt lat="47.17483" lon="-1.61212">
        <ele>54</ele>
        <time>2020-06-01T14:54:03.000Z</time>
      </trkpt>
      <trkpt lat="47.17477" lon="-1.61198">
        <ele>55</ele>
        <time>2020-06-01T14:54:05.000Z</time>
      </trkpt>
      <trkpt lat="47.1747" lon="-1.61182">
        <ele>55</ele>
        <time>2020-06-01T14:54:07.000Z</time>
      </trkpt>
      <trkpt lat="47.17464" lon="-1.61167">
        <ele>56</ele>
        <time>2020-06-01T14:54:09.000Z</time>
      </trkpt>
      <trkpt lat="47.17457" lon="-1.61152">
        <ele>56</ele>
        <time>2020-06-01T14:54:11.000Z</time>
      </trkpt>
      <trkpt lat="47.1745" lon="-1.61137">
        <ele>57</ele>
        <time>2020-06-01T14:54:13.000Z</time>
      </trkpt>
      <trkpt lat="47.17444" lon="-1.6112">
        <ele>57</ele>
        <time>2020-06-01T14:54:15.000Z</time>
      </trkpt>
      <trkpt lat="47.17439" lon="-1.61102">
        <ele>57</ele>
        <time>2020-06-01T14:54:17.000Z</time>
      </trkpt>
      <trkpt lat="47.17433" lon="-1.61085">
        <ele>57</ele>
        <time>2020-06-01T14:54:19.000Z</time>
      </trkpt>
      <trkpt lat="47.17428" lon="-1.61067">
        <ele>58</ele>
        <time>2020-06-01T14:54:21.000Z</time>
      </trkpt>
      <trkpt lat="47.17423" lon="-1.61049">
        <ele>58</ele>
        <time>2020-06-01T14:54:23.000Z</time>
      </trkpt>
      <trkpt lat="47.17419" lon="-1.61033">
        <ele>56</ele>
        <time>2020-06-01T14:54:25.000Z</time>
      </trkpt>
      <trkpt lat="47.17425" lon="-1.6102">
        <ele>56</ele>
        <time>2020-06-01T14:54:28.000Z</time>
      </trkpt>
      <trkpt lat="47.1743" lon="-1.61032">
        <ele>55</ele>
        <time>2020-06-01T14:54:30.000Z</time>
      </trkpt>
      <trkpt lat="47.17435" lon="-1.61046">
        <ele>54</ele>
        <time>2020-06-01T14:54:32.000Z</time>
      </trkpt>
      <trkpt lat="47.17441" lon="-1.61061">
        <ele>54</ele>
        <time>2020-06-01T14:54:34.000Z</time>
      </trkpt>
      <trkpt lat="47.17448" lon="-1.61075">
        <ele>53</ele>
        <time>2020-06-01T14:54:36.000Z</time>
      </trkpt>
      <trkpt lat="47.17456" lon="-1.61087">
        <ele>53</ele>
        <time>2020-06-01T14:54:38.000Z</time>
      </trkpt>
      <trkpt lat="47.17468" lon="-1.61097">
        <ele>53</ele>
        <time>2020-06-01T14:54:40.000Z</time>
      </trkpt>
      <trkpt lat="47.17481" lon="-1.61105">
        <ele>53</ele>
        <time>2020-06-01T14:54:42.000Z</time>
      </trkpt>
      <trkpt lat="47.17495" lon="-1.61106">
        <ele>53</ele>
        <time>2020-06-01T14:54:44.000Z</time>
      </trkpt>
      <trkpt lat="47.17507" lon="-1.61102">
        <ele>53</ele>
        <time>2020-06-01T14:54:46.000Z</time>
      </trkpt>
      <trkpt lat="47.1752" lon="-1.61094">
        <ele>52</ele>
        <time>2020-06-01T14:54:48.000Z</time>
      </trkpt>
      <trkpt lat="47.17531" lon="-1.61084">
        <ele>52</ele>
        <time>2020-06-01T14:54:50.000Z</time>
      </trkpt>
      <trkpt lat="47.17542" lon="-1.61074">
        <ele>52</ele>
        <time>2020-06-01T14:54:52.000Z</time>
      </trkpt>
      <trkpt lat="47.17554" lon="-1.61064">
        <ele>52</ele>
        <time>2020-06-01T14:54:54.000Z</time>
      </trkpt>
      <trkpt lat="47.17565" lon="-1.61055">
        <ele>51</ele>
        <time>2020-06-01T14:54:56.000Z</time>
      </trkpt>
      <trkpt lat="47.17576" lon="-1.61045">
        <ele>52</ele>
        <time>2020-06-01T14:54:58.000Z</time>
      </trkpt>
      <trkpt lat="47.17586" lon="-1.61036">
        <ele>52</ele>
        <time>2020-06-01T14:55:00.000Z</time>
      </trkpt>
      <trkpt lat="47.17596" lon="-1.61027">
        <ele>53</ele>
        <time>2020-06-01T14:55:02.000Z</time>
      </trkpt>
      <trkpt lat="47.17607" lon="-1.61017">
        <ele>52</ele>
        <time>2020-06-01T14:55:04.000Z</time>
      </trkpt>
      <trkpt lat="47.17619" lon="-1.61006">
        <ele>51</ele>
        <time>2020-06-01T14:55:06.000Z</time>
      </trkpt>
      <trkpt lat="47.17631" lon="-1.60996">
        <ele>51</ele>
        <time>2020-06-01T14:55:08.000Z</time>
      </trkpt>
      <trkpt lat="47.17642" lon="-1.60986">
        <ele>51</ele>
        <time>2020-06-01T14:55:10.000Z</time>
      </trkpt>
      <trkpt lat="47.17653" lon="-1.60977">
        <ele>51</ele>
        <time>2020-06-01T14:55:12.000Z</time>
      </trkpt>
      <trkpt lat="47.17666" lon="-1.60972">
        <ele>51</ele>
        <time>2020-06-01T14:55:14.000Z</time>
      </trkpt>
      <trkpt lat="47.17678" lon="-1.60971">
        <ele>51</ele>
        <time>2020-06-01T14:55:16.000Z</time>
      </trkpt>
      <trkpt lat="47.1769" lon="-1.60973">
        <ele>51</ele>
        <time>2020-06-01T14:55:18.000Z</time>
      </trkpt>
      <trkpt lat="47.17701" lon="-1.6097">
        <ele>51</ele>
        <time>2020-06-01T14:55:20.000Z</time>
      </trkpt>
      <trkpt lat="47.17713" lon="-1.60963">
        <ele>51</ele>
        <time>2020-06-01T14:55:22.000Z</time>
      </trkpt>
      <trkpt lat="47.17724" lon="-1.60956">
        <ele>51</ele>
        <time>2020-06-01T14:55:24.000Z</time>
      </trkpt>
      <trkpt lat="47.17735" lon="-1.60949">
        <ele>50</ele>
        <time>2020-06-01T14:55:26.000Z</time>
      </trkpt>
      <trkpt lat="47.17745" lon="-1.6094">
        <ele>50</ele>
        <time>2020-06-01T14:55:28.000Z</time>
      </trkpt>
      <trkpt lat="47.17756" lon="-1.60932">
        <ele>50</ele>
        <time>2020-06-01T14:55:30.000Z</time>
      </trkpt>
      <trkpt lat="47.17766" lon="-1.60924">
        <ele>50</ele>
        <time>2020-06-01T14:55:32.000Z</time>
      </trkpt>
      <trkpt lat="47.17777" lon="-1.60916">
        <ele>50</ele>
        <time>2020-06-01T14:55:34.000Z</time>
      </trkpt>
      <trkpt lat="47.17788" lon="-1.60908">
        <ele>50</ele>
        <time>2020-06-01T14:55:36.000Z</time>
      </trkpt>
      <trkpt lat="47.17799" lon="-1.609">
        <ele>50</ele>
        <time>2020-06-01T14:55:38.000Z</time>
      </trkpt>
      <trkpt lat="47.17809" lon="-1.6089">
        <ele>51</ele>
        <time>2020-06-01T14:55:40.000Z</time>
      </trkpt>
      <trkpt lat="47.17819" lon="-1.60878">
        <ele>51</ele>
        <time>2020-06-01T14:55:42.000Z</time>
      </trkpt>
      <trkpt lat="47.17827" lon="-1.60865">
        <ele>51</ele>
        <time>2020-06-01T14:55:44.000Z</time>
      </trkpt>
      <trkpt lat="47.17834" lon="-1.60851">
        <ele>52</ele>
        <time>2020-06-01T14:55:46.000Z</time>
      </trkpt>
      <trkpt lat="47.17841" lon="-1.60834">
        <ele>52</ele>
        <time>2020-06-01T14:55:48.000Z</time>
      </trkpt>
      <trkpt lat="47.17845" lon="-1.60818">
        <ele>52</ele>
        <time>2020-06-01T14:55:50.000Z</time>
      </trkpt>
      <trkpt lat="47.17849" lon="-1.60801">
        <ele>52</ele>
        <time>2020-06-01T14:55:52.000Z</time>
      </trkpt>
      <trkpt lat="47.17854" lon="-1.60783">
        <ele>52</ele>
        <time>2020-06-01T14:55:54.000Z</time>
      </trkpt>
      <trkpt lat="47.17857" lon="-1.60765">
        <ele>52</ele>
        <time>2020-06-01T14:55:56.000Z</time>
      </trkpt>
      <trkpt lat="47.17861" lon="-1.60748">
        <ele>52</ele>
        <time>2020-06-01T14:55:58.000Z</time>
      </trkpt>
      <trkpt lat="47.17865" lon="-1.60731">
        <ele>52</ele>
        <time>2020-06-01T14:56:00.000Z</time>
      </trkpt>
      <trkpt lat="47.17869" lon="-1.60714">
        <ele>52</ele>
        <time>2020-06-01T14:56:02.000Z</time>
      </trkpt>
      <trkpt lat="47.17873" lon="-1.60698">
        <ele>52</ele>
        <time>2020-06-01T14:56:04.000Z</time>
      </trkpt>
      <trkpt lat="47.17878" lon="-1.60681">
        <ele>52</ele>
        <time>2020-06-01T14:56:06.000Z</time>
      </trkpt>
      <trkpt lat="47.17883" lon="-1.60664">
        <ele>52</ele>
        <time>2020-06-01T14:56:08.000Z</time>
      </trkpt>
      <trkpt lat="47.17888" lon="-1.60649">
        <ele>52</ele>
        <time>2020-06-01T14:56:10.000Z</time>
      </trkpt>
      <trkpt lat="47.17893" lon="-1.60634">
        <ele>52</ele>
        <time>2020-06-01T14:56:12.000Z</time>
      </trkpt>
      <trkpt lat="47.17898" lon="-1.60619">
        <ele>52</ele>
        <time>2020-06-01T14:56:14.000Z</time>
      </trkpt>
      <trkpt lat="47.17901" lon="-1.60603">
        <ele>53</ele>
        <time>2020-06-01T14:56:16.000Z</time>
      </trkpt>
      <trkpt lat="47.17906" lon="-1.60587">
        <ele>53</ele>
        <time>2020-06-01T14:56:18.000Z</time>
      </trkpt>
      <trkpt lat="47.17916" lon="-1.60585">
        <ele>54</ele>
        <time>2020-06-01T14:56:20.000Z</time>
      </trkpt>
      <trkpt lat="47.17929" lon="-1.60589">
        <ele>53</ele>
        <time>2020-06-01T14:56:22.000Z</time>
      </trkpt>
      <trkpt lat="47.17943" lon="-1.60582">
        <ele>53</ele>
        <time>2020-06-01T14:56:24.000Z</time>
      </trkpt>
      <trkpt lat="47.17957" lon="-1.60574">
        <ele>53</ele>
        <time>2020-06-01T14:56:26.000Z</time>
      </trkpt>
      <trkpt lat="47.17976" lon="-1.60563">
        <ele>53</ele>
        <time>2020-06-01T14:56:29.000Z</time>
      </trkpt>
      <trkpt lat="47.17991" lon="-1.60559">
        <ele>53</ele>
        <time>2020-06-01T14:56:31.000Z</time>
      </trkpt>
      <trkpt lat="47.18005" lon="-1.60555">
        <ele>52</ele>
        <time>2020-06-01T14:56:33.000Z</time>
      </trkpt>
      <trkpt lat="47.1802" lon="-1.60554">
        <ele>51</ele>
        <time>2020-06-01T14:56:35.000Z</time>
      </trkpt>
      <trkpt lat="47.18034" lon="-1.60557">
        <ele>51</ele>
        <time>2020-06-01T14:56:37.000Z</time>
      </trkpt>
      <trkpt lat="47.18047" lon="-1.60563">
        <ele>50</ele>
        <time>2020-06-01T14:56:39.000Z</time>
      </trkpt>
      <trkpt lat="47.18061" lon="-1.60571">
        <ele>51</ele>
        <time>2020-06-01T14:56:41.000Z</time>
      </trkpt>
      <trkpt lat="47.18074" lon="-1.60578">
        <ele>51</ele>
        <time>2020-06-01T14:56:43.000Z</time>
      </trkpt>
      <trkpt lat="47.18087" lon="-1.60585">
        <ele>50</ele>
        <time>2020-06-01T14:56:45.000Z</time>
      </trkpt>
      <trkpt lat="47.181" lon="-1.60591">
        <ele>51</ele>
        <time>2020-06-01T14:56:47.000Z</time>
      </trkpt>
      <trkpt lat="47.18113" lon="-1.60596">
        <ele>51</ele>
        <time>2020-06-01T14:56:49.000Z</time>
      </trkpt>
      <trkpt lat="47.18126" lon="-1.60601">
        <ele>51</ele>
        <time>2020-06-01T14:56:51.000Z</time>
      </trkpt>
      <trkpt lat="47.18138" lon="-1.60604">
        <ele>51</ele>
        <time>2020-06-01T14:56:53.000Z</time>
      </trkpt>
      <trkpt lat="47.18149" lon="-1.60606">
        <ele>50</ele>
        <time>2020-06-01T14:56:55.000Z</time>
      </trkpt>
      <trkpt lat="47.1816" lon="-1.60606">
        <ele>50</ele>
        <time>2020-06-01T14:56:57.000Z</time>
      </trkpt>
      <trkpt lat="47.18171" lon="-1.60605">
        <ele>50</ele>
        <time>2020-06-01T14:56:59.000Z</time>
      </trkpt>
      <trkpt lat="47.18182" lon="-1.60601">
        <ele>51</ele>
        <time>2020-06-01T14:57:01.000Z</time>
      </trkpt>
      <trkpt lat="47.18188" lon="-1.6059">
        <ele>51</ele>
        <time>2020-06-01T14:57:03.000Z</time>
      </trkpt>
      <trkpt lat="47.18193" lon="-1.60575">
        <ele>51</ele>
        <time>2020-06-01T14:57:05.000Z</time>
      </trkpt>
      <trkpt lat="47.18205" lon="-1.60571">
        <ele>51</ele>
        <time>2020-06-01T14:57:07.000Z</time>
      </trkpt>
      <trkpt lat="47.18216" lon="-1.60564">
        <ele>52</ele>
        <time>2020-06-01T14:57:09.000Z</time>
      </trkpt>
      <trkpt lat="47.18228" lon="-1.60558">
        <ele>52</ele>
        <time>2020-06-01T14:57:11.000Z</time>
      </trkpt>
      <trkpt lat="47.18239" lon="-1.6055">
        <ele>53</ele>
        <time>2020-06-01T14:57:13.000Z</time>
      </trkpt>
      <trkpt lat="47.1825" lon="-1.60542">
        <ele>52</ele>
        <time>2020-06-01T14:57:15.000Z</time>
      </trkpt>
      <trkpt lat="47.18261" lon="-1.60532">
        <ele>52</ele>
        <time>2020-06-01T14:57:17.000Z</time>
      </trkpt>
      <trkpt lat="47.18273" lon="-1.6052">
        <ele>52</ele>
        <time>2020-06-01T14:57:19.000Z</time>
      </trkpt>
      <trkpt lat="47.18284" lon="-1.60509">
        <ele>52</ele>
        <time>2020-06-01T14:57:21.000Z</time>
      </trkpt>
      <trkpt lat="47.18294" lon="-1.60498">
        <ele>52</ele>
        <time>2020-06-01T14:57:23.000Z</time>
      </trkpt>
      <trkpt lat="47.18306" lon="-1.60487">
        <ele>52</ele>
        <time>2020-06-01T14:57:25.000Z</time>
      </trkpt>
      <trkpt lat="47.18316" lon="-1.60475">
        <ele>52</ele>
        <time>2020-06-01T14:57:27.000Z</time>
      </trkpt>
      <trkpt lat="47.18327" lon="-1.60463">
        <ele>52</ele>
        <time>2020-06-01T14:57:29.000Z</time>
      </trkpt>
      <trkpt lat="47.18338" lon="-1.6045">
        <ele>52</ele>
        <time>2020-06-01T14:57:31.000Z</time>
      </trkpt>
      <trkpt lat="47.18349" lon="-1.60437">
        <ele>52</ele>
        <time>2020-06-01T14:57:33.000Z</time>
      </trkpt>
      <trkpt lat="47.18359" lon="-1.60425">
        <ele>51</ele>
        <time>2020-06-01T14:57:35.000Z</time>
      </trkpt>
      <trkpt lat="47.18369" lon="-1.60412">
        <ele>52</ele>
        <time>2020-06-01T14:57:37.000Z</time>
      </trkpt>
      <trkpt lat="47.18379" lon="-1.60398">
        <ele>51</ele>
        <time>2020-06-01T14:57:39.000Z</time>
      </trkpt>
      <trkpt lat="47.18389" lon="-1.60385">
        <ele>51</ele>
        <time>2020-06-01T14:57:41.000Z</time>
      </trkpt>
      <trkpt lat="47.18399" lon="-1.60372">
        <ele>51</ele>
        <time>2020-06-01T14:57:43.000Z</time>
      </trkpt>
      <trkpt lat="47.18409" lon="-1.6036">
        <ele>52</ele>
        <time>2020-06-01T14:57:45.000Z</time>
      </trkpt>
      <trkpt lat="47.18418" lon="-1.60346">
        <ele>51</ele>
        <time>2020-06-01T14:57:47.000Z</time>
      </trkpt>
      <trkpt lat="47.18427" lon="-1.60331">
        <ele>52</ele>
        <time>2020-06-01T14:57:49.000Z</time>
      </trkpt>
      <trkpt lat="47.18436" lon="-1.60317">
        <ele>52</ele>
        <time>2020-06-01T14:57:51.000Z</time>
      </trkpt>
      <trkpt lat="47.18445" lon="-1.60302">
        <ele>52</ele>
        <time>2020-06-01T14:57:53.000Z</time>
      </trkpt>
      <trkpt lat="47.18454" lon="-1.60287">
        <ele>52</ele>
        <time>2020-06-01T14:57:55.000Z</time>
      </trkpt>
      <trkpt lat="47.18463" lon="-1.60272">
        <ele>52</ele>
        <time>2020-06-01T14:57:57.000Z</time>
      </trkpt>
      <trkpt lat="47.18471" lon="-1.60256">
        <ele>52</ele>
        <time>2020-06-01T14:57:59.000Z</time>
      </trkpt>
      <trkpt lat="47.18479" lon="-1.60241">
        <ele>52</ele>
        <time>2020-06-01T14:58:01.000Z</time>
      </trkpt>
      <trkpt lat="47.18487" lon="-1.60226">
        <ele>52</ele>
        <time>2020-06-01T14:58:03.000Z</time>
      </trkpt>
      <trkpt lat="47.18495" lon="-1.6021">
        <ele>53</ele>
        <time>2020-06-01T14:58:05.000Z</time>
      </trkpt>
      <trkpt lat="47.18503" lon="-1.60195">
        <ele>52</ele>
        <time>2020-06-01T14:58:07.000Z</time>
      </trkpt>
      <trkpt lat="47.18511" lon="-1.60179">
        <ele>52</ele>
        <time>2020-06-01T14:58:09.000Z</time>
      </trkpt>
      <trkpt lat="47.18519" lon="-1.60163">
        <ele>53</ele>
        <time>2020-06-01T14:58:11.000Z</time>
      </trkpt>
      <trkpt lat="47.18527" lon="-1.60147">
        <ele>53</ele>
        <time>2020-06-01T14:58:13.000Z</time>
      </trkpt>
      <trkpt lat="47.18534" lon="-1.6013">
        <ele>53</ele>
        <time>2020-06-01T14:58:15.000Z</time>
      </trkpt>
      <trkpt lat="47.18541" lon="-1.60114">
        <ele>53</ele>
        <time>2020-06-01T14:58:17.000Z</time>
      </trkpt>
      <trkpt lat="47.18548" lon="-1.60098">
        <ele>53</ele>
        <time>2020-06-01T14:58:19.000Z</time>
      </trkpt>
      <trkpt lat="47.18555" lon="-1.60081">
        <ele>53</ele>
        <time>2020-06-01T14:58:21.000Z</time>
      </trkpt>
      <trkpt lat="47.18561" lon="-1.60063">
        <ele>53</ele>
        <time>2020-06-01T14:58:23.000Z</time>
      </trkpt>
      <trkpt lat="47.18568" lon="-1.60047">
        <ele>53</ele>
        <time>2020-06-01T14:58:25.000Z</time>
      </trkpt>
      <trkpt lat="47.18574" lon="-1.60031">
        <ele>53</ele>
        <time>2020-06-01T14:58:27.000Z</time>
      </trkpt>
      <trkpt lat="47.18579" lon="-1.60014">
        <ele>53</ele>
        <time>2020-06-01T14:58:29.000Z</time>
      </trkpt>
      <trkpt lat="47.18585" lon="-1.59997">
        <ele>53</ele>
        <time>2020-06-01T14:58:31.000Z</time>
      </trkpt>
      <trkpt lat="47.1859" lon="-1.5998">
        <ele>53</ele>
        <time>2020-06-01T14:58:33.000Z</time>
      </trkpt>
      <trkpt lat="47.18596" lon="-1.59963">
        <ele>53</ele>
        <time>2020-06-01T14:58:35.000Z</time>
      </trkpt>
      <trkpt lat="47.186" lon="-1.59945">
        <ele>53</ele>
        <time>2020-06-01T14:58:37.000Z</time>
      </trkpt>
      <trkpt lat="47.18606" lon="-1.59928">
        <ele>53</ele>
        <time>2020-06-01T14:58:39.000Z</time>
      </trkpt>
      <trkpt lat="47.1861" lon="-1.59911">
        <ele>53</ele>
        <time>2020-06-01T14:58:41.000Z</time>
      </trkpt>
      <trkpt lat="47.18615" lon="-1.59894">
        <ele>53</ele>
        <time>2020-06-01T14:58:43.000Z</time>
      </trkpt>
      <trkpt lat="47.18619" lon="-1.59876">
        <ele>53</ele>
        <time>2020-06-01T14:58:45.000Z</time>
      </trkpt>
      <trkpt lat="47.18619" lon="-1.59859">
        <ele>53</ele>
        <time>2020-06-01T14:58:47.000Z</time>
      </trkpt>
      <trkpt lat="47.18613" lon="-1.59843">
        <ele>52</ele>
        <time>2020-06-01T14:58:49.000Z</time>
      </trkpt>
      <trkpt lat="47.18616" lon="-1.59826">
        <ele>53</ele>
        <time>2020-06-01T14:58:51.000Z</time>
      </trkpt>
      <trkpt lat="47.18623" lon="-1.59816">
        <ele>53</ele>
        <time>2020-06-01T14:58:53.000Z</time>
      </trkpt>
      <trkpt lat="47.18626" lon="-1.59799">
        <ele>53</ele>
        <time>2020-06-01T14:58:56.000Z</time>
      </trkpt>
      <trkpt lat="47.1863" lon="-1.59783">
        <ele>53</ele>
        <time>2020-06-01T14:58:58.000Z</time>
      </trkpt>
      <trkpt lat="47.18637" lon="-1.59768">
        <ele>53</ele>
        <time>2020-06-01T14:59:00.000Z</time>
      </trkpt>
      <trkpt lat="47.18647" lon="-1.59756">
        <ele>53</ele>
        <time>2020-06-01T14:59:02.000Z</time>
      </trkpt>
      <trkpt lat="47.18651" lon="-1.59739">
        <ele>53</ele>
        <time>2020-06-01T14:59:04.000Z</time>
      </trkpt>
      <trkpt lat="47.18654" lon="-1.59723">
        <ele>54</ele>
        <time>2020-06-01T14:59:06.000Z</time>
      </trkpt>
      <trkpt lat="47.18657" lon="-1.59705">
        <ele>54</ele>
        <time>2020-06-01T14:59:08.000Z</time>
      </trkpt>
      <trkpt lat="47.18661" lon="-1.59687">
        <ele>54</ele>
        <time>2020-06-01T14:59:10.000Z</time>
      </trkpt>
      <trkpt lat="47.18664" lon="-1.5967">
        <ele>54</ele>
        <time>2020-06-01T14:59:12.000Z</time>
      </trkpt>
      <trkpt lat="47.18669" lon="-1.59653">
        <ele>54</ele>
        <time>2020-06-01T14:59:14.000Z</time>
      </trkpt>
      <trkpt lat="47.18672" lon="-1.59635">
        <ele>54</ele>
        <time>2020-06-01T14:59:16.000Z</time>
      </trkpt>
      <trkpt lat="47.18674" lon="-1.59617">
        <ele>54</ele>
        <time>2020-06-01T14:59:18.000Z</time>
      </trkpt>
      <trkpt lat="47.18677" lon="-1.596">
        <ele>54</ele>
        <time>2020-06-01T14:59:20.000Z</time>
      </trkpt>
      <trkpt lat="47.18679" lon="-1.59583">
        <ele>54</ele>
        <time>2020-06-01T14:59:22.000Z</time>
      </trkpt>
      <trkpt lat="47.18681" lon="-1.59565">
        <ele>54</ele>
        <time>2020-06-01T14:59:24.000Z</time>
      </trkpt>
      <trkpt lat="47.18683" lon="-1.59547">
        <ele>55</ele>
        <time>2020-06-01T14:59:26.000Z</time>
      </trkpt>
      <trkpt lat="47.18685" lon="-1.5953">
        <ele>55</ele>
        <time>2020-06-01T14:59:28.000Z</time>
      </trkpt>
      <trkpt lat="47.18686" lon="-1.59513">
        <ele>55</ele>
        <time>2020-06-01T14:59:30.000Z</time>
      </trkpt>
      <trkpt lat="47.18688" lon="-1.59495">
        <ele>55</ele>
        <time>2020-06-01T14:59:32.000Z</time>
      </trkpt>
      <trkpt lat="47.1869" lon="-1.59478">
        <ele>55</ele>
        <time>2020-06-01T14:59:34.000Z</time>
      </trkpt>
      <trkpt lat="47.18692" lon="-1.5946">
        <ele>54</ele>
        <time>2020-06-01T14:59:36.000Z</time>
      </trkpt>
      <trkpt lat="47.18695" lon="-1.59442">
        <ele>54</ele>
        <time>2020-06-01T14:59:38.000Z</time>
      </trkpt>
      <trkpt lat="47.18697" lon="-1.59424">
        <ele>54</ele>
        <time>2020-06-01T14:59:40.000Z</time>
      </trkpt>
      <trkpt lat="47.18699" lon="-1.59406">
        <ele>54</ele>
        <time>2020-06-01T14:59:42.000Z</time>
      </trkpt>
      <trkpt lat="47.18701" lon="-1.59388">
        <ele>54</ele>
        <time>2020-06-01T14:59:44.000Z</time>
      </trkpt>
      <trkpt lat="47.18703" lon="-1.59369">
        <ele>54</ele>
        <time>2020-06-01T14:59:46.000Z</time>
      </trkpt>
      <trkpt lat="47.18705" lon="-1.59351">
        <ele>54</ele>
        <time>2020-06-01T14:59:48.000Z</time>
      </trkpt>
      <trkpt lat="47.18707" lon="-1.59332">
        <ele>54</ele>
        <time>2020-06-01T14:59:50.000Z</time>
      </trkpt>
      <trkpt lat="47.18709" lon="-1.59313">
        <ele>54</ele>
        <time>2020-06-01T14:59:52.000Z</time>
      </trkpt>
      <trkpt lat="47.18711" lon="-1.59294">
        <ele>54</ele>
        <time>2020-06-01T14:59:54.000Z</time>
      </trkpt>
      <trkpt lat="47.18714" lon="-1.59276">
        <ele>54</ele>
        <time>2020-06-01T14:59:56.000Z</time>
      </trkpt>
      <trkpt lat="47.18715" lon="-1.59256">
        <ele>54</ele>
        <time>2020-06-01T14:59:58.000Z</time>
      </trkpt>
      <trkpt lat="47.18717" lon="-1.59237">
        <ele>54</ele>
        <time>2020-06-01T15:00:00.000Z</time>
      </trkpt>
      <trkpt lat="47.18719" lon="-1.59217">
        <ele>54</ele>
        <time>2020-06-01T15:00:02.000Z</time>
      </trkpt>
      <trkpt lat="47.18721" lon="-1.59199">
        <ele>54</ele>
        <time>2020-06-01T15:00:04.000Z</time>
      </trkpt>
      <trkpt lat="47.18723" lon="-1.59179">
        <ele>54</ele>
        <time>2020-06-01T15:00:06.000Z</time>
      </trkpt>
      <trkpt lat="47.18726" lon="-1.5916">
        <ele>54</ele>
        <time>2020-06-01T15:00:08.000Z</time>
      </trkpt>
      <trkpt lat="47.18728" lon="-1.59141">
        <ele>54</ele>
        <time>2020-06-01T15:00:10.000Z</time>
      </trkpt>
      <trkpt lat="47.1873" lon="-1.59122">
        <ele>53</ele>
        <time>2020-06-01T15:00:12.000Z</time>
      </trkpt>
      <trkpt lat="47.18732" lon="-1.59104">
        <ele>53</ele>
        <time>2020-06-01T15:00:14.000Z</time>
      </trkpt>
      <trkpt lat="47.18733" lon="-1.59085">
        <ele>53</ele>
        <time>2020-06-01T15:00:16.000Z</time>
      </trkpt>
      <trkpt lat="47.18736" lon="-1.59066">
        <ele>53</ele>
        <time>2020-06-01T15:00:18.000Z</time>
      </trkpt>
      <trkpt lat="47.18738" lon="-1.59048">
        <ele>53</ele>
        <time>2020-06-01T15:00:20.000Z</time>
      </trkpt>
      <trkpt lat="47.1874" lon="-1.59029">
        <ele>53</ele>
        <time>2020-06-01T15:00:22.000Z</time>
      </trkpt>
      <trkpt lat="47.18742" lon="-1.59011">
        <ele>54</ele>
        <time>2020-06-01T15:00:24.000Z</time>
      </trkpt>
      <trkpt lat="47.18744" lon="-1.58992">
        <ele>54</ele>
        <time>2020-06-01T15:00:26.000Z</time>
      </trkpt>
      <trkpt lat="47.18746" lon="-1.58975">
        <ele>54</ele>
        <time>2020-06-01T15:00:28.000Z</time>
      </trkpt>
      <trkpt lat="47.18747" lon="-1.58958">
        <ele>55</ele>
        <time>2020-06-01T15:00:30.000Z</time>
      </trkpt>
      <trkpt lat="47.18749" lon="-1.58941">
        <ele>55</ele>
        <time>2020-06-01T15:00:32.000Z</time>
      </trkpt>
      <trkpt lat="47.18751" lon="-1.58922">
        <ele>56</ele>
        <time>2020-06-01T15:00:34.000Z</time>
      </trkpt>
      <trkpt lat="47.18753" lon="-1.58904">
        <ele>56</ele>
        <time>2020-06-01T15:00:36.000Z</time>
      </trkpt>
      <trkpt lat="47.18756" lon="-1.58886">
        <ele>56</ele>
        <time>2020-06-01T15:00:38.000Z</time>
      </trkpt>
      <trkpt lat="47.18758" lon="-1.58868">
        <ele>57</ele>
        <time>2020-06-01T15:00:40.000Z</time>
      </trkpt>
      <trkpt lat="47.1876" lon="-1.5885">
        <ele>56</ele>
        <time>2020-06-01T15:00:42.000Z</time>
      </trkpt>
      <trkpt lat="47.18762" lon="-1.58832">
        <ele>56</ele>
        <time>2020-06-01T15:00:44.000Z</time>
      </trkpt>
      <trkpt lat="47.18763" lon="-1.58815">
        <ele>55</ele>
        <time>2020-06-01T15:00:46.000Z</time>
      </trkpt>
      <trkpt lat="47.18763" lon="-1.58796">
        <ele>55</ele>
        <time>2020-06-01T15:00:48.000Z</time>
      </trkpt>
      <trkpt lat="47.18759" lon="-1.58778">
        <ele>56</ele>
        <time>2020-06-01T15:00:50.000Z</time>
      </trkpt>
      <trkpt lat="47.18754" lon="-1.58764">
        <ele>56</ele>
        <time>2020-06-01T15:00:52.000Z</time>
      </trkpt>
      <trkpt lat="47.18755" lon="-1.58743">
        <ele>55</ele>
        <time>2020-06-01T15:00:54.000Z</time>
      </trkpt>
      <trkpt lat="47.18761" lon="-1.58725">
        <ele>55</ele>
        <time>2020-06-01T15:00:56.000Z</time>
      </trkpt>
      <trkpt lat="47.18771" lon="-1.58709">
        <ele>55</ele>
        <time>2020-06-01T15:00:58.000Z</time>
      </trkpt>
      <trkpt lat="47.1878" lon="-1.58696">
        <ele>54</ele>
        <time>2020-06-01T15:01:00.000Z</time>
      </trkpt>
      <trkpt lat="47.18785" lon="-1.58677">
        <ele>55</ele>
        <time>2020-06-01T15:01:02.000Z</time>
      </trkpt>
      <trkpt lat="47.18789" lon="-1.58659">
        <ele>55</ele>
        <time>2020-06-01T15:01:04.000Z</time>
      </trkpt>
      <trkpt lat="47.18794" lon="-1.58641">
        <ele>55</ele>
        <time>2020-06-01T15:01:06.000Z</time>
      </trkpt>
      <trkpt lat="47.18799" lon="-1.58623">
        <ele>55</ele>
        <time>2020-06-01T15:01:08.000Z</time>
      </trkpt>
      <trkpt lat="47.18804" lon="-1.58604">
        <ele>55</ele>
        <time>2020-06-01T15:01:10.000Z</time>
      </trkpt>
      <trkpt lat="47.18809" lon="-1.58585">
        <ele>55</ele>
        <time>2020-06-01T15:01:12.000Z</time>
      </trkpt>
      <trkpt lat="47.18814" lon="-1.58568">
        <ele>55</ele>
        <time>2020-06-01T15:01:14.000Z</time>
      </trkpt>
      <trkpt lat="47.18819" lon="-1.58549">
        <ele>55</ele>
        <time>2020-06-01T15:01:16.000Z</time>
      </trkpt>
      <trkpt lat="47.18824" lon="-1.58531">
        <ele>55</ele>
        <time>2020-06-01T15:01:18.000Z</time>
      </trkpt>
      <trkpt lat="47.18829" lon="-1.58513">
        <ele>55</ele>
        <time>2020-06-01T15:01:20.000Z</time>
      </trkpt>
      <trkpt lat="47.18834" lon="-1.58494">
        <ele>55</ele>
        <time>2020-06-01T15:01:22.000Z</time>
      </trkpt>
      <trkpt lat="47.18838" lon="-1.58476">
        <ele>55</ele>
        <time>2020-06-01T15:01:24.000Z</time>
      </trkpt>
      <trkpt lat="47.18843" lon="-1.58459">
        <ele>55</ele>
        <time>2020-06-01T15:01:26.000Z</time>
      </trkpt>
      <trkpt lat="47.18849" lon="-1.58442">
        <ele>55</ele>
        <time>2020-06-01T15:01:28.000Z</time>
      </trkpt>
      <trkpt lat="47.18854" lon="-1.58424">
        <ele>55</ele>
        <time>2020-06-01T15:01:30.000Z</time>
      </trkpt>
      <trkpt lat="47.18859" lon="-1.58407">
        <ele>55</ele>
        <time>2020-06-01T15:01:32.000Z</time>
      </trkpt>
      <trkpt lat="47.18865" lon="-1.5839">
        <ele>55</ele>
        <time>2020-06-01T15:01:34.000Z</time>
      </trkpt>
      <trkpt lat="47.18871" lon="-1.58373">
        <ele>55</ele>
        <time>2020-06-01T15:01:36.000Z</time>
      </trkpt>
      <trkpt lat="47.18877" lon="-1.58355">
        <ele>55</ele>
        <time>2020-06-01T15:01:38.000Z</time>
      </trkpt>
      <trkpt lat="47.18883" lon="-1.58338">
        <ele>54</ele>
        <time>2020-06-01T15:01:40.000Z</time>
      </trkpt>
      <trkpt lat="47.18889" lon="-1.5832">
        <ele>54</ele>
        <time>2020-06-01T15:01:42.000Z</time>
      </trkpt>
      <trkpt lat="47.18896" lon="-1.58303">
        <ele>54</ele>
        <time>2020-06-01T15:01:44.000Z</time>
      </trkpt>
      <trkpt lat="47.18902" lon="-1.58286">
        <ele>54</ele>
        <time>2020-06-01T15:01:46.000Z</time>
      </trkpt>
      <trkpt lat="47.18908" lon="-1.58269">
        <ele>54</ele>
        <time>2020-06-01T15:01:48.000Z</time>
      </trkpt>
      <trkpt lat="47.18914" lon="-1.58251">
        <ele>53</ele>
        <time>2020-06-01T15:01:50.000Z</time>
      </trkpt>
      <trkpt lat="47.1892" lon="-1.58233">
        <ele>54</ele>
        <time>2020-06-01T15:01:52.000Z</time>
      </trkpt>
      <trkpt lat="47.18927" lon="-1.58216">
        <ele>54</ele>
        <time>2020-06-01T15:01:54.000Z</time>
      </trkpt>
      <trkpt lat="47.18933" lon="-1.58199">
        <ele>53</ele>
        <time>2020-06-01T15:01:56.000Z</time>
      </trkpt>
      <trkpt lat="47.18939" lon="-1.5818">
        <ele>54</ele>
        <time>2020-06-01T15:01:58.000Z</time>
      </trkpt>
      <trkpt lat="47.18945" lon="-1.58162">
        <ele>53</ele>
        <time>2020-06-01T15:02:00.000Z</time>
      </trkpt>
      <trkpt lat="47.18952" lon="-1.58144">
        <ele>53</ele>
        <time>2020-06-01T15:02:02.000Z</time>
      </trkpt>
      <trkpt lat="47.18958" lon="-1.58127">
        <ele>53</ele>
        <time>2020-06-01T15:02:04.000Z</time>
      </trkpt>
      <trkpt lat="47.18964" lon="-1.5811">
        <ele>53</ele>
        <time>2020-06-01T15:02:06.000Z</time>
      </trkpt>
      <trkpt lat="47.18969" lon="-1.58092">
        <ele>53</ele>
        <time>2020-06-01T15:02:08.000Z</time>
      </trkpt>
      <trkpt lat="47.18976" lon="-1.58075">
        <ele>53</ele>
        <time>2020-06-01T15:02:10.000Z</time>
      </trkpt>
      <trkpt lat="47.18982" lon="-1.58058">
        <ele>53</ele>
        <time>2020-06-01T15:02:12.000Z</time>
      </trkpt>
      <trkpt lat="47.18989" lon="-1.58041">
        <ele>53</ele>
        <time>2020-06-01T15:02:14.000Z</time>
      </trkpt>
      <trkpt lat="47.18994" lon="-1.58023">
        <ele>53</ele>
        <time>2020-06-01T15:02:16.000Z</time>
      </trkpt>
      <trkpt lat="47.19001" lon="-1.58006">
        <ele>53</ele>
        <time>2020-06-01T15:02:18.000Z</time>
      </trkpt>
      <trkpt lat="47.19007" lon="-1.57989">
        <ele>53</ele>
        <time>2020-06-01T15:02:20.000Z</time>
      </trkpt>
      <trkpt lat="47.19013" lon="-1.57971">
        <ele>53</ele>
        <time>2020-06-01T15:02:22.000Z</time>
      </trkpt>
      <trkpt lat="47.19019" lon="-1.57954">
        <ele>53</ele>
        <time>2020-06-01T15:02:24.000Z</time>
      </trkpt>
      <trkpt lat="47.19026" lon="-1.57937">
        <ele>53</ele>
        <time>2020-06-01T15:02:26.000Z</time>
      </trkpt>
      <trkpt lat="47.19032" lon="-1.57919">
        <ele>53</ele>
        <time>2020-06-01T15:02:28.000Z</time>
      </trkpt>
      <trkpt lat="47.19038" lon="-1.57902">
        <ele>53</ele>
        <time>2020-06-01T15:02:30.000Z</time>
      </trkpt>
      <trkpt lat="47.19044" lon="-1.57885">
        <ele>53</ele>
        <time>2020-06-01T15:02:32.000Z</time>
      </trkpt>
      <trkpt lat="47.1905" lon="-1.57867">
        <ele>53</ele>
        <time>2020-06-01T15:02:34.000Z</time>
      </trkpt>
      <trkpt lat="47.19057" lon="-1.5785">
        <ele>53</ele>
        <time>2020-06-01T15:02:36.000Z</time>
      </trkpt>
      <trkpt lat="47.19063" lon="-1.57831">
        <ele>53</ele>
        <time>2020-06-01T15:02:38.000Z</time>
      </trkpt>
      <trkpt lat="47.19069" lon="-1.57813">
        <ele>53</ele>
        <time>2020-06-01T15:02:40.000Z</time>
      </trkpt>
      <trkpt lat="47.19075" lon="-1.57796">
        <ele>53</ele>
        <time>2020-06-01T15:02:42.000Z</time>
      </trkpt>
      <trkpt lat="47.19082" lon="-1.57778">
        <ele>53</ele>
        <time>2020-06-01T15:02:44.000Z</time>
      </trkpt>
      <trkpt lat="47.19088" lon="-1.57761">
        <ele>53</ele>
        <time>2020-06-01T15:02:46.000Z</time>
      </trkpt>
      <trkpt lat="47.19094" lon="-1.57744">
        <ele>54</ele>
        <time>2020-06-01T15:02:48.000Z</time>
      </trkpt>
      <trkpt lat="47.191" lon="-1.57726">
        <ele>54</ele>
        <time>2020-06-01T15:02:50.000Z</time>
      </trkpt>
      <trkpt lat="47.19106" lon="-1.57708">
        <ele>53</ele>
        <time>2020-06-01T15:02:52.000Z</time>
      </trkpt>
      <trkpt lat="47.19112" lon="-1.57691">
        <ele>53</ele>
        <time>2020-06-01T15:02:54.000Z</time>
      </trkpt>
      <trkpt lat="47.19119" lon="-1.57673">
        <ele>53</ele>
        <time>2020-06-01T15:02:56.000Z</time>
      </trkpt>
      <trkpt lat="47.19125" lon="-1.57656">
        <ele>53</ele>
        <time>2020-06-01T15:02:58.000Z</time>
      </trkpt>
      <trkpt lat="47.19131" lon="-1.57639">
        <ele>53</ele>
        <time>2020-06-01T15:03:00.000Z</time>
      </trkpt>
      <trkpt lat="47.19137" lon="-1.57622">
        <ele>54</ele>
        <time>2020-06-01T15:03:02.000Z</time>
      </trkpt>
      <trkpt lat="47.19143" lon="-1.57604">
        <ele>54</ele>
        <time>2020-06-01T15:03:04.000Z</time>
      </trkpt>
      <trkpt lat="47.1915" lon="-1.57587">
        <ele>54</ele>
        <time>2020-06-01T15:03:06.000Z</time>
      </trkpt>
      <trkpt lat="47.19156" lon="-1.5757">
        <ele>53</ele>
        <time>2020-06-01T15:03:08.000Z</time>
      </trkpt>
      <trkpt lat="47.19162" lon="-1.57553">
        <ele>53</ele>
        <time>2020-06-01T15:03:10.000Z</time>
      </trkpt>
      <trkpt lat="47.19168" lon="-1.57536">
        <ele>53</ele>
        <time>2020-06-01T15:03:12.000Z</time>
      </trkpt>
      <trkpt lat="47.19174" lon="-1.57518">
        <ele>54</ele>
        <time>2020-06-01T15:03:14.000Z</time>
      </trkpt>
      <trkpt lat="47.1918" lon="-1.575">
        <ele>53</ele>
        <time>2020-06-01T15:03:16.000Z</time>
      </trkpt>
      <trkpt lat="47.19185" lon="-1.57482">
        <ele>54</ele>
        <time>2020-06-01T15:03:18.000Z</time>
      </trkpt>
      <trkpt lat="47.1919" lon="-1.57465">
        <ele>54</ele>
        <time>2020-06-01T15:03:20.000Z</time>
      </trkpt>
      <trkpt lat="47.19195" lon="-1.57446">
        <ele>54</ele>
        <time>2020-06-01T15:03:22.000Z</time>
      </trkpt>
      <trkpt lat="47.192" lon="-1.57428">
        <ele>55</ele>
        <time>2020-06-01T15:03:24.000Z</time>
      </trkpt>
      <trkpt lat="47.19205" lon="-1.57411">
        <ele>55</ele>
        <time>2020-06-01T15:03:26.000Z</time>
      </trkpt>
      <trkpt lat="47.1921" lon="-1.57393">
        <ele>55</ele>
        <time>2020-06-01T15:03:28.000Z</time>
      </trkpt>
      <trkpt lat="47.19215" lon="-1.57375">
        <ele>55</ele>
        <time>2020-06-01T15:03:30.000Z</time>
      </trkpt>
      <trkpt lat="47.1922" lon="-1.57357">
        <ele>54</ele>
        <time>2020-06-01T15:03:32.000Z</time>
      </trkpt>
      <trkpt lat="47.19223" lon="-1.57338">
        <ele>55</ele>
        <time>2020-06-01T15:03:34.000Z</time>
      </trkpt>
      <trkpt lat="47.19226" lon="-1.5732">
        <ele>54</ele>
        <time>2020-06-01T15:03:36.000Z</time>
      </trkpt>
      <trkpt lat="47.19229" lon="-1.57301">
        <ele>54</ele>
        <time>2020-06-01T15:03:38.000Z</time>
      </trkpt>
      <trkpt lat="47.19233" lon="-1.57282">
        <ele>54</ele>
        <time>2020-06-01T15:03:40.000Z</time>
      </trkpt>
      <trkpt lat="47.19236" lon="-1.57263">
        <ele>54</ele>
        <time>2020-06-01T15:03:42.000Z</time>
      </trkpt>
      <trkpt lat="47.19239" lon="-1.57243">
        <ele>54</ele>
        <time>2020-06-01T15:03:44.000Z</time>
      </trkpt>
      <trkpt lat="47.19242" lon="-1.57225">
        <ele>53</ele>
        <time>2020-06-01T15:03:46.000Z</time>
      </trkpt>
      <trkpt lat="47.19244" lon="-1.57206">
        <ele>54</ele>
        <time>2020-06-01T15:03:48.000Z</time>
      </trkpt>
      <trkpt lat="47.19247" lon="-1.57188">
        <ele>53</ele>
        <time>2020-06-01T15:03:50.000Z</time>
      </trkpt>
      <trkpt lat="47.19249" lon="-1.57169">
        <ele>53</ele>
        <time>2020-06-01T15:03:52.000Z</time>
      </trkpt>
      <trkpt lat="47.19252" lon="-1.5715">
        <ele>53</ele>
        <time>2020-06-01T15:03:54.000Z</time>
      </trkpt>
      <trkpt lat="47.19255" lon="-1.57132">
        <ele>53</ele>
        <time>2020-06-01T15:03:56.000Z</time>
      </trkpt>
      <trkpt lat="47.19257" lon="-1.57113">
        <ele>53</ele>
        <time>2020-06-01T15:03:58.000Z</time>
      </trkpt>
      <trkpt lat="47.1926" lon="-1.57096">
        <ele>52</ele>
        <time>2020-06-01T15:04:00.000Z</time>
      </trkpt>
      <trkpt lat="47.1926" lon="-1.57078">
        <ele>52</ele>
        <time>2020-06-01T15:04:02.000Z</time>
      </trkpt>
      <trkpt lat="47.19256" lon="-1.5706">
        <ele>52</ele>
        <time>2020-06-01T15:04:04.000Z</time>
      </trkpt>
      <trkpt lat="47.19254" lon="-1.57042">
        <ele>53</ele>
        <time>2020-06-01T15:04:06.000Z</time>
      </trkpt>
      <trkpt lat="47.19263" lon="-1.57025">
        <ele>53</ele>
        <time>2020-06-01T15:04:08.000Z</time>
      </trkpt>
      <trkpt lat="47.19269" lon="-1.57009">
        <ele>54</ele>
        <time>2020-06-01T15:04:10.000Z</time>
      </trkpt>
      <trkpt lat="47.19271" lon="-1.56989">
        <ele>53</ele>
        <time>2020-06-01T15:04:12.000Z</time>
      </trkpt>
      <trkpt lat="47.19274" lon="-1.5697">
        <ele>53</ele>
        <time>2020-06-01T15:04:14.000Z</time>
      </trkpt>
      <trkpt lat="47.19275" lon="-1.5695">
        <ele>54</ele>
        <time>2020-06-01T15:04:16.000Z</time>
      </trkpt>
      <trkpt lat="47.19276" lon="-1.56932">
        <ele>54</ele>
        <time>2020-06-01T15:04:18.000Z</time>
      </trkpt>
      <trkpt lat="47.19277" lon="-1.56913">
        <ele>54</ele>
        <time>2020-06-01T15:04:20.000Z</time>
      </trkpt>
      <trkpt lat="47.19279" lon="-1.56893">
        <ele>54</ele>
        <time>2020-06-01T15:04:22.000Z</time>
      </trkpt>
      <trkpt lat="47.19281" lon="-1.56874">
        <ele>54</ele>
        <time>2020-06-01T15:04:24.000Z</time>
      </trkpt>
      <trkpt lat="47.19283" lon="-1.56855">
        <ele>54</ele>
        <time>2020-06-01T15:04:26.000Z</time>
      </trkpt>
      <trkpt lat="47.19285" lon="-1.56835">
        <ele>53</ele>
        <time>2020-06-01T15:04:28.000Z</time>
      </trkpt>
      <trkpt lat="47.19287" lon="-1.56817">
        <ele>53</ele>
        <time>2020-06-01T15:04:30.000Z</time>
      </trkpt>
      <trkpt lat="47.19288" lon="-1.56798">
        <ele>53</ele>
        <time>2020-06-01T15:04:32.000Z</time>
      </trkpt>
      <trkpt lat="47.19288" lon="-1.5678">
        <ele>53</ele>
        <time>2020-06-01T15:04:34.000Z</time>
      </trkpt>
      <trkpt lat="47.19288" lon="-1.56762">
        <ele>54</ele>
        <time>2020-06-01T15:04:36.000Z</time>
      </trkpt>
      <trkpt lat="47.19289" lon="-1.56743">
        <ele>54</ele>
        <time>2020-06-01T15:04:38.000Z</time>
      </trkpt>
      <trkpt lat="47.19289" lon="-1.56725">
        <ele>54</ele>
        <time>2020-06-01T15:04:40.000Z</time>
      </trkpt>
      <trkpt lat="47.19288" lon="-1.56707">
        <ele>54</ele>
        <time>2020-06-01T15:04:42.000Z</time>
      </trkpt>
      <trkpt lat="47.19288" lon="-1.56687">
        <ele>54</ele>
        <time>2020-06-01T15:04:44.000Z</time>
      </trkpt>
      <trkpt lat="47.19287" lon="-1.56668">
        <ele>53</ele>
        <time>2020-06-01T15:04:46.000Z</time>
      </trkpt>
      <trkpt lat="47.19285" lon="-1.56649">
        <ele>53</ele>
        <time>2020-06-01T15:04:48.000Z</time>
      </trkpt>
      <trkpt lat="47.19283" lon="-1.5663">
        <ele>54</ele>
        <time>2020-06-01T15:04:50.000Z</time>
      </trkpt>
      <trkpt lat="47.19282" lon="-1.56612">
        <ele>54</ele>
        <time>2020-06-01T15:04:52.000Z</time>
      </trkpt>
      <trkpt lat="47.1928" lon="-1.56594">
        <ele>54</ele>
        <time>2020-06-01T15:04:54.000Z</time>
      </trkpt>
      <trkpt lat="47.19278" lon="-1.56576">
        <ele>54</ele>
        <time>2020-06-01T15:04:56.000Z</time>
      </trkpt>
      <trkpt lat="47.19277" lon="-1.56557">
        <ele>54</ele>
        <time>2020-06-01T15:04:58.000Z</time>
      </trkpt>
      <trkpt lat="47.19275" lon="-1.56538">
        <ele>54</ele>
        <time>2020-06-01T15:05:00.000Z</time>
      </trkpt>
      <trkpt lat="47.19272" lon="-1.5652">
        <ele>54</ele>
        <time>2020-06-01T15:05:02.000Z</time>
      </trkpt>
      <trkpt lat="47.1927" lon="-1.56501">
        <ele>54</ele>
        <time>2020-06-01T15:05:04.000Z</time>
      </trkpt>
      <trkpt lat="47.19268" lon="-1.56482">
        <ele>54</ele>
        <time>2020-06-01T15:05:06.000Z</time>
      </trkpt>
      <trkpt lat="47.19265" lon="-1.56464">
        <ele>54</ele>
        <time>2020-06-01T15:05:08.000Z</time>
      </trkpt>
      <trkpt lat="47.19264" lon="-1.56445">
        <ele>54</ele>
        <time>2020-06-01T15:05:10.000Z</time>
      </trkpt>
      <trkpt lat="47.19263" lon="-1.56427">
        <ele>54</ele>
        <time>2020-06-01T15:05:12.000Z</time>
      </trkpt>
      <trkpt lat="47.19262" lon="-1.56408">
        <ele>54</ele>
        <time>2020-06-01T15:05:14.000Z</time>
      </trkpt>
      <trkpt lat="47.1926" lon="-1.5639">
        <ele>54</ele>
        <time>2020-06-01T15:05:16.000Z</time>
      </trkpt>
      <trkpt lat="47.19258" lon="-1.56372">
        <ele>54</ele>
        <time>2020-06-01T15:05:18.000Z</time>
      </trkpt>
      <trkpt lat="47.19254" lon="-1.56354">
        <ele>54</ele>
        <time>2020-06-01T15:05:20.000Z</time>
      </trkpt>
      <trkpt lat="47.1925" lon="-1.56337">
        <ele>54</ele>
        <time>2020-06-01T15:05:22.000Z</time>
      </trkpt>
      <trkpt lat="47.19242" lon="-1.56323">
        <ele>54</ele>
        <time>2020-06-01T15:05:24.000Z</time>
      </trkpt>
      <trkpt lat="47.19235" lon="-1.56309">
        <ele>54</ele>
        <time>2020-06-01T15:05:26.000Z</time>
      </trkpt>
      <trkpt lat="47.19233" lon="-1.56292">
        <ele>55</ele>
        <time>2020-06-01T15:05:28.000Z</time>
      </trkpt>
      <trkpt lat="47.19235" lon="-1.56272">
        <ele>54</ele>
        <time>2020-06-01T15:05:30.000Z</time>
      </trkpt>
      <trkpt lat="47.19242" lon="-1.56254">
        <ele>54</ele>
        <time>2020-06-01T15:05:32.000Z</time>
      </trkpt>
      <trkpt lat="47.19243" lon="-1.56235">
        <ele>54</ele>
        <time>2020-06-01T15:05:34.000Z</time>
      </trkpt>
      <trkpt lat="47.19241" lon="-1.56216">
        <ele>54</ele>
        <time>2020-06-01T15:05:36.000Z</time>
      </trkpt>
      <trkpt lat="47.19242" lon="-1.56197">
        <ele>54</ele>
        <time>2020-06-01T15:05:38.000Z</time>
      </trkpt>
      <trkpt lat="47.19242" lon="-1.56177">
        <ele>54</ele>
        <time>2020-06-01T15:05:40.000Z</time>
      </trkpt>
      <trkpt lat="47.19242" lon="-1.56158">
        <ele>53</ele>
        <time>2020-06-01T15:05:42.000Z</time>
      </trkpt>
      <trkpt lat="47.19241" lon="-1.56139">
        <ele>54</ele>
        <time>2020-06-01T15:05:44.000Z</time>
      </trkpt>
      <trkpt lat="47.19241" lon="-1.5612">
        <ele>54</ele>
        <time>2020-06-01T15:05:46.000Z</time>
      </trkpt>
      <trkpt lat="47.1924" lon="-1.56101">
        <ele>54</ele>
        <time>2020-06-01T15:05:48.000Z</time>
      </trkpt>
      <trkpt lat="47.19239" lon="-1.56082">
        <ele>54</ele>
        <time>2020-06-01T15:05:50.000Z</time>
      </trkpt>
      <trkpt lat="47.19238" lon="-1.56064">
        <ele>54</ele>
        <time>2020-06-01T15:05:52.000Z</time>
      </trkpt>
      <trkpt lat="47.19236" lon="-1.56046">
        <ele>54</ele>
        <time>2020-06-01T15:05:54.000Z</time>
      </trkpt>
      <trkpt lat="47.19235" lon="-1.56028">
        <ele>54</ele>
        <time>2020-06-01T15:05:56.000Z</time>
      </trkpt>
      <trkpt lat="47.19233" lon="-1.56009">
        <ele>54</ele>
        <time>2020-06-01T15:05:58.000Z</time>
      </trkpt>
      <trkpt lat="47.19231" lon="-1.55991">
        <ele>54</ele>
        <time>2020-06-01T15:06:00.000Z</time>
      </trkpt>
      <trkpt lat="47.19229" lon="-1.55973">
        <ele>54</ele>
        <time>2020-06-01T15:06:02.000Z</time>
      </trkpt>
      <trkpt lat="47.19227" lon="-1.55956">
        <ele>54</ele>
        <time>2020-06-01T15:06:04.000Z</time>
      </trkpt>
      <trkpt lat="47.19225" lon="-1.55939">
        <ele>54</ele>
        <time>2020-06-01T15:06:06.000Z</time>
      </trkpt>
      <trkpt lat="47.19223" lon="-1.55922">
        <ele>54</ele>
        <time>2020-06-01T15:06:08.000Z</time>
      </trkpt>
      <trkpt lat="47.19222" lon="-1.55903">
        <ele>54</ele>
        <time>2020-06-01T15:06:10.000Z</time>
      </trkpt>
      <trkpt lat="47.1922" lon="-1.55884">
        <ele>54</ele>
        <time>2020-06-01T15:06:12.000Z</time>
      </trkpt>
      <trkpt lat="47.19219" lon="-1.55866">
        <ele>55</ele>
        <time>2020-06-01T15:06:14.000Z</time>
      </trkpt>
      <trkpt lat="47.19218" lon="-1.55847">
        <ele>55</ele>
        <time>2020-06-01T15:06:16.000Z</time>
      </trkpt>
      <trkpt lat="47.19217" lon="-1.55828">
        <ele>55</ele>
        <time>2020-06-01T15:06:18.000Z</time>
      </trkpt>
      <trkpt lat="47.19216" lon="-1.55809">
        <ele>56</ele>
        <time>2020-06-01T15:06:20.000Z</time>
      </trkpt>
      <trkpt lat="47.19215" lon="-1.55791">
        <ele>56</ele>
        <time>2020-06-01T15:06:22.000Z</time>
      </trkpt>
      <trkpt lat="47.19214" lon="-1.55773">
        <ele>56</ele>
        <time>2020-06-01T15:06:24.000Z</time>
      </trkpt>
      <trkpt lat="47.19214" lon="-1.55755">
        <ele>56</ele>
        <time>2020-06-01T15:06:26.000Z</time>
      </trkpt>
      <trkpt lat="47.19214" lon="-1.55736">
        <ele>55</ele>
        <time>2020-06-01T15:06:28.000Z</time>
      </trkpt>
      <trkpt lat="47.19215" lon="-1.55718">
        <ele>55</ele>
        <time>2020-06-01T15:06:30.000Z</time>
      </trkpt>
      <trkpt lat="47.19216" lon="-1.55701">
        <ele>55</ele>
        <time>2020-06-01T15:06:32.000Z</time>
      </trkpt>
      <trkpt lat="47.19216" lon="-1.55683">
        <ele>55</ele>
        <time>2020-06-01T15:06:34.000Z</time>
      </trkpt>
      <trkpt lat="47.19218" lon="-1.55665">
        <ele>55</ele>
        <time>2020-06-01T15:06:36.000Z</time>
      </trkpt>
      <trkpt lat="47.19218" lon="-1.55647">
        <ele>55</ele>
        <time>2020-06-01T15:06:38.000Z</time>
      </trkpt>
      <trkpt lat="47.19219" lon="-1.55628">
        <ele>55</ele>
        <time>2020-06-01T15:06:40.000Z</time>
      </trkpt>
      <trkpt lat="47.1922" lon="-1.5561">
        <ele>56</ele>
        <time>2020-06-01T15:06:42.000Z</time>
      </trkpt>
      <trkpt lat="47.19222" lon="-1.55592">
        <ele>55</ele>
        <time>2020-06-01T15:06:44.000Z</time>
      </trkpt>
      <trkpt lat="47.19224" lon="-1.55573">
        <ele>55</ele>
        <time>2020-06-01T15:06:46.000Z</time>
      </trkpt>
      <trkpt lat="47.19226" lon="-1.55554">
        <ele>55</ele>
        <time>2020-06-01T15:06:48.000Z</time>
      </trkpt>
      <trkpt lat="47.19228" lon="-1.55536">
        <ele>55</ele>
        <time>2020-06-01T15:06:50.000Z</time>
      </trkpt>
      <trkpt lat="47.19229" lon="-1.55519">
        <ele>56</ele>
        <time>2020-06-01T15:06:52.000Z</time>
      </trkpt>
      <trkpt lat="47.19229" lon="-1.55501">
        <ele>55</ele>
        <time>2020-06-01T15:06:54.000Z</time>
      </trkpt>
      <trkpt lat="47.19228" lon="-1.55484">
        <ele>55</ele>
        <time>2020-06-01T15:06:56.000Z</time>
      </trkpt>
      <trkpt lat="47.19223" lon="-1.55467">
        <ele>55</ele>
        <time>2020-06-01T15:06:58.000Z</time>
      </trkpt>
      <trkpt lat="47.19214" lon="-1.55452">
        <ele>55</ele>
        <time>2020-06-01T15:07:00.000Z</time>
      </trkpt>
      <trkpt lat="47.19212" lon="-1.55433">
        <ele>55</ele>
        <time>2020-06-01T15:07:02.000Z</time>
      </trkpt>
      <trkpt lat="47.19218" lon="-1.55414">
        <ele>54</ele>
        <time>2020-06-01T15:07:04.000Z</time>
      </trkpt>
      <trkpt lat="47.19229" lon="-1.55402">
        <ele>55</ele>
        <time>2020-06-01T15:07:06.000Z</time>
      </trkpt>
      <trkpt lat="47.19237" lon="-1.55388">
        <ele>55</ele>
        <time>2020-06-01T15:07:08.000Z</time>
      </trkpt>
      <trkpt lat="47.19243" lon="-1.55371">
        <ele>55</ele>
        <time>2020-06-01T15:07:10.000Z</time>
      </trkpt>
      <trkpt lat="47.19248" lon="-1.55354">
        <ele>56</ele>
        <time>2020-06-01T15:07:12.000Z</time>
      </trkpt>
      <trkpt lat="47.19253" lon="-1.55336">
        <ele>56</ele>
        <time>2020-06-01T15:07:14.000Z</time>
      </trkpt>
      <trkpt lat="47.19257" lon="-1.55318">
        <ele>56</ele>
        <time>2020-06-01T15:07:16.000Z</time>
      </trkpt>
      <trkpt lat="47.19261" lon="-1.55299">
        <ele>56</ele>
        <time>2020-06-01T15:07:18.000Z</time>
      </trkpt>
      <trkpt lat="47.19265" lon="-1.5528">
        <ele>57</ele>
        <time>2020-06-01T15:07:20.000Z</time>
      </trkpt>
      <trkpt lat="47.19269" lon="-1.55262">
        <ele>57</ele>
        <time>2020-06-01T15:07:22.000Z</time>
      </trkpt>
      <trkpt lat="47.19272" lon="-1.55244">
        <ele>57</ele>
        <time>2020-06-01T15:07:24.000Z</time>
      </trkpt>
      <trkpt lat="47.19276" lon="-1.55226">
        <ele>57</ele>
        <time>2020-06-01T15:07:26.000Z</time>
      </trkpt>
      <trkpt lat="47.19281" lon="-1.55208">
        <ele>57</ele>
        <time>2020-06-01T15:07:28.000Z</time>
      </trkpt>
      <trkpt lat="47.19286" lon="-1.55191">
        <ele>57</ele>
        <time>2020-06-01T15:07:30.000Z</time>
      </trkpt>
      <trkpt lat="47.19291" lon="-1.55174">
        <ele>57</ele>
        <time>2020-06-01T15:07:32.000Z</time>
      </trkpt>
      <trkpt lat="47.19295" lon="-1.55157">
        <ele>57</ele>
        <time>2020-06-01T15:07:34.000Z</time>
      </trkpt>
      <trkpt lat="47.193" lon="-1.5514">
        <ele>58</ele>
        <time>2020-06-01T15:07:36.000Z</time>
      </trkpt>
      <trkpt lat="47.19303" lon="-1.55123">
        <ele>58</ele>
        <time>2020-06-01T15:07:38.000Z</time>
      </trkpt>
      <trkpt lat="47.19307" lon="-1.55107">
        <ele>58</ele>
        <time>2020-06-01T15:07:40.000Z</time>
      </trkpt>
      <trkpt lat="47.19312" lon="-1.55091">
        <ele>59</ele>
        <time>2020-06-01T15:07:42.000Z</time>
      </trkpt>
      <trkpt lat="47.19316" lon="-1.55074">
        <ele>60</ele>
        <time>2020-06-01T15:07:44.000Z</time>
      </trkpt>
      <trkpt lat="47.1932" lon="-1.55057">
        <ele>60</ele>
        <time>2020-06-01T15:07:46.000Z</time>
      </trkpt>
      <trkpt lat="47.19325" lon="-1.55041">
        <ele>60</ele>
        <time>2020-06-01T15:07:48.000Z</time>
      </trkpt>
      <trkpt lat="47.19329" lon="-1.55024">
        <ele>61</ele>
        <time>2020-06-01T15:07:50.000Z</time>
      </trkpt>
      <trkpt lat="47.19334" lon="-1.55007">
        <ele>61</ele>
        <time>2020-06-01T15:07:52.000Z</time>
      </trkpt>
      <trkpt lat="47.19338" lon="-1.54991">
        <ele>62</ele>
        <time>2020-06-01T15:07:54.000Z</time>
      </trkpt>
      <trkpt lat="47.19341" lon="-1.54976">
        <ele>61</ele>
        <time>2020-06-01T15:07:56.000Z</time>
      </trkpt>
      <trkpt lat="47.19345" lon="-1.5496">
        <ele>62</ele>
        <time>2020-06-01T15:07:58.000Z</time>
      </trkpt>
      <trkpt lat="47.19349" lon="-1.54944">
        <ele>62</ele>
        <time>2020-06-01T15:08:00.000Z</time>
      </trkpt>
      <trkpt lat="47.19354" lon="-1.54928">
        <ele>62</ele>
        <time>2020-06-01T15:08:02.000Z</time>
      </trkpt>
      <trkpt lat="47.19358" lon="-1.54911">
        <ele>62</ele>
        <time>2020-06-01T15:08:04.000Z</time>
      </trkpt>
      <trkpt lat="47.19362" lon="-1.54894">
        <ele>62</ele>
        <time>2020-06-01T15:08:06.000Z</time>
      </trkpt>
      <trkpt lat="47.19365" lon="-1.54876">
        <ele>62</ele>
        <time>2020-06-01T15:08:08.000Z</time>
      </trkpt>
      <trkpt lat="47.19369" lon="-1.54857">
        <ele>62</ele>
        <time>2020-06-01T15:08:10.000Z</time>
      </trkpt>
      <trkpt lat="47.19374" lon="-1.54838">
        <ele>62</ele>
        <time>2020-06-01T15:08:12.000Z</time>
      </trkpt>
      <trkpt lat="47.19378" lon="-1.54818">
        <ele>61</ele>
        <time>2020-06-01T15:08:14.000Z</time>
      </trkpt>
      <trkpt lat="47.19384" lon="-1.54797">
        <ele>61</ele>
        <time>2020-06-01T15:08:16.000Z</time>
      </trkpt>
      <trkpt lat="47.1939" lon="-1.54775">
        <ele>59</ele>
        <time>2020-06-01T15:08:18.000Z</time>
      </trkpt>
      <trkpt lat="47.19395" lon="-1.54751">
        <ele>58</ele>
        <time>2020-06-01T15:08:20.000Z</time>
      </trkpt>
      <trkpt lat="47.19401" lon="-1.54727">
        <ele>57</ele>
        <time>2020-06-01T15:08:22.000Z</time>
      </trkpt>
      <trkpt lat="47.19406" lon="-1.54704">
        <ele>56</ele>
        <time>2020-06-01T15:08:24.000Z</time>
      </trkpt>
      <trkpt lat="47.19413" lon="-1.54681">
        <ele>56</ele>
        <time>2020-06-01T15:08:26.000Z</time>
      </trkpt>
      <trkpt lat="47.19419" lon="-1.5466">
        <ele>56</ele>
        <time>2020-06-01T15:08:28.000Z</time>
      </trkpt>
      <trkpt lat="47.19425" lon="-1.54642">
        <ele>56</ele>
        <time>2020-06-01T15:08:30.000Z</time>
      </trkpt>
      <trkpt lat="47.19428" lon="-1.54626">
        <ele>56</ele>
        <time>2020-06-01T15:08:32.000Z</time>
      </trkpt>
      <trkpt lat="47.19423" lon="-1.54611">
        <ele>56</ele>
        <time>2020-06-01T15:08:34.000Z</time>
      </trkpt>
      <trkpt lat="47.19418" lon="-1.54596">
        <ele>56</ele>
        <time>2020-06-01T15:08:36.000Z</time>
      </trkpt>
      <trkpt lat="47.19423" lon="-1.54578">
        <ele>56</ele>
        <time>2020-06-01T15:08:38.000Z</time>
      </trkpt>
      <trkpt lat="47.19433" lon="-1.54561">
        <ele>56</ele>
        <time>2020-06-01T15:08:40.000Z</time>
      </trkpt>
      <trkpt lat="47.19445" lon="-1.5455">
        <ele>56</ele>
        <time>2020-06-01T15:08:42.000Z</time>
      </trkpt>
      <trkpt lat="47.19451" lon="-1.54534">
        <ele>56</ele>
        <time>2020-06-01T15:08:44.000Z</time>
      </trkpt>
      <trkpt lat="47.19456" lon="-1.5452">
        <ele>56</ele>
        <time>2020-06-01T15:08:46.000Z</time>
      </trkpt>
      <trkpt lat="47.1946" lon="-1.54508">
        <ele>56</ele>
        <time>2020-06-01T15:08:49.000Z</time>
      </trkpt>
      <trkpt lat="47.19465" lon="-1.54491">
        <ele>56</ele>
        <time>2020-06-01T15:08:52.000Z</time>
      </trkpt>
      <trkpt lat="47.19468" lon="-1.54474">
        <ele>56</ele>
        <time>2020-06-01T15:08:55.000Z</time>
      </trkpt>
      <trkpt lat="47.19477" lon="-1.54464">
        <ele>56</ele>
        <time>2020-06-01T15:08:57.000Z</time>
      </trkpt>
      <trkpt lat="47.19488" lon="-1.54455">
        <ele>56</ele>
        <time>2020-06-01T15:08:59.000Z</time>
      </trkpt>
      <trkpt lat="47.19501" lon="-1.54446">
        <ele>56</ele>
        <time>2020-06-01T15:09:01.000Z</time>
      </trkpt>
      <trkpt lat="47.19513" lon="-1.54436">
        <ele>56</ele>
        <time>2020-06-01T15:09:03.000Z</time>
      </trkpt>
      <trkpt lat="47.19525" lon="-1.54427">
        <ele>56</ele>
        <time>2020-06-01T15:09:05.000Z</time>
      </trkpt>
      <trkpt lat="47.19536" lon="-1.54417">
        <ele>56</ele>
        <time>2020-06-01T15:09:07.000Z</time>
      </trkpt>
      <trkpt lat="47.19548" lon="-1.54407">
        <ele>55</ele>
        <time>2020-06-01T15:09:09.000Z</time>
      </trkpt>
      <trkpt lat="47.1956" lon="-1.54398">
        <ele>55</ele>
        <time>2020-06-01T15:09:11.000Z</time>
      </trkpt>
      <trkpt lat="47.19571" lon="-1.5439">
        <ele>55</ele>
        <time>2020-06-01T15:09:13.000Z</time>
      </trkpt>
      <trkpt lat="47.19583" lon="-1.54381">
        <ele>55</ele>
        <time>2020-06-01T15:09:15.000Z</time>
      </trkpt>
      <trkpt lat="47.19595" lon="-1.54371">
        <ele>55</ele>
        <time>2020-06-01T15:09:17.000Z</time>
      </trkpt>
      <trkpt lat="47.19606" lon="-1.54359">
        <ele>55</ele>
        <time>2020-06-01T15:09:19.000Z</time>
      </trkpt>
      <trkpt lat="47.19615" lon="-1.54347">
        <ele>55</ele>
        <time>2020-06-01T15:09:21.000Z</time>
      </trkpt>
      <trkpt lat="47.19624" lon="-1.54334">
        <ele>55</ele>
        <time>2020-06-01T15:09:23.000Z</time>
      </trkpt>
      <trkpt lat="47.19633" lon="-1.54321">
        <ele>55</ele>
        <time>2020-06-01T15:09:25.000Z</time>
      </trkpt>
      <trkpt lat="47.19643" lon="-1.5431">
        <ele>56</ele>
        <time>2020-06-01T15:09:27.000Z</time>
      </trkpt>
      <trkpt lat="47.19653" lon="-1.54301">
        <ele>56</ele>
        <time>2020-06-01T15:09:29.000Z</time>
      </trkpt>
      <trkpt lat="47.19664" lon="-1.54292">
        <ele>56</ele>
        <time>2020-06-01T15:09:31.000Z</time>
      </trkpt>
      <trkpt lat="47.19674" lon="-1.54283">
        <ele>57</ele>
        <time>2020-06-01T15:09:33.000Z</time>
      </trkpt>
      <trkpt lat="47.19685" lon="-1.54276">
        <ele>57</ele>
        <time>2020-06-01T15:09:35.000Z</time>
      </trkpt>
      <trkpt lat="47.19697" lon="-1.54268">
        <ele>57</ele>
        <time>2020-06-01T15:09:37.000Z</time>
      </trkpt>
      <trkpt lat="47.19708" lon="-1.54259">
        <ele>56</ele>
        <time>2020-06-01T15:09:39.000Z</time>
      </trkpt>
      <trkpt lat="47.19719" lon="-1.54251">
        <ele>57</ele>
        <time>2020-06-01T15:09:41.000Z</time>
      </trkpt>
      <trkpt lat="47.19729" lon="-1.54242">
        <ele>57</ele>
        <time>2020-06-01T15:09:43.000Z</time>
      </trkpt>
      <trkpt lat="47.19739" lon="-1.54233">
        <ele>58</ele>
        <time>2020-06-01T15:09:45.000Z</time>
      </trkpt>
      <trkpt lat="47.19749" lon="-1.54223">
        <ele>57</ele>
        <time>2020-06-01T15:09:47.000Z</time>
      </trkpt>
      <trkpt lat="47.19758" lon="-1.54213">
        <ele>57</ele>
        <time>2020-06-01T15:09:49.000Z</time>
      </trkpt>
      <trkpt lat="47.19768" lon="-1.54203">
        <ele>57</ele>
        <time>2020-06-01T15:09:51.000Z</time>
      </trkpt>
      <trkpt lat="47.19779" lon="-1.54198">
        <ele>57</ele>
        <time>2020-06-01T15:09:53.000Z</time>
      </trkpt>
      <trkpt lat="47.19785" lon="-1.54183">
        <ele>57</ele>
        <time>2020-06-01T15:09:55.000Z</time>
      </trkpt>
      <trkpt lat="47.19788" lon="-1.54165">
        <ele>57</ele>
        <time>2020-06-01T15:09:57.000Z</time>
      </trkpt>
      <trkpt lat="47.19792" lon="-1.54147">
        <ele>57</ele>
        <time>2020-06-01T15:09:59.000Z</time>
      </trkpt>
      <trkpt lat="47.19796" lon="-1.54131">
        <ele>57</ele>
        <time>2020-06-01T15:10:01.000Z</time>
      </trkpt>
      <trkpt lat="47.19804" lon="-1.54115">
        <ele>56</ele>
        <time>2020-06-01T15:10:03.000Z</time>
      </trkpt>
      <trkpt lat="47.19816" lon="-1.54105">
        <ele>55</ele>
        <time>2020-06-01T15:10:05.000Z</time>
      </trkpt>
      <trkpt lat="47.19826" lon="-1.54091">
        <ele>54</ele>
        <time>2020-06-01T15:10:07.000Z</time>
      </trkpt>
      <trkpt lat="47.19832" lon="-1.54075">
        <ele>54</ele>
        <time>2020-06-01T15:10:09.000Z</time>
      </trkpt>
      <trkpt lat="47.19842" lon="-1.54059">
        <ele>54</ele>
        <time>2020-06-01T15:10:11.000Z</time>
      </trkpt>
      <trkpt lat="47.19849" lon="-1.5404">
        <ele>54</ele>
        <time>2020-06-01T15:10:13.000Z</time>
      </trkpt>
      <trkpt lat="47.19855" lon="-1.5402">
        <ele>54</ele>
        <time>2020-06-01T15:10:15.000Z</time>
      </trkpt>
      <trkpt lat="47.19861" lon="-1.54001">
        <ele>54</ele>
        <time>2020-06-01T15:10:17.000Z</time>
      </trkpt>
      <trkpt lat="47.19867" lon="-1.53982">
        <ele>54</ele>
        <time>2020-06-01T15:10:19.000Z</time>
      </trkpt>
      <trkpt lat="47.19873" lon="-1.53963">
        <ele>53</ele>
        <time>2020-06-01T15:10:21.000Z</time>
      </trkpt>
      <trkpt lat="47.19878" lon="-1.53943">
        <ele>53</ele>
        <time>2020-06-01T15:10:23.000Z</time>
      </trkpt>
      <trkpt lat="47.19883" lon="-1.53924">
        <ele>52</ele>
        <time>2020-06-01T15:10:25.000Z</time>
      </trkpt>
      <trkpt lat="47.19887" lon="-1.53903">
        <ele>52</ele>
        <time>2020-06-01T15:10:27.000Z</time>
      </trkpt>
      <trkpt lat="47.19892" lon="-1.53884">
        <ele>52</ele>
        <time>2020-06-01T15:10:29.000Z</time>
      </trkpt>
      <trkpt lat="47.19896" lon="-1.53866">
        <ele>52</ele>
        <time>2020-06-01T15:10:31.000Z</time>
      </trkpt>
      <trkpt lat="47.199" lon="-1.53847">
        <ele>52</ele>
        <time>2020-06-01T15:10:33.000Z</time>
      </trkpt>
      <trkpt lat="47.19905" lon="-1.53829">
        <ele>53</ele>
        <time>2020-06-01T15:10:35.000Z</time>
      </trkpt>
      <trkpt lat="47.19908" lon="-1.53813">
        <ele>53</ele>
        <time>2020-06-01T15:10:37.000Z</time>
      </trkpt>
      <trkpt lat="47.19911" lon="-1.53794">
        <ele>53</ele>
        <time>2020-06-01T15:10:39.000Z</time>
      </trkpt>
      <trkpt lat="47.19915" lon="-1.53773">
        <ele>53</ele>
        <time>2020-06-01T15:10:41.000Z</time>
      </trkpt>
      <trkpt lat="47.19918" lon="-1.53754">
        <ele>52</ele>
        <time>2020-06-01T15:10:43.000Z</time>
      </trkpt>
      <trkpt lat="47.19925" lon="-1.53733">
        <ele>52</ele>
        <time>2020-06-01T15:10:45.000Z</time>
      </trkpt>
      <trkpt lat="47.1993" lon="-1.53713">
        <ele>52</ele>
        <time>2020-06-01T15:10:47.000Z</time>
      </trkpt>
      <trkpt lat="47.19934" lon="-1.53694">
        <ele>52</ele>
        <time>2020-06-01T15:10:49.000Z</time>
      </trkpt>
      <trkpt lat="47.19939" lon="-1.53675">
        <ele>52</ele>
        <time>2020-06-01T15:10:51.000Z</time>
      </trkpt>
      <trkpt lat="47.19943" lon="-1.53657">
        <ele>52</ele>
        <time>2020-06-01T15:10:53.000Z</time>
      </trkpt>
      <trkpt lat="47.19947" lon="-1.53639">
        <ele>52</ele>
        <time>2020-06-01T15:10:55.000Z</time>
      </trkpt>
      <trkpt lat="47.19951" lon="-1.5362">
        <ele>52</ele>
        <time>2020-06-01T15:10:57.000Z</time>
      </trkpt>
      <trkpt lat="47.19955" lon="-1.53602">
        <ele>52</ele>
        <time>2020-06-01T15:10:59.000Z</time>
      </trkpt>
      <trkpt lat="47.1996" lon="-1.53583">
        <ele>53</ele>
        <time>2020-06-01T15:11:01.000Z</time>
      </trkpt>
      <trkpt lat="47.19965" lon="-1.53565">
        <ele>53</ele>
        <time>2020-06-01T15:11:03.000Z</time>
      </trkpt>
      <trkpt lat="47.1997" lon="-1.53547">
        <ele>52</ele>
        <time>2020-06-01T15:11:05.000Z</time>
      </trkpt>
      <trkpt lat="47.19975" lon="-1.5353">
        <ele>52</ele>
        <time>2020-06-01T15:11:07.000Z</time>
      </trkpt>
      <trkpt lat="47.19979" lon="-1.53513">
        <ele>52</ele>
        <time>2020-06-01T15:11:09.000Z</time>
      </trkpt>
      <trkpt lat="47.19981" lon="-1.53497">
        <ele>53</ele>
        <time>2020-06-01T15:11:11.000Z</time>
      </trkpt>
      <trkpt lat="47.19985" lon="-1.5348">
        <ele>53</ele>
        <time>2020-06-01T15:11:13.000Z</time>
      </trkpt>
      <trkpt lat="47.19997" lon="-1.53472">
        <ele>53</ele>
        <time>2020-06-01T15:11:15.000Z</time>
      </trkpt>
      <trkpt lat="47.2001" lon="-1.53474">
        <ele>52</ele>
        <time>2020-06-01T15:11:17.000Z</time>
      </trkpt>
      <trkpt lat="47.2002" lon="-1.53461">
        <ele>52</ele>
        <time>2020-06-01T15:11:19.000Z</time>
      </trkpt>
      <trkpt lat="47.20028" lon="-1.53445">
        <ele>52</ele>
        <time>2020-06-01T15:11:21.000Z</time>
      </trkpt>
      <trkpt lat="47.20034" lon="-1.53428">
        <ele>52</ele>
        <time>2020-06-01T15:11:23.000Z</time>
      </trkpt>
      <trkpt lat="47.20041" lon="-1.53411">
        <ele>52</ele>
        <time>2020-06-01T15:11:25.000Z</time>
      </trkpt>
      <trkpt lat="47.20047" lon="-1.53395">
        <ele>53</ele>
        <time>2020-06-01T15:11:27.000Z</time>
      </trkpt>
      <trkpt lat="47.20053" lon="-1.5338">
        <ele>52</ele>
        <time>2020-06-01T15:11:29.000Z</time>
      </trkpt>
      <trkpt lat="47.2006" lon="-1.53367">
        <ele>52</ele>
        <time>2020-06-01T15:11:31.000Z</time>
      </trkpt>
      <trkpt lat="47.20068" lon="-1.53359">
        <ele>53</ele>
        <time>2020-06-01T15:11:33.000Z</time>
      </trkpt>
      <trkpt lat="47.20078" lon="-1.53344">
        <ele>53</ele>
        <time>2020-06-01T15:11:36.000Z</time>
      </trkpt>
      <trkpt lat="47.20082" lon="-1.53332">
        <ele>53</ele>
        <time>2020-06-01T15:11:38.000Z</time>
      </trkpt>
      <trkpt lat="47.20087" lon="-1.53319">
        <ele>54</ele>
        <time>2020-06-01T15:11:40.000Z</time>
      </trkpt>
      <trkpt lat="47.20093" lon="-1.53302">
        <ele>54</ele>
        <time>2020-06-01T15:11:42.000Z</time>
      </trkpt>
      <trkpt lat="47.201" lon="-1.53284">
        <ele>54</ele>
        <time>2020-06-01T15:11:44.000Z</time>
      </trkpt>
      <trkpt lat="47.20105" lon="-1.53267">
        <ele>54</ele>
        <time>2020-06-01T15:11:46.000Z</time>
      </trkpt>
      <trkpt lat="47.2011" lon="-1.53251">
        <ele>54</ele>
        <time>2020-06-01T15:11:48.000Z</time>
      </trkpt>
      <trkpt lat="47.20115" lon="-1.53235">
        <ele>55</ele>
        <time>2020-06-01T15:11:50.000Z</time>
      </trkpt>
      <trkpt lat="47.20118" lon="-1.53214">
        <ele>55</ele>
        <time>2020-06-01T15:11:52.000Z</time>
      </trkpt>
      <trkpt lat="47.20122" lon="-1.53194">
        <ele>55</ele>
        <time>2020-06-01T15:11:54.000Z</time>
      </trkpt>
      <trkpt lat="47.20127" lon="-1.53174">
        <ele>55</ele>
        <time>2020-06-01T15:11:56.000Z</time>
      </trkpt>
      <trkpt lat="47.20134" lon="-1.53155">
        <ele>55</ele>
        <time>2020-06-01T15:11:58.000Z</time>
      </trkpt>
      <trkpt lat="47.20141" lon="-1.53137">
        <ele>55</ele>
        <time>2020-06-01T15:12:00.000Z</time>
      </trkpt>
      <trkpt lat="47.20149" lon="-1.53119">
        <ele>55</ele>
        <time>2020-06-01T15:12:02.000Z</time>
      </trkpt>
      <trkpt lat="47.20158" lon="-1.53102">
        <ele>55</ele>
        <time>2020-06-01T15:12:04.000Z</time>
      </trkpt>
      <trkpt lat="47.20166" lon="-1.53085">
        <ele>55</ele>
        <time>2020-06-01T15:12:06.000Z</time>
      </trkpt>
      <trkpt lat="47.20174" lon="-1.5307">
        <ele>56</ele>
        <time>2020-06-01T15:12:08.000Z</time>
      </trkpt>
      <trkpt lat="47.20183" lon="-1.53055">
        <ele>56</ele>
        <time>2020-06-01T15:12:10.000Z</time>
      </trkpt>
      <trkpt lat="47.20194" lon="-1.53043">
        <ele>55</ele>
        <time>2020-06-01T15:12:12.000Z</time>
      </trkpt>
      <trkpt lat="47.20204" lon="-1.53031">
        <ele>55</ele>
        <time>2020-06-01T15:12:14.000Z</time>
      </trkpt>
      <trkpt lat="47.20214" lon="-1.5302">
        <ele>55</ele>
        <time>2020-06-01T15:12:16.000Z</time>
      </trkpt>
      <trkpt lat="47.20224" lon="-1.53007">
        <ele>55</ele>
        <time>2020-06-01T15:12:18.000Z</time>
      </trkpt>
      <trkpt lat="47.20233" lon="-1.52992">
        <ele>55</ele>
        <time>2020-06-01T15:12:20.000Z</time>
      </trkpt>
      <trkpt lat="47.2024" lon="-1.52975">
        <ele>55</ele>
        <time>2020-06-01T15:12:22.000Z</time>
      </trkpt>
      <trkpt lat="47.20249" lon="-1.52961">
        <ele>55</ele>
        <time>2020-06-01T15:12:24.000Z</time>
      </trkpt>
      <trkpt lat="47.20258" lon="-1.52946">
        <ele>55</ele>
        <time>2020-06-01T15:12:26.000Z</time>
      </trkpt>
      <trkpt lat="47.20266" lon="-1.52931">
        <ele>55</ele>
        <time>2020-06-01T15:12:28.000Z</time>
      </trkpt>
      <trkpt lat="47.20273" lon="-1.52916">
        <ele>55</ele>
        <time>2020-06-01T15:12:30.000Z</time>
      </trkpt>
      <trkpt lat="47.20281" lon="-1.529">
        <ele>54</ele>
        <time>2020-06-01T15:12:32.000Z</time>
      </trkpt>
      <trkpt lat="47.20288" lon="-1.52882">
        <ele>54</ele>
        <time>2020-06-01T15:12:34.000Z</time>
      </trkpt>
      <trkpt lat="47.20295" lon="-1.52864">
        <ele>54</ele>
        <time>2020-06-01T15:12:36.000Z</time>
      </trkpt>
      <trkpt lat="47.20302" lon="-1.52846">
        <ele>54</ele>
        <time>2020-06-01T15:12:38.000Z</time>
      </trkpt>
      <trkpt lat="47.20309" lon="-1.5283">
        <ele>54</ele>
        <time>2020-06-01T15:12:40.000Z</time>
      </trkpt>
      <trkpt lat="47.20317" lon="-1.52814">
        <ele>54</ele>
        <time>2020-06-01T15:12:42.000Z</time>
      </trkpt>
      <trkpt lat="47.20325" lon="-1.52799">
        <ele>54</ele>
        <time>2020-06-01T15:12:44.000Z</time>
      </trkpt>
      <trkpt lat="47.20332" lon="-1.52785">
        <ele>54</ele>
        <time>2020-06-01T15:12:46.000Z</time>
      </trkpt>
      <trkpt lat="47.20339" lon="-1.5277">
        <ele>53</ele>
        <time>2020-06-01T15:12:48.000Z</time>
      </trkpt>
      <trkpt lat="47.20347" lon="-1.52755">
        <ele>53</ele>
        <time>2020-06-01T15:12:50.000Z</time>
      </trkpt>
      <trkpt lat="47.20354" lon="-1.5274">
        <ele>53</ele>
        <time>2020-06-01T15:12:52.000Z</time>
      </trkpt>
      <trkpt lat="47.20361" lon="-1.52725">
        <ele>53</ele>
        <time>2020-06-01T15:12:54.000Z</time>
      </trkpt>
      <trkpt lat="47.2037" lon="-1.52711">
        <ele>53</ele>
        <time>2020-06-01T15:12:56.000Z</time>
      </trkpt>
      <trkpt lat="47.20378" lon="-1.52696">
        <ele>54</ele>
        <time>2020-06-01T15:12:58.000Z</time>
      </trkpt>
      <trkpt lat="47.20386" lon="-1.52681">
        <ele>54</ele>
        <time>2020-06-01T15:13:00.000Z</time>
      </trkpt>
      <trkpt lat="47.20393" lon="-1.52665">
        <ele>54</ele>
        <time>2020-06-01T15:13:02.000Z</time>
      </trkpt>
      <trkpt lat="47.20399" lon="-1.52648">
        <ele>54</ele>
        <time>2020-06-01T15:13:04.000Z</time>
      </trkpt>
      <trkpt lat="47.20406" lon="-1.52631">
        <ele>55</ele>
        <time>2020-06-01T15:13:06.000Z</time>
      </trkpt>
      <trkpt lat="47.20411" lon="-1.52614">
        <ele>54</ele>
        <time>2020-06-01T15:13:08.000Z</time>
      </trkpt>
      <trkpt lat="47.20416" lon="-1.52597">
        <ele>54</ele>
        <time>2020-06-01T15:13:10.000Z</time>
      </trkpt>
      <trkpt lat="47.20422" lon="-1.52579">
        <ele>54</ele>
        <time>2020-06-01T15:13:12.000Z</time>
      </trkpt>
      <trkpt lat="47.20427" lon="-1.52561">
        <ele>54</ele>
        <time>2020-06-01T15:13:14.000Z</time>
      </trkpt>
      <trkpt lat="47.20433" lon="-1.52544">
        <ele>54</ele>
        <time>2020-06-01T15:13:16.000Z</time>
      </trkpt>
      <trkpt lat="47.20439" lon="-1.52527">
        <ele>54</ele>
        <time>2020-06-01T15:13:18.000Z</time>
      </trkpt>
      <trkpt lat="47.20445" lon="-1.52511">
        <ele>54</ele>
        <time>2020-06-01T15:13:20.000Z</time>
      </trkpt>
      <trkpt lat="47.20451" lon="-1.52495">
        <ele>54</ele>
        <time>2020-06-01T15:13:22.000Z</time>
      </trkpt>
      <trkpt lat="47.20457" lon="-1.52478">
        <ele>54</ele>
        <time>2020-06-01T15:13:24.000Z</time>
      </trkpt>
      <trkpt lat="47.20463" lon="-1.52462">
        <ele>54</ele>
        <time>2020-06-01T15:13:26.000Z</time>
      </trkpt>
      <trkpt lat="47.20471" lon="-1.52448">
        <ele>54</ele>
        <time>2020-06-01T15:13:28.000Z</time>
      </trkpt>
      <trkpt lat="47.20477" lon="-1.52431">
        <ele>53</ele>
        <time>2020-06-01T15:13:30.000Z</time>
      </trkpt>
      <trkpt lat="47.20483" lon="-1.52414">
        <ele>52</ele>
        <time>2020-06-01T15:13:32.000Z</time>
      </trkpt>
      <trkpt lat="47.20489" lon="-1.52397">
        <ele>51</ele>
        <time>2020-06-01T15:13:34.000Z</time>
      </trkpt>
      <trkpt lat="47.20494" lon="-1.5238">
        <ele>51</ele>
        <time>2020-06-01T15:13:36.000Z</time>
      </trkpt>
      <trkpt lat="47.20498" lon="-1.52362">
        <ele>51</ele>
        <time>2020-06-01T15:13:38.000Z</time>
      </trkpt>
      <trkpt lat="47.20503" lon="-1.52343">
        <ele>51</ele>
        <time>2020-06-01T15:13:40.000Z</time>
      </trkpt>
      <trkpt lat="47.20509" lon="-1.52326">
        <ele>51</ele>
        <time>2020-06-01T15:13:42.000Z</time>
      </trkpt>
      <trkpt lat="47.20515" lon="-1.52312">
        <ele>52</ele>
        <time>2020-06-01T15:13:44.000Z</time>
      </trkpt>
      <trkpt lat="47.20518" lon="-1.52296">
        <ele>52</ele>
        <time>2020-06-01T15:13:46.000Z</time>
      </trkpt>
      <trkpt lat="47.20522" lon="-1.52279">
        <ele>53</ele>
        <time>2020-06-01T15:13:48.000Z</time>
      </trkpt>
      <trkpt lat="47.20528" lon="-1.52261">
        <ele>53</ele>
        <time>2020-06-01T15:13:50.000Z</time>
      </trkpt>
      <trkpt lat="47.20536" lon="-1.52243">
        <ele>53</ele>
        <time>2020-06-01T15:13:52.000Z</time>
      </trkpt>
      <trkpt lat="47.20545" lon="-1.52228">
        <ele>54</ele>
        <time>2020-06-01T15:13:54.000Z</time>
      </trkpt>
      <trkpt lat="47.20553" lon="-1.52212">
        <ele>54</ele>
        <time>2020-06-01T15:13:56.000Z</time>
      </trkpt>
      <trkpt lat="47.20561" lon="-1.52196">
        <ele>54</ele>
        <time>2020-06-01T15:13:58.000Z</time>
      </trkpt>
      <trkpt lat="47.2057" lon="-1.52181">
        <ele>54</ele>
        <time>2020-06-01T15:14:00.000Z</time>
      </trkpt>
      <trkpt lat="47.20579" lon="-1.52166">
        <ele>54</ele>
        <time>2020-06-01T15:14:02.000Z</time>
      </trkpt>
      <trkpt lat="47.20587" lon="-1.52153">
        <ele>54</ele>
        <time>2020-06-01T15:14:04.000Z</time>
      </trkpt>
      <trkpt lat="47.20596" lon="-1.52139">
        <ele>54</ele>
        <time>2020-06-01T15:14:06.000Z</time>
      </trkpt>
      <trkpt lat="47.20605" lon="-1.52125">
        <ele>55</ele>
        <time>2020-06-01T15:14:08.000Z</time>
      </trkpt>
      <trkpt lat="47.20614" lon="-1.52109">
        <ele>54</ele>
        <time>2020-06-01T15:14:10.000Z</time>
      </trkpt>
      <trkpt lat="47.20623" lon="-1.52093">
        <ele>54</ele>
        <time>2020-06-01T15:14:12.000Z</time>
      </trkpt>
      <trkpt lat="47.20633" lon="-1.52078">
        <ele>54</ele>
        <time>2020-06-01T15:14:14.000Z</time>
      </trkpt>
      <trkpt lat="47.20642" lon="-1.52062">
        <ele>54</ele>
        <time>2020-06-01T15:14:16.000Z</time>
      </trkpt>
      <trkpt lat="47.2065" lon="-1.52045">
        <ele>54</ele>
        <time>2020-06-01T15:14:18.000Z</time>
      </trkpt>
      <trkpt lat="47.20659" lon="-1.52029">
        <ele>54</ele>
        <time>2020-06-01T15:14:20.000Z</time>
      </trkpt>
      <trkpt lat="47.20668" lon="-1.52013">
        <ele>54</ele>
        <time>2020-06-01T15:14:22.000Z</time>
      </trkpt>
      <trkpt lat="47.20676" lon="-1.51997">
        <ele>54</ele>
        <time>2020-06-01T15:14:24.000Z</time>
      </trkpt>
      <trkpt lat="47.20685" lon="-1.51983">
        <ele>54</ele>
        <time>2020-06-01T15:14:26.000Z</time>
      </trkpt>
      <trkpt lat="47.20694" lon="-1.51968">
        <ele>54</ele>
        <time>2020-06-01T15:14:28.000Z</time>
      </trkpt>
      <trkpt lat="47.20702" lon="-1.51953">
        <ele>53</ele>
        <time>2020-06-01T15:14:30.000Z</time>
      </trkpt>
      <trkpt lat="47.20711" lon="-1.51938">
        <ele>53</ele>
        <time>2020-06-01T15:14:32.000Z</time>
      </trkpt>
      <trkpt lat="47.20718" lon="-1.51922">
        <ele>53</ele>
        <time>2020-06-01T15:14:34.000Z</time>
      </trkpt>
      <trkpt lat="47.20725" lon="-1.51905">
        <ele>53</ele>
        <time>2020-06-01T15:14:36.000Z</time>
      </trkpt>
      <trkpt lat="47.20732" lon="-1.51889">
        <ele>53</ele>
        <time>2020-06-01T15:14:38.000Z</time>
      </trkpt>
      <trkpt lat="47.20743" lon="-1.51864">
        <ele>53</ele>
        <time>2020-06-01T15:14:41.000Z</time>
      </trkpt>
      <trkpt lat="47.2075" lon="-1.51848">
        <ele>53</ele>
        <time>2020-06-01T15:14:43.000Z</time>
      </trkpt>
      <trkpt lat="47.2076" lon="-1.51823">
        <ele>53</ele>
        <time>2020-06-01T15:14:46.000Z</time>
      </trkpt>
      <trkpt lat="47.20764" lon="-1.51803">
        <ele>53</ele>
        <time>2020-06-01T15:14:48.000Z</time>
      </trkpt>
      <trkpt lat="47.20766" lon="-1.51783">
        <ele>53</ele>
        <time>2020-06-01T15:14:50.000Z</time>
      </trkpt>
      <trkpt lat="47.2077" lon="-1.51763">
        <ele>53</ele>
        <time>2020-06-01T15:14:52.000Z</time>
      </trkpt>
      <trkpt lat="47.20778" lon="-1.51734">
        <ele>54</ele>
        <time>2020-06-01T15:14:55.000Z</time>
      </trkpt>
      <trkpt lat="47.20783" lon="-1.51716">
        <ele>53</ele>
        <time>2020-06-01T15:14:57.000Z</time>
      </trkpt>
      <trkpt lat="47.20787" lon="-1.51697">
        <ele>54</ele>
        <time>2020-06-01T15:14:59.000Z</time>
      </trkpt>
      <trkpt lat="47.2079" lon="-1.51679">
        <ele>53</ele>
        <time>2020-06-01T15:15:01.000Z</time>
      </trkpt>
      <trkpt lat="47.20793" lon="-1.5166">
        <ele>53</ele>
        <time>2020-06-01T15:15:03.000Z</time>
      </trkpt>
      <trkpt lat="47.20796" lon="-1.51641">
        <ele>54</ele>
        <time>2020-06-01T15:15:05.000Z</time>
      </trkpt>
      <trkpt lat="47.20799" lon="-1.51622">
        <ele>53</ele>
        <time>2020-06-01T15:15:07.000Z</time>
      </trkpt>
      <trkpt lat="47.20801" lon="-1.51604">
        <ele>53</ele>
        <time>2020-06-01T15:15:09.000Z</time>
      </trkpt>
      <trkpt lat="47.20803" lon="-1.51584">
        <ele>53</ele>
        <time>2020-06-01T15:15:11.000Z</time>
      </trkpt>
      <trkpt lat="47.20806" lon="-1.51564">
        <ele>53</ele>
        <time>2020-06-01T15:15:13.000Z</time>
      </trkpt>
      <trkpt lat="47.20809" lon="-1.51544">
        <ele>54</ele>
        <time>2020-06-01T15:15:15.000Z</time>
      </trkpt>
      <trkpt lat="47.20814" lon="-1.51516">
        <ele>53</ele>
        <time>2020-06-01T15:15:18.000Z</time>
      </trkpt>
      <trkpt lat="47.20818" lon="-1.51486">
        <ele>53</ele>
        <time>2020-06-01T15:15:21.000Z</time>
      </trkpt>
      <trkpt lat="47.20821" lon="-1.51468">
        <ele>54</ele>
        <time>2020-06-01T15:15:23.000Z</time>
      </trkpt>
      <trkpt lat="47.20824" lon="-1.51448">
        <ele>54</ele>
        <time>2020-06-01T15:15:25.000Z</time>
      </trkpt>
      <trkpt lat="47.20826" lon="-1.51429">
        <ele>54</ele>
        <time>2020-06-01T15:15:27.000Z</time>
      </trkpt>
      <trkpt lat="47.20829" lon="-1.51409">
        <ele>54</ele>
        <time>2020-06-01T15:15:29.000Z</time>
      </trkpt>
      <trkpt lat="47.20834" lon="-1.51389">
        <ele>55</ele>
        <time>2020-06-01T15:15:31.000Z</time>
      </trkpt>
      <trkpt lat="47.20839" lon="-1.5137">
        <ele>54</ele>
        <time>2020-06-01T15:15:33.000Z</time>
      </trkpt>
      <trkpt lat="47.20845" lon="-1.51353">
        <ele>53</ele>
        <time>2020-06-01T15:15:35.000Z</time>
      </trkpt>
      <trkpt lat="47.2085" lon="-1.51335">
        <ele>52</ele>
        <time>2020-06-01T15:15:37.000Z</time>
      </trkpt>
      <trkpt lat="47.20857" lon="-1.51318">
        <ele>52</ele>
        <time>2020-06-01T15:15:39.000Z</time>
      </trkpt>
      <trkpt lat="47.20865" lon="-1.51301">
        <ele>52</ele>
        <time>2020-06-01T15:15:41.000Z</time>
      </trkpt>
      <trkpt lat="47.20872" lon="-1.51284">
        <ele>52</ele>
        <time>2020-06-01T15:15:43.000Z</time>
      </trkpt>
      <trkpt lat="47.20878" lon="-1.51269">
        <ele>52</ele>
        <time>2020-06-01T15:15:45.000Z</time>
      </trkpt>
      <trkpt lat="47.20884" lon="-1.51252">
        <ele>52</ele>
        <time>2020-06-01T15:15:47.000Z</time>
      </trkpt>
      <trkpt lat="47.20892" lon="-1.51235">
        <ele>52</ele>
        <time>2020-06-01T15:15:49.000Z</time>
      </trkpt>
      <trkpt lat="47.20901" lon="-1.51209">
        <ele>52</ele>
        <time>2020-06-01T15:15:52.000Z</time>
      </trkpt>
      <trkpt lat="47.20911" lon="-1.51184">
        <ele>52</ele>
        <time>2020-06-01T15:15:55.000Z</time>
      </trkpt>
      <trkpt lat="47.2092" lon="-1.51158">
        <ele>52</ele>
        <time>2020-06-01T15:15:58.000Z</time>
      </trkpt>
      <trkpt lat="47.20925" lon="-1.5114">
        <ele>52</ele>
        <time>2020-06-01T15:16:00.000Z</time>
      </trkpt>
      <trkpt lat="47.20931" lon="-1.51123">
        <ele>52</ele>
        <time>2020-06-01T15:16:02.000Z</time>
      </trkpt>
      <trkpt lat="47.20937" lon="-1.51105">
        <ele>52</ele>
        <time>2020-06-01T15:16:04.000Z</time>
      </trkpt>
      <trkpt lat="47.20942" lon="-1.51087">
        <ele>52</ele>
        <time>2020-06-01T15:16:06.000Z</time>
      </trkpt>
      <trkpt lat="47.20945" lon="-1.51068">
        <ele>52</ele>
        <time>2020-06-01T15:16:08.000Z</time>
      </trkpt>
      <trkpt lat="47.20947" lon="-1.51049">
        <ele>52</ele>
        <time>2020-06-01T15:16:10.000Z</time>
      </trkpt>
      <trkpt lat="47.2095" lon="-1.5103">
        <ele>53</ele>
        <time>2020-06-01T15:16:12.000Z</time>
      </trkpt>
      <trkpt lat="47.20959" lon="-1.51004">
        <ele>53</ele>
        <time>2020-06-01T15:16:15.000Z</time>
      </trkpt>
      <trkpt lat="47.20963" lon="-1.50987">
        <ele>53</ele>
        <time>2020-06-01T15:16:17.000Z</time>
      </trkpt>
      <trkpt lat="47.20964" lon="-1.50969">
        <ele>54</ele>
        <time>2020-06-01T15:16:19.000Z</time>
      </trkpt>
      <trkpt lat="47.20967" lon="-1.50949">
        <ele>54</ele>
        <time>2020-06-01T15:16:21.000Z</time>
      </trkpt>
      <trkpt lat="47.20969" lon="-1.5093">
        <ele>54</ele>
        <time>2020-06-01T15:16:23.000Z</time>
      </trkpt>
      <trkpt lat="47.20971" lon="-1.5091">
        <ele>53</ele>
        <time>2020-06-01T15:16:25.000Z</time>
      </trkpt>
      <trkpt lat="47.20974" lon="-1.5089">
        <ele>53</ele>
        <time>2020-06-01T15:16:27.000Z</time>
      </trkpt>
      <trkpt lat="47.20976" lon="-1.5087">
        <ele>53</ele>
        <time>2020-06-01T15:16:29.000Z</time>
      </trkpt>
      <trkpt lat="47.20979" lon="-1.50849">
        <ele>53</ele>
        <time>2020-06-01T15:16:31.000Z</time>
      </trkpt>
      <trkpt lat="47.2098" lon="-1.50828">
        <ele>54</ele>
        <time>2020-06-01T15:16:33.000Z</time>
      </trkpt>
      <trkpt lat="47.20982" lon="-1.50808">
        <ele>55</ele>
        <time>2020-06-01T15:16:35.000Z</time>
      </trkpt>
      <trkpt lat="47.20985" lon="-1.50788">
        <ele>55</ele>
        <time>2020-06-01T15:16:37.000Z</time>
      </trkpt>
      <trkpt lat="47.20987" lon="-1.50768">
        <ele>55</ele>
        <time>2020-06-01T15:16:39.000Z</time>
      </trkpt>
      <trkpt lat="47.20989" lon="-1.50748">
        <ele>55</ele>
        <time>2020-06-01T15:16:41.000Z</time>
      </trkpt>
      <trkpt lat="47.20991" lon="-1.50728">
        <ele>55</ele>
        <time>2020-06-01T15:16:43.000Z</time>
      </trkpt>
      <trkpt lat="47.20994" lon="-1.50709">
        <ele>54</ele>
        <time>2020-06-01T15:16:45.000Z</time>
      </trkpt>
      <trkpt lat="47.20995" lon="-1.50689">
        <ele>54</ele>
        <time>2020-06-01T15:16:47.000Z</time>
      </trkpt>
      <trkpt lat="47.20996" lon="-1.50669">
        <ele>54</ele>
        <time>2020-06-01T15:16:49.000Z</time>
      </trkpt>
      <trkpt lat="47.20998" lon="-1.50648">
        <ele>54</ele>
        <time>2020-06-01T15:16:51.000Z</time>
      </trkpt>
      <trkpt lat="47.20998" lon="-1.50628">
        <ele>54</ele>
        <time>2020-06-01T15:16:53.000Z</time>
      </trkpt>
      <trkpt lat="47.20998" lon="-1.50607">
        <ele>54</ele>
        <time>2020-06-01T15:16:55.000Z</time>
      </trkpt>
      <trkpt lat="47.20999" lon="-1.50587">
        <ele>54</ele>
        <time>2020-06-01T15:16:57.000Z</time>
      </trkpt>
      <trkpt lat="47.20999" lon="-1.50567">
        <ele>54</ele>
        <time>2020-06-01T15:16:59.000Z</time>
      </trkpt>
      <trkpt lat="47.20999" lon="-1.50547">
        <ele>54</ele>
        <time>2020-06-01T15:17:01.000Z</time>
      </trkpt>
      <trkpt lat="47.20998" lon="-1.50527">
        <ele>55</ele>
        <time>2020-06-01T15:17:03.000Z</time>
      </trkpt>
      <trkpt lat="47.20998" lon="-1.50509">
        <ele>55</ele>
        <time>2020-06-01T15:17:05.000Z</time>
      </trkpt>
      <trkpt lat="47.20998" lon="-1.5049">
        <ele>56</ele>
        <time>2020-06-01T15:17:07.000Z</time>
      </trkpt>
      <trkpt lat="47.20997" lon="-1.50472">
        <ele>56</ele>
        <time>2020-06-01T15:17:09.000Z</time>
      </trkpt>
      <trkpt lat="47.20997" lon="-1.50452">
        <ele>56</ele>
        <time>2020-06-01T15:17:11.000Z</time>
      </trkpt>
      <trkpt lat="47.20997" lon="-1.50432">
        <ele>55</ele>
        <time>2020-06-01T15:17:13.000Z</time>
      </trkpt>
      <trkpt lat="47.20997" lon="-1.50412">
        <ele>55</ele>
        <time>2020-06-01T15:17:15.000Z</time>
      </trkpt>
      <trkpt lat="47.20997" lon="-1.50393">
        <ele>55</ele>
        <time>2020-06-01T15:17:17.000Z</time>
      </trkpt>
      <trkpt lat="47.20996" lon="-1.50373">
        <ele>54</ele>
        <time>2020-06-01T15:17:19.000Z</time>
      </trkpt>
      <trkpt lat="47.20996" lon="-1.50354">
        <ele>55</ele>
        <time>2020-06-01T15:17:21.000Z</time>
      </trkpt>
      <trkpt lat="47.20996" lon="-1.50335">
        <ele>55</ele>
        <time>2020-06-01T15:17:23.000Z</time>
      </trkpt>
      <trkpt lat="47.20997" lon="-1.50317">
        <ele>55</ele>
        <time>2020-06-01T15:17:25.000Z</time>
      </trkpt>
      <trkpt lat="47.20999" lon="-1.50298">
        <ele>55</ele>
        <time>2020-06-01T15:17:27.000Z</time>
      </trkpt>
      <trkpt lat="47.21" lon="-1.5028">
        <ele>54</ele>
        <time>2020-06-01T15:17:29.000Z</time>
      </trkpt>
      <trkpt lat="47.21006" lon="-1.50256">
        <ele>54</ele>
        <time>2020-06-01T15:17:32.000Z</time>
      </trkpt>
      <trkpt lat="47.21013" lon="-1.50242">
        <ele>54</ele>
        <time>2020-06-01T15:17:34.000Z</time>
      </trkpt>
      <trkpt lat="47.21015" lon="-1.50223">
        <ele>54</ele>
        <time>2020-06-01T15:17:36.000Z</time>
      </trkpt>
      <trkpt lat="47.21012" lon="-1.50206">
        <ele>54</ele>
        <time>2020-06-01T15:17:38.000Z</time>
      </trkpt>
      <trkpt lat="47.21014" lon="-1.50187">
        <ele>54</ele>
        <time>2020-06-01T15:17:40.000Z</time>
      </trkpt>
      <trkpt lat="47.21017" lon="-1.50168">
        <ele>54</ele>
        <time>2020-06-01T15:17:42.000Z</time>
      </trkpt>
      <trkpt lat="47.21021" lon="-1.5015">
        <ele>54</ele>
        <time>2020-06-01T15:17:44.000Z</time>
      </trkpt>
      <trkpt lat="47.21025" lon="-1.50131">
        <ele>54</ele>
        <time>2020-06-01T15:17:46.000Z</time>
      </trkpt>
      <trkpt lat="47.2103" lon="-1.50114">
        <ele>54</ele>
        <time>2020-06-01T15:17:48.000Z</time>
      </trkpt>
      <trkpt lat="47.21034" lon="-1.50096">
        <ele>54</ele>
        <time>2020-06-01T15:17:50.000Z</time>
      </trkpt>
      <trkpt lat="47.21038" lon="-1.50079">
        <ele>54</ele>
        <time>2020-06-01T15:17:52.000Z</time>
      </trkpt>
      <trkpt lat="47.21043" lon="-1.50062">
        <ele>54</ele>
        <time>2020-06-01T15:17:54.000Z</time>
      </trkpt>
      <trkpt lat="47.21048" lon="-1.50044">
        <ele>54</ele>
        <time>2020-06-01T15:17:56.000Z</time>
      </trkpt>
      <trkpt lat="47.21053" lon="-1.50025">
        <ele>55</ele>
        <time>2020-06-01T15:17:58.000Z</time>
      </trkpt>
      <trkpt lat="47.21057" lon="-1.50007">
        <ele>55</ele>
        <time>2020-06-01T15:18:00.000Z</time>
      </trkpt>
      <trkpt lat="47.21061" lon="-1.49988">
        <ele>55</ele>
        <time>2020-06-01T15:18:02.000Z</time>
      </trkpt>
      <trkpt lat="47.21066" lon="-1.4997">
        <ele>54</ele>
        <time>2020-06-01T15:18:04.000Z</time>
      </trkpt>
      <trkpt lat="47.2107" lon="-1.49953">
        <ele>54</ele>
        <time>2020-06-01T15:18:06.000Z</time>
      </trkpt>
      <trkpt lat="47.21076" lon="-1.49935">
        <ele>54</ele>
        <time>2020-06-01T15:18:08.000Z</time>
      </trkpt>
      <trkpt lat="47.21081" lon="-1.49917">
        <ele>54</ele>
        <time>2020-06-01T15:18:10.000Z</time>
      </trkpt>
      <trkpt lat="47.21086" lon="-1.49899">
        <ele>54</ele>
        <time>2020-06-01T15:18:12.000Z</time>
      </trkpt>
      <trkpt lat="47.21092" lon="-1.49882">
        <ele>54</ele>
        <time>2020-06-01T15:18:14.000Z</time>
      </trkpt>
      <trkpt lat="47.21095" lon="-1.49863">
        <ele>54</ele>
        <time>2020-06-01T15:18:16.000Z</time>
      </trkpt>
      <trkpt lat="47.21096" lon="-1.49844">
        <ele>54</ele>
        <time>2020-06-01T15:18:18.000Z</time>
      </trkpt>
      <trkpt lat="47.211" lon="-1.49826">
        <ele>53</ele>
        <time>2020-06-01T15:18:20.000Z</time>
      </trkpt>
      <trkpt lat="47.21103" lon="-1.49806">
        <ele>53</ele>
        <time>2020-06-01T15:18:22.000Z</time>
      </trkpt>
      <trkpt lat="47.21106" lon="-1.49787">
        <ele>54</ele>
        <time>2020-06-01T15:18:24.000Z</time>
      </trkpt>
      <trkpt lat="47.21108" lon="-1.49767">
        <ele>53</ele>
        <time>2020-06-01T15:18:26.000Z</time>
      </trkpt>
      <trkpt lat="47.2111" lon="-1.49747">
        <ele>53</ele>
        <time>2020-06-01T15:18:28.000Z</time>
      </trkpt>
      <trkpt lat="47.21111" lon="-1.49729">
        <ele>53</ele>
        <time>2020-06-01T15:18:30.000Z</time>
      </trkpt>
      <trkpt lat="47.21113" lon="-1.4971">
        <ele>53</ele>
        <time>2020-06-01T15:18:32.000Z</time>
      </trkpt>
      <trkpt lat="47.21114" lon="-1.49693">
        <ele>52</ele>
        <time>2020-06-01T15:18:34.000Z</time>
      </trkpt>
      <trkpt lat="47.21116" lon="-1.49674">
        <ele>52</ele>
        <time>2020-06-01T15:18:36.000Z</time>
      </trkpt>
      <trkpt lat="47.21117" lon="-1.49656">
        <ele>52</ele>
        <time>2020-06-01T15:18:38.000Z</time>
      </trkpt>
      <trkpt lat="47.21118" lon="-1.49636">
        <ele>53</ele>
        <time>2020-06-01T15:18:40.000Z</time>
      </trkpt>
      <trkpt lat="47.21121" lon="-1.49616">
        <ele>53</ele>
        <time>2020-06-01T15:18:42.000Z</time>
      </trkpt>
      <trkpt lat="47.21128" lon="-1.496">
        <ele>53</ele>
        <time>2020-06-01T15:18:44.000Z</time>
      </trkpt>
      <trkpt lat="47.21135" lon="-1.49583">
        <ele>53</ele>
        <time>2020-06-01T15:18:46.000Z</time>
      </trkpt>
      <trkpt lat="47.21128" lon="-1.49556">
        <ele>54</ele>
        <time>2020-06-01T15:18:49.000Z</time>
      </trkpt>
      <trkpt lat="47.21123" lon="-1.49538">
        <ele>54</ele>
        <time>2020-06-01T15:18:51.000Z</time>
      </trkpt>
      <trkpt lat="47.21122" lon="-1.49518">
        <ele>54</ele>
        <time>2020-06-01T15:18:53.000Z</time>
      </trkpt>
      <trkpt lat="47.21123" lon="-1.49499">
        <ele>54</ele>
        <time>2020-06-01T15:18:55.000Z</time>
      </trkpt>
      <trkpt lat="47.21122" lon="-1.4948">
        <ele>54</ele>
        <time>2020-06-01T15:18:57.000Z</time>
      </trkpt>
      <trkpt lat="47.21123" lon="-1.49461">
        <ele>54</ele>
        <time>2020-06-01T15:18:59.000Z</time>
      </trkpt>
      <trkpt lat="47.21124" lon="-1.49441">
        <ele>54</ele>
        <time>2020-06-01T15:19:01.000Z</time>
      </trkpt>
      <trkpt lat="47.21125" lon="-1.49421">
        <ele>54</ele>
        <time>2020-06-01T15:19:03.000Z</time>
      </trkpt>
      <trkpt lat="47.21126" lon="-1.49401">
        <ele>54</ele>
        <time>2020-06-01T15:19:05.000Z</time>
      </trkpt>
      <trkpt lat="47.21127" lon="-1.49381">
        <ele>54</ele>
        <time>2020-06-01T15:19:07.000Z</time>
      </trkpt>
      <trkpt lat="47.21128" lon="-1.49361">
        <ele>54</ele>
        <time>2020-06-01T15:19:09.000Z</time>
      </trkpt>
      <trkpt lat="47.21129" lon="-1.49341">
        <ele>53</ele>
        <time>2020-06-01T15:19:11.000Z</time>
      </trkpt>
      <trkpt lat="47.2113" lon="-1.49321">
        <ele>53</ele>
        <time>2020-06-01T15:19:13.000Z</time>
      </trkpt>
      <trkpt lat="47.21131" lon="-1.49301">
        <ele>54</ele>
        <time>2020-06-01T15:19:15.000Z</time>
      </trkpt>
      <trkpt lat="47.21132" lon="-1.49281">
        <ele>54</ele>
        <time>2020-06-01T15:19:17.000Z</time>
      </trkpt>
      <trkpt lat="47.21133" lon="-1.49262">
        <ele>53</ele>
        <time>2020-06-01T15:19:19.000Z</time>
      </trkpt>
      <trkpt lat="47.21134" lon="-1.49244">
        <ele>53</ele>
        <time>2020-06-01T15:19:21.000Z</time>
      </trkpt>
      <trkpt lat="47.21135" lon="-1.49225">
        <ele>54</ele>
        <time>2020-06-01T15:19:23.000Z</time>
      </trkpt>
      <trkpt lat="47.21138" lon="-1.49207">
        <ele>54</ele>
        <time>2020-06-01T15:19:25.000Z</time>
      </trkpt>
      <trkpt lat="47.21141" lon="-1.49188">
        <ele>53</ele>
        <time>2020-06-01T15:19:27.000Z</time>
      </trkpt>
      <trkpt lat="47.21143" lon="-1.49168">
        <ele>53</ele>
        <time>2020-06-01T15:19:29.000Z</time>
      </trkpt>
      <trkpt lat="47.21144" lon="-1.49149">
        <ele>52</ele>
        <time>2020-06-01T15:19:31.000Z</time>
      </trkpt>
      <trkpt lat="47.21148" lon="-1.49131">
        <ele>52</ele>
        <time>2020-06-01T15:19:33.000Z</time>
      </trkpt>
      <trkpt lat="47.21152" lon="-1.49111">
        <ele>52</ele>
        <time>2020-06-01T15:19:35.000Z</time>
      </trkpt>
      <trkpt lat="47.21158" lon="-1.49092">
        <ele>51</ele>
        <time>2020-06-01T15:19:37.000Z</time>
      </trkpt>
      <trkpt lat="47.21159" lon="-1.49072">
        <ele>51</ele>
        <time>2020-06-01T15:19:39.000Z</time>
      </trkpt>
      <trkpt lat="47.21153" lon="-1.49056">
        <ele>51</ele>
        <time>2020-06-01T15:19:41.000Z</time>
      </trkpt>
      <trkpt lat="47.21153" lon="-1.49036">
        <ele>53</ele>
        <time>2020-06-01T15:19:43.000Z</time>
      </trkpt>
      <trkpt lat="47.21155" lon="-1.49016">
        <ele>55</ele>
        <time>2020-06-01T15:19:45.000Z</time>
      </trkpt>
      <trkpt lat="47.21158" lon="-1.48996">
        <ele>56</ele>
        <time>2020-06-01T15:19:47.000Z</time>
      </trkpt>
      <trkpt lat="47.21162" lon="-1.48977">
        <ele>55</ele>
        <time>2020-06-01T15:19:49.000Z</time>
      </trkpt>
      <trkpt lat="47.21165" lon="-1.48957">
        <ele>56</ele>
        <time>2020-06-01T15:19:51.000Z</time>
      </trkpt>
      <trkpt lat="47.21168" lon="-1.48939">
        <ele>55</ele>
        <time>2020-06-01T15:19:53.000Z</time>
      </trkpt>
      <trkpt lat="47.21173" lon="-1.48919">
        <ele>55</ele>
        <time>2020-06-01T15:19:55.000Z</time>
      </trkpt>
      <trkpt lat="47.21178" lon="-1.489">
        <ele>55</ele>
        <time>2020-06-01T15:19:57.000Z</time>
      </trkpt>
      <trkpt lat="47.21181" lon="-1.4888">
        <ele>54</ele>
        <time>2020-06-01T15:19:59.000Z</time>
      </trkpt>
      <trkpt lat="47.21185" lon="-1.4886">
        <ele>54</ele>
        <time>2020-06-01T15:20:01.000Z</time>
      </trkpt>
      <trkpt lat="47.21188" lon="-1.48839">
        <ele>54</ele>
        <time>2020-06-01T15:20:03.000Z</time>
      </trkpt>
      <trkpt lat="47.21192" lon="-1.48817">
        <ele>54</ele>
        <time>2020-06-01T15:20:05.000Z</time>
      </trkpt>
      <trkpt lat="47.21196" lon="-1.48796">
        <ele>55</ele>
        <time>2020-06-01T15:20:07.000Z</time>
      </trkpt>
      <trkpt lat="47.21201" lon="-1.48777">
        <ele>55</ele>
        <time>2020-06-01T15:20:09.000Z</time>
      </trkpt>
      <trkpt lat="47.21205" lon="-1.48757">
        <ele>54</ele>
        <time>2020-06-01T15:20:11.000Z</time>
      </trkpt>
      <trkpt lat="47.2121" lon="-1.48738">
        <ele>54</ele>
        <time>2020-06-01T15:20:13.000Z</time>
      </trkpt>
      <trkpt lat="47.21216" lon="-1.48719">
        <ele>54</ele>
        <time>2020-06-01T15:20:15.000Z</time>
      </trkpt>
      <trkpt lat="47.2122" lon="-1.48701">
        <ele>53</ele>
        <time>2020-06-01T15:20:17.000Z</time>
      </trkpt>
      <trkpt lat="47.21225" lon="-1.48682">
        <ele>54</ele>
        <time>2020-06-01T15:20:19.000Z</time>
      </trkpt>
      <trkpt lat="47.2123" lon="-1.48663">
        <ele>53</ele>
        <time>2020-06-01T15:20:21.000Z</time>
      </trkpt>
      <trkpt lat="47.21235" lon="-1.48644">
        <ele>53</ele>
        <time>2020-06-01T15:20:23.000Z</time>
      </trkpt>
      <trkpt lat="47.2124" lon="-1.48624">
        <ele>54</ele>
        <time>2020-06-01T15:20:25.000Z</time>
      </trkpt>
      <trkpt lat="47.21244" lon="-1.48604">
        <ele>54</ele>
        <time>2020-06-01T15:20:27.000Z</time>
      </trkpt>
      <trkpt lat="47.21249" lon="-1.48586">
        <ele>54</ele>
        <time>2020-06-01T15:20:29.000Z</time>
      </trkpt>
      <trkpt lat="47.21253" lon="-1.48568">
        <ele>54</ele>
        <time>2020-06-01T15:20:31.000Z</time>
      </trkpt>
      <trkpt lat="47.21258" lon="-1.48551">
        <ele>54</ele>
        <time>2020-06-01T15:20:33.000Z</time>
      </trkpt>
      <trkpt lat="47.21263" lon="-1.48535">
        <ele>55</ele>
        <time>2020-06-01T15:20:35.000Z</time>
      </trkpt>
      <trkpt lat="47.2127" lon="-1.48523">
        <ele>54</ele>
        <time>2020-06-01T15:20:37.000Z</time>
      </trkpt>
      <trkpt lat="47.21281" lon="-1.48518">
        <ele>55</ele>
        <time>2020-06-01T15:20:39.000Z</time>
      </trkpt>
      <trkpt lat="47.21291" lon="-1.48508">
        <ele>54</ele>
        <time>2020-06-01T15:20:41.000Z</time>
      </trkpt>
      <trkpt lat="47.21295" lon="-1.48488">
        <ele>53</ele>
        <time>2020-06-01T15:20:43.000Z</time>
      </trkpt>
      <trkpt lat="47.21298" lon="-1.48467">
        <ele>54</ele>
        <time>2020-06-01T15:20:45.000Z</time>
      </trkpt>
      <trkpt lat="47.21301" lon="-1.48447">
        <ele>54</ele>
        <time>2020-06-01T15:20:47.000Z</time>
      </trkpt>
      <trkpt lat="47.21306" lon="-1.48426">
        <ele>53</ele>
        <time>2020-06-01T15:20:49.000Z</time>
      </trkpt>
      <trkpt lat="47.21312" lon="-1.48406">
        <ele>53</ele>
        <time>2020-06-01T15:20:51.000Z</time>
      </trkpt>
      <trkpt lat="47.21318" lon="-1.48386">
        <ele>53</ele>
        <time>2020-06-01T15:20:53.000Z</time>
      </trkpt>
      <trkpt lat="47.21325" lon="-1.48367">
        <ele>52</ele>
        <time>2020-06-01T15:20:55.000Z</time>
      </trkpt>
      <trkpt lat="47.21331" lon="-1.48349">
        <ele>53</ele>
        <time>2020-06-01T15:20:57.000Z</time>
      </trkpt>
      <trkpt lat="47.21337" lon="-1.4833">
        <ele>53</ele>
        <time>2020-06-01T15:20:59.000Z</time>
      </trkpt>
      <trkpt lat="47.21343" lon="-1.48312">
        <ele>53</ele>
        <time>2020-06-01T15:21:01.000Z</time>
      </trkpt>
      <trkpt lat="47.21349" lon="-1.48294">
        <ele>53</ele>
        <time>2020-06-01T15:21:03.000Z</time>
      </trkpt>
      <trkpt lat="47.21355" lon="-1.48276">
        <ele>52</ele>
        <time>2020-06-01T15:21:05.000Z</time>
      </trkpt>
      <trkpt lat="47.21362" lon="-1.48258">
        <ele>53</ele>
        <time>2020-06-01T15:21:07.000Z</time>
      </trkpt>
      <trkpt lat="47.21368" lon="-1.48238">
        <ele>53</ele>
        <time>2020-06-01T15:21:09.000Z</time>
      </trkpt>
      <trkpt lat="47.21374" lon="-1.4822">
        <ele>53</ele>
        <time>2020-06-01T15:21:11.000Z</time>
      </trkpt>
      <trkpt lat="47.21381" lon="-1.48202">
        <ele>53</ele>
        <time>2020-06-01T15:21:13.000Z</time>
      </trkpt>
      <trkpt lat="47.21389" lon="-1.48185">
        <ele>53</ele>
        <time>2020-06-01T15:21:15.000Z</time>
      </trkpt>
      <trkpt lat="47.21397" lon="-1.48169">
        <ele>53</ele>
        <time>2020-06-01T15:21:17.000Z</time>
      </trkpt>
      <trkpt lat="47.21405" lon="-1.48153">
        <ele>53</ele>
        <time>2020-06-01T15:21:19.000Z</time>
      </trkpt>
      <trkpt lat="47.21414" lon="-1.48137">
        <ele>52</ele>
        <time>2020-06-01T15:21:21.000Z</time>
      </trkpt>
      <trkpt lat="47.21423" lon="-1.48122">
        <ele>52</ele>
        <time>2020-06-01T15:21:23.000Z</time>
      </trkpt>
      <trkpt lat="47.21432" lon="-1.48107">
        <ele>52</ele>
        <time>2020-06-01T15:21:25.000Z</time>
      </trkpt>
      <trkpt lat="47.2144" lon="-1.48092">
        <ele>51</ele>
        <time>2020-06-01T15:21:27.000Z</time>
      </trkpt>
      <trkpt lat="47.21449" lon="-1.48077">
        <ele>52</ele>
        <time>2020-06-01T15:21:29.000Z</time>
      </trkpt>
      <trkpt lat="47.21458" lon="-1.48063">
        <ele>51</ele>
        <time>2020-06-01T15:21:31.000Z</time>
      </trkpt>
      <trkpt lat="47.21468" lon="-1.48051">
        <ele>51</ele>
        <time>2020-06-01T15:21:33.000Z</time>
      </trkpt>
      <trkpt lat="47.21478" lon="-1.48039">
        <ele>51</ele>
        <time>2020-06-01T15:21:35.000Z</time>
      </trkpt>
      <trkpt lat="47.21488" lon="-1.48027">
        <ele>51</ele>
        <time>2020-06-01T15:21:37.000Z</time>
      </trkpt>
      <trkpt lat="47.21498" lon="-1.48014">
        <ele>51</ele>
        <time>2020-06-01T15:21:39.000Z</time>
      </trkpt>
      <trkpt lat="47.21508" lon="-1.48003">
        <ele>51</ele>
        <time>2020-06-01T15:21:41.000Z</time>
      </trkpt>
      <trkpt lat="47.21519" lon="-1.47992">
        <ele>52</ele>
        <time>2020-06-01T15:21:43.000Z</time>
      </trkpt>
      <trkpt lat="47.21529" lon="-1.4798">
        <ele>52</ele>
        <time>2020-06-01T15:21:45.000Z</time>
      </trkpt>
      <trkpt lat="47.21539" lon="-1.4797">
        <ele>53</ele>
        <time>2020-06-01T15:21:47.000Z</time>
      </trkpt>
      <trkpt lat="47.2155" lon="-1.47959">
        <ele>54</ele>
        <time>2020-06-01T15:21:49.000Z</time>
      </trkpt>
      <trkpt lat="47.2156" lon="-1.47949">
        <ele>54</ele>
        <time>2020-06-01T15:21:51.000Z</time>
      </trkpt>
      <trkpt lat="47.2157" lon="-1.47939">
        <ele>54</ele>
        <time>2020-06-01T15:21:53.000Z</time>
      </trkpt>
      <trkpt lat="47.21581" lon="-1.4793">
        <ele>54</ele>
        <time>2020-06-01T15:21:55.000Z</time>
      </trkpt>
      <trkpt lat="47.21591" lon="-1.47922">
        <ele>53</ele>
        <time>2020-06-01T15:21:57.000Z</time>
      </trkpt>
      <trkpt lat="47.21601" lon="-1.47912">
        <ele>53</ele>
        <time>2020-06-01T15:21:59.000Z</time>
      </trkpt>
      <trkpt lat="47.21611" lon="-1.47903">
        <ele>53</ele>
        <time>2020-06-01T15:22:01.000Z</time>
      </trkpt>
      <trkpt lat="47.21621" lon="-1.47893">
        <ele>54</ele>
        <time>2020-06-01T15:22:03.000Z</time>
      </trkpt>
      <trkpt lat="47.21631" lon="-1.47883">
        <ele>54</ele>
        <time>2020-06-01T15:22:05.000Z</time>
      </trkpt>
      <trkpt lat="47.21641" lon="-1.47873">
        <ele>54</ele>
        <time>2020-06-01T15:22:07.000Z</time>
      </trkpt>
      <trkpt lat="47.21652" lon="-1.47863">
        <ele>54</ele>
        <time>2020-06-01T15:22:09.000Z</time>
      </trkpt>
      <trkpt lat="47.21662" lon="-1.47854">
        <ele>54</ele>
        <time>2020-06-01T15:22:11.000Z</time>
      </trkpt>
      <trkpt lat="47.21672" lon="-1.47844">
        <ele>54</ele>
        <time>2020-06-01T15:22:13.000Z</time>
      </trkpt>
      <trkpt lat="47.21683" lon="-1.47835">
        <ele>54</ele>
        <time>2020-06-01T15:22:15.000Z</time>
      </trkpt>
      <trkpt lat="47.21693" lon="-1.47826">
        <ele>54</ele>
        <time>2020-06-01T15:22:17.000Z</time>
      </trkpt>
      <trkpt lat="47.21704" lon="-1.47817">
        <ele>54</ele>
        <time>2020-06-01T15:22:19.000Z</time>
      </trkpt>
      <trkpt lat="47.21714" lon="-1.47807">
        <ele>54</ele>
        <time>2020-06-01T15:22:21.000Z</time>
      </trkpt>
      <trkpt lat="47.21724" lon="-1.47797">
        <ele>54</ele>
        <time>2020-06-01T15:22:23.000Z</time>
      </trkpt>
      <trkpt lat="47.21734" lon="-1.47787">
        <ele>55</ele>
        <time>2020-06-01T15:22:25.000Z</time>
      </trkpt>
      <trkpt lat="47.21744" lon="-1.47779">
        <ele>54</ele>
        <time>2020-06-01T15:22:27.000Z</time>
      </trkpt>
      <trkpt lat="47.21754" lon="-1.4777">
        <ele>54</ele>
        <time>2020-06-01T15:22:29.000Z</time>
      </trkpt>
      <trkpt lat="47.21765" lon="-1.47762">
        <ele>54</ele>
        <time>2020-06-01T15:22:31.000Z</time>
      </trkpt>
      <trkpt lat="47.21777" lon="-1.47753">
        <ele>54</ele>
        <time>2020-06-01T15:22:33.000Z</time>
      </trkpt>
      <trkpt lat="47.21788" lon="-1.47742">
        <ele>54</ele>
        <time>2020-06-01T15:22:35.000Z</time>
      </trkpt>
      <trkpt lat="47.218" lon="-1.47732">
        <ele>54</ele>
        <time>2020-06-01T15:22:37.000Z</time>
      </trkpt>
      <trkpt lat="47.21812" lon="-1.47724">
        <ele>54</ele>
        <time>2020-06-01T15:22:39.000Z</time>
      </trkpt>
      <trkpt lat="47.21823" lon="-1.47715">
        <ele>53</ele>
        <time>2020-06-01T15:22:41.000Z</time>
      </trkpt>
      <trkpt lat="47.21835" lon="-1.47706">
        <ele>53</ele>
        <time>2020-06-01T15:22:43.000Z</time>
      </trkpt>
      <trkpt lat="47.21847" lon="-1.47696">
        <ele>53</ele>
        <time>2020-06-01T15:22:45.000Z</time>
      </trkpt>
      <trkpt lat="47.21858" lon="-1.47683">
        <ele>52</ele>
        <time>2020-06-01T15:22:47.000Z</time>
      </trkpt>
      <trkpt lat="47.2187" lon="-1.47672">
        <ele>53</ele>
        <time>2020-06-01T15:22:49.000Z</time>
      </trkpt>
      <trkpt lat="47.21882" lon="-1.47661">
        <ele>53</ele>
        <time>2020-06-01T15:22:51.000Z</time>
      </trkpt>
      <trkpt lat="47.21893" lon="-1.4765">
        <ele>53</ele>
        <time>2020-06-01T15:22:53.000Z</time>
      </trkpt>
      <trkpt lat="47.21904" lon="-1.4764">
        <ele>53</ele>
        <time>2020-06-01T15:22:55.000Z</time>
      </trkpt>
      <trkpt lat="47.21915" lon="-1.4763">
        <ele>53</ele>
        <time>2020-06-01T15:22:57.000Z</time>
      </trkpt>
      <trkpt lat="47.21926" lon="-1.4762">
        <ele>54</ele>
        <time>2020-06-01T15:22:59.000Z</time>
      </trkpt>
      <trkpt lat="47.21938" lon="-1.4761">
        <ele>54</ele>
        <time>2020-06-01T15:23:01.000Z</time>
      </trkpt>
      <trkpt lat="47.21949" lon="-1.476">
        <ele>54</ele>
        <time>2020-06-01T15:23:03.000Z</time>
      </trkpt>
      <trkpt lat="47.2196" lon="-1.4759">
        <ele>53</ele>
        <time>2020-06-01T15:23:05.000Z</time>
      </trkpt>
      <trkpt lat="47.21972" lon="-1.4758">
        <ele>53</ele>
        <time>2020-06-01T15:23:07.000Z</time>
      </trkpt>
      <trkpt lat="47.21982" lon="-1.4757">
        <ele>53</ele>
        <time>2020-06-01T15:23:09.000Z</time>
      </trkpt>
      <trkpt lat="47.21992" lon="-1.4756">
        <ele>53</ele>
        <time>2020-06-01T15:23:11.000Z</time>
      </trkpt>
      <trkpt lat="47.22002" lon="-1.4755">
        <ele>53</ele>
        <time>2020-06-01T15:23:13.000Z</time>
      </trkpt>
      <trkpt lat="47.22013" lon="-1.4754">
        <ele>53</ele>
        <time>2020-06-01T15:23:15.000Z</time>
      </trkpt>
      <trkpt lat="47.22023" lon="-1.47531">
        <ele>54</ele>
        <time>2020-06-01T15:23:17.000Z</time>
      </trkpt>
      <trkpt lat="47.22034" lon="-1.47522">
        <ele>54</ele>
        <time>2020-06-01T15:23:19.000Z</time>
      </trkpt>
      <trkpt lat="47.22044" lon="-1.47512">
        <ele>53</ele>
        <time>2020-06-01T15:23:21.000Z</time>
      </trkpt>
      <trkpt lat="47.22055" lon="-1.47502">
        <ele>53</ele>
        <time>2020-06-01T15:23:23.000Z</time>
      </trkpt>
      <trkpt lat="47.22066" lon="-1.47493">
        <ele>53</ele>
        <time>2020-06-01T15:23:25.000Z</time>
      </trkpt>
      <trkpt lat="47.22077" lon="-1.47483">
        <ele>53</ele>
        <time>2020-06-01T15:23:27.000Z</time>
      </trkpt>
      <trkpt lat="47.22088" lon="-1.47474">
        <ele>53</ele>
        <time>2020-06-01T15:23:29.000Z</time>
      </trkpt>
      <trkpt lat="47.22099" lon="-1.47464">
        <ele>52</ele>
        <time>2020-06-01T15:23:31.000Z</time>
      </trkpt>
      <trkpt lat="47.2211" lon="-1.47455">
        <ele>52</ele>
        <time>2020-06-01T15:23:33.000Z</time>
      </trkpt>
      <trkpt lat="47.22121" lon="-1.47446">
        <ele>52</ele>
        <time>2020-06-01T15:23:35.000Z</time>
      </trkpt>
      <trkpt lat="47.22132" lon="-1.47437">
        <ele>52</ele>
        <time>2020-06-01T15:23:37.000Z</time>
      </trkpt>
      <trkpt lat="47.22143" lon="-1.47428">
        <ele>52</ele>
        <time>2020-06-01T15:23:39.000Z</time>
      </trkpt>
      <trkpt lat="47.22153" lon="-1.47419">
        <ele>52</ele>
        <time>2020-06-01T15:23:41.000Z</time>
      </trkpt>
      <trkpt lat="47.22164" lon="-1.4741">
        <ele>52</ele>
        <time>2020-06-01T15:23:43.000Z</time>
      </trkpt>
      <trkpt lat="47.22174" lon="-1.47401">
        <ele>52</ele>
        <time>2020-06-01T15:23:45.000Z</time>
      </trkpt>
      <trkpt lat="47.22185" lon="-1.47392">
        <ele>52</ele>
        <time>2020-06-01T15:23:47.000Z</time>
      </trkpt>
      <trkpt lat="47.22196" lon="-1.47383">
        <ele>53</ele>
        <time>2020-06-01T15:23:49.000Z</time>
      </trkpt>
      <trkpt lat="47.22207" lon="-1.47374">
        <ele>53</ele>
        <time>2020-06-01T15:23:51.000Z</time>
      </trkpt>
      <trkpt lat="47.22217" lon="-1.47366">
        <ele>53</ele>
        <time>2020-06-01T15:23:53.000Z</time>
      </trkpt>
      <trkpt lat="47.22227" lon="-1.47359">
        <ele>52</ele>
        <time>2020-06-01T15:23:55.000Z</time>
      </trkpt>
      <trkpt lat="47.22238" lon="-1.47352">
        <ele>52</ele>
        <time>2020-06-01T15:23:57.000Z</time>
      </trkpt>
      <trkpt lat="47.2225" lon="-1.47344">
        <ele>52</ele>
        <time>2020-06-01T15:23:59.000Z</time>
      </trkpt>
      <trkpt lat="47.22261" lon="-1.47337">
        <ele>52</ele>
        <time>2020-06-01T15:24:01.000Z</time>
      </trkpt>
      <trkpt lat="47.22273" lon="-1.47328">
        <ele>52</ele>
        <time>2020-06-01T15:24:03.000Z</time>
      </trkpt>
      <trkpt lat="47.22284" lon="-1.4732">
        <ele>52</ele>
        <time>2020-06-01T15:24:05.000Z</time>
      </trkpt>
      <trkpt lat="47.22294" lon="-1.47311">
        <ele>52</ele>
        <time>2020-06-01T15:24:07.000Z</time>
      </trkpt>
      <trkpt lat="47.22305" lon="-1.47302">
        <ele>52</ele>
        <time>2020-06-01T15:24:09.000Z</time>
      </trkpt>
      <trkpt lat="47.22316" lon="-1.47293">
        <ele>52</ele>
        <time>2020-06-01T15:24:11.000Z</time>
      </trkpt>
      <trkpt lat="47.22327" lon="-1.47284">
        <ele>52</ele>
        <time>2020-06-01T15:24:13.000Z</time>
      </trkpt>
      <trkpt lat="47.22338" lon="-1.47275">
        <ele>52</ele>
        <time>2020-06-01T15:24:15.000Z</time>
      </trkpt>
      <trkpt lat="47.22348" lon="-1.47266">
        <ele>52</ele>
        <time>2020-06-01T15:24:17.000Z</time>
      </trkpt>
      <trkpt lat="47.22359" lon="-1.47257">
        <ele>52</ele>
        <time>2020-06-01T15:24:19.000Z</time>
      </trkpt>
      <trkpt lat="47.2237" lon="-1.47248">
        <ele>52</ele>
        <time>2020-06-01T15:24:21.000Z</time>
      </trkpt>
      <trkpt lat="47.2238" lon="-1.47238">
        <ele>52</ele>
        <time>2020-06-01T15:24:23.000Z</time>
      </trkpt>
      <trkpt lat="47.2239" lon="-1.47228">
        <ele>52</ele>
        <time>2020-06-01T15:24:25.000Z</time>
      </trkpt>
      <trkpt lat="47.22399" lon="-1.47218">
        <ele>53</ele>
        <time>2020-06-01T15:24:27.000Z</time>
      </trkpt>
      <trkpt lat="47.22408" lon="-1.47207">
        <ele>54</ele>
        <time>2020-06-01T15:24:29.000Z</time>
      </trkpt>
      <trkpt lat="47.22418" lon="-1.47196">
        <ele>54</ele>
        <time>2020-06-01T15:24:31.000Z</time>
      </trkpt>
      <trkpt lat="47.22428" lon="-1.47185">
        <ele>54</ele>
        <time>2020-06-01T15:24:33.000Z</time>
      </trkpt>
      <trkpt lat="47.22437" lon="-1.47175">
        <ele>55</ele>
        <time>2020-06-01T15:24:35.000Z</time>
      </trkpt>
      <trkpt lat="47.22447" lon="-1.47166">
        <ele>55</ele>
        <time>2020-06-01T15:24:37.000Z</time>
      </trkpt>
      <trkpt lat="47.22457" lon="-1.47157">
        <ele>55</ele>
        <time>2020-06-01T15:24:39.000Z</time>
      </trkpt>
      <trkpt lat="47.22468" lon="-1.47149">
        <ele>55</ele>
        <time>2020-06-01T15:24:41.000Z</time>
      </trkpt>
      <trkpt lat="47.22479" lon="-1.47142">
        <ele>55</ele>
        <time>2020-06-01T15:24:43.000Z</time>
      </trkpt>
      <trkpt lat="47.22491" lon="-1.47136">
        <ele>55</ele>
        <time>2020-06-01T15:24:45.000Z</time>
      </trkpt>
      <trkpt lat="47.22503" lon="-1.47132">
        <ele>55</ele>
        <time>2020-06-01T15:24:47.000Z</time>
      </trkpt>
      <trkpt lat="47.22515" lon="-1.47128">
        <ele>54</ele>
        <time>2020-06-01T15:24:49.000Z</time>
      </trkpt>
      <trkpt lat="47.22528" lon="-1.47126">
        <ele>54</ele>
        <time>2020-06-01T15:24:51.000Z</time>
      </trkpt>
      <trkpt lat="47.2254" lon="-1.47123">
        <ele>54</ele>
        <time>2020-06-01T15:24:53.000Z</time>
      </trkpt>
      <trkpt lat="47.22553" lon="-1.4712">
        <ele>53</ele>
        <time>2020-06-01T15:24:55.000Z</time>
      </trkpt>
      <trkpt lat="47.22567" lon="-1.47116">
        <ele>53</ele>
        <time>2020-06-01T15:24:57.000Z</time>
      </trkpt>
      <trkpt lat="47.22579" lon="-1.47109">
        <ele>53</ele>
        <time>2020-06-01T15:24:59.000Z</time>
      </trkpt>
      <trkpt lat="47.22592" lon="-1.47098">
        <ele>53</ele>
        <time>2020-06-01T15:25:01.000Z</time>
      </trkpt>
      <trkpt lat="47.22602" lon="-1.47084">
        <ele>52</ele>
        <time>2020-06-01T15:25:03.000Z</time>
      </trkpt>
      <trkpt lat="47.2261" lon="-1.47067">
        <ele>52</ele>
        <time>2020-06-01T15:25:05.000Z</time>
      </trkpt>
      <trkpt lat="47.22619" lon="-1.47051">
        <ele>52</ele>
        <time>2020-06-01T15:25:07.000Z</time>
      </trkpt>
      <trkpt lat="47.22628" lon="-1.47036">
        <ele>52</ele>
        <time>2020-06-01T15:25:09.000Z</time>
      </trkpt>
      <trkpt lat="47.22638" lon="-1.47021">
        <ele>52</ele>
        <time>2020-06-01T15:25:11.000Z</time>
      </trkpt>
      <trkpt lat="47.22649" lon="-1.47009">
        <ele>52</ele>
        <time>2020-06-01T15:25:13.000Z</time>
      </trkpt>
      <trkpt lat="47.2266" lon="-1.46998">
        <ele>52</ele>
        <time>2020-06-01T15:25:15.000Z</time>
      </trkpt>
      <trkpt lat="47.22671" lon="-1.46987">
        <ele>53</ele>
        <time>2020-06-01T15:25:17.000Z</time>
      </trkpt>
      <trkpt lat="47.22683" lon="-1.46979">
        <ele>53</ele>
        <time>2020-06-01T15:25:19.000Z</time>
      </trkpt>
      <trkpt lat="47.22695" lon="-1.46971">
        <ele>53</ele>
        <time>2020-06-01T15:25:21.000Z</time>
      </trkpt>
      <trkpt lat="47.22708" lon="-1.46966">
        <ele>52</ele>
        <time>2020-06-01T15:25:23.000Z</time>
      </trkpt>
      <trkpt lat="47.2272" lon="-1.46961">
        <ele>52</ele>
        <time>2020-06-01T15:25:25.000Z</time>
      </trkpt>
      <trkpt lat="47.22733" lon="-1.46958">
        <ele>52</ele>
        <time>2020-06-01T15:25:27.000Z</time>
      </trkpt>
      <trkpt lat="47.22746" lon="-1.46956">
        <ele>52</ele>
        <time>2020-06-01T15:25:29.000Z</time>
      </trkpt>
      <trkpt lat="47.22759" lon="-1.46956">
        <ele>52</ele>
        <time>2020-06-01T15:25:31.000Z</time>
      </trkpt>
      <trkpt lat="47.22772" lon="-1.46955">
        <ele>52</ele>
        <time>2020-06-01T15:25:33.000Z</time>
      </trkpt>
      <trkpt lat="47.22785" lon="-1.46956">
        <ele>52</ele>
        <time>2020-06-01T15:25:35.000Z</time>
      </trkpt>
      <trkpt lat="47.22799" lon="-1.4696">
        <ele>52</ele>
        <time>2020-06-01T15:25:37.000Z</time>
      </trkpt>
      <trkpt lat="47.22813" lon="-1.46964">
        <ele>52</ele>
        <time>2020-06-01T15:25:39.000Z</time>
      </trkpt>
      <trkpt lat="47.22825" lon="-1.46971">
        <ele>52</ele>
        <time>2020-06-01T15:25:41.000Z</time>
      </trkpt>
      <trkpt lat="47.22838" lon="-1.46977">
        <ele>52</ele>
        <time>2020-06-01T15:25:43.000Z</time>
      </trkpt>
      <trkpt lat="47.22851" lon="-1.46984">
        <ele>52</ele>
        <time>2020-06-01T15:25:45.000Z</time>
      </trkpt>
      <trkpt lat="47.22863" lon="-1.46991">
        <ele>52</ele>
        <time>2020-06-01T15:25:47.000Z</time>
      </trkpt>
      <trkpt lat="47.22875" lon="-1.46997">
        <ele>51</ele>
        <time>2020-06-01T15:25:49.000Z</time>
      </trkpt>
      <trkpt lat="47.22889" lon="-1.47002">
        <ele>51</ele>
        <time>2020-06-01T15:25:51.000Z</time>
      </trkpt>
      <trkpt lat="47.22902" lon="-1.46998">
        <ele>51</ele>
        <time>2020-06-01T15:25:53.000Z</time>
      </trkpt>
      <trkpt lat="47.22909" lon="-1.46983">
        <ele>51</ele>
        <time>2020-06-01T15:25:55.000Z</time>
      </trkpt>
      <trkpt lat="47.22914" lon="-1.46963">
        <ele>51</ele>
        <time>2020-06-01T15:25:57.000Z</time>
      </trkpt>
      <trkpt lat="47.22919" lon="-1.46945">
        <ele>51</ele>
        <time>2020-06-01T15:25:59.000Z</time>
      </trkpt>
      <trkpt lat="47.22922" lon="-1.46927">
        <ele>51</ele>
        <time>2020-06-01T15:26:01.000Z</time>
      </trkpt>
      <trkpt lat="47.22926" lon="-1.46909">
        <ele>51</ele>
        <time>2020-06-01T15:26:03.000Z</time>
      </trkpt>
      <trkpt lat="47.22931" lon="-1.46891">
        <ele>51</ele>
        <time>2020-06-01T15:26:05.000Z</time>
      </trkpt>
      <trkpt lat="47.22934" lon="-1.46872">
        <ele>52</ele>
        <time>2020-06-01T15:26:07.000Z</time>
      </trkpt>
      <trkpt lat="47.2294" lon="-1.46854">
        <ele>52</ele>
        <time>2020-06-01T15:26:09.000Z</time>
      </trkpt>
      <trkpt lat="47.22946" lon="-1.46838">
        <ele>53</ele>
        <time>2020-06-01T15:26:11.000Z</time>
      </trkpt>
      <trkpt lat="47.22957" lon="-1.46829">
        <ele>52</ele>
        <time>2020-06-01T15:26:13.000Z</time>
      </trkpt>
      <trkpt lat="47.22967" lon="-1.46816">
        <ele>52</ele>
        <time>2020-06-01T15:26:15.000Z</time>
      </trkpt>
      <trkpt lat="47.22973" lon="-1.468">
        <ele>52</ele>
        <time>2020-06-01T15:26:17.000Z</time>
      </trkpt>
      <trkpt lat="47.22979" lon="-1.46784">
        <ele>52</ele>
        <time>2020-06-01T15:26:19.000Z</time>
      </trkpt>
      <trkpt lat="47.22988" lon="-1.46772">
        <ele>53</ele>
        <time>2020-06-01T15:26:21.000Z</time>
      </trkpt>
      <trkpt lat="47.22997" lon="-1.46763">
        <ele>53</ele>
        <time>2020-06-01T15:26:23.000Z</time>
      </trkpt>
      <trkpt lat="47.23005" lon="-1.46756">
        <ele>53</ele>
        <time>2020-06-01T15:26:25.000Z</time>
      </trkpt>
      <trkpt lat="47.23017" lon="-1.46746">
        <ele>53</ele>
        <time>2020-06-01T15:26:28.000Z</time>
      </trkpt>
      <trkpt lat="47.23028" lon="-1.46742">
        <ele>53</ele>
        <time>2020-06-01T15:26:30.000Z</time>
      </trkpt>
      <trkpt lat="47.23036" lon="-1.46733">
        <ele>53</ele>
        <time>2020-06-01T15:26:32.000Z</time>
      </trkpt>
      <trkpt lat="47.23041" lon="-1.46716">
        <ele>53</ele>
        <time>2020-06-01T15:26:34.000Z</time>
      </trkpt>
      <trkpt lat="47.23042" lon="-1.46698">
        <ele>53</ele>
        <time>2020-06-01T15:26:36.000Z</time>
      </trkpt>
      <trkpt lat="47.23046" lon="-1.4668">
        <ele>53</ele>
        <time>2020-06-01T15:26:38.000Z</time>
      </trkpt>
      <trkpt lat="47.23052" lon="-1.46664">
        <ele>52</ele>
        <time>2020-06-01T15:26:40.000Z</time>
      </trkpt>
      <trkpt lat="47.23059" lon="-1.46647">
        <ele>52</ele>
        <time>2020-06-01T15:26:42.000Z</time>
      </trkpt>
      <trkpt lat="47.23066" lon="-1.46633">
        <ele>53</ele>
        <time>2020-06-01T15:26:44.000Z</time>
      </trkpt>
      <trkpt lat="47.23076" lon="-1.46622">
        <ele>53</ele>
        <time>2020-06-01T15:26:46.000Z</time>
      </trkpt>
      <trkpt lat="47.23086" lon="-1.46611">
        <ele>53</ele>
        <time>2020-06-01T15:26:48.000Z</time>
      </trkpt>
      <trkpt lat="47.23096" lon="-1.46599">
        <ele>53</ele>
        <time>2020-06-01T15:26:50.000Z</time>
      </trkpt>
      <trkpt lat="47.23106" lon="-1.46588">
        <ele>53</ele>
        <time>2020-06-01T15:26:52.000Z</time>
      </trkpt>
      <trkpt lat="47.23116" lon="-1.46576">
        <ele>52</ele>
        <time>2020-06-01T15:26:54.000Z</time>
      </trkpt>
      <trkpt lat="47.23127" lon="-1.46565">
        <ele>52</ele>
        <time>2020-06-01T15:26:56.000Z</time>
      </trkpt>
      <trkpt lat="47.23137" lon="-1.46553">
        <ele>52</ele>
        <time>2020-06-01T15:26:58.000Z</time>
      </trkpt>
      <trkpt lat="47.23147" lon="-1.46541">
        <ele>51</ele>
        <time>2020-06-01T15:27:00.000Z</time>
      </trkpt>
      <trkpt lat="47.23157" lon="-1.4653">
        <ele>51</ele>
        <time>2020-06-01T15:27:02.000Z</time>
      </trkpt>
      <trkpt lat="47.23167" lon="-1.46517">
        <ele>51</ele>
        <time>2020-06-01T15:27:04.000Z</time>
      </trkpt>
      <trkpt lat="47.23177" lon="-1.46505">
        <ele>52</ele>
        <time>2020-06-01T15:27:06.000Z</time>
      </trkpt>
      <trkpt lat="47.23187" lon="-1.46494">
        <ele>52</ele>
        <time>2020-06-01T15:27:08.000Z</time>
      </trkpt>
      <trkpt lat="47.23196" lon="-1.46482">
        <ele>51</ele>
        <time>2020-06-01T15:27:10.000Z</time>
      </trkpt>
      <trkpt lat="47.23205" lon="-1.46471">
        <ele>52</ele>
        <time>2020-06-01T15:27:12.000Z</time>
      </trkpt>
      <trkpt lat="47.23214" lon="-1.46459">
        <ele>51</ele>
        <time>2020-06-01T15:27:14.000Z</time>
      </trkpt>
      <trkpt lat="47.23223" lon="-1.46448">
        <ele>51</ele>
        <time>2020-06-01T15:27:16.000Z</time>
      </trkpt>
      <trkpt lat="47.23232" lon="-1.46436">
        <ele>51</ele>
        <time>2020-06-01T15:27:18.000Z</time>
      </trkpt>
      <trkpt lat="47.23242" lon="-1.46425">
        <ele>52</ele>
        <time>2020-06-01T15:27:20.000Z</time>
      </trkpt>
      <trkpt lat="47.23251" lon="-1.46413">
        <ele>52</ele>
        <time>2020-06-01T15:27:22.000Z</time>
      </trkpt>
      <trkpt lat="47.2326" lon="-1.46402">
        <ele>52</ele>
        <time>2020-06-01T15:27:24.000Z</time>
      </trkpt>
      <trkpt lat="47.23271" lon="-1.4639">
        <ele>51</ele>
        <time>2020-06-01T15:27:26.000Z</time>
      </trkpt>
      <trkpt lat="47.23281" lon="-1.46378">
        <ele>51</ele>
        <time>2020-06-01T15:27:28.000Z</time>
      </trkpt>
      <trkpt lat="47.2329" lon="-1.46367">
        <ele>52</ele>
        <time>2020-06-01T15:27:30.000Z</time>
      </trkpt>
      <trkpt lat="47.233" lon="-1.46355">
        <ele>52</ele>
        <time>2020-06-01T15:27:32.000Z</time>
      </trkpt>
      <trkpt lat="47.23307" lon="-1.46341">
        <ele>52</ele>
        <time>2020-06-01T15:27:34.000Z</time>
      </trkpt>
      <trkpt lat="47.23316" lon="-1.46328">
        <ele>52</ele>
        <time>2020-06-01T15:27:36.000Z</time>
      </trkpt>
      <trkpt lat="47.23326" lon="-1.46316">
        <ele>52</ele>
        <time>2020-06-01T15:27:38.000Z</time>
      </trkpt>
      <trkpt lat="47.23335" lon="-1.46304">
        <ele>52</ele>
        <time>2020-06-01T15:27:40.000Z</time>
      </trkpt>
      <trkpt lat="47.23343" lon="-1.46292">
        <ele>52</ele>
        <time>2020-06-01T15:27:42.000Z</time>
      </trkpt>
      <trkpt lat="47.23353" lon="-1.4628">
        <ele>52</ele>
        <time>2020-06-01T15:27:44.000Z</time>
      </trkpt>
      <trkpt lat="47.23362" lon="-1.46268">
        <ele>52</ele>
        <time>2020-06-01T15:27:46.000Z</time>
      </trkpt>
      <trkpt lat="47.23372" lon="-1.46256">
        <ele>52</ele>
        <time>2020-06-01T15:27:48.000Z</time>
      </trkpt>
      <trkpt lat="47.23381" lon="-1.46244">
        <ele>52</ele>
        <time>2020-06-01T15:27:50.000Z</time>
      </trkpt>
      <trkpt lat="47.23391" lon="-1.46232">
        <ele>52</ele>
        <time>2020-06-01T15:27:52.000Z</time>
      </trkpt>
      <trkpt lat="47.234" lon="-1.46219">
        <ele>52</ele>
        <time>2020-06-01T15:27:54.000Z</time>
      </trkpt>
      <trkpt lat="47.23409" lon="-1.46207">
        <ele>51</ele>
        <time>2020-06-01T15:27:56.000Z</time>
      </trkpt>
      <trkpt lat="47.23419" lon="-1.46196">
        <ele>52</ele>
        <time>2020-06-01T15:27:58.000Z</time>
      </trkpt>
      <trkpt lat="47.23429" lon="-1.46185">
        <ele>52</ele>
        <time>2020-06-01T15:28:00.000Z</time>
      </trkpt>
      <trkpt lat="47.23438" lon="-1.46174">
        <ele>51</ele>
        <time>2020-06-01T15:28:02.000Z</time>
      </trkpt>
      <trkpt lat="47.23449" lon="-1.46163">
        <ele>51</ele>
        <time>2020-06-01T15:28:04.000Z</time>
      </trkpt>
      <trkpt lat="47.23459" lon="-1.46153">
        <ele>51</ele>
        <time>2020-06-01T15:28:06.000Z</time>
      </trkpt>
      <trkpt lat="47.23469" lon="-1.46142">
        <ele>51</ele>
        <time>2020-06-01T15:28:08.000Z</time>
      </trkpt>
      <trkpt lat="47.23479" lon="-1.46132">
        <ele>51</ele>
        <time>2020-06-01T15:28:10.000Z</time>
      </trkpt>
      <trkpt lat="47.23489" lon="-1.46122">
        <ele>51</ele>
        <time>2020-06-01T15:28:12.000Z</time>
      </trkpt>
      <trkpt lat="47.23499" lon="-1.46112">
        <ele>52</ele>
        <time>2020-06-01T15:28:14.000Z</time>
      </trkpt>
      <trkpt lat="47.23508" lon="-1.46104">
        <ele>53</ele>
        <time>2020-06-01T15:28:16.000Z</time>
      </trkpt>
      <trkpt lat="47.23518" lon="-1.46095">
        <ele>53</ele>
        <time>2020-06-01T15:28:18.000Z</time>
      </trkpt>
      <trkpt lat="47.23527" lon="-1.46085">
        <ele>54</ele>
        <time>2020-06-01T15:28:20.000Z</time>
      </trkpt>
      <trkpt lat="47.23538" lon="-1.46076">
        <ele>54</ele>
        <time>2020-06-01T15:28:22.000Z</time>
      </trkpt>
      <trkpt lat="47.23549" lon="-1.46066">
        <ele>53</ele>
        <time>2020-06-01T15:28:24.000Z</time>
      </trkpt>
      <trkpt lat="47.23561" lon="-1.4606">
        <ele>53</ele>
        <time>2020-06-01T15:28:26.000Z</time>
      </trkpt>
      <trkpt lat="47.23574" lon="-1.46058">
        <ele>51</ele>
        <time>2020-06-01T15:28:28.000Z</time>
      </trkpt>
      <trkpt lat="47.23587" lon="-1.46046">
        <ele>51</ele>
        <time>2020-06-01T15:28:30.000Z</time>
      </trkpt>
      <trkpt lat="47.23598" lon="-1.46035">
        <ele>51</ele>
        <time>2020-06-01T15:28:32.000Z</time>
      </trkpt>
      <trkpt lat="47.2361" lon="-1.46026">
        <ele>51</ele>
        <time>2020-06-01T15:28:34.000Z</time>
      </trkpt>
      <trkpt lat="47.23622" lon="-1.46019">
        <ele>51</ele>
        <time>2020-06-01T15:28:36.000Z</time>
      </trkpt>
      <trkpt lat="47.23635" lon="-1.46013">
        <ele>51</ele>
        <time>2020-06-01T15:28:38.000Z</time>
      </trkpt>
      <trkpt lat="47.23647" lon="-1.46008">
        <ele>51</ele>
        <time>2020-06-01T15:28:40.000Z</time>
      </trkpt>
      <trkpt lat="47.23659" lon="-1.46006">
        <ele>51</ele>
        <time>2020-06-01T15:28:42.000Z</time>
      </trkpt>
      <trkpt lat="47.23672" lon="-1.46002">
        <ele>52</ele>
        <time>2020-06-01T15:28:44.000Z</time>
      </trkpt>
      <trkpt lat="47.23684" lon="-1.45999">
        <ele>51</ele>
        <time>2020-06-01T15:28:46.000Z</time>
      </trkpt>
      <trkpt lat="47.23697" lon="-1.45996">
        <ele>51</ele>
        <time>2020-06-01T15:28:48.000Z</time>
      </trkpt>
      <trkpt lat="47.23709" lon="-1.45994">
        <ele>51</ele>
        <time>2020-06-01T15:28:50.000Z</time>
      </trkpt>
      <trkpt lat="47.23722" lon="-1.45991">
        <ele>51</ele>
        <time>2020-06-01T15:28:52.000Z</time>
      </trkpt>
      <trkpt lat="47.23734" lon="-1.45988">
        <ele>51</ele>
        <time>2020-06-01T15:28:54.000Z</time>
      </trkpt>
      <trkpt lat="47.23747" lon="-1.45984">
        <ele>52</ele>
        <time>2020-06-01T15:28:56.000Z</time>
      </trkpt>
      <trkpt lat="47.23759" lon="-1.45982">
        <ele>52</ele>
        <time>2020-06-01T15:28:58.000Z</time>
      </trkpt>
      <trkpt lat="47.2377" lon="-1.45977">
        <ele>52</ele>
        <time>2020-06-01T15:29:00.000Z</time>
      </trkpt>
      <trkpt lat="47.23781" lon="-1.45973">
        <ele>53</ele>
        <time>2020-06-01T15:29:02.000Z</time>
      </trkpt>
      <trkpt lat="47.23792" lon="-1.4597">
        <ele>53</ele>
        <time>2020-06-01T15:29:04.000Z</time>
      </trkpt>
      <trkpt lat="47.23804" lon="-1.45964">
        <ele>52</ele>
        <time>2020-06-01T15:29:06.000Z</time>
      </trkpt>
      <trkpt lat="47.23815" lon="-1.45959">
        <ele>52</ele>
        <time>2020-06-01T15:29:08.000Z</time>
      </trkpt>
      <trkpt lat="47.23828" lon="-1.45956">
        <ele>52</ele>
        <time>2020-06-01T15:29:10.000Z</time>
      </trkpt>
      <trkpt lat="47.2384" lon="-1.45954">
        <ele>51</ele>
        <time>2020-06-01T15:29:12.000Z</time>
      </trkpt>
      <trkpt lat="47.23852" lon="-1.4595">
        <ele>51</ele>
        <time>2020-06-01T15:29:14.000Z</time>
      </trkpt>
      <trkpt lat="47.23865" lon="-1.45947">
        <ele>52</ele>
        <time>2020-06-01T15:29:16.000Z</time>
      </trkpt>
      <trkpt lat="47.23877" lon="-1.45944">
        <ele>51</ele>
        <time>2020-06-01T15:29:18.000Z</time>
      </trkpt>
      <trkpt lat="47.23889" lon="-1.45941">
        <ele>51</ele>
        <time>2020-06-01T15:29:20.000Z</time>
      </trkpt>
      <trkpt lat="47.23901" lon="-1.45938">
        <ele>52</ele>
        <time>2020-06-01T15:29:22.000Z</time>
      </trkpt>
      <trkpt lat="47.23913" lon="-1.45934">
        <ele>52</ele>
        <time>2020-06-01T15:29:24.000Z</time>
      </trkpt>
      <trkpt lat="47.23925" lon="-1.45931">
        <ele>51</ele>
        <time>2020-06-01T15:29:26.000Z</time>
      </trkpt>
      <trkpt lat="47.23937" lon="-1.45927">
        <ele>51</ele>
        <time>2020-06-01T15:29:28.000Z</time>
      </trkpt>
      <trkpt lat="47.23948" lon="-1.4592">
        <ele>52</ele>
        <time>2020-06-01T15:29:30.000Z</time>
      </trkpt>
      <trkpt lat="47.23959" lon="-1.45911">
        <ele>51</ele>
        <time>2020-06-01T15:29:32.000Z</time>
      </trkpt>
      <trkpt lat="47.23968" lon="-1.45897">
        <ele>51</ele>
        <time>2020-06-01T15:29:34.000Z</time>
      </trkpt>
      <trkpt lat="47.23978" lon="-1.45883">
        <ele>51</ele>
        <time>2020-06-01T15:29:36.000Z</time>
      </trkpt>
      <trkpt lat="47.23986" lon="-1.45869">
        <ele>52</ele>
        <time>2020-06-01T15:29:38.000Z</time>
      </trkpt>
      <trkpt lat="47.23995" lon="-1.45855">
        <ele>52</ele>
        <time>2020-06-01T15:29:40.000Z</time>
      </trkpt>
      <trkpt lat="47.24004" lon="-1.4584">
        <ele>51</ele>
        <time>2020-06-01T15:29:42.000Z</time>
      </trkpt>
      <trkpt lat="47.24013" lon="-1.45826">
        <ele>51</ele>
        <time>2020-06-01T15:29:44.000Z</time>
      </trkpt>
      <trkpt lat="47.24023" lon="-1.45812">
        <ele>50</ele>
        <time>2020-06-01T15:29:46.000Z</time>
      </trkpt>
      <trkpt lat="47.24032" lon="-1.45798">
        <ele>50</ele>
        <time>2020-06-01T15:29:48.000Z</time>
      </trkpt>
      <trkpt lat="47.2404" lon="-1.45785">
        <ele>50</ele>
        <time>2020-06-01T15:29:50.000Z</time>
      </trkpt>
      <trkpt lat="47.24049" lon="-1.45772">
        <ele>50</ele>
        <time>2020-06-01T15:29:52.000Z</time>
      </trkpt>
      <trkpt lat="47.24057" lon="-1.45758">
        <ele>51</ele>
        <time>2020-06-01T15:29:54.000Z</time>
      </trkpt>
      <trkpt lat="47.24065" lon="-1.45745">
        <ele>51</ele>
        <time>2020-06-01T15:29:56.000Z</time>
      </trkpt>
      <trkpt lat="47.24072" lon="-1.45732">
        <ele>51</ele>
        <time>2020-06-01T15:29:58.000Z</time>
      </trkpt>
      <trkpt lat="47.24081" lon="-1.45719">
        <ele>51</ele>
        <time>2020-06-01T15:30:00.000Z</time>
      </trkpt>
      <trkpt lat="47.24089" lon="-1.45705">
        <ele>51</ele>
        <time>2020-06-01T15:30:02.000Z</time>
      </trkpt>
      <trkpt lat="47.24098" lon="-1.45691">
        <ele>51</ele>
        <time>2020-06-01T15:30:04.000Z</time>
      </trkpt>
      <trkpt lat="47.24105" lon="-1.45677">
        <ele>51</ele>
        <time>2020-06-01T15:30:06.000Z</time>
      </trkpt>
      <trkpt lat="47.24113" lon="-1.45662">
        <ele>51</ele>
        <time>2020-06-01T15:30:08.000Z</time>
      </trkpt>
      <trkpt lat="47.2412" lon="-1.45647">
        <ele>51</ele>
        <time>2020-06-01T15:30:10.000Z</time>
      </trkpt>
      <trkpt lat="47.24126" lon="-1.45631">
        <ele>51</ele>
        <time>2020-06-01T15:30:12.000Z</time>
      </trkpt>
      <trkpt lat="47.24133" lon="-1.45615">
        <ele>51</ele>
        <time>2020-06-01T15:30:14.000Z</time>
      </trkpt>
      <trkpt lat="47.24139" lon="-1.45599">
        <ele>51</ele>
        <time>2020-06-01T15:30:16.000Z</time>
      </trkpt>
      <trkpt lat="47.24145" lon="-1.45582">
        <ele>51</ele>
        <time>2020-06-01T15:30:18.000Z</time>
      </trkpt>
      <trkpt lat="47.2415" lon="-1.45566">
        <ele>51</ele>
        <time>2020-06-01T15:30:20.000Z</time>
      </trkpt>
      <trkpt lat="47.24154" lon="-1.45549">
        <ele>51</ele>
        <time>2020-06-01T15:30:22.000Z</time>
      </trkpt>
      <trkpt lat="47.24159" lon="-1.45533">
        <ele>51</ele>
        <time>2020-06-01T15:30:24.000Z</time>
      </trkpt>
      <trkpt lat="47.24164" lon="-1.45516">
        <ele>51</ele>
        <time>2020-06-01T15:30:26.000Z</time>
      </trkpt>
      <trkpt lat="47.24169" lon="-1.45499">
        <ele>52</ele>
        <time>2020-06-01T15:30:28.000Z</time>
      </trkpt>
      <trkpt lat="47.24173" lon="-1.45482">
        <ele>53</ele>
        <time>2020-06-01T15:30:30.000Z</time>
      </trkpt>
      <trkpt lat="47.24178" lon="-1.45468">
        <ele>54</ele>
        <time>2020-06-01T15:30:32.000Z</time>
      </trkpt>
      <trkpt lat="47.24183" lon="-1.45454">
        <ele>54</ele>
        <time>2020-06-01T15:30:34.000Z</time>
      </trkpt>
      <trkpt lat="47.24188" lon="-1.45437">
        <ele>54</ele>
        <time>2020-06-01T15:30:36.000Z</time>
      </trkpt>
      <trkpt lat="47.24194" lon="-1.45419">
        <ele>54</ele>
        <time>2020-06-01T15:30:38.000Z</time>
      </trkpt>
      <trkpt lat="47.242" lon="-1.45401">
        <ele>54</ele>
        <time>2020-06-01T15:30:40.000Z</time>
      </trkpt>
      <trkpt lat="47.24206" lon="-1.45383">
        <ele>54</ele>
        <time>2020-06-01T15:30:42.000Z</time>
      </trkpt>
      <trkpt lat="47.24212" lon="-1.45366">
        <ele>54</ele>
        <time>2020-06-01T15:30:44.000Z</time>
      </trkpt>
      <trkpt lat="47.24217" lon="-1.45349">
        <ele>54</ele>
        <time>2020-06-01T15:30:46.000Z</time>
      </trkpt>
      <trkpt lat="47.24223" lon="-1.45332">
        <ele>54</ele>
        <time>2020-06-01T15:30:48.000Z</time>
      </trkpt>
      <trkpt lat="47.24228" lon="-1.45315">
        <ele>54</ele>
        <time>2020-06-01T15:30:50.000Z</time>
      </trkpt>
      <trkpt lat="47.24234" lon="-1.45299">
        <ele>54</ele>
        <time>2020-06-01T15:30:52.000Z</time>
      </trkpt>
      <trkpt lat="47.24239" lon="-1.45283">
        <ele>54</ele>
        <time>2020-06-01T15:30:54.000Z</time>
      </trkpt>
      <trkpt lat="47.24245" lon="-1.45269">
        <ele>54</ele>
        <time>2020-06-01T15:30:56.000Z</time>
      </trkpt>
      <trkpt lat="47.24253" lon="-1.45257">
        <ele>54</ele>
        <time>2020-06-01T15:30:58.000Z</time>
      </trkpt>
      <trkpt lat="47.24258" lon="-1.45238">
        <ele>53</ele>
        <time>2020-06-01T15:31:00.000Z</time>
      </trkpt>
      <trkpt lat="47.2426" lon="-1.45219">
        <ele>52</ele>
        <time>2020-06-01T15:31:02.000Z</time>
      </trkpt>
      <trkpt lat="47.24261" lon="-1.452">
        <ele>52</ele>
        <time>2020-06-01T15:31:04.000Z</time>
      </trkpt>
      <trkpt lat="47.24264" lon="-1.45181">
        <ele>52</ele>
        <time>2020-06-01T15:31:06.000Z</time>
      </trkpt>
      <trkpt lat="47.24265" lon="-1.45163">
        <ele>52</ele>
        <time>2020-06-01T15:31:08.000Z</time>
      </trkpt>
      <trkpt lat="47.24266" lon="-1.45144">
        <ele>52</ele>
        <time>2020-06-01T15:31:10.000Z</time>
      </trkpt>
      <trkpt lat="47.24267" lon="-1.45125">
        <ele>51</ele>
        <time>2020-06-01T15:31:12.000Z</time>
      </trkpt>
      <trkpt lat="47.24269" lon="-1.45106">
        <ele>51</ele>
        <time>2020-06-01T15:31:14.000Z</time>
      </trkpt>
      <trkpt lat="47.2427" lon="-1.45087">
        <ele>52</ele>
        <time>2020-06-01T15:31:16.000Z</time>
      </trkpt>
      <trkpt lat="47.24271" lon="-1.45069">
        <ele>52</ele>
        <time>2020-06-01T15:31:18.000Z</time>
      </trkpt>
      <trkpt lat="47.24273" lon="-1.45051">
        <ele>52</ele>
        <time>2020-06-01T15:31:20.000Z</time>
      </trkpt>
      <trkpt lat="47.24275" lon="-1.45031">
        <ele>52</ele>
        <time>2020-06-01T15:31:22.000Z</time>
      </trkpt>
      <trkpt lat="47.24277" lon="-1.45012">
        <ele>51</ele>
        <time>2020-06-01T15:31:24.000Z</time>
      </trkpt>
      <trkpt lat="47.24279" lon="-1.44993">
        <ele>51</ele>
        <time>2020-06-01T15:31:26.000Z</time>
      </trkpt>
      <trkpt lat="47.2428" lon="-1.44974">
        <ele>51</ele>
        <time>2020-06-01T15:31:28.000Z</time>
      </trkpt>
      <trkpt lat="47.24281" lon="-1.44955">
        <ele>51</ele>
        <time>2020-06-01T15:31:30.000Z</time>
      </trkpt>
      <trkpt lat="47.24283" lon="-1.44935">
        <ele>51</ele>
        <time>2020-06-01T15:31:32.000Z</time>
      </trkpt>
      <trkpt lat="47.24285" lon="-1.44916">
        <ele>51</ele>
        <time>2020-06-01T15:31:34.000Z</time>
      </trkpt>
      <trkpt lat="47.24286" lon="-1.44898">
        <ele>51</ele>
        <time>2020-06-01T15:31:36.000Z</time>
      </trkpt>
      <trkpt lat="47.24287" lon="-1.44881">
        <ele>51</ele>
        <time>2020-06-01T15:31:38.000Z</time>
      </trkpt>
      <trkpt lat="47.24288" lon="-1.44862">
        <ele>51</ele>
        <time>2020-06-01T15:31:40.000Z</time>
      </trkpt>
      <trkpt lat="47.2429" lon="-1.44844">
        <ele>51</ele>
        <time>2020-06-01T15:31:42.000Z</time>
      </trkpt>
      <trkpt lat="47.24291" lon="-1.44824">
        <ele>51</ele>
        <time>2020-06-01T15:31:44.000Z</time>
      </trkpt>
      <trkpt lat="47.24293" lon="-1.44805">
        <ele>51</ele>
        <time>2020-06-01T15:31:46.000Z</time>
      </trkpt>
      <trkpt lat="47.24294" lon="-1.44786">
        <ele>50</ele>
        <time>2020-06-01T15:31:48.000Z</time>
      </trkpt>
      <trkpt lat="47.24296" lon="-1.44767">
        <ele>50</ele>
        <time>2020-06-01T15:31:50.000Z</time>
      </trkpt>
      <trkpt lat="47.24297" lon="-1.44747">
        <ele>50</ele>
        <time>2020-06-01T15:31:52.000Z</time>
      </trkpt>
      <trkpt lat="47.24299" lon="-1.44727">
        <ele>51</ele>
        <time>2020-06-01T15:31:54.000Z</time>
      </trkpt>
      <trkpt lat="47.24301" lon="-1.44708">
        <ele>51</ele>
        <time>2020-06-01T15:31:56.000Z</time>
      </trkpt>
      <trkpt lat="47.24302" lon="-1.44689">
        <ele>51</ele>
        <time>2020-06-01T15:31:58.000Z</time>
      </trkpt>
      <trkpt lat="47.24304" lon="-1.44669">
        <ele>51</ele>
        <time>2020-06-01T15:32:00.000Z</time>
      </trkpt>
      <trkpt lat="47.24305" lon="-1.4465">
        <ele>51</ele>
        <time>2020-06-01T15:32:02.000Z</time>
      </trkpt>
      <trkpt lat="47.24309" lon="-1.44631">
        <ele>51</ele>
        <time>2020-06-01T15:32:04.000Z</time>
      </trkpt>
      <trkpt lat="47.24312" lon="-1.44612">
        <ele>51</ele>
        <time>2020-06-01T15:32:06.000Z</time>
      </trkpt>
      <trkpt lat="47.24314" lon="-1.44593">
        <ele>51</ele>
        <time>2020-06-01T15:32:08.000Z</time>
      </trkpt>
      <trkpt lat="47.24314" lon="-1.44573">
        <ele>50</ele>
        <time>2020-06-01T15:32:10.000Z</time>
      </trkpt>
      <trkpt lat="47.24314" lon="-1.44552">
        <ele>50</ele>
        <time>2020-06-01T15:32:12.000Z</time>
      </trkpt>
      <trkpt lat="47.24315" lon="-1.44532">
        <ele>50</ele>
        <time>2020-06-01T15:32:14.000Z</time>
      </trkpt>
      <trkpt lat="47.24317" lon="-1.44513">
        <ele>49</ele>
        <time>2020-06-01T15:32:16.000Z</time>
      </trkpt>
      <trkpt lat="47.24318" lon="-1.44494">
        <ele>50</ele>
        <time>2020-06-01T15:32:18.000Z</time>
      </trkpt>
      <trkpt lat="47.2432" lon="-1.44475">
        <ele>50</ele>
        <time>2020-06-01T15:32:20.000Z</time>
      </trkpt>
      <trkpt lat="47.24321" lon="-1.44455">
        <ele>50</ele>
        <time>2020-06-01T15:32:22.000Z</time>
      </trkpt>
      <trkpt lat="47.24322" lon="-1.44437">
        <ele>50</ele>
        <time>2020-06-01T15:32:24.000Z</time>
      </trkpt>
      <trkpt lat="47.24324" lon="-1.44417">
        <ele>50</ele>
        <time>2020-06-01T15:32:26.000Z</time>
      </trkpt>
      <trkpt lat="47.24326" lon="-1.44398">
        <ele>50</ele>
        <time>2020-06-01T15:32:28.000Z</time>
      </trkpt>
      <trkpt lat="47.24327" lon="-1.44378">
        <ele>50</ele>
        <time>2020-06-01T15:32:30.000Z</time>
      </trkpt>
      <trkpt lat="47.24328" lon="-1.4436">
        <ele>50</ele>
        <time>2020-06-01T15:32:32.000Z</time>
      </trkpt>
      <trkpt lat="47.24329" lon="-1.44341">
        <ele>50</ele>
        <time>2020-06-01T15:32:34.000Z</time>
      </trkpt>
      <trkpt lat="47.24331" lon="-1.44322">
        <ele>50</ele>
        <time>2020-06-01T15:32:36.000Z</time>
      </trkpt>
      <trkpt lat="47.24335" lon="-1.44304">
        <ele>50</ele>
        <time>2020-06-01T15:32:38.000Z</time>
      </trkpt>
      <trkpt lat="47.24339" lon="-1.44286">
        <ele>50</ele>
        <time>2020-06-01T15:32:40.000Z</time>
      </trkpt>
      <trkpt lat="47.24339" lon="-1.44268">
        <ele>51</ele>
        <time>2020-06-01T15:32:42.000Z</time>
      </trkpt>
      <trkpt lat="47.24339" lon="-1.44248">
        <ele>51</ele>
        <time>2020-06-01T15:32:44.000Z</time>
      </trkpt>
      <trkpt lat="47.24339" lon="-1.4423">
        <ele>51</ele>
        <time>2020-06-01T15:32:46.000Z</time>
      </trkpt>
      <trkpt lat="47.24341" lon="-1.44212">
        <ele>51</ele>
        <time>2020-06-01T15:32:48.000Z</time>
      </trkpt>
      <trkpt lat="47.24344" lon="-1.44194">
        <ele>51</ele>
        <time>2020-06-01T15:32:50.000Z</time>
      </trkpt>
      <trkpt lat="47.24349" lon="-1.44176">
        <ele>51</ele>
        <time>2020-06-01T15:32:52.000Z</time>
      </trkpt>
      <trkpt lat="47.24355" lon="-1.44159">
        <ele>50</ele>
        <time>2020-06-01T15:32:54.000Z</time>
      </trkpt>
      <trkpt lat="47.24361" lon="-1.44143">
        <ele>50</ele>
        <time>2020-06-01T15:32:56.000Z</time>
      </trkpt>
      <trkpt lat="47.24369" lon="-1.44129">
        <ele>50</ele>
        <time>2020-06-01T15:32:58.000Z</time>
      </trkpt>
      <trkpt lat="47.24376" lon="-1.44114">
        <ele>51</ele>
        <time>2020-06-01T15:33:00.000Z</time>
      </trkpt>
      <trkpt lat="47.24384" lon="-1.44099">
        <ele>51</ele>
        <time>2020-06-01T15:33:02.000Z</time>
      </trkpt>
      <trkpt lat="47.24391" lon="-1.44084">
        <ele>50</ele>
        <time>2020-06-01T15:33:04.000Z</time>
      </trkpt>
      <trkpt lat="47.24399" lon="-1.44068">
        <ele>51</ele>
        <time>2020-06-01T15:33:06.000Z</time>
      </trkpt>
      <trkpt lat="47.24406" lon="-1.44054">
        <ele>51</ele>
        <time>2020-06-01T15:33:08.000Z</time>
      </trkpt>
      <trkpt lat="47.24413" lon="-1.44039">
        <ele>51</ele>
        <time>2020-06-01T15:33:10.000Z</time>
      </trkpt>
      <trkpt lat="47.2442" lon="-1.44024">
        <ele>50</ele>
        <time>2020-06-01T15:33:12.000Z</time>
      </trkpt>
      <trkpt lat="47.24428" lon="-1.4401">
        <ele>50</ele>
        <time>2020-06-01T15:33:14.000Z</time>
      </trkpt>
      <trkpt lat="47.24437" lon="-1.43998">
        <ele>50</ele>
        <time>2020-06-01T15:33:16.000Z</time>
      </trkpt>
      <trkpt lat="47.24446" lon="-1.43986">
        <ele>50</ele>
        <time>2020-06-01T15:33:18.000Z</time>
      </trkpt>
      <trkpt lat="47.24452" lon="-1.43971">
        <ele>51</ele>
        <time>2020-06-01T15:33:20.000Z</time>
      </trkpt>
      <trkpt lat="47.24458" lon="-1.43954">
        <ele>51</ele>
        <time>2020-06-01T15:33:22.000Z</time>
      </trkpt>
      <trkpt lat="47.24463" lon="-1.43938">
        <ele>51</ele>
        <time>2020-06-01T15:33:24.000Z</time>
      </trkpt>
      <trkpt lat="47.2447" lon="-1.43922">
        <ele>51</ele>
        <time>2020-06-01T15:33:26.000Z</time>
      </trkpt>
      <trkpt lat="47.24477" lon="-1.43906">
        <ele>50</ele>
        <time>2020-06-01T15:33:28.000Z</time>
      </trkpt>
      <trkpt lat="47.24482" lon="-1.43889">
        <ele>50</ele>
        <time>2020-06-01T15:33:30.000Z</time>
      </trkpt>
      <trkpt lat="47.24488" lon="-1.43872">
        <ele>50</ele>
        <time>2020-06-01T15:33:32.000Z</time>
      </trkpt>
      <trkpt lat="47.24493" lon="-1.43856">
        <ele>51</ele>
        <time>2020-06-01T15:33:34.000Z</time>
      </trkpt>
      <trkpt lat="47.24498" lon="-1.43839">
        <ele>50</ele>
        <time>2020-06-01T15:33:36.000Z</time>
      </trkpt>
      <trkpt lat="47.24503" lon="-1.43821">
        <ele>51</ele>
        <time>2020-06-01T15:33:38.000Z</time>
      </trkpt>
      <trkpt lat="47.24508" lon="-1.43804">
        <ele>51</ele>
        <time>2020-06-01T15:33:40.000Z</time>
      </trkpt>
      <trkpt lat="47.24513" lon="-1.43787">
        <ele>50</ele>
        <time>2020-06-01T15:33:42.000Z</time>
      </trkpt>
      <trkpt lat="47.24518" lon="-1.43769">
        <ele>50</ele>
        <time>2020-06-01T15:33:44.000Z</time>
      </trkpt>
      <trkpt lat="47.24523" lon="-1.43753">
        <ele>50</ele>
        <time>2020-06-01T15:33:46.000Z</time>
      </trkpt>
      <trkpt lat="47.2453" lon="-1.43736">
        <ele>50</ele>
        <time>2020-06-01T15:33:48.000Z</time>
      </trkpt>
      <trkpt lat="47.24536" lon="-1.43719">
        <ele>50</ele>
        <time>2020-06-01T15:33:50.000Z</time>
      </trkpt>
      <trkpt lat="47.24546" lon="-1.43705">
        <ele>50</ele>
        <time>2020-06-01T15:33:52.000Z</time>
      </trkpt>
      <trkpt lat="47.24557" lon="-1.43697">
        <ele>50</ele>
        <time>2020-06-01T15:33:54.000Z</time>
      </trkpt>
      <trkpt lat="47.24567" lon="-1.43686">
        <ele>50</ele>
        <time>2020-06-01T15:33:56.000Z</time>
      </trkpt>
      <trkpt lat="47.24578" lon="-1.43675">
        <ele>50</ele>
        <time>2020-06-01T15:33:58.000Z</time>
      </trkpt>
      <trkpt lat="47.24587" lon="-1.43662">
        <ele>50</ele>
        <time>2020-06-01T15:34:00.000Z</time>
      </trkpt>
      <trkpt lat="47.24596" lon="-1.43649">
        <ele>50</ele>
        <time>2020-06-01T15:34:02.000Z</time>
      </trkpt>
      <trkpt lat="47.24606" lon="-1.43637">
        <ele>50</ele>
        <time>2020-06-01T15:34:04.000Z</time>
      </trkpt>
      <trkpt lat="47.24616" lon="-1.43628">
        <ele>50</ele>
        <time>2020-06-01T15:34:06.000Z</time>
      </trkpt>
      <trkpt lat="47.24627" lon="-1.43619">
        <ele>49</ele>
        <time>2020-06-01T15:34:08.000Z</time>
      </trkpt>
      <trkpt lat="47.24638" lon="-1.43609">
        <ele>49</ele>
        <time>2020-06-01T15:34:10.000Z</time>
      </trkpt>
      <trkpt lat="47.24648" lon="-1.43598">
        <ele>49</ele>
        <time>2020-06-01T15:34:12.000Z</time>
      </trkpt>
      <trkpt lat="47.24659" lon="-1.43587">
        <ele>50</ele>
        <time>2020-06-01T15:34:14.000Z</time>
      </trkpt>
      <trkpt lat="47.24669" lon="-1.43579">
        <ele>50</ele>
        <time>2020-06-01T15:34:16.000Z</time>
      </trkpt>
      <trkpt lat="47.24679" lon="-1.4357">
        <ele>49</ele>
        <time>2020-06-01T15:34:18.000Z</time>
      </trkpt>
      <trkpt lat="47.24688" lon="-1.43556">
        <ele>49</ele>
        <time>2020-06-01T15:34:20.000Z</time>
      </trkpt>
      <trkpt lat="47.24694" lon="-1.43538">
        <ele>49</ele>
        <time>2020-06-01T15:34:22.000Z</time>
      </trkpt>
      <trkpt lat="47.24699" lon="-1.43521">
        <ele>49</ele>
        <time>2020-06-01T15:34:24.000Z</time>
      </trkpt>
      <trkpt lat="47.24704" lon="-1.43504">
        <ele>49</ele>
        <time>2020-06-01T15:34:26.000Z</time>
      </trkpt>
      <trkpt lat="47.24709" lon="-1.43488">
        <ele>49</ele>
        <time>2020-06-01T15:34:28.000Z</time>
      </trkpt>
      <trkpt lat="47.24716" lon="-1.43474">
        <ele>49</ele>
        <time>2020-06-01T15:34:30.000Z</time>
      </trkpt>
      <trkpt lat="47.24724" lon="-1.4346">
        <ele>50</ele>
        <time>2020-06-01T15:34:32.000Z</time>
      </trkpt>
      <trkpt lat="47.24732" lon="-1.43446">
        <ele>49</ele>
        <time>2020-06-01T15:34:34.000Z</time>
      </trkpt>
      <trkpt lat="47.2474" lon="-1.43433">
        <ele>49</ele>
        <time>2020-06-01T15:34:36.000Z</time>
      </trkpt>
      <trkpt lat="47.24749" lon="-1.4342">
        <ele>50</ele>
        <time>2020-06-01T15:34:38.000Z</time>
      </trkpt>
      <trkpt lat="47.24758" lon="-1.43408">
        <ele>50</ele>
        <time>2020-06-01T15:34:40.000Z</time>
      </trkpt>
      <trkpt lat="47.24767" lon="-1.43397">
        <ele>50</ele>
        <time>2020-06-01T15:34:42.000Z</time>
      </trkpt>
      <trkpt lat="47.24777" lon="-1.43386">
        <ele>51</ele>
        <time>2020-06-01T15:34:44.000Z</time>
      </trkpt>
      <trkpt lat="47.24786" lon="-1.43375">
        <ele>52</ele>
        <time>2020-06-01T15:34:46.000Z</time>
      </trkpt>
      <trkpt lat="47.24794" lon="-1.43366">
        <ele>52</ele>
        <time>2020-06-01T15:34:48.000Z</time>
      </trkpt>
      <trkpt lat="47.24802" lon="-1.43359">
        <ele>53</ele>
        <time>2020-06-01T15:34:50.000Z</time>
      </trkpt>
      <trkpt lat="47.24812" lon="-1.43353">
        <ele>53</ele>
        <time>2020-06-01T15:34:52.000Z</time>
      </trkpt>
      <trkpt lat="47.24823" lon="-1.43346">
        <ele>53</ele>
        <time>2020-06-01T15:34:54.000Z</time>
      </trkpt>
      <trkpt lat="47.24834" lon="-1.43339">
        <ele>53</ele>
        <time>2020-06-01T15:34:56.000Z</time>
      </trkpt>
      <trkpt lat="47.24844" lon="-1.43332">
        <ele>53</ele>
        <time>2020-06-01T15:34:58.000Z</time>
      </trkpt>
      <trkpt lat="47.24854" lon="-1.43325">
        <ele>53</ele>
        <time>2020-06-01T15:35:00.000Z</time>
      </trkpt>
      <trkpt lat="47.24864" lon="-1.43318">
        <ele>53</ele>
        <time>2020-06-01T15:35:02.000Z</time>
      </trkpt>
      <trkpt lat="47.24875" lon="-1.43311">
        <ele>53</ele>
        <time>2020-06-01T15:35:04.000Z</time>
      </trkpt>
      <trkpt lat="47.24886" lon="-1.43304">
        <ele>53</ele>
        <time>2020-06-01T15:35:06.000Z</time>
      </trkpt>
      <trkpt lat="47.24897" lon="-1.43296">
        <ele>52</ele>
        <time>2020-06-01T15:35:08.000Z</time>
      </trkpt>
      <trkpt lat="47.24908" lon="-1.43288">
        <ele>52</ele>
        <time>2020-06-01T15:35:10.000Z</time>
      </trkpt>
      <trkpt lat="47.2492" lon="-1.4328">
        <ele>52</ele>
        <time>2020-06-01T15:35:12.000Z</time>
      </trkpt>
      <trkpt lat="47.24932" lon="-1.43272">
        <ele>51</ele>
        <time>2020-06-01T15:35:14.000Z</time>
      </trkpt>
      <trkpt lat="47.24944" lon="-1.43263">
        <ele>50</ele>
        <time>2020-06-01T15:35:16.000Z</time>
      </trkpt>
      <trkpt lat="47.24957" lon="-1.43255">
        <ele>50</ele>
        <time>2020-06-01T15:35:18.000Z</time>
      </trkpt>
      <trkpt lat="47.24969" lon="-1.43248">
        <ele>50</ele>
        <time>2020-06-01T15:35:20.000Z</time>
      </trkpt>
      <trkpt lat="47.24981" lon="-1.43242">
        <ele>50</ele>
        <time>2020-06-01T15:35:22.000Z</time>
      </trkpt>
      <trkpt lat="47.24992" lon="-1.43234">
        <ele>49</ele>
        <time>2020-06-01T15:35:24.000Z</time>
      </trkpt>
      <trkpt lat="47.25003" lon="-1.43226">
        <ele>49</ele>
        <time>2020-06-01T15:35:26.000Z</time>
      </trkpt>
      <trkpt lat="47.25014" lon="-1.43217">
        <ele>50</ele>
        <time>2020-06-01T15:35:28.000Z</time>
      </trkpt>
      <trkpt lat="47.25025" lon="-1.43209">
        <ele>50</ele>
        <time>2020-06-01T15:35:30.000Z</time>
      </trkpt>
      <trkpt lat="47.25037" lon="-1.432">
        <ele>50</ele>
        <time>2020-06-01T15:35:32.000Z</time>
      </trkpt>
      <trkpt lat="47.25048" lon="-1.43188">
        <ele>50</ele>
        <time>2020-06-01T15:35:34.000Z</time>
      </trkpt>
      <trkpt lat="47.25059" lon="-1.43177">
        <ele>50</ele>
        <time>2020-06-01T15:35:36.000Z</time>
      </trkpt>
      <trkpt lat="47.25069" lon="-1.43164">
        <ele>51</ele>
        <time>2020-06-01T15:35:38.000Z</time>
      </trkpt>
      <trkpt lat="47.25079" lon="-1.43151">
        <ele>51</ele>
        <time>2020-06-01T15:35:40.000Z</time>
      </trkpt>
      <trkpt lat="47.25089" lon="-1.43138">
        <ele>51</ele>
        <time>2020-06-01T15:35:42.000Z</time>
      </trkpt>
      <trkpt lat="47.25099" lon="-1.43125">
        <ele>50</ele>
        <time>2020-06-01T15:35:44.000Z</time>
      </trkpt>
      <trkpt lat="47.2511" lon="-1.43113">
        <ele>50</ele>
        <time>2020-06-01T15:35:46.000Z</time>
      </trkpt>
      <trkpt lat="47.2512" lon="-1.43101">
        <ele>50</ele>
        <time>2020-06-01T15:35:48.000Z</time>
      </trkpt>
      <trkpt lat="47.25129" lon="-1.43089">
        <ele>50</ele>
        <time>2020-06-01T15:35:50.000Z</time>
      </trkpt>
      <trkpt lat="47.25138" lon="-1.43076">
        <ele>50</ele>
        <time>2020-06-01T15:35:52.000Z</time>
      </trkpt>
      <trkpt lat="47.25147" lon="-1.43064">
        <ele>50</ele>
        <time>2020-06-01T15:35:54.000Z</time>
      </trkpt>
      <trkpt lat="47.25157" lon="-1.43054">
        <ele>50</ele>
        <time>2020-06-01T15:35:56.000Z</time>
      </trkpt>
      <trkpt lat="47.25168" lon="-1.43044">
        <ele>50</ele>
        <time>2020-06-01T15:35:58.000Z</time>
      </trkpt>
      <trkpt lat="47.25179" lon="-1.43031">
        <ele>50</ele>
        <time>2020-06-01T15:36:00.000Z</time>
      </trkpt>
      <trkpt lat="47.25189" lon="-1.43018">
        <ele>50</ele>
        <time>2020-06-01T15:36:02.000Z</time>
      </trkpt>
      <trkpt lat="47.252" lon="-1.43005">
        <ele>50</ele>
        <time>2020-06-01T15:36:04.000Z</time>
      </trkpt>
      <trkpt lat="47.25211" lon="-1.42995">
        <ele>50</ele>
        <time>2020-06-01T15:36:06.000Z</time>
      </trkpt>
      <trkpt lat="47.25223" lon="-1.42985">
        <ele>50</ele>
        <time>2020-06-01T15:36:08.000Z</time>
      </trkpt>
      <trkpt lat="47.25234" lon="-1.42977">
        <ele>50</ele>
        <time>2020-06-01T15:36:10.000Z</time>
      </trkpt>
      <trkpt lat="47.25246" lon="-1.4297">
        <ele>50</ele>
        <time>2020-06-01T15:36:12.000Z</time>
      </trkpt>
      <trkpt lat="47.25258" lon="-1.42963">
        <ele>49</ele>
        <time>2020-06-01T15:36:14.000Z</time>
      </trkpt>
      <trkpt lat="47.25269" lon="-1.42956">
        <ele>50</ele>
        <time>2020-06-01T15:36:16.000Z</time>
      </trkpt>
      <trkpt lat="47.25281" lon="-1.42949">
        <ele>50</ele>
        <time>2020-06-01T15:36:18.000Z</time>
      </trkpt>
      <trkpt lat="47.25293" lon="-1.42942">
        <ele>50</ele>
        <time>2020-06-01T15:36:20.000Z</time>
      </trkpt>
      <trkpt lat="47.25304" lon="-1.42936">
        <ele>50</ele>
        <time>2020-06-01T15:36:22.000Z</time>
      </trkpt>
      <trkpt lat="47.25315" lon="-1.42928">
        <ele>50</ele>
        <time>2020-06-01T15:36:24.000Z</time>
      </trkpt>
      <trkpt lat="47.25326" lon="-1.42921">
        <ele>50</ele>
        <time>2020-06-01T15:36:26.000Z</time>
      </trkpt>
      <trkpt lat="47.25336" lon="-1.42915">
        <ele>50</ele>
        <time>2020-06-01T15:36:28.000Z</time>
      </trkpt>
      <trkpt lat="47.25347" lon="-1.4291">
        <ele>50</ele>
        <time>2020-06-01T15:36:30.000Z</time>
      </trkpt>
      <trkpt lat="47.25358" lon="-1.42903">
        <ele>50</ele>
        <time>2020-06-01T15:36:32.000Z</time>
      </trkpt>
      <trkpt lat="47.2537" lon="-1.42896">
        <ele>49</ele>
        <time>2020-06-01T15:36:34.000Z</time>
      </trkpt>
      <trkpt lat="47.25381" lon="-1.42888">
        <ele>50</ele>
        <time>2020-06-01T15:36:36.000Z</time>
      </trkpt>
      <trkpt lat="47.25391" lon="-1.42881">
        <ele>50</ele>
        <time>2020-06-01T15:36:38.000Z</time>
      </trkpt>
      <trkpt lat="47.25402" lon="-1.42875">
        <ele>50</ele>
        <time>2020-06-01T15:36:40.000Z</time>
      </trkpt>
      <trkpt lat="47.25413" lon="-1.42868">
        <ele>51</ele>
        <time>2020-06-01T15:36:42.000Z</time>
      </trkpt>
      <trkpt lat="47.25424" lon="-1.4286">
        <ele>51</ele>
        <time>2020-06-01T15:36:44.000Z</time>
      </trkpt>
      <trkpt lat="47.25435" lon="-1.42853">
        <ele>50</ele>
        <time>2020-06-01T15:36:46.000Z</time>
      </trkpt>
      <trkpt lat="47.25446" lon="-1.42846">
        <ele>51</ele>
        <time>2020-06-01T15:36:48.000Z</time>
      </trkpt>
      <trkpt lat="47.25457" lon="-1.42839">
        <ele>51</ele>
        <time>2020-06-01T15:36:50.000Z</time>
      </trkpt>
      <trkpt lat="47.25468" lon="-1.4283">
        <ele>51</ele>
        <time>2020-06-01T15:36:52.000Z</time>
      </trkpt>
      <trkpt lat="47.25478" lon="-1.42822">
        <ele>51</ele>
        <time>2020-06-01T15:36:54.000Z</time>
      </trkpt>
      <trkpt lat="47.25489" lon="-1.42813">
        <ele>51</ele>
        <time>2020-06-01T15:36:56.000Z</time>
      </trkpt>
      <trkpt lat="47.25499" lon="-1.42805">
        <ele>51</ele>
        <time>2020-06-01T15:36:58.000Z</time>
      </trkpt>
      <trkpt lat="47.2551" lon="-1.42796">
        <ele>51</ele>
        <time>2020-06-01T15:37:00.000Z</time>
      </trkpt>
      <trkpt lat="47.2552" lon="-1.42787">
        <ele>51</ele>
        <time>2020-06-01T15:37:02.000Z</time>
      </trkpt>
      <trkpt lat="47.25531" lon="-1.42779">
        <ele>51</ele>
        <time>2020-06-01T15:37:04.000Z</time>
      </trkpt>
      <trkpt lat="47.25542" lon="-1.4277">
        <ele>51</ele>
        <time>2020-06-01T15:37:06.000Z</time>
      </trkpt>
      <trkpt lat="47.25552" lon="-1.42761">
        <ele>51</ele>
        <time>2020-06-01T15:37:08.000Z</time>
      </trkpt>
      <trkpt lat="47.25563" lon="-1.42753">
        <ele>51</ele>
        <time>2020-06-01T15:37:10.000Z</time>
      </trkpt>
      <trkpt lat="47.25573" lon="-1.42744">
        <ele>51</ele>
        <time>2020-06-01T15:37:12.000Z</time>
      </trkpt>
      <trkpt lat="47.25585" lon="-1.42736">
        <ele>51</ele>
        <time>2020-06-01T15:37:14.000Z</time>
      </trkpt>
      <trkpt lat="47.25595" lon="-1.42726">
        <ele>51</ele>
        <time>2020-06-01T15:37:16.000Z</time>
      </trkpt>
      <trkpt lat="47.25606" lon="-1.42718">
        <ele>51</ele>
        <time>2020-06-01T15:37:18.000Z</time>
      </trkpt>
      <trkpt lat="47.25616" lon="-1.42709">
        <ele>51</ele>
        <time>2020-06-01T15:37:20.000Z</time>
      </trkpt>
      <trkpt lat="47.25627" lon="-1.42701">
        <ele>50</ele>
        <time>2020-06-01T15:37:22.000Z</time>
      </trkpt>
      <trkpt lat="47.25638" lon="-1.42692">
        <ele>50</ele>
        <time>2020-06-01T15:37:24.000Z</time>
      </trkpt>
      <trkpt lat="47.25649" lon="-1.42683">
        <ele>50</ele>
        <time>2020-06-01T15:37:26.000Z</time>
      </trkpt>
      <trkpt lat="47.2566" lon="-1.42673">
        <ele>51</ele>
        <time>2020-06-01T15:37:28.000Z</time>
      </trkpt>
      <trkpt lat="47.25669" lon="-1.42663">
        <ele>53</ele>
        <time>2020-06-01T15:37:30.000Z</time>
      </trkpt>
      <trkpt lat="47.25676" lon="-1.42655">
        <ele>54</ele>
        <time>2020-06-01T15:37:32.000Z</time>
      </trkpt>
      <trkpt lat="47.25686" lon="-1.42648">
        <ele>54</ele>
        <time>2020-06-01T15:37:34.000Z</time>
      </trkpt>
      <trkpt lat="47.25697" lon="-1.42644">
        <ele>53</ele>
        <time>2020-06-01T15:37:36.000Z</time>
      </trkpt>
      <trkpt lat="47.25711" lon="-1.42645">
        <ele>52</ele>
        <time>2020-06-01T15:37:38.000Z</time>
      </trkpt>
      <trkpt lat="47.25725" lon="-1.42645">
        <ele>51</ele>
        <time>2020-06-01T15:37:40.000Z</time>
      </trkpt>
      <trkpt lat="47.25737" lon="-1.42644">
        <ele>52</ele>
        <time>2020-06-01T15:37:42.000Z</time>
      </trkpt>
      <trkpt lat="47.25745" lon="-1.42634">
        <ele>52</ele>
        <time>2020-06-01T15:37:44.000Z</time>
      </trkpt>
      <trkpt lat="47.25751" lon="-1.42618">
        <ele>52</ele>
        <time>2020-06-01T15:37:46.000Z</time>
      </trkpt>
      <trkpt lat="47.25761" lon="-1.42602">
        <ele>52</ele>
        <time>2020-06-01T15:37:48.000Z</time>
      </trkpt>
      <trkpt lat="47.2577" lon="-1.42587">
        <ele>51</ele>
        <time>2020-06-01T15:37:50.000Z</time>
      </trkpt>
      <trkpt lat="47.25783" lon="-1.42575">
        <ele>51</ele>
        <time>2020-06-01T15:37:52.000Z</time>
      </trkpt>
      <trkpt lat="47.25796" lon="-1.42565">
        <ele>50</ele>
        <time>2020-06-01T15:37:54.000Z</time>
      </trkpt>
      <trkpt lat="47.25808" lon="-1.42554">
        <ele>51</ele>
        <time>2020-06-01T15:37:56.000Z</time>
      </trkpt>
      <trkpt lat="47.25819" lon="-1.42544">
        <ele>51</ele>
        <time>2020-06-01T15:37:58.000Z</time>
      </trkpt>
      <trkpt lat="47.25831" lon="-1.42534">
        <ele>51</ele>
        <time>2020-06-01T15:38:00.000Z</time>
      </trkpt>
      <trkpt lat="47.25842" lon="-1.42525">
        <ele>51</ele>
        <time>2020-06-01T15:38:02.000Z</time>
      </trkpt>
      <trkpt lat="47.25854" lon="-1.42516">
        <ele>51</ele>
        <time>2020-06-01T15:38:04.000Z</time>
      </trkpt>
      <trkpt lat="47.25866" lon="-1.42507">
        <ele>51</ele>
        <time>2020-06-01T15:38:06.000Z</time>
      </trkpt>
      <trkpt lat="47.25878" lon="-1.42499">
        <ele>50</ele>
        <time>2020-06-01T15:38:08.000Z</time>
      </trkpt>
      <trkpt lat="47.2589" lon="-1.42491">
        <ele>50</ele>
        <time>2020-06-01T15:38:10.000Z</time>
      </trkpt>
      <trkpt lat="47.259" lon="-1.4248">
        <ele>50</ele>
        <time>2020-06-01T15:38:12.000Z</time>
      </trkpt>
      <trkpt lat="47.2591" lon="-1.42468">
        <ele>51</ele>
        <time>2020-06-01T15:38:14.000Z</time>
      </trkpt>
      <trkpt lat="47.25919" lon="-1.42454">
        <ele>51</ele>
        <time>2020-06-01T15:38:16.000Z</time>
      </trkpt>
      <trkpt lat="47.25929" lon="-1.42442">
        <ele>51</ele>
        <time>2020-06-01T15:38:18.000Z</time>
      </trkpt>
      <trkpt lat="47.25939" lon="-1.4243">
        <ele>51</ele>
        <time>2020-06-01T15:38:20.000Z</time>
      </trkpt>
      <trkpt lat="47.25948" lon="-1.42418">
        <ele>51</ele>
        <time>2020-06-01T15:38:22.000Z</time>
      </trkpt>
      <trkpt lat="47.25958" lon="-1.42405">
        <ele>52</ele>
        <time>2020-06-01T15:38:24.000Z</time>
      </trkpt>
      <trkpt lat="47.25967" lon="-1.42392">
        <ele>52</ele>
        <time>2020-06-01T15:38:26.000Z</time>
      </trkpt>
      <trkpt lat="47.25977" lon="-1.42381">
        <ele>51</ele>
        <time>2020-06-01T15:38:28.000Z</time>
      </trkpt>
      <trkpt lat="47.25988" lon="-1.4237">
        <ele>51</ele>
        <time>2020-06-01T15:38:30.000Z</time>
      </trkpt>
      <trkpt lat="47.25998" lon="-1.42358">
        <ele>52</ele>
        <time>2020-06-01T15:38:32.000Z</time>
      </trkpt>
      <trkpt lat="47.26006" lon="-1.42346">
        <ele>52</ele>
        <time>2020-06-01T15:38:34.000Z</time>
      </trkpt>
      <trkpt lat="47.26014" lon="-1.42333">
        <ele>52</ele>
        <time>2020-06-01T15:38:36.000Z</time>
      </trkpt>
      <trkpt lat="47.26023" lon="-1.42321">
        <ele>52</ele>
        <time>2020-06-01T15:38:38.000Z</time>
      </trkpt>
      <trkpt lat="47.26032" lon="-1.42309">
        <ele>52</ele>
        <time>2020-06-01T15:38:40.000Z</time>
      </trkpt>
      <trkpt lat="47.26042" lon="-1.42297">
        <ele>52</ele>
        <time>2020-06-01T15:38:42.000Z</time>
      </trkpt>
      <trkpt lat="47.26051" lon="-1.42285">
        <ele>52</ele>
        <time>2020-06-01T15:38:44.000Z</time>
      </trkpt>
      <trkpt lat="47.2606" lon="-1.42274">
        <ele>51</ele>
        <time>2020-06-01T15:38:46.000Z</time>
      </trkpt>
      <trkpt lat="47.2607" lon="-1.42261">
        <ele>51</ele>
        <time>2020-06-01T15:38:48.000Z</time>
      </trkpt>
      <trkpt lat="47.26079" lon="-1.42249">
        <ele>51</ele>
        <time>2020-06-01T15:38:50.000Z</time>
      </trkpt>
      <trkpt lat="47.26088" lon="-1.42236">
        <ele>51</ele>
        <time>2020-06-01T15:38:52.000Z</time>
      </trkpt>
      <trkpt lat="47.26096" lon="-1.42225">
        <ele>51</ele>
        <time>2020-06-01T15:38:54.000Z</time>
      </trkpt>
      <trkpt lat="47.26106" lon="-1.42214">
        <ele>51</ele>
        <time>2020-06-01T15:38:56.000Z</time>
      </trkpt>
      <trkpt lat="47.26115" lon="-1.42203">
        <ele>51</ele>
        <time>2020-06-01T15:38:58.000Z</time>
      </trkpt>
      <trkpt lat="47.26124" lon="-1.42191">
        <ele>52</ele>
        <time>2020-06-01T15:39:00.000Z</time>
      </trkpt>
      <trkpt lat="47.26133" lon="-1.42178">
        <ele>52</ele>
        <time>2020-06-01T15:39:02.000Z</time>
      </trkpt>
      <trkpt lat="47.26142" lon="-1.42165">
        <ele>52</ele>
        <time>2020-06-01T15:39:04.000Z</time>
      </trkpt>
      <trkpt lat="47.26149" lon="-1.42151">
        <ele>53</ele>
        <time>2020-06-01T15:39:06.000Z</time>
      </trkpt>
      <trkpt lat="47.26155" lon="-1.42137">
        <ele>53</ele>
        <time>2020-06-01T15:39:08.000Z</time>
      </trkpt>
      <trkpt lat="47.26163" lon="-1.42127">
        <ele>54</ele>
        <time>2020-06-01T15:39:10.000Z</time>
      </trkpt>
      <trkpt lat="47.2617" lon="-1.42113">
        <ele>53</ele>
        <time>2020-06-01T15:39:12.000Z</time>
      </trkpt>
      <trkpt lat="47.26179" lon="-1.42098">
        <ele>52</ele>
        <time>2020-06-01T15:39:14.000Z</time>
      </trkpt>
      <trkpt lat="47.26187" lon="-1.42083">
        <ele>52</ele>
        <time>2020-06-01T15:39:16.000Z</time>
      </trkpt>
      <trkpt lat="47.26196" lon="-1.42074">
        <ele>52</ele>
        <time>2020-06-01T15:39:18.000Z</time>
      </trkpt>
      <trkpt lat="47.26206" lon="-1.42069">
        <ele>52</ele>
        <time>2020-06-01T15:39:20.000Z</time>
      </trkpt>
      <trkpt lat="47.26214" lon="-1.42051">
        <ele>51</ele>
        <time>2020-06-01T15:39:22.000Z</time>
      </trkpt>
      <trkpt lat="47.26221" lon="-1.42032">
        <ele>51</ele>
        <time>2020-06-01T15:39:24.000Z</time>
      </trkpt>
      <trkpt lat="47.26229" lon="-1.42015">
        <ele>51</ele>
        <time>2020-06-01T15:39:26.000Z</time>
      </trkpt>
      <trkpt lat="47.26237" lon="-1.42">
        <ele>51</ele>
        <time>2020-06-01T15:39:28.000Z</time>
      </trkpt>
      <trkpt lat="47.26245" lon="-1.41985">
        <ele>51</ele>
        <time>2020-06-01T15:39:30.000Z</time>
      </trkpt>
      <trkpt lat="47.26253" lon="-1.4197">
        <ele>51</ele>
        <time>2020-06-01T15:39:32.000Z</time>
      </trkpt>
      <trkpt lat="47.26261" lon="-1.41956">
        <ele>51</ele>
        <time>2020-06-01T15:39:34.000Z</time>
      </trkpt>
      <trkpt lat="47.2627" lon="-1.41941">
        <ele>50</ele>
        <time>2020-06-01T15:39:36.000Z</time>
      </trkpt>
      <trkpt lat="47.26278" lon="-1.41927">
        <ele>50</ele>
        <time>2020-06-01T15:39:38.000Z</time>
      </trkpt>
      <trkpt lat="47.26286" lon="-1.41912">
        <ele>50</ele>
        <time>2020-06-01T15:39:40.000Z</time>
      </trkpt>
      <trkpt lat="47.26295" lon="-1.41899">
        <ele>50</ele>
        <time>2020-06-01T15:39:42.000Z</time>
      </trkpt>
      <trkpt lat="47.26303" lon="-1.41885">
        <ele>50</ele>
        <time>2020-06-01T15:39:44.000Z</time>
      </trkpt>
      <trkpt lat="47.26311" lon="-1.4187">
        <ele>51</ele>
        <time>2020-06-01T15:39:46.000Z</time>
      </trkpt>
      <trkpt lat="47.2632" lon="-1.41856">
        <ele>51</ele>
        <time>2020-06-01T15:39:48.000Z</time>
      </trkpt>
      <trkpt lat="47.26328" lon="-1.41842">
        <ele>51</ele>
        <time>2020-06-01T15:39:50.000Z</time>
      </trkpt>
      <trkpt lat="47.26337" lon="-1.41827">
        <ele>51</ele>
        <time>2020-06-01T15:39:52.000Z</time>
      </trkpt>
      <trkpt lat="47.26345" lon="-1.41812">
        <ele>51</ele>
        <time>2020-06-01T15:39:54.000Z</time>
      </trkpt>
      <trkpt lat="47.26354" lon="-1.41796">
        <ele>51</ele>
        <time>2020-06-01T15:39:56.000Z</time>
      </trkpt>
      <trkpt lat="47.26362" lon="-1.41781">
        <ele>50</ele>
        <time>2020-06-01T15:39:58.000Z</time>
      </trkpt>
      <trkpt lat="47.26371" lon="-1.41767">
        <ele>50</ele>
        <time>2020-06-01T15:40:00.000Z</time>
      </trkpt>
      <trkpt lat="47.2638" lon="-1.41752">
        <ele>50</ele>
        <time>2020-06-01T15:40:02.000Z</time>
      </trkpt>
      <trkpt lat="47.26388" lon="-1.41737">
        <ele>50</ele>
        <time>2020-06-01T15:40:04.000Z</time>
      </trkpt>
      <trkpt lat="47.26397" lon="-1.41723">
        <ele>51</ele>
        <time>2020-06-01T15:40:06.000Z</time>
      </trkpt>
      <trkpt lat="47.26406" lon="-1.41709">
        <ele>51</ele>
        <time>2020-06-01T15:40:08.000Z</time>
      </trkpt>
      <trkpt lat="47.26414" lon="-1.41695">
        <ele>51</ele>
        <time>2020-06-01T15:40:10.000Z</time>
      </trkpt>
      <trkpt lat="47.26422" lon="-1.41681">
        <ele>51</ele>
        <time>2020-06-01T15:40:12.000Z</time>
      </trkpt>
      <trkpt lat="47.26431" lon="-1.41666">
        <ele>51</ele>
        <time>2020-06-01T15:40:14.000Z</time>
      </trkpt>
      <trkpt lat="47.26439" lon="-1.41651">
        <ele>51</ele>
        <time>2020-06-01T15:40:16.000Z</time>
      </trkpt>
      <trkpt lat="47.26448" lon="-1.41637">
        <ele>50</ele>
        <time>2020-06-01T15:40:18.000Z</time>
      </trkpt>
      <trkpt lat="47.26456" lon="-1.41622">
        <ele>50</ele>
        <time>2020-06-01T15:40:20.000Z</time>
      </trkpt>
      <trkpt lat="47.26465" lon="-1.41607">
        <ele>51</ele>
        <time>2020-06-01T15:40:22.000Z</time>
      </trkpt>
      <trkpt lat="47.26474" lon="-1.41592">
        <ele>51</ele>
        <time>2020-06-01T15:40:24.000Z</time>
      </trkpt>
      <trkpt lat="47.26483" lon="-1.41578">
        <ele>51</ele>
        <time>2020-06-01T15:40:26.000Z</time>
      </trkpt>
      <trkpt lat="47.26491" lon="-1.41563">
        <ele>52</ele>
        <time>2020-06-01T15:40:28.000Z</time>
      </trkpt>
      <trkpt lat="47.265" lon="-1.41549">
        <ele>51</ele>
        <time>2020-06-01T15:40:30.000Z</time>
      </trkpt>
      <trkpt lat="47.26508" lon="-1.41535">
        <ele>51</ele>
        <time>2020-06-01T15:40:32.000Z</time>
      </trkpt>
      <trkpt lat="47.26517" lon="-1.4152">
        <ele>51</ele>
        <time>2020-06-01T15:40:34.000Z</time>
      </trkpt>
      <trkpt lat="47.26525" lon="-1.41505">
        <ele>50</ele>
        <time>2020-06-01T15:40:36.000Z</time>
      </trkpt>
      <trkpt lat="47.26533" lon="-1.41491">
        <ele>50</ele>
        <time>2020-06-01T15:40:38.000Z</time>
      </trkpt>
      <trkpt lat="47.26543" lon="-1.41479">
        <ele>50</ele>
        <time>2020-06-01T15:40:40.000Z</time>
      </trkpt>
      <trkpt lat="47.26552" lon="-1.41466">
        <ele>50</ele>
        <time>2020-06-01T15:40:42.000Z</time>
      </trkpt>
      <trkpt lat="47.26561" lon="-1.41451">
        <ele>50</ele>
        <time>2020-06-01T15:40:44.000Z</time>
      </trkpt>
      <trkpt lat="47.26567" lon="-1.41434">
        <ele>50</ele>
        <time>2020-06-01T15:40:46.000Z</time>
      </trkpt>
      <trkpt lat="47.26575" lon="-1.41419">
        <ele>51</ele>
        <time>2020-06-01T15:40:48.000Z</time>
      </trkpt>
      <trkpt lat="47.26582" lon="-1.41403">
        <ele>51</ele>
        <time>2020-06-01T15:40:50.000Z</time>
      </trkpt>
      <trkpt lat="47.26588" lon="-1.41387">
        <ele>51</ele>
        <time>2020-06-01T15:40:52.000Z</time>
      </trkpt>
      <trkpt lat="47.26593" lon="-1.4137">
        <ele>50</ele>
        <time>2020-06-01T15:40:54.000Z</time>
      </trkpt>
      <trkpt lat="47.26599" lon="-1.41354">
        <ele>50</ele>
        <time>2020-06-01T15:40:56.000Z</time>
      </trkpt>
      <trkpt lat="47.26605" lon="-1.4134">
        <ele>50</ele>
        <time>2020-06-01T15:40:58.000Z</time>
      </trkpt>
      <trkpt lat="47.26612" lon="-1.41325">
        <ele>50</ele>
        <time>2020-06-01T15:41:00.000Z</time>
      </trkpt>
      <trkpt lat="47.2662" lon="-1.4131">
        <ele>50</ele>
        <time>2020-06-01T15:41:02.000Z</time>
      </trkpt>
      <trkpt lat="47.26628" lon="-1.41297">
        <ele>50</ele>
        <time>2020-06-01T15:41:04.000Z</time>
      </trkpt>
      <trkpt lat="47.26638" lon="-1.41285">
        <ele>49</ele>
        <time>2020-06-01T15:41:06.000Z</time>
      </trkpt>
      <trkpt lat="47.26648" lon="-1.41273">
        <ele>49</ele>
        <time>2020-06-01T15:41:08.000Z</time>
      </trkpt>
      <trkpt lat="47.26657" lon="-1.41259">
        <ele>50</ele>
        <time>2020-06-01T15:41:10.000Z</time>
      </trkpt>
      <trkpt lat="47.26665" lon="-1.41244">
        <ele>50</ele>
        <time>2020-06-01T15:41:12.000Z</time>
      </trkpt>
      <trkpt lat="47.26674" lon="-1.41231">
        <ele>50</ele>
        <time>2020-06-01T15:41:14.000Z</time>
      </trkpt>
      <trkpt lat="47.26684" lon="-1.41219">
        <ele>50</ele>
        <time>2020-06-01T15:41:16.000Z</time>
      </trkpt>
      <trkpt lat="47.26694" lon="-1.41208">
        <ele>50</ele>
        <time>2020-06-01T15:41:18.000Z</time>
      </trkpt>
      <trkpt lat="47.26704" lon="-1.41197">
        <ele>50</ele>
        <time>2020-06-01T15:41:20.000Z</time>
      </trkpt>
      <trkpt lat="47.26713" lon="-1.41185">
        <ele>50</ele>
        <time>2020-06-01T15:41:22.000Z</time>
      </trkpt>
      <trkpt lat="47.26722" lon="-1.41173">
        <ele>50</ele>
        <time>2020-06-01T15:41:24.000Z</time>
      </trkpt>
      <trkpt lat="47.26732" lon="-1.41161">
        <ele>50</ele>
        <time>2020-06-01T15:41:26.000Z</time>
      </trkpt>
      <trkpt lat="47.26741" lon="-1.4115">
        <ele>50</ele>
        <time>2020-06-01T15:41:28.000Z</time>
      </trkpt>
      <trkpt lat="47.26752" lon="-1.41139">
        <ele>50</ele>
        <time>2020-06-01T15:41:30.000Z</time>
      </trkpt>
      <trkpt lat="47.26761" lon="-1.41127">
        <ele>50</ele>
        <time>2020-06-01T15:41:32.000Z</time>
      </trkpt>
      <trkpt lat="47.26768" lon="-1.41113">
        <ele>50</ele>
        <time>2020-06-01T15:41:34.000Z</time>
      </trkpt>
      <trkpt lat="47.26774" lon="-1.41097">
        <ele>50</ele>
        <time>2020-06-01T15:41:36.000Z</time>
      </trkpt>
      <trkpt lat="47.26778" lon="-1.4108">
        <ele>50</ele>
        <time>2020-06-01T15:41:38.000Z</time>
      </trkpt>
      <trkpt lat="47.26783" lon="-1.41063">
        <ele>50</ele>
        <time>2020-06-01T15:41:40.000Z</time>
      </trkpt>
      <trkpt lat="47.26789" lon="-1.41048">
        <ele>50</ele>
        <time>2020-06-01T15:41:42.000Z</time>
      </trkpt>
      <trkpt lat="47.26794" lon="-1.41032">
        <ele>50</ele>
        <time>2020-06-01T15:41:44.000Z</time>
      </trkpt>
      <trkpt lat="47.26801" lon="-1.41017">
        <ele>49</ele>
        <time>2020-06-01T15:41:46.000Z</time>
      </trkpt>
      <trkpt lat="47.26809" lon="-1.41002">
        <ele>49</ele>
        <time>2020-06-01T15:41:48.000Z</time>
      </trkpt>
      <trkpt lat="47.26819" lon="-1.40989">
        <ele>49</ele>
        <time>2020-06-01T15:41:50.000Z</time>
      </trkpt>
      <trkpt lat="47.26827" lon="-1.40977">
        <ele>50</ele>
        <time>2020-06-01T15:41:52.000Z</time>
      </trkpt>
      <trkpt lat="47.26834" lon="-1.40964">
        <ele>51</ele>
        <time>2020-06-01T15:41:54.000Z</time>
      </trkpt>
      <trkpt lat="47.2684" lon="-1.40951">
        <ele>52</ele>
        <time>2020-06-01T15:41:56.000Z</time>
      </trkpt>
      <trkpt lat="47.26849" lon="-1.40938">
        <ele>53</ele>
        <time>2020-06-01T15:41:59.000Z</time>
      </trkpt>
      <trkpt lat="47.26859" lon="-1.40927">
        <ele>52</ele>
        <time>2020-06-01T15:42:02.000Z</time>
      </trkpt>
      <trkpt lat="47.26868" lon="-1.40916">
        <ele>51</ele>
        <time>2020-06-01T15:42:05.000Z</time>
      </trkpt>
      <trkpt lat="47.26873" lon="-1.40904">
        <ele>51</ele>
        <time>2020-06-01T15:42:08.000Z</time>
      </trkpt>
      <trkpt lat="47.26875" lon="-1.40891">
        <ele>51</ele>
        <time>2020-06-01T15:42:11.000Z</time>
      </trkpt>
      <trkpt lat="47.2688" lon="-1.40876">
        <ele>50</ele>
        <time>2020-06-01T15:42:14.000Z</time>
      </trkpt>
      <trkpt lat="47.26889" lon="-1.40862">
        <ele>49</ele>
        <time>2020-06-01T15:42:17.000Z</time>
      </trkpt>
      <trkpt lat="47.26896" lon="-1.4085">
        <ele>50</ele>
        <time>2020-06-01T15:42:19.000Z</time>
      </trkpt>
      <trkpt lat="47.26902" lon="-1.40839">
        <ele>51</ele>
        <time>2020-06-01T15:42:21.000Z</time>
      </trkpt>
      <trkpt lat="47.26909" lon="-1.40827">
        <ele>52</ele>
        <time>2020-06-01T15:42:23.000Z</time>
      </trkpt>
      <trkpt lat="47.26916" lon="-1.40813">
        <ele>52</ele>
        <time>2020-06-01T15:42:25.000Z</time>
      </trkpt>
      <trkpt lat="47.26922" lon="-1.408">
        <ele>51</ele>
        <time>2020-06-01T15:42:27.000Z</time>
      </trkpt>
      <trkpt lat="47.26927" lon="-1.40784">
        <ele>51</ele>
        <time>2020-06-01T15:42:29.000Z</time>
      </trkpt>
      <trkpt lat="47.26928" lon="-1.40767">
        <ele>51</ele>
        <time>2020-06-01T15:42:31.000Z</time>
      </trkpt>
      <trkpt lat="47.26929" lon="-1.40747">
        <ele>50</ele>
        <time>2020-06-01T15:42:33.000Z</time>
      </trkpt>
      <trkpt lat="47.2693" lon="-1.40727">
        <ele>49</ele>
        <time>2020-06-01T15:42:35.000Z</time>
      </trkpt>
      <trkpt lat="47.26931" lon="-1.40707">
        <ele>49</ele>
        <time>2020-06-01T15:42:37.000Z</time>
      </trkpt>
      <trkpt lat="47.26931" lon="-1.40688">
        <ele>49</ele>
        <time>2020-06-01T15:42:39.000Z</time>
      </trkpt>
      <trkpt lat="47.26934" lon="-1.40671">
        <ele>49</ele>
        <time>2020-06-01T15:42:41.000Z</time>
      </trkpt>
      <trkpt lat="47.26937" lon="-1.40654">
        <ele>49</ele>
        <time>2020-06-01T15:42:43.000Z</time>
      </trkpt>
      <trkpt lat="47.26937" lon="-1.40638">
        <ele>51</ele>
        <time>2020-06-01T15:42:45.000Z</time>
      </trkpt>
      <trkpt lat="47.26939" lon="-1.40623">
        <ele>51</ele>
        <time>2020-06-01T15:42:47.000Z</time>
      </trkpt>
      <trkpt lat="47.26942" lon="-1.40608">
        <ele>51</ele>
        <time>2020-06-01T15:42:49.000Z</time>
      </trkpt>
      <trkpt lat="47.26946" lon="-1.40591">
        <ele>51</ele>
        <time>2020-06-01T15:42:51.000Z</time>
      </trkpt>
      <trkpt lat="47.26951" lon="-1.40575">
        <ele>52</ele>
        <time>2020-06-01T15:42:53.000Z</time>
      </trkpt>
      <trkpt lat="47.26957" lon="-1.4056">
        <ele>52</ele>
        <time>2020-06-01T15:42:55.000Z</time>
      </trkpt>
      <trkpt lat="47.26964" lon="-1.40545">
        <ele>52</ele>
        <time>2020-06-01T15:42:57.000Z</time>
      </trkpt>
      <trkpt lat="47.26972" lon="-1.4053">
        <ele>52</ele>
        <time>2020-06-01T15:42:59.000Z</time>
      </trkpt>
      <trkpt lat="47.2698" lon="-1.40516">
        <ele>52</ele>
        <time>2020-06-01T15:43:01.000Z</time>
      </trkpt>
      <trkpt lat="47.26989" lon="-1.40502">
        <ele>53</ele>
        <time>2020-06-01T15:43:03.000Z</time>
      </trkpt>
      <trkpt lat="47.26998" lon="-1.40487">
        <ele>53</ele>
        <time>2020-06-01T15:43:05.000Z</time>
      </trkpt>
      <trkpt lat="47.27007" lon="-1.40473">
        <ele>53</ele>
        <time>2020-06-01T15:43:07.000Z</time>
      </trkpt>
      <trkpt lat="47.27016" lon="-1.40459">
        <ele>52</ele>
        <time>2020-06-01T15:43:09.000Z</time>
      </trkpt>
      <trkpt lat="47.27025" lon="-1.40445">
        <ele>52</ele>
        <time>2020-06-01T15:43:11.000Z</time>
      </trkpt>
      <trkpt lat="47.27034" lon="-1.4043">
        <ele>52</ele>
        <time>2020-06-01T15:43:13.000Z</time>
      </trkpt>
      <trkpt lat="47.27043" lon="-1.40417">
        <ele>53</ele>
        <time>2020-06-01T15:43:15.000Z</time>
      </trkpt>
      <trkpt lat="47.27052" lon="-1.40403">
        <ele>53</ele>
        <time>2020-06-01T15:43:17.000Z</time>
      </trkpt>
      <trkpt lat="47.27061" lon="-1.40389">
        <ele>53</ele>
        <time>2020-06-01T15:43:19.000Z</time>
      </trkpt>
      <trkpt lat="47.2707" lon="-1.40375">
        <ele>53</ele>
        <time>2020-06-01T15:43:21.000Z</time>
      </trkpt>
      <trkpt lat="47.27079" lon="-1.40361">
        <ele>54</ele>
        <time>2020-06-01T15:43:23.000Z</time>
      </trkpt>
      <trkpt lat="47.27088" lon="-1.40347">
        <ele>54</ele>
        <time>2020-06-01T15:43:25.000Z</time>
      </trkpt>
      <trkpt lat="47.27097" lon="-1.40333">
        <ele>54</ele>
        <time>2020-06-01T15:43:27.000Z</time>
      </trkpt>
      <trkpt lat="47.27106" lon="-1.40318">
        <ele>54</ele>
        <time>2020-06-01T15:43:29.000Z</time>
      </trkpt>
      <trkpt lat="47.27115" lon="-1.40304">
        <ele>54</ele>
        <time>2020-06-01T15:43:31.000Z</time>
      </trkpt>
      <trkpt lat="47.27124" lon="-1.4029">
        <ele>54</ele>
        <time>2020-06-01T15:43:33.000Z</time>
      </trkpt>
      <trkpt lat="47.27132" lon="-1.40276">
        <ele>54</ele>
        <time>2020-06-01T15:43:35.000Z</time>
      </trkpt>
      <trkpt lat="47.27141" lon="-1.40262">
        <ele>54</ele>
        <time>2020-06-01T15:43:37.000Z</time>
      </trkpt>
      <trkpt lat="47.27149" lon="-1.40247">
        <ele>54</ele>
        <time>2020-06-01T15:43:39.000Z</time>
      </trkpt>
      <trkpt lat="47.27158" lon="-1.40233">
        <ele>53</ele>
        <time>2020-06-01T15:43:41.000Z</time>
      </trkpt>
      <trkpt lat="47.27167" lon="-1.40219">
        <ele>53</ele>
        <time>2020-06-01T15:43:43.000Z</time>
      </trkpt>
      <trkpt lat="47.27176" lon="-1.40205">
        <ele>53</ele>
        <time>2020-06-01T15:43:45.000Z</time>
      </trkpt>
      <trkpt lat="47.27186" lon="-1.40192">
        <ele>53</ele>
        <time>2020-06-01T15:43:47.000Z</time>
      </trkpt>
      <trkpt lat="47.27196" lon="-1.4018">
        <ele>53</ele>
        <time>2020-06-01T15:43:49.000Z</time>
      </trkpt>
      <trkpt lat="47.27206" lon="-1.40165">
        <ele>53</ele>
        <time>2020-06-01T15:43:51.000Z</time>
      </trkpt>
      <trkpt lat="47.27213" lon="-1.40149">
        <ele>54</ele>
        <time>2020-06-01T15:43:53.000Z</time>
      </trkpt>
      <trkpt lat="47.27221" lon="-1.40136">
        <ele>54</ele>
        <time>2020-06-01T15:43:55.000Z</time>
      </trkpt>
      <trkpt lat="47.2723" lon="-1.40123">
        <ele>54</ele>
        <time>2020-06-01T15:43:57.000Z</time>
      </trkpt>
      <trkpt lat="47.27239" lon="-1.40109">
        <ele>53</ele>
        <time>2020-06-01T15:43:59.000Z</time>
      </trkpt>
      <trkpt lat="47.27247" lon="-1.40096">
        <ele>53</ele>
        <time>2020-06-01T15:44:01.000Z</time>
      </trkpt>
      <trkpt lat="47.27256" lon="-1.40082">
        <ele>52</ele>
        <time>2020-06-01T15:44:03.000Z</time>
      </trkpt>
      <trkpt lat="47.27264" lon="-1.40069">
        <ele>52</ele>
        <time>2020-06-01T15:44:05.000Z</time>
      </trkpt>
      <trkpt lat="47.27273" lon="-1.40055">
        <ele>53</ele>
        <time>2020-06-01T15:44:07.000Z</time>
      </trkpt>
      <trkpt lat="47.27281" lon="-1.40041">
        <ele>52</ele>
        <time>2020-06-01T15:44:09.000Z</time>
      </trkpt>
      <trkpt lat="47.2729" lon="-1.40028">
        <ele>53</ele>
        <time>2020-06-01T15:44:11.000Z</time>
      </trkpt>
      <trkpt lat="47.27298" lon="-1.40015">
        <ele>53</ele>
        <time>2020-06-01T15:44:13.000Z</time>
      </trkpt>
      <trkpt lat="47.27307" lon="-1.40001">
        <ele>52</ele>
        <time>2020-06-01T15:44:15.000Z</time>
      </trkpt>
      <trkpt lat="47.27316" lon="-1.39987">
        <ele>53</ele>
        <time>2020-06-01T15:44:17.000Z</time>
      </trkpt>
      <trkpt lat="47.27325" lon="-1.39973">
        <ele>53</ele>
        <time>2020-06-01T15:44:19.000Z</time>
      </trkpt>
      <trkpt lat="47.27334" lon="-1.39959">
        <ele>52</ele>
        <time>2020-06-01T15:44:21.000Z</time>
      </trkpt>
      <trkpt lat="47.27343" lon="-1.39945">
        <ele>53</ele>
        <time>2020-06-01T15:44:23.000Z</time>
      </trkpt>
      <trkpt lat="47.27352" lon="-1.39931">
        <ele>52</ele>
        <time>2020-06-01T15:44:25.000Z</time>
      </trkpt>
      <trkpt lat="47.27361" lon="-1.39917">
        <ele>52</ele>
        <time>2020-06-01T15:44:27.000Z</time>
      </trkpt>
      <trkpt lat="47.27369" lon="-1.39903">
        <ele>52</ele>
        <time>2020-06-01T15:44:29.000Z</time>
      </trkpt>
      <trkpt lat="47.27378" lon="-1.39893">
        <ele>53</ele>
        <time>2020-06-01T15:44:31.000Z</time>
      </trkpt>
      <trkpt lat="47.27391" lon="-1.39889">
        <ele>52</ele>
        <time>2020-06-01T15:44:33.000Z</time>
      </trkpt>
      <trkpt lat="47.27404" lon="-1.39891">
        <ele>52</ele>
        <time>2020-06-01T15:44:35.000Z</time>
      </trkpt>
      <trkpt lat="47.27416" lon="-1.39892">
        <ele>52</ele>
        <time>2020-06-01T15:44:37.000Z</time>
      </trkpt>
      <trkpt lat="47.27424" lon="-1.39883">
        <ele>53</ele>
        <time>2020-06-01T15:44:39.000Z</time>
      </trkpt>
      <trkpt lat="47.27429" lon="-1.39867">
        <ele>53</ele>
        <time>2020-06-01T15:44:41.000Z</time>
      </trkpt>
      <trkpt lat="47.27433" lon="-1.39849">
        <ele>54</ele>
        <time>2020-06-01T15:44:43.000Z</time>
      </trkpt>
      <trkpt lat="47.27438" lon="-1.39831">
        <ele>54</ele>
        <time>2020-06-01T15:44:45.000Z</time>
      </trkpt>
      <trkpt lat="47.27443" lon="-1.39815">
        <ele>53</ele>
        <time>2020-06-01T15:44:47.000Z</time>
      </trkpt>
      <trkpt lat="47.27451" lon="-1.39798">
        <ele>53</ele>
        <time>2020-06-01T15:44:49.000Z</time>
      </trkpt>
      <trkpt lat="47.27459" lon="-1.39781">
        <ele>52</ele>
        <time>2020-06-01T15:44:51.000Z</time>
      </trkpt>
      <trkpt lat="47.27468" lon="-1.39765">
        <ele>53</ele>
        <time>2020-06-01T15:44:53.000Z</time>
      </trkpt>
      <trkpt lat="47.27475" lon="-1.39749">
        <ele>53</ele>
        <time>2020-06-01T15:44:55.000Z</time>
      </trkpt>
      <trkpt lat="47.27482" lon="-1.39735">
        <ele>54</ele>
        <time>2020-06-01T15:44:57.000Z</time>
      </trkpt>
      <trkpt lat="47.27488" lon="-1.3972">
        <ele>54</ele>
        <time>2020-06-01T15:44:59.000Z</time>
      </trkpt>
      <trkpt lat="47.27496" lon="-1.39706">
        <ele>53</ele>
        <time>2020-06-01T15:45:01.000Z</time>
      </trkpt>
      <trkpt lat="47.27505" lon="-1.39693">
        <ele>53</ele>
        <time>2020-06-01T15:45:03.000Z</time>
      </trkpt>
      <trkpt lat="47.27513" lon="-1.39679">
        <ele>53</ele>
        <time>2020-06-01T15:45:05.000Z</time>
      </trkpt>
      <trkpt lat="47.27522" lon="-1.39666">
        <ele>53</ele>
        <time>2020-06-01T15:45:07.000Z</time>
      </trkpt>
      <trkpt lat="47.2753" lon="-1.39653">
        <ele>53</ele>
        <time>2020-06-01T15:45:09.000Z</time>
      </trkpt>
      <trkpt lat="47.27539" lon="-1.3964">
        <ele>53</ele>
        <time>2020-06-01T15:45:11.000Z</time>
      </trkpt>
      <trkpt lat="47.27548" lon="-1.39626">
        <ele>53</ele>
        <time>2020-06-01T15:45:13.000Z</time>
      </trkpt>
      <trkpt lat="47.27556" lon="-1.39612">
        <ele>53</ele>
        <time>2020-06-01T15:45:15.000Z</time>
      </trkpt>
      <trkpt lat="47.27565" lon="-1.396">
        <ele>53</ele>
        <time>2020-06-01T15:45:17.000Z</time>
      </trkpt>
      <trkpt lat="47.27574" lon="-1.39586">
        <ele>53</ele>
        <time>2020-06-01T15:45:19.000Z</time>
      </trkpt>
      <trkpt lat="47.27582" lon="-1.39572">
        <ele>54</ele>
        <time>2020-06-01T15:45:21.000Z</time>
      </trkpt>
      <trkpt lat="47.27591" lon="-1.39557">
        <ele>53</ele>
        <time>2020-06-01T15:45:23.000Z</time>
      </trkpt>
      <trkpt lat="47.27599" lon="-1.39544">
        <ele>53</ele>
        <time>2020-06-01T15:45:25.000Z</time>
      </trkpt>
      <trkpt lat="47.27609" lon="-1.3953">
        <ele>53</ele>
        <time>2020-06-01T15:45:27.000Z</time>
      </trkpt>
      <trkpt lat="47.2762" lon="-1.39522">
        <ele>53</ele>
        <time>2020-06-01T15:45:29.000Z</time>
      </trkpt>
      <trkpt lat="47.27628" lon="-1.3951">
        <ele>53</ele>
        <time>2020-06-01T15:45:31.000Z</time>
      </trkpt>
      <trkpt lat="47.27634" lon="-1.39496">
        <ele>53</ele>
        <time>2020-06-01T15:45:33.000Z</time>
      </trkpt>
      <trkpt lat="47.27641" lon="-1.39481">
        <ele>54</ele>
        <time>2020-06-01T15:45:35.000Z</time>
      </trkpt>
      <trkpt lat="47.27649" lon="-1.39467">
        <ele>54</ele>
        <time>2020-06-01T15:45:37.000Z</time>
      </trkpt>
      <trkpt lat="47.27657" lon="-1.39453">
        <ele>54</ele>
        <time>2020-06-01T15:45:39.000Z</time>
      </trkpt>
      <trkpt lat="47.27665" lon="-1.39439">
        <ele>53</ele>
        <time>2020-06-01T15:45:41.000Z</time>
      </trkpt>
      <trkpt lat="47.27673" lon="-1.39425">
        <ele>53</ele>
        <time>2020-06-01T15:45:43.000Z</time>
      </trkpt>
      <trkpt lat="47.2768" lon="-1.3941">
        <ele>53</ele>
        <time>2020-06-01T15:45:45.000Z</time>
      </trkpt>
      <trkpt lat="47.27688" lon="-1.39395">
        <ele>53</ele>
        <time>2020-06-01T15:45:47.000Z</time>
      </trkpt>
      <trkpt lat="47.27695" lon="-1.3938">
        <ele>52</ele>
        <time>2020-06-01T15:45:49.000Z</time>
      </trkpt>
      <trkpt lat="47.27702" lon="-1.39365">
        <ele>53</ele>
        <time>2020-06-01T15:45:51.000Z</time>
      </trkpt>
      <trkpt lat="47.2771" lon="-1.39349">
        <ele>53</ele>
        <time>2020-06-01T15:45:53.000Z</time>
      </trkpt>
      <trkpt lat="47.27718" lon="-1.39334">
        <ele>53</ele>
        <time>2020-06-01T15:45:55.000Z</time>
      </trkpt>
      <trkpt lat="47.27724" lon="-1.39318">
        <ele>53</ele>
        <time>2020-06-01T15:45:57.000Z</time>
      </trkpt>
      <trkpt lat="47.27731" lon="-1.39302">
        <ele>53</ele>
        <time>2020-06-01T15:45:59.000Z</time>
      </trkpt>
      <trkpt lat="47.27738" lon="-1.39286">
        <ele>53</ele>
        <time>2020-06-01T15:46:01.000Z</time>
      </trkpt>
      <trkpt lat="47.27745" lon="-1.39271">
        <ele>53</ele>
        <time>2020-06-01T15:46:03.000Z</time>
      </trkpt>
      <trkpt lat="47.27752" lon="-1.39256">
        <ele>53</ele>
        <time>2020-06-01T15:46:05.000Z</time>
      </trkpt>
      <trkpt lat="47.27758" lon="-1.39242">
        <ele>53</ele>
        <time>2020-06-01T15:46:07.000Z</time>
      </trkpt>
      <trkpt lat="47.27764" lon="-1.39227">
        <ele>53</ele>
        <time>2020-06-01T15:46:09.000Z</time>
      </trkpt>
      <trkpt lat="47.27771" lon="-1.39212">
        <ele>53</ele>
        <time>2020-06-01T15:46:11.000Z</time>
      </trkpt>
      <trkpt lat="47.27779" lon="-1.39197">
        <ele>53</ele>
        <time>2020-06-01T15:46:13.000Z</time>
      </trkpt>
      <trkpt lat="47.27787" lon="-1.39183">
        <ele>53</ele>
        <time>2020-06-01T15:46:15.000Z</time>
      </trkpt>
      <trkpt lat="47.27795" lon="-1.39169">
        <ele>53</ele>
        <time>2020-06-01T15:46:17.000Z</time>
      </trkpt>
      <trkpt lat="47.27803" lon="-1.39155">
        <ele>53</ele>
        <time>2020-06-01T15:46:19.000Z</time>
      </trkpt>
      <trkpt lat="47.27812" lon="-1.39141">
        <ele>53</ele>
        <time>2020-06-01T15:46:21.000Z</time>
      </trkpt>
      <trkpt lat="47.2782" lon="-1.39128">
        <ele>53</ele>
        <time>2020-06-01T15:46:23.000Z</time>
      </trkpt>
      <trkpt lat="47.27829" lon="-1.39115">
        <ele>53</ele>
        <time>2020-06-01T15:46:25.000Z</time>
      </trkpt>
      <trkpt lat="47.27837" lon="-1.39102">
        <ele>53</ele>
        <time>2020-06-01T15:46:27.000Z</time>
      </trkpt>
      <trkpt lat="47.27844" lon="-1.39088">
        <ele>52</ele>
        <time>2020-06-01T15:46:29.000Z</time>
      </trkpt>
      <trkpt lat="47.27853" lon="-1.39075">
        <ele>52</ele>
        <time>2020-06-01T15:46:31.000Z</time>
      </trkpt>
      <trkpt lat="47.27861" lon="-1.39061">
        <ele>51</ele>
        <time>2020-06-01T15:46:33.000Z</time>
      </trkpt>
      <trkpt lat="47.27869" lon="-1.39047">
        <ele>52</ele>
        <time>2020-06-01T15:46:35.000Z</time>
      </trkpt>
      <trkpt lat="47.27876" lon="-1.39034">
        <ele>52</ele>
        <time>2020-06-01T15:46:37.000Z</time>
      </trkpt>
      <trkpt lat="47.27884" lon="-1.3902">
        <ele>52</ele>
        <time>2020-06-01T15:46:39.000Z</time>
      </trkpt>
      <trkpt lat="47.27893" lon="-1.39007">
        <ele>51</ele>
        <time>2020-06-01T15:46:41.000Z</time>
      </trkpt>
      <trkpt lat="47.27903" lon="-1.38995">
        <ele>51</ele>
        <time>2020-06-01T15:46:43.000Z</time>
      </trkpt>
      <trkpt lat="47.27912" lon="-1.38981">
        <ele>52</ele>
        <time>2020-06-01T15:46:45.000Z</time>
      </trkpt>
      <trkpt lat="47.2792" lon="-1.38966">
        <ele>52</ele>
        <time>2020-06-01T15:46:47.000Z</time>
      </trkpt>
      <trkpt lat="47.27929" lon="-1.38952">
        <ele>52</ele>
        <time>2020-06-01T15:46:49.000Z</time>
      </trkpt>
      <trkpt lat="47.27938" lon="-1.38938">
        <ele>52</ele>
        <time>2020-06-01T15:46:51.000Z</time>
      </trkpt>
      <trkpt lat="47.27947" lon="-1.38924">
        <ele>52</ele>
        <time>2020-06-01T15:46:53.000Z</time>
      </trkpt>
      <trkpt lat="47.27955" lon="-1.3891">
        <ele>53</ele>
        <time>2020-06-01T15:46:55.000Z</time>
      </trkpt>
      <trkpt lat="47.27963" lon="-1.38896">
        <ele>53</ele>
        <time>2020-06-01T15:46:57.000Z</time>
      </trkpt>
      <trkpt lat="47.27972" lon="-1.38882">
        <ele>52</ele>
        <time>2020-06-01T15:46:59.000Z</time>
      </trkpt>
      <trkpt lat="47.27982" lon="-1.38869">
        <ele>52</ele>
        <time>2020-06-01T15:47:01.000Z</time>
      </trkpt>
      <trkpt lat="47.27991" lon="-1.38857">
        <ele>52</ele>
        <time>2020-06-01T15:47:03.000Z</time>
      </trkpt>
      <trkpt lat="47.28" lon="-1.38846">
        <ele>52</ele>
        <time>2020-06-01T15:47:05.000Z</time>
      </trkpt>
      <trkpt lat="47.2801" lon="-1.38836">
        <ele>52</ele>
        <time>2020-06-01T15:47:07.000Z</time>
      </trkpt>
      <trkpt lat="47.28021" lon="-1.38826">
        <ele>52</ele>
        <time>2020-06-01T15:47:09.000Z</time>
      </trkpt>
      <trkpt lat="47.28031" lon="-1.38818">
        <ele>51</ele>
        <time>2020-06-01T15:47:11.000Z</time>
      </trkpt>
      <trkpt lat="47.28041" lon="-1.38809">
        <ele>51</ele>
        <time>2020-06-01T15:47:13.000Z</time>
      </trkpt>
      <trkpt lat="47.28053" lon="-1.38803">
        <ele>51</ele>
        <time>2020-06-01T15:47:15.000Z</time>
      </trkpt>
      <trkpt lat="47.28065" lon="-1.38795">
        <ele>50</ele>
        <time>2020-06-01T15:47:17.000Z</time>
      </trkpt>
      <trkpt lat="47.28076" lon="-1.38785">
        <ele>50</ele>
        <time>2020-06-01T15:47:19.000Z</time>
      </trkpt>
      <trkpt lat="47.2809" lon="-1.38783">
        <ele>50</ele>
        <time>2020-06-01T15:47:21.000Z</time>
      </trkpt>
      <trkpt lat="47.28102" lon="-1.38776">
        <ele>51</ele>
        <time>2020-06-01T15:47:23.000Z</time>
      </trkpt>
      <trkpt lat="47.28113" lon="-1.38769">
        <ele>51</ele>
        <time>2020-06-01T15:47:25.000Z</time>
      </trkpt>
      <trkpt lat="47.28125" lon="-1.38762">
        <ele>51</ele>
        <time>2020-06-01T15:47:27.000Z</time>
      </trkpt>
      <trkpt lat="47.28136" lon="-1.38752">
        <ele>51</ele>
        <time>2020-06-01T15:47:29.000Z</time>
      </trkpt>
      <trkpt lat="47.28146" lon="-1.38741">
        <ele>51</ele>
        <time>2020-06-01T15:47:31.000Z</time>
      </trkpt>
      <trkpt lat="47.28157" lon="-1.3873">
        <ele>52</ele>
        <time>2020-06-01T15:47:33.000Z</time>
      </trkpt>
      <trkpt lat="47.28166" lon="-1.38719">
        <ele>52</ele>
        <time>2020-06-01T15:47:35.000Z</time>
      </trkpt>
      <trkpt lat="47.28174" lon="-1.38704">
        <ele>52</ele>
        <time>2020-06-01T15:47:37.000Z</time>
      </trkpt>
      <trkpt lat="47.28179" lon="-1.38687">
        <ele>52</ele>
        <time>2020-06-01T15:47:39.000Z</time>
      </trkpt>
      <trkpt lat="47.28184" lon="-1.3867">
        <ele>52</ele>
        <time>2020-06-01T15:47:41.000Z</time>
      </trkpt>
      <trkpt lat="47.2819" lon="-1.38654">
        <ele>52</ele>
        <time>2020-06-01T15:47:43.000Z</time>
      </trkpt>
      <trkpt lat="47.28195" lon="-1.38638">
        <ele>53</ele>
        <time>2020-06-01T15:47:45.000Z</time>
      </trkpt>
      <trkpt lat="47.28198" lon="-1.38621">
        <ele>53</ele>
        <time>2020-06-01T15:47:47.000Z</time>
      </trkpt>
      <trkpt lat="47.28199" lon="-1.38602">
        <ele>53</ele>
        <time>2020-06-01T15:47:49.000Z</time>
      </trkpt>
      <trkpt lat="47.282" lon="-1.38584">
        <ele>53</ele>
        <time>2020-06-01T15:47:51.000Z</time>
      </trkpt>
      <trkpt lat="47.282" lon="-1.38565">
        <ele>53</ele>
        <time>2020-06-01T15:47:53.000Z</time>
      </trkpt>
      <trkpt lat="47.28201" lon="-1.38547">
        <ele>53</ele>
        <time>2020-06-01T15:47:55.000Z</time>
      </trkpt>
      <trkpt lat="47.28204" lon="-1.3853">
        <ele>53</ele>
        <time>2020-06-01T15:47:57.000Z</time>
      </trkpt>
      <trkpt lat="47.28209" lon="-1.38513">
        <ele>53</ele>
        <time>2020-06-01T15:47:59.000Z</time>
      </trkpt>
      <trkpt lat="47.28216" lon="-1.38497">
        <ele>53</ele>
        <time>2020-06-01T15:48:01.000Z</time>
      </trkpt>
      <trkpt lat="47.28223" lon="-1.38482">
        <ele>53</ele>
        <time>2020-06-01T15:48:03.000Z</time>
      </trkpt>
      <trkpt lat="47.2823" lon="-1.38467">
        <ele>53</ele>
        <time>2020-06-01T15:48:05.000Z</time>
      </trkpt>
      <trkpt lat="47.28235" lon="-1.3845">
        <ele>53</ele>
        <time>2020-06-01T15:48:07.000Z</time>
      </trkpt>
      <trkpt lat="47.28242" lon="-1.38436">
        <ele>53</ele>
        <time>2020-06-01T15:48:09.000Z</time>
      </trkpt>
      <trkpt lat="47.2825" lon="-1.38421">
        <ele>52</ele>
        <time>2020-06-01T15:48:11.000Z</time>
      </trkpt>
      <trkpt lat="47.28258" lon="-1.38405">
        <ele>53</ele>
        <time>2020-06-01T15:48:13.000Z</time>
      </trkpt>
      <trkpt lat="47.28265" lon="-1.38389">
        <ele>53</ele>
        <time>2020-06-01T15:48:15.000Z</time>
      </trkpt>
      <trkpt lat="47.28272" lon="-1.38373">
        <ele>52</ele>
        <time>2020-06-01T15:48:17.000Z</time>
      </trkpt>
      <trkpt lat="47.28279" lon="-1.38358">
        <ele>52</ele>
        <time>2020-06-01T15:48:19.000Z</time>
      </trkpt>
      <trkpt lat="47.28286" lon="-1.38342">
        <ele>52</ele>
        <time>2020-06-01T15:48:21.000Z</time>
      </trkpt>
      <trkpt lat="47.28293" lon="-1.38325">
        <ele>52</ele>
        <time>2020-06-01T15:48:23.000Z</time>
      </trkpt>
      <trkpt lat="47.283" lon="-1.38311">
        <ele>52</ele>
        <time>2020-06-01T15:48:25.000Z</time>
      </trkpt>
      <trkpt lat="47.28309" lon="-1.38298">
        <ele>52</ele>
        <time>2020-06-01T15:48:27.000Z</time>
      </trkpt>
      <trkpt lat="47.28317" lon="-1.38286">
        <ele>51</ele>
        <time>2020-06-01T15:48:29.000Z</time>
      </trkpt>
      <trkpt lat="47.28326" lon="-1.38275">
        <ele>51</ele>
        <time>2020-06-01T15:48:31.000Z</time>
      </trkpt>
      <trkpt lat="47.28335" lon="-1.38262">
        <ele>51</ele>
        <time>2020-06-01T15:48:33.000Z</time>
      </trkpt>
      <trkpt lat="47.28343" lon="-1.38248">
        <ele>51</ele>
        <time>2020-06-01T15:48:35.000Z</time>
      </trkpt>
      <trkpt lat="47.2835" lon="-1.3823">
        <ele>51</ele>
        <time>2020-06-01T15:48:37.000Z</time>
      </trkpt>
      <trkpt lat="47.28353" lon="-1.38213">
        <ele>51</ele>
        <time>2020-06-01T15:48:39.000Z</time>
      </trkpt>
      <trkpt lat="47.28355" lon="-1.38196">
        <ele>52</ele>
        <time>2020-06-01T15:48:41.000Z</time>
      </trkpt>
      <trkpt lat="47.28359" lon="-1.3818">
        <ele>53</ele>
        <time>2020-06-01T15:48:43.000Z</time>
      </trkpt>
      <trkpt lat="47.28364" lon="-1.38164">
        <ele>52</ele>
        <time>2020-06-01T15:48:45.000Z</time>
      </trkpt>
      <trkpt lat="47.2837" lon="-1.38148">
        <ele>52</ele>
        <time>2020-06-01T15:48:47.000Z</time>
      </trkpt>
      <trkpt lat="47.28376" lon="-1.38135">
        <ele>52</ele>
        <time>2020-06-01T15:48:49.000Z</time>
      </trkpt>
      <trkpt lat="47.28383" lon="-1.38123">
        <ele>52</ele>
        <time>2020-06-01T15:48:51.000Z</time>
      </trkpt>
      <trkpt lat="47.2839" lon="-1.38113">
        <ele>51</ele>
        <time>2020-06-01T15:48:53.000Z</time>
      </trkpt>
      <trkpt lat="47.28399" lon="-1.38103">
        <ele>51</ele>
        <time>2020-06-01T15:48:56.000Z</time>
      </trkpt>
      <trkpt lat="47.28408" lon="-1.38093">
        <ele>51</ele>
        <time>2020-06-01T15:48:59.000Z</time>
      </trkpt>
      <trkpt lat="47.28417" lon="-1.38085">
        <ele>51</ele>
        <time>2020-06-01T15:49:01.000Z</time>
      </trkpt>
      <trkpt lat="47.28425" lon="-1.38071">
        <ele>51</ele>
        <time>2020-06-01T15:49:03.000Z</time>
      </trkpt>
      <trkpt lat="47.28436" lon="-1.38058">
        <ele>51</ele>
        <time>2020-06-01T15:49:05.000Z</time>
      </trkpt>
      <trkpt lat="47.28447" lon="-1.38046">
        <ele>51</ele>
        <time>2020-06-01T15:49:07.000Z</time>
      </trkpt>
      <trkpt lat="47.28458" lon="-1.38033">
        <ele>51</ele>
        <time>2020-06-01T15:49:09.000Z</time>
      </trkpt>
      <trkpt lat="47.28471" lon="-1.38028">
        <ele>50</ele>
        <time>2020-06-01T15:49:11.000Z</time>
      </trkpt>
      <trkpt lat="47.28485" lon="-1.3803">
        <ele>49</ele>
        <time>2020-06-01T15:49:13.000Z</time>
      </trkpt>
      <trkpt lat="47.285" lon="-1.38024">
        <ele>50</ele>
        <time>2020-06-01T15:49:15.000Z</time>
      </trkpt>
      <trkpt lat="47.2851" lon="-1.3801">
        <ele>50</ele>
        <time>2020-06-01T15:49:17.000Z</time>
      </trkpt>
      <trkpt lat="47.2852" lon="-1.37996">
        <ele>50</ele>
        <time>2020-06-01T15:49:19.000Z</time>
      </trkpt>
      <trkpt lat="47.28527" lon="-1.37983">
        <ele>50</ele>
        <time>2020-06-01T15:49:21.000Z</time>
      </trkpt>
      <trkpt lat="47.28528" lon="-1.37969">
        <ele>50</ele>
        <time>2020-06-01T15:49:23.000Z</time>
      </trkpt>
      <trkpt lat="47.28533" lon="-1.37953">
        <ele>50</ele>
        <time>2020-06-01T15:49:25.000Z</time>
      </trkpt>
      <trkpt lat="47.2854" lon="-1.37941">
        <ele>50</ele>
        <time>2020-06-01T15:49:27.000Z</time>
      </trkpt>
      <trkpt lat="47.28549" lon="-1.37929">
        <ele>51</ele>
        <time>2020-06-01T15:49:29.000Z</time>
      </trkpt>
      <trkpt lat="47.28559" lon="-1.37917">
        <ele>51</ele>
        <time>2020-06-01T15:49:31.000Z</time>
      </trkpt>
      <trkpt lat="47.28569" lon="-1.37905">
        <ele>51</ele>
        <time>2020-06-01T15:49:33.000Z</time>
      </trkpt>
      <trkpt lat="47.28578" lon="-1.37894">
        <ele>51</ele>
        <time>2020-06-01T15:49:35.000Z</time>
      </trkpt>
      <trkpt lat="47.28587" lon="-1.37883">
        <ele>51</ele>
        <time>2020-06-01T15:49:37.000Z</time>
      </trkpt>
      <trkpt lat="47.28597" lon="-1.37872">
        <ele>52</ele>
        <time>2020-06-01T15:49:39.000Z</time>
      </trkpt>
      <trkpt lat="47.28606" lon="-1.37861">
        <ele>51</ele>
        <time>2020-06-01T15:49:41.000Z</time>
      </trkpt>
      <trkpt lat="47.28615" lon="-1.3785">
        <ele>52</ele>
        <time>2020-06-01T15:49:43.000Z</time>
      </trkpt>
      <trkpt lat="47.28625" lon="-1.37839">
        <ele>52</ele>
        <time>2020-06-01T15:49:45.000Z</time>
      </trkpt>
      <trkpt lat="47.28635" lon="-1.37828">
        <ele>52</ele>
        <time>2020-06-01T15:49:47.000Z</time>
      </trkpt>
      <trkpt lat="47.28644" lon="-1.37817">
        <ele>52</ele>
        <time>2020-06-01T15:49:49.000Z</time>
      </trkpt>
      <trkpt lat="47.28654" lon="-1.37806">
        <ele>51</ele>
        <time>2020-06-01T15:49:51.000Z</time>
      </trkpt>
      <trkpt lat="47.28664" lon="-1.37795">
        <ele>51</ele>
        <time>2020-06-01T15:49:53.000Z</time>
      </trkpt>
      <trkpt lat="47.28674" lon="-1.37783">
        <ele>51</ele>
        <time>2020-06-01T15:49:55.000Z</time>
      </trkpt>
      <trkpt lat="47.28683" lon="-1.37772">
        <ele>51</ele>
        <time>2020-06-01T15:49:57.000Z</time>
      </trkpt>
      <trkpt lat="47.28692" lon="-1.37761">
        <ele>51</ele>
        <time>2020-06-01T15:49:59.000Z</time>
      </trkpt>
      <trkpt lat="47.28702" lon="-1.37751">
        <ele>50</ele>
        <time>2020-06-01T15:50:01.000Z</time>
      </trkpt>
      <trkpt lat="47.28713" lon="-1.37743">
        <ele>51</ele>
        <time>2020-06-01T15:50:03.000Z</time>
      </trkpt>
      <trkpt lat="47.28722" lon="-1.37732">
        <ele>51</ele>
        <time>2020-06-01T15:50:05.000Z</time>
      </trkpt>
      <trkpt lat="47.28731" lon="-1.3772">
        <ele>51</ele>
        <time>2020-06-01T15:50:07.000Z</time>
      </trkpt>
      <trkpt lat="47.2874" lon="-1.37707">
        <ele>51</ele>
        <time>2020-06-01T15:50:09.000Z</time>
      </trkpt>
      <trkpt lat="47.28749" lon="-1.37696">
        <ele>51</ele>
        <time>2020-06-01T15:50:11.000Z</time>
      </trkpt>
      <trkpt lat="47.28759" lon="-1.37684">
        <ele>51</ele>
        <time>2020-06-01T15:50:13.000Z</time>
      </trkpt>
      <trkpt lat="47.28769" lon="-1.37673">
        <ele>51</ele>
        <time>2020-06-01T15:50:15.000Z</time>
      </trkpt>
      <trkpt lat="47.28779" lon="-1.37662">
        <ele>51</ele>
        <time>2020-06-01T15:50:17.000Z</time>
      </trkpt>
      <trkpt lat="47.28788" lon="-1.37652">
        <ele>51</ele>
        <time>2020-06-01T15:50:19.000Z</time>
      </trkpt>
      <trkpt lat="47.28799" lon="-1.37645">
        <ele>51</ele>
        <time>2020-06-01T15:50:21.000Z</time>
      </trkpt>
      <trkpt lat="47.28808" lon="-1.37635">
        <ele>51</ele>
        <time>2020-06-01T15:50:23.000Z</time>
      </trkpt>
      <trkpt lat="47.28817" lon="-1.37625">
        <ele>51</ele>
        <time>2020-06-01T15:50:25.000Z</time>
      </trkpt>
      <trkpt lat="47.28824" lon="-1.37617">
        <ele>52</ele>
        <time>2020-06-01T15:50:27.000Z</time>
      </trkpt>
      <trkpt lat="47.28836" lon="-1.3761">
        <ele>52</ele>
        <time>2020-06-01T15:50:30.000Z</time>
      </trkpt>
      <trkpt lat="47.28847" lon="-1.37601">
        <ele>52</ele>
        <time>2020-06-01T15:50:33.000Z</time>
      </trkpt>
      <trkpt lat="47.2885" lon="-1.37587">
        <ele>52</ele>
        <time>2020-06-01T15:50:35.000Z</time>
      </trkpt>
      <trkpt lat="47.28849" lon="-1.37571">
        <ele>52</ele>
        <time>2020-06-01T15:50:37.000Z</time>
      </trkpt>
      <trkpt lat="47.28851" lon="-1.37556">
        <ele>52</ele>
        <time>2020-06-01T15:50:39.000Z</time>
      </trkpt>
      <trkpt lat="47.28855" lon="-1.37542">
        <ele>53</ele>
        <time>2020-06-01T15:50:41.000Z</time>
      </trkpt>
      <trkpt lat="47.28859" lon="-1.37527">
        <ele>54</ele>
        <time>2020-06-01T15:50:43.000Z</time>
      </trkpt>
      <trkpt lat="47.28862" lon="-1.37515">
        <ele>54</ele>
        <time>2020-06-01T15:50:45.000Z</time>
      </trkpt>
      <trkpt lat="47.28861" lon="-1.37497">
        <ele>55</ele>
        <time>2020-06-01T15:50:49.000Z</time>
      </trkpt>
      <trkpt lat="47.28864" lon="-1.37482">
        <ele>55</ele>
        <time>2020-06-01T15:50:51.000Z</time>
      </trkpt>
      <trkpt lat="47.28869" lon="-1.37467">
        <ele>55</ele>
        <time>2020-06-01T15:50:53.000Z</time>
      </trkpt>
      <trkpt lat="47.28875" lon="-1.37451">
        <ele>55</ele>
        <time>2020-06-01T15:50:55.000Z</time>
      </trkpt>
      <trkpt lat="47.28879" lon="-1.37436">
        <ele>55</ele>
        <time>2020-06-01T15:50:57.000Z</time>
      </trkpt>
      <trkpt lat="47.28884" lon="-1.3742">
        <ele>56</ele>
        <time>2020-06-01T15:50:59.000Z</time>
      </trkpt>
      <trkpt lat="47.28889" lon="-1.37404">
        <ele>56</ele>
        <time>2020-06-01T15:51:01.000Z</time>
      </trkpt>
      <trkpt lat="47.28893" lon="-1.37387">
        <ele>56</ele>
        <time>2020-06-01T15:51:03.000Z</time>
      </trkpt>
      <trkpt lat="47.28898" lon="-1.37371">
        <ele>55</ele>
        <time>2020-06-01T15:51:05.000Z</time>
      </trkpt>
      <trkpt lat="47.28903" lon="-1.37354">
        <ele>56</ele>
        <time>2020-06-01T15:51:07.000Z</time>
      </trkpt>
      <trkpt lat="47.28908" lon="-1.37337">
        <ele>56</ele>
        <time>2020-06-01T15:51:09.000Z</time>
      </trkpt>
      <trkpt lat="47.28914" lon="-1.37321">
        <ele>56</ele>
        <time>2020-06-01T15:51:11.000Z</time>
      </trkpt>
      <trkpt lat="47.28919" lon="-1.37306">
        <ele>56</ele>
        <time>2020-06-01T15:51:13.000Z</time>
      </trkpt>
      <trkpt lat="47.28925" lon="-1.37289">
        <ele>56</ele>
        <time>2020-06-01T15:51:15.000Z</time>
      </trkpt>
      <trkpt lat="47.2893" lon="-1.37273">
        <ele>56</ele>
        <time>2020-06-01T15:51:17.000Z</time>
      </trkpt>
      <trkpt lat="47.28935" lon="-1.37256">
        <ele>56</ele>
        <time>2020-06-01T15:51:19.000Z</time>
      </trkpt>
      <trkpt lat="47.28941" lon="-1.3724">
        <ele>56</ele>
        <time>2020-06-01T15:51:21.000Z</time>
      </trkpt>
      <trkpt lat="47.28946" lon="-1.37223">
        <ele>56</ele>
        <time>2020-06-01T15:51:23.000Z</time>
      </trkpt>
      <trkpt lat="47.28951" lon="-1.37207">
        <ele>56</ele>
        <time>2020-06-01T15:51:25.000Z</time>
      </trkpt>
      <trkpt lat="47.28958" lon="-1.37191">
        <ele>56</ele>
        <time>2020-06-01T15:51:27.000Z</time>
      </trkpt>
      <trkpt lat="47.28964" lon="-1.37175">
        <ele>56</ele>
        <time>2020-06-01T15:51:29.000Z</time>
      </trkpt>
      <trkpt lat="47.2897" lon="-1.37159">
        <ele>57</ele>
        <time>2020-06-01T15:51:31.000Z</time>
      </trkpt>
      <trkpt lat="47.28977" lon="-1.37143">
        <ele>56</ele>
        <time>2020-06-01T15:51:33.000Z</time>
      </trkpt>
      <trkpt lat="47.28985" lon="-1.37128">
        <ele>56</ele>
        <time>2020-06-01T15:51:35.000Z</time>
      </trkpt>
      <trkpt lat="47.28992" lon="-1.37111">
        <ele>56</ele>
        <time>2020-06-01T15:51:37.000Z</time>
      </trkpt>
      <trkpt lat="47.28999" lon="-1.37096">
        <ele>56</ele>
        <time>2020-06-01T15:51:39.000Z</time>
      </trkpt>
      <trkpt lat="47.29007" lon="-1.3708">
        <ele>56</ele>
        <time>2020-06-01T15:51:41.000Z</time>
      </trkpt>
      <trkpt lat="47.29015" lon="-1.37064">
        <ele>56</ele>
        <time>2020-06-01T15:51:43.000Z</time>
      </trkpt>
      <trkpt lat="47.29023" lon="-1.37048">
        <ele>56</ele>
        <time>2020-06-01T15:51:45.000Z</time>
      </trkpt>
      <trkpt lat="47.29031" lon="-1.37032">
        <ele>56</ele>
        <time>2020-06-01T15:51:47.000Z</time>
      </trkpt>
      <trkpt lat="47.29039" lon="-1.37016">
        <ele>56</ele>
        <time>2020-06-01T15:51:49.000Z</time>
      </trkpt>
      <trkpt lat="47.29047" lon="-1.37">
        <ele>56</ele>
        <time>2020-06-01T15:51:51.000Z</time>
      </trkpt>
      <trkpt lat="47.29055" lon="-1.36984">
        <ele>56</ele>
        <time>2020-06-01T15:51:53.000Z</time>
      </trkpt>
      <trkpt lat="47.29064" lon="-1.36968">
        <ele>56</ele>
        <time>2020-06-01T15:51:55.000Z</time>
      </trkpt>
      <trkpt lat="47.29072" lon="-1.36952">
        <ele>56</ele>
        <time>2020-06-01T15:51:57.000Z</time>
      </trkpt>
      <trkpt lat="47.2908" lon="-1.36938">
        <ele>56</ele>
        <time>2020-06-01T15:51:59.000Z</time>
      </trkpt>
      <trkpt lat="47.29087" lon="-1.36923">
        <ele>56</ele>
        <time>2020-06-01T15:52:01.000Z</time>
      </trkpt>
      <trkpt lat="47.29095" lon="-1.36908">
        <ele>56</ele>
        <time>2020-06-01T15:52:03.000Z</time>
      </trkpt>
      <trkpt lat="47.29103" lon="-1.36893">
        <ele>56</ele>
        <time>2020-06-01T15:52:05.000Z</time>
      </trkpt>
      <trkpt lat="47.2911" lon="-1.36879">
        <ele>56</ele>
        <time>2020-06-01T15:52:07.000Z</time>
      </trkpt>
      <trkpt lat="47.29118" lon="-1.36863">
        <ele>56</ele>
        <time>2020-06-01T15:52:09.000Z</time>
      </trkpt>
      <trkpt lat="47.29125" lon="-1.36848">
        <ele>56</ele>
        <time>2020-06-01T15:52:11.000Z</time>
      </trkpt>
      <trkpt lat="47.29133" lon="-1.36834">
        <ele>56</ele>
        <time>2020-06-01T15:52:13.000Z</time>
      </trkpt>
      <trkpt lat="47.29141" lon="-1.36819">
        <ele>56</ele>
        <time>2020-06-01T15:52:15.000Z</time>
      </trkpt>
      <trkpt lat="47.29148" lon="-1.36804">
        <ele>56</ele>
        <time>2020-06-01T15:52:17.000Z</time>
      </trkpt>
      <trkpt lat="47.29156" lon="-1.36789">
        <ele>56</ele>
        <time>2020-06-01T15:52:19.000Z</time>
      </trkpt>
      <trkpt lat="47.29164" lon="-1.36774">
        <ele>56</ele>
        <time>2020-06-01T15:52:21.000Z</time>
      </trkpt>
      <trkpt lat="47.29171" lon="-1.3676">
        <ele>56</ele>
        <time>2020-06-01T15:52:23.000Z</time>
      </trkpt>
      <trkpt lat="47.29179" lon="-1.36746">
        <ele>56</ele>
        <time>2020-06-01T15:52:25.000Z</time>
      </trkpt>
      <trkpt lat="47.29187" lon="-1.3673">
        <ele>56</ele>
        <time>2020-06-01T15:52:27.000Z</time>
      </trkpt>
      <trkpt lat="47.29194" lon="-1.36715">
        <ele>56</ele>
        <time>2020-06-01T15:52:29.000Z</time>
      </trkpt>
      <trkpt lat="47.29202" lon="-1.367">
        <ele>56</ele>
        <time>2020-06-01T15:52:31.000Z</time>
      </trkpt>
      <trkpt lat="47.2921" lon="-1.36684">
        <ele>55</ele>
        <time>2020-06-01T15:52:33.000Z</time>
      </trkpt>
      <trkpt lat="47.29218" lon="-1.36669">
        <ele>56</ele>
        <time>2020-06-01T15:52:35.000Z</time>
      </trkpt>
      <trkpt lat="47.29226" lon="-1.36654">
        <ele>55</ele>
        <time>2020-06-01T15:52:37.000Z</time>
      </trkpt>
      <trkpt lat="47.29234" lon="-1.36639">
        <ele>56</ele>
        <time>2020-06-01T15:52:39.000Z</time>
      </trkpt>
      <trkpt lat="47.29242" lon="-1.36624">
        <ele>56</ele>
        <time>2020-06-01T15:52:41.000Z</time>
      </trkpt>
      <trkpt lat="47.2925" lon="-1.36609">
        <ele>56</ele>
        <time>2020-06-01T15:52:43.000Z</time>
      </trkpt>
      <trkpt lat="47.29258" lon="-1.36593">
        <ele>56</ele>
        <time>2020-06-01T15:52:45.000Z</time>
      </trkpt>
      <trkpt lat="47.29266" lon="-1.36578">
        <ele>56</ele>
        <time>2020-06-01T15:52:47.000Z</time>
      </trkpt>
      <trkpt lat="47.29274" lon="-1.36562">
        <ele>56</ele>
        <time>2020-06-01T15:52:49.000Z</time>
      </trkpt>
      <trkpt lat="47.29282" lon="-1.36547">
        <ele>56</ele>
        <time>2020-06-01T15:52:51.000Z</time>
      </trkpt>
      <trkpt lat="47.2929" lon="-1.36532">
        <ele>56</ele>
        <time>2020-06-01T15:52:53.000Z</time>
      </trkpt>
      <trkpt lat="47.29297" lon="-1.36517">
        <ele>56</ele>
        <time>2020-06-01T15:52:55.000Z</time>
      </trkpt>
      <trkpt lat="47.29305" lon="-1.36504">
        <ele>56</ele>
        <time>2020-06-01T15:52:57.000Z</time>
      </trkpt>
      <trkpt lat="47.29312" lon="-1.36489">
        <ele>55</ele>
        <time>2020-06-01T15:52:59.000Z</time>
      </trkpt>
      <trkpt lat="47.2932" lon="-1.36474">
        <ele>55</ele>
        <time>2020-06-01T15:53:01.000Z</time>
      </trkpt>
      <trkpt lat="47.29327" lon="-1.36459">
        <ele>55</ele>
        <time>2020-06-01T15:53:03.000Z</time>
      </trkpt>
      <trkpt lat="47.29334" lon="-1.36444">
        <ele>55</ele>
        <time>2020-06-01T15:53:05.000Z</time>
      </trkpt>
      <trkpt lat="47.29342" lon="-1.36429">
        <ele>55</ele>
        <time>2020-06-01T15:53:07.000Z</time>
      </trkpt>
      <trkpt lat="47.29349" lon="-1.36414">
        <ele>56</ele>
        <time>2020-06-01T15:53:09.000Z</time>
      </trkpt>
      <trkpt lat="47.29357" lon="-1.364">
        <ele>56</ele>
        <time>2020-06-01T15:53:11.000Z</time>
      </trkpt>
      <trkpt lat="47.29364" lon="-1.36386">
        <ele>56</ele>
        <time>2020-06-01T15:53:13.000Z</time>
      </trkpt>
      <trkpt lat="47.29372" lon="-1.36372">
        <ele>56</ele>
        <time>2020-06-01T15:53:15.000Z</time>
      </trkpt>
      <trkpt lat="47.29378" lon="-1.36358">
        <ele>56</ele>
        <time>2020-06-01T15:53:17.000Z</time>
      </trkpt>
      <trkpt lat="47.29386" lon="-1.36345">
        <ele>56</ele>
        <time>2020-06-01T15:53:19.000Z</time>
      </trkpt>
      <trkpt lat="47.29394" lon="-1.36331">
        <ele>55</ele>
        <time>2020-06-01T15:53:21.000Z</time>
      </trkpt>
      <trkpt lat="47.29401" lon="-1.36317">
        <ele>56</ele>
        <time>2020-06-01T15:53:23.000Z</time>
      </trkpt>
      <trkpt lat="47.29408" lon="-1.36302">
        <ele>56</ele>
        <time>2020-06-01T15:53:25.000Z</time>
      </trkpt>
      <trkpt lat="47.29416" lon="-1.36288">
        <ele>56</ele>
        <time>2020-06-01T15:53:27.000Z</time>
      </trkpt>
      <trkpt lat="47.29423" lon="-1.36274">
        <ele>56</ele>
        <time>2020-06-01T15:53:29.000Z</time>
      </trkpt>
      <trkpt lat="47.2943" lon="-1.3626">
        <ele>56</ele>
        <time>2020-06-01T15:53:31.000Z</time>
      </trkpt>
      <trkpt lat="47.29438" lon="-1.36245">
        <ele>55</ele>
        <time>2020-06-01T15:53:33.000Z</time>
      </trkpt>
      <trkpt lat="47.29445" lon="-1.36231">
        <ele>55</ele>
        <time>2020-06-01T15:53:35.000Z</time>
      </trkpt>
      <trkpt lat="47.29452" lon="-1.36217">
        <ele>56</ele>
        <time>2020-06-01T15:53:37.000Z</time>
      </trkpt>
      <trkpt lat="47.2946" lon="-1.36203">
        <ele>56</ele>
        <time>2020-06-01T15:53:39.000Z</time>
      </trkpt>
      <trkpt lat="47.29467" lon="-1.36189">
        <ele>55</ele>
        <time>2020-06-01T15:53:41.000Z</time>
      </trkpt>
      <trkpt lat="47.29474" lon="-1.36175">
        <ele>56</ele>
        <time>2020-06-01T15:53:43.000Z</time>
      </trkpt>
      <trkpt lat="47.29481" lon="-1.36161">
        <ele>56</ele>
        <time>2020-06-01T15:53:45.000Z</time>
      </trkpt>
      <trkpt lat="47.29489" lon="-1.36147">
        <ele>55</ele>
        <time>2020-06-01T15:53:47.000Z</time>
      </trkpt>
      <trkpt lat="47.29496" lon="-1.36132">
        <ele>55</ele>
        <time>2020-06-01T15:53:49.000Z</time>
      </trkpt>
      <trkpt lat="47.29504" lon="-1.36118">
        <ele>55</ele>
        <time>2020-06-01T15:53:51.000Z</time>
      </trkpt>
      <trkpt lat="47.29511" lon="-1.36103">
        <ele>55</ele>
        <time>2020-06-01T15:53:53.000Z</time>
      </trkpt>
      <trkpt lat="47.29519" lon="-1.36089">
        <ele>55</ele>
        <time>2020-06-01T15:53:55.000Z</time>
      </trkpt>
      <trkpt lat="47.29526" lon="-1.36074">
        <ele>55</ele>
        <time>2020-06-01T15:53:57.000Z</time>
      </trkpt>
      <trkpt lat="47.29533" lon="-1.3606">
        <ele>55</ele>
        <time>2020-06-01T15:53:59.000Z</time>
      </trkpt>
      <trkpt lat="47.2954" lon="-1.36045">
        <ele>55</ele>
        <time>2020-06-01T15:54:01.000Z</time>
      </trkpt>
      <trkpt lat="47.29548" lon="-1.36031">
        <ele>55</ele>
        <time>2020-06-01T15:54:03.000Z</time>
      </trkpt>
      <trkpt lat="47.29556" lon="-1.36016">
        <ele>56</ele>
        <time>2020-06-01T15:54:05.000Z</time>
      </trkpt>
      <trkpt lat="47.29563" lon="-1.36002">
        <ele>55</ele>
        <time>2020-06-01T15:54:07.000Z</time>
      </trkpt>
      <trkpt lat="47.29571" lon="-1.35987">
        <ele>55</ele>
        <time>2020-06-01T15:54:09.000Z</time>
      </trkpt>
      <trkpt lat="47.29578" lon="-1.35973">
        <ele>55</ele>
        <time>2020-06-01T15:54:11.000Z</time>
      </trkpt>
      <trkpt lat="47.29585" lon="-1.35959">
        <ele>55</ele>
        <time>2020-06-01T15:54:13.000Z</time>
      </trkpt>
      <trkpt lat="47.29592" lon="-1.35945">
        <ele>55</ele>
        <time>2020-06-01T15:54:15.000Z</time>
      </trkpt>
      <trkpt lat="47.29599" lon="-1.35931">
        <ele>55</ele>
        <time>2020-06-01T15:54:17.000Z</time>
      </trkpt>
      <trkpt lat="47.29607" lon="-1.35917">
        <ele>56</ele>
        <time>2020-06-01T15:54:19.000Z</time>
      </trkpt>
      <trkpt lat="47.29614" lon="-1.35902">
        <ele>55</ele>
        <time>2020-06-01T15:54:21.000Z</time>
      </trkpt>
      <trkpt lat="47.29622" lon="-1.35887">
        <ele>56</ele>
        <time>2020-06-01T15:54:23.000Z</time>
      </trkpt>
      <trkpt lat="47.2963" lon="-1.35872">
        <ele>56</ele>
        <time>2020-06-01T15:54:25.000Z</time>
      </trkpt>
      <trkpt lat="47.29638" lon="-1.35857">
        <ele>56</ele>
        <time>2020-06-01T15:54:27.000Z</time>
      </trkpt>
      <trkpt lat="47.29646" lon="-1.35841">
        <ele>56</ele>
        <time>2020-06-01T15:54:29.000Z</time>
      </trkpt>
      <trkpt lat="47.29654" lon="-1.35826">
        <ele>56</ele>
        <time>2020-06-01T15:54:31.000Z</time>
      </trkpt>
      <trkpt lat="47.29662" lon="-1.35811">
        <ele>56</ele>
        <time>2020-06-01T15:54:33.000Z</time>
      </trkpt>
      <trkpt lat="47.29669" lon="-1.35796">
        <ele>56</ele>
        <time>2020-06-01T15:54:35.000Z</time>
      </trkpt>
      <trkpt lat="47.29677" lon="-1.35781">
        <ele>56</ele>
        <time>2020-06-01T15:54:37.000Z</time>
      </trkpt>
      <trkpt lat="47.29684" lon="-1.35766">
        <ele>56</ele>
        <time>2020-06-01T15:54:39.000Z</time>
      </trkpt>
      <trkpt lat="47.29692" lon="-1.35752">
        <ele>56</ele>
        <time>2020-06-01T15:54:41.000Z</time>
      </trkpt>
      <trkpt lat="47.29699" lon="-1.35737">
        <ele>56</ele>
        <time>2020-06-01T15:54:43.000Z</time>
      </trkpt>
      <trkpt lat="47.29707" lon="-1.35723">
        <ele>56</ele>
        <time>2020-06-01T15:54:45.000Z</time>
      </trkpt>
      <trkpt lat="47.29715" lon="-1.35709">
        <ele>56</ele>
        <time>2020-06-01T15:54:47.000Z</time>
      </trkpt>
      <trkpt lat="47.29721" lon="-1.35695">
        <ele>56</ele>
        <time>2020-06-01T15:54:49.000Z</time>
      </trkpt>
      <trkpt lat="47.29728" lon="-1.35681">
        <ele>56</ele>
        <time>2020-06-01T15:54:51.000Z</time>
      </trkpt>
      <trkpt lat="47.29735" lon="-1.35667">
        <ele>56</ele>
        <time>2020-06-01T15:54:53.000Z</time>
      </trkpt>
      <trkpt lat="47.29743" lon="-1.35653">
        <ele>56</ele>
        <time>2020-06-01T15:54:55.000Z</time>
      </trkpt>
      <trkpt lat="47.2975" lon="-1.35639">
        <ele>56</ele>
        <time>2020-06-01T15:54:57.000Z</time>
      </trkpt>
      <trkpt lat="47.29757" lon="-1.35625">
        <ele>56</ele>
        <time>2020-06-01T15:54:59.000Z</time>
      </trkpt>
      <trkpt lat="47.29765" lon="-1.35611">
        <ele>56</ele>
        <time>2020-06-01T15:55:01.000Z</time>
      </trkpt>
      <trkpt lat="47.29772" lon="-1.35597">
        <ele>55</ele>
        <time>2020-06-01T15:55:03.000Z</time>
      </trkpt>
      <trkpt lat="47.29779" lon="-1.35583">
        <ele>55</ele>
        <time>2020-06-01T15:55:05.000Z</time>
      </trkpt>
      <trkpt lat="47.29787" lon="-1.35568">
        <ele>55</ele>
        <time>2020-06-01T15:55:07.000Z</time>
      </trkpt>
      <trkpt lat="47.29794" lon="-1.35554">
        <ele>55</ele>
        <time>2020-06-01T15:55:09.000Z</time>
      </trkpt>
      <trkpt lat="47.29802" lon="-1.3554">
        <ele>55</ele>
        <time>2020-06-01T15:55:11.000Z</time>
      </trkpt>
      <trkpt lat="47.29809" lon="-1.35526">
        <ele>55</ele>
        <time>2020-06-01T15:55:13.000Z</time>
      </trkpt>
      <trkpt lat="47.29816" lon="-1.35512">
        <ele>55</ele>
        <time>2020-06-01T15:55:15.000Z</time>
      </trkpt>
      <trkpt lat="47.29824" lon="-1.35498">
        <ele>55</ele>
        <time>2020-06-01T15:55:17.000Z</time>
      </trkpt>
      <trkpt lat="47.29831" lon="-1.35485">
        <ele>55</ele>
        <time>2020-06-01T15:55:19.000Z</time>
      </trkpt>
      <trkpt lat="47.29838" lon="-1.3547">
        <ele>55</ele>
        <time>2020-06-01T15:55:21.000Z</time>
      </trkpt>
      <trkpt lat="47.29846" lon="-1.35456">
        <ele>55</ele>
        <time>2020-06-01T15:55:23.000Z</time>
      </trkpt>
      <trkpt lat="47.29853" lon="-1.35442">
        <ele>55</ele>
        <time>2020-06-01T15:55:25.000Z</time>
      </trkpt>
      <trkpt lat="47.29861" lon="-1.35428">
        <ele>55</ele>
        <time>2020-06-01T15:55:27.000Z</time>
      </trkpt>
      <trkpt lat="47.29868" lon="-1.35413">
        <ele>55</ele>
        <time>2020-06-01T15:55:29.000Z</time>
      </trkpt>
      <trkpt lat="47.29876" lon="-1.35399">
        <ele>54</ele>
        <time>2020-06-01T15:55:31.000Z</time>
      </trkpt>
      <trkpt lat="47.29883" lon="-1.35384">
        <ele>55</ele>
        <time>2020-06-01T15:55:33.000Z</time>
      </trkpt>
      <trkpt lat="47.2989" lon="-1.3537">
        <ele>54</ele>
        <time>2020-06-01T15:55:35.000Z</time>
      </trkpt>
      <trkpt lat="47.29898" lon="-1.35356">
        <ele>54</ele>
        <time>2020-06-01T15:55:37.000Z</time>
      </trkpt>
      <trkpt lat="47.29905" lon="-1.35341">
        <ele>54</ele>
        <time>2020-06-01T15:55:39.000Z</time>
      </trkpt>
      <trkpt lat="47.29913" lon="-1.35327">
        <ele>55</ele>
        <time>2020-06-01T15:55:41.000Z</time>
      </trkpt>
      <trkpt lat="47.2992" lon="-1.35313">
        <ele>54</ele>
        <time>2020-06-01T15:55:43.000Z</time>
      </trkpt>
      <trkpt lat="47.29927" lon="-1.353">
        <ele>54</ele>
        <time>2020-06-01T15:55:45.000Z</time>
      </trkpt>
      <trkpt lat="47.29934" lon="-1.35287">
        <ele>54</ele>
        <time>2020-06-01T15:55:47.000Z</time>
      </trkpt>
      <trkpt lat="47.2994" lon="-1.35274">
        <ele>54</ele>
        <time>2020-06-01T15:55:49.000Z</time>
      </trkpt>
      <trkpt lat="47.29947" lon="-1.35261">
        <ele>54</ele>
        <time>2020-06-01T15:55:51.000Z</time>
      </trkpt>
      <trkpt lat="47.29954" lon="-1.35247">
        <ele>54</ele>
        <time>2020-06-01T15:55:53.000Z</time>
      </trkpt>
      <trkpt lat="47.29961" lon="-1.35233">
        <ele>54</ele>
        <time>2020-06-01T15:55:55.000Z</time>
      </trkpt>
      <trkpt lat="47.29968" lon="-1.35219">
        <ele>54</ele>
        <time>2020-06-01T15:55:57.000Z</time>
      </trkpt>
      <trkpt lat="47.29975" lon="-1.35205">
        <ele>55</ele>
        <time>2020-06-01T15:55:59.000Z</time>
      </trkpt>
      <trkpt lat="47.29983" lon="-1.3519">
        <ele>55</ele>
        <time>2020-06-01T15:56:01.000Z</time>
      </trkpt>
      <trkpt lat="47.2999" lon="-1.35175">
        <ele>55</ele>
        <time>2020-06-01T15:56:03.000Z</time>
      </trkpt>
      <trkpt lat="47.29998" lon="-1.3516">
        <ele>55</ele>
        <time>2020-06-01T15:56:05.000Z</time>
      </trkpt>
      <trkpt lat="47.30006" lon="-1.35146">
        <ele>55</ele>
        <time>2020-06-01T15:56:07.000Z</time>
      </trkpt>
      <trkpt lat="47.30013" lon="-1.35131">
        <ele>56</ele>
        <time>2020-06-01T15:56:09.000Z</time>
      </trkpt>
      <trkpt lat="47.3002" lon="-1.35117">
        <ele>56</ele>
        <time>2020-06-01T15:56:11.000Z</time>
      </trkpt>
      <trkpt lat="47.30027" lon="-1.35102">
        <ele>55</ele>
        <time>2020-06-01T15:56:13.000Z</time>
      </trkpt>
      <trkpt lat="47.30033" lon="-1.35087">
        <ele>56</ele>
        <time>2020-06-01T15:56:15.000Z</time>
      </trkpt>
      <trkpt lat="47.30039" lon="-1.35072">
        <ele>56</ele>
        <time>2020-06-01T15:56:17.000Z</time>
      </trkpt>
      <trkpt lat="47.30045" lon="-1.35058">
        <ele>56</ele>
        <time>2020-06-01T15:56:19.000Z</time>
      </trkpt>
      <trkpt lat="47.30051" lon="-1.35043">
        <ele>56</ele>
        <time>2020-06-01T15:56:21.000Z</time>
      </trkpt>
      <trkpt lat="47.30056" lon="-1.35028">
        <ele>56</ele>
        <time>2020-06-01T15:56:23.000Z</time>
      </trkpt>
      <trkpt lat="47.30062" lon="-1.35013">
        <ele>56</ele>
        <time>2020-06-01T15:56:25.000Z</time>
      </trkpt>
      <trkpt lat="47.30067" lon="-1.34997">
        <ele>56</ele>
        <time>2020-06-01T15:56:27.000Z</time>
      </trkpt>
      <trkpt lat="47.30071" lon="-1.34982">
        <ele>56</ele>
        <time>2020-06-01T15:56:29.000Z</time>
      </trkpt>
      <trkpt lat="47.30075" lon="-1.34966">
        <ele>56</ele>
        <time>2020-06-01T15:56:31.000Z</time>
      </trkpt>
      <trkpt lat="47.3008" lon="-1.3495">
        <ele>57</ele>
        <time>2020-06-01T15:56:33.000Z</time>
      </trkpt>
      <trkpt lat="47.30084" lon="-1.34934">
        <ele>56</ele>
        <time>2020-06-01T15:56:35.000Z</time>
      </trkpt>
      <trkpt lat="47.30087" lon="-1.34918">
        <ele>56</ele>
        <time>2020-06-01T15:56:37.000Z</time>
      </trkpt>
      <trkpt lat="47.3009" lon="-1.349">
        <ele>56</ele>
        <time>2020-06-01T15:56:39.000Z</time>
      </trkpt>
      <trkpt lat="47.30093" lon="-1.34884">
        <ele>56</ele>
        <time>2020-06-01T15:56:41.000Z</time>
      </trkpt>
      <trkpt lat="47.30096" lon="-1.34868">
        <ele>56</ele>
        <time>2020-06-01T15:56:43.000Z</time>
      </trkpt>
      <trkpt lat="47.30098" lon="-1.34851">
        <ele>56</ele>
        <time>2020-06-01T15:56:45.000Z</time>
      </trkpt>
      <trkpt lat="47.30099" lon="-1.34833">
        <ele>56</ele>
        <time>2020-06-01T15:56:47.000Z</time>
      </trkpt>
      <trkpt lat="47.301" lon="-1.34816">
        <ele>56</ele>
        <time>2020-06-01T15:56:49.000Z</time>
      </trkpt>
      <trkpt lat="47.30101" lon="-1.34799">
        <ele>56</ele>
        <time>2020-06-01T15:56:51.000Z</time>
      </trkpt>
      <trkpt lat="47.30102" lon="-1.34781">
        <ele>55</ele>
        <time>2020-06-01T15:56:53.000Z</time>
      </trkpt>
      <trkpt lat="47.30102" lon="-1.34763">
        <ele>55</ele>
        <time>2020-06-01T15:56:55.000Z</time>
      </trkpt>
      <trkpt lat="47.30103" lon="-1.34746">
        <ele>56</ele>
        <time>2020-06-01T15:56:57.000Z</time>
      </trkpt>
      <trkpt lat="47.30103" lon="-1.34728">
        <ele>56</ele>
        <time>2020-06-01T15:56:59.000Z</time>
      </trkpt>
      <trkpt lat="47.30102" lon="-1.3471">
        <ele>56</ele>
        <time>2020-06-01T15:57:01.000Z</time>
      </trkpt>
      <trkpt lat="47.30101" lon="-1.34693">
        <ele>56</ele>
        <time>2020-06-01T15:57:03.000Z</time>
      </trkpt>
      <trkpt lat="47.301" lon="-1.34676">
        <ele>56</ele>
        <time>2020-06-01T15:57:05.000Z</time>
      </trkpt>
      <trkpt lat="47.301" lon="-1.34659">
        <ele>56</ele>
        <time>2020-06-01T15:57:07.000Z</time>
      </trkpt>
      <trkpt lat="47.30099" lon="-1.34642">
        <ele>56</ele>
        <time>2020-06-01T15:57:09.000Z</time>
      </trkpt>
      <trkpt lat="47.30097" lon="-1.34626">
        <ele>56</ele>
        <time>2020-06-01T15:57:11.000Z</time>
      </trkpt>
      <trkpt lat="47.30096" lon="-1.34611">
        <ele>56</ele>
        <time>2020-06-01T15:57:13.000Z</time>
      </trkpt>
      <trkpt lat="47.30098" lon="-1.34598">
        <ele>55</ele>
        <time>2020-06-01T15:57:15.000Z</time>
      </trkpt>
      <trkpt lat="47.30102" lon="-1.34581">
        <ele>55</ele>
        <time>2020-06-01T15:57:17.000Z</time>
      </trkpt>
      <trkpt lat="47.30105" lon="-1.34564">
        <ele>54</ele>
        <time>2020-06-01T15:57:19.000Z</time>
      </trkpt>
      <trkpt lat="47.30105" lon="-1.34547">
        <ele>53</ele>
        <time>2020-06-01T15:57:21.000Z</time>
      </trkpt>
      <trkpt lat="47.30098" lon="-1.3453">
        <ele>52</ele>
        <time>2020-06-01T15:57:24.000Z</time>
      </trkpt>
      <trkpt lat="47.30091" lon="-1.34516">
        <ele>52</ele>
        <time>2020-06-01T15:57:26.000Z</time>
      </trkpt>
      <trkpt lat="47.30084" lon="-1.34503">
        <ele>52</ele>
        <time>2020-06-01T15:57:28.000Z</time>
      </trkpt>
      <trkpt lat="47.3008" lon="-1.34486">
        <ele>52</ele>
        <time>2020-06-01T15:57:30.000Z</time>
      </trkpt>
      <trkpt lat="47.30077" lon="-1.34468">
        <ele>52</ele>
        <time>2020-06-01T15:57:32.000Z</time>
      </trkpt>
      <trkpt lat="47.30073" lon="-1.3445">
        <ele>51</ele>
        <time>2020-06-01T15:57:34.000Z</time>
      </trkpt>
      <trkpt lat="47.3007" lon="-1.34431">
        <ele>51</ele>
        <time>2020-06-01T15:57:36.000Z</time>
      </trkpt>
      <trkpt lat="47.30067" lon="-1.34414">
        <ele>51</ele>
        <time>2020-06-01T15:57:38.000Z</time>
      </trkpt>
      <trkpt lat="47.30065" lon="-1.34396">
        <ele>51</ele>
        <time>2020-06-01T15:57:40.000Z</time>
      </trkpt>
      <trkpt lat="47.3006" lon="-1.34369">
        <ele>51</ele>
        <time>2020-06-01T15:57:43.000Z</time>
      </trkpt>
      <trkpt lat="47.30057" lon="-1.34352">
        <ele>51</ele>
        <time>2020-06-01T15:57:45.000Z</time>
      </trkpt>
      <trkpt lat="47.30053" lon="-1.34335">
        <ele>51</ele>
        <time>2020-06-01T15:57:47.000Z</time>
      </trkpt>
      <trkpt lat="47.3005" lon="-1.34318">
        <ele>50</ele>
        <time>2020-06-01T15:57:49.000Z</time>
      </trkpt>
      <trkpt lat="47.30047" lon="-1.34302">
        <ele>51</ele>
        <time>2020-06-01T15:57:51.000Z</time>
      </trkpt>
      <trkpt lat="47.30044" lon="-1.34285">
        <ele>51</ele>
        <time>2020-06-01T15:57:53.000Z</time>
      </trkpt>
      <trkpt lat="47.30041" lon="-1.34268">
        <ele>50</ele>
        <time>2020-06-01T15:57:55.000Z</time>
      </trkpt>
      <trkpt lat="47.30037" lon="-1.34252">
        <ele>50</ele>
        <time>2020-06-01T15:57:57.000Z</time>
      </trkpt>
      <trkpt lat="47.30034" lon="-1.34235">
        <ele>51</ele>
        <time>2020-06-01T15:57:59.000Z</time>
      </trkpt>
      <trkpt lat="47.30031" lon="-1.34219">
        <ele>50</ele>
        <time>2020-06-01T15:58:01.000Z</time>
      </trkpt>
      <trkpt lat="47.30027" lon="-1.34202">
        <ele>51</ele>
        <time>2020-06-01T15:58:03.000Z</time>
      </trkpt>
      <trkpt lat="47.30024" lon="-1.34185">
        <ele>51</ele>
        <time>2020-06-01T15:58:05.000Z</time>
      </trkpt>
      <trkpt lat="47.30021" lon="-1.34169">
        <ele>51</ele>
        <time>2020-06-01T15:58:07.000Z</time>
      </trkpt>
      <trkpt lat="47.30018" lon="-1.34153">
        <ele>51</ele>
        <time>2020-06-01T15:58:09.000Z</time>
      </trkpt>
      <trkpt lat="47.30017" lon="-1.34136">
        <ele>51</ele>
        <time>2020-06-01T15:58:11.000Z</time>
      </trkpt>
      <trkpt lat="47.30022" lon="-1.34123">
        <ele>51</ele>
        <time>2020-06-01T15:58:13.000Z</time>
      </trkpt>
      <trkpt lat="47.30032" lon="-1.34114">
        <ele>52</ele>
        <time>2020-06-01T15:58:15.000Z</time>
      </trkpt>
      <trkpt lat="47.30042" lon="-1.34107">
        <ele>52</ele>
        <time>2020-06-01T15:58:17.000Z</time>
      </trkpt>
      <trkpt lat="47.30053" lon="-1.34103">
        <ele>52</ele>
        <time>2020-06-01T15:58:19.000Z</time>
      </trkpt>
      <trkpt lat="47.30065" lon="-1.34106">
        <ele>52</ele>
        <time>2020-06-01T15:58:21.000Z</time>
      </trkpt>
      <trkpt lat="47.30075" lon="-1.34115">
        <ele>52</ele>
        <time>2020-06-01T15:58:23.000Z</time>
      </trkpt>
      <trkpt lat="47.30083" lon="-1.34125">
        <ele>53</ele>
        <time>2020-06-01T15:58:25.000Z</time>
      </trkpt>
      <trkpt lat="47.3009" lon="-1.34133">
        <ele>53</ele>
        <time>2020-06-01T15:58:27.000Z</time>
      </trkpt>
      <trkpt lat="47.30097" lon="-1.34143">
        <ele>53</ele>
        <time>2020-06-01T15:58:29.000Z</time>
      </trkpt>
      <trkpt lat="47.30107" lon="-1.34139">
        <ele>53</ele>
        <time>2020-06-01T15:58:32.000Z</time>
      </trkpt>
      <trkpt lat="47.30109" lon="-1.34125">
        <ele>54</ele>
        <time>2020-06-01T15:58:34.000Z</time>
      </trkpt>
      <trkpt lat="47.30112" lon="-1.3411">
        <ele>54</ele>
        <time>2020-06-01T15:58:36.000Z</time>
      </trkpt>
      <trkpt lat="47.30117" lon="-1.34094">
        <ele>55</ele>
        <time>2020-06-01T15:58:38.000Z</time>
      </trkpt>
      <trkpt lat="47.30122" lon="-1.34079">
        <ele>56</ele>
        <time>2020-06-01T15:58:40.000Z</time>
      </trkpt>
      <trkpt lat="47.3013" lon="-1.34069">
        <ele>56</ele>
        <time>2020-06-01T15:58:42.000Z</time>
      </trkpt>
      <trkpt lat="47.30138" lon="-1.34061">
        <ele>56</ele>
        <time>2020-06-01T15:58:44.000Z</time>
      </trkpt>
      <trkpt lat="47.30148" lon="-1.34051">
        <ele>57</ele>
        <time>2020-06-01T15:58:46.000Z</time>
      </trkpt>
      <trkpt lat="47.30158" lon="-1.34041">
        <ele>57</ele>
        <time>2020-06-01T15:58:48.000Z</time>
      </trkpt>
      <trkpt lat="47.30168" lon="-1.34029">
        <ele>56</ele>
        <time>2020-06-01T15:58:50.000Z</time>
      </trkpt>
      <trkpt lat="47.3018" lon="-1.34017">
        <ele>56</ele>
        <time>2020-06-01T15:58:52.000Z</time>
      </trkpt>
      <trkpt lat="47.30191" lon="-1.34007">
        <ele>55</ele>
        <time>2020-06-01T15:58:54.000Z</time>
      </trkpt>
      <trkpt lat="47.30201" lon="-1.33997">
        <ele>55</ele>
        <time>2020-06-01T15:58:56.000Z</time>
      </trkpt>
      <trkpt lat="47.30211" lon="-1.33994">
        <ele>55</ele>
        <time>2020-06-01T15:58:59.000Z</time>
      </trkpt>
      <trkpt lat="47.30218" lon="-1.34004">
        <ele>54</ele>
        <time>2020-06-01T15:59:01.000Z</time>
      </trkpt>
      <trkpt lat="47.30224" lon="-1.34019">
        <ele>52</ele>
        <time>2020-06-01T15:59:03.000Z</time>
      </trkpt>
      <trkpt lat="47.30233" lon="-1.34043">
        <ele>52</ele>
        <time>2020-06-01T15:59:06.000Z</time>
      </trkpt>
      <trkpt lat="47.3024" lon="-1.3406">
        <ele>53</ele>
        <time>2020-06-01T15:59:08.000Z</time>
      </trkpt>
      <trkpt lat="47.30245" lon="-1.34077">
        <ele>53</ele>
        <time>2020-06-01T15:59:10.000Z</time>
      </trkpt>
      <trkpt lat="47.30251" lon="-1.3409">
        <ele>53</ele>
        <time>2020-06-01T15:59:12.000Z</time>
      </trkpt>
      <trkpt lat="47.30257" lon="-1.34101">
        <ele>53</ele>
        <time>2020-06-01T15:59:14.000Z</time>
      </trkpt>
      <trkpt lat="47.30267" lon="-1.34103">
        <ele>52</ele>
        <time>2020-06-01T15:59:17.000Z</time>
      </trkpt>
      <trkpt lat="47.30275" lon="-1.34093">
        <ele>52</ele>
        <time>2020-06-01T15:59:19.000Z</time>
      </trkpt>
      <trkpt lat="47.30284" lon="-1.34082">
        <ele>52</ele>
        <time>2020-06-01T15:59:21.000Z</time>
      </trkpt>
      <trkpt lat="47.30293" lon="-1.34071">
        <ele>52</ele>
        <time>2020-06-01T15:59:23.000Z</time>
      </trkpt>
      <trkpt lat="47.30304" lon="-1.3406">
        <ele>52</ele>
        <time>2020-06-01T15:59:25.000Z</time>
      </trkpt>
      <trkpt lat="47.30318" lon="-1.34044">
        <ele>53</ele>
        <time>2020-06-01T15:59:28.000Z</time>
      </trkpt>
      <trkpt lat="47.30326" lon="-1.3403">
        <ele>53</ele>
        <time>2020-06-01T15:59:30.000Z</time>
      </trkpt>
      <trkpt lat="47.30338" lon="-1.3401">
        <ele>53</ele>
        <time>2020-06-01T15:59:33.000Z</time>
      </trkpt>
      <trkpt lat="47.30349" lon="-1.33992">
        <ele>54</ele>
        <time>2020-06-01T15:59:36.000Z</time>
      </trkpt>
      <trkpt lat="47.30359" lon="-1.33969">
        <ele>53</ele>
        <time>2020-06-01T15:59:39.000Z</time>
      </trkpt>
      <trkpt lat="47.30367" lon="-1.33959">
        <ele>53</ele>
        <time>2020-06-01T15:59:41.000Z</time>
      </trkpt>
      <trkpt lat="47.30377" lon="-1.33959">
        <ele>53</ele>
        <time>2020-06-01T15:59:43.000Z</time>
      </trkpt>
      <trkpt lat="47.30387" lon="-1.33951">
        <ele>53</ele>
        <time>2020-06-01T15:59:45.000Z</time>
      </trkpt>
      <trkpt lat="47.30396" lon="-1.33939">
        <ele>53</ele>
        <time>2020-06-01T15:59:47.000Z</time>
      </trkpt>
      <trkpt lat="47.30404" lon="-1.33928">
        <ele>53</ele>
        <time>2020-06-01T15:59:49.000Z</time>
      </trkpt>
      <trkpt lat="47.30411" lon="-1.33917">
        <ele>54</ele>
        <time>2020-06-01T15:59:51.000Z</time>
      </trkpt>
      <trkpt lat="47.3042" lon="-1.33904">
        <ele>54</ele>
        <time>2020-06-01T15:59:53.000Z</time>
      </trkpt>
      <trkpt lat="47.30429" lon="-1.33894">
        <ele>54</ele>
        <time>2020-06-01T15:59:55.000Z</time>
      </trkpt>
      <trkpt lat="47.30443" lon="-1.3388">
        <ele>54</ele>
        <time>2020-06-01T15:59:58.000Z</time>
      </trkpt>
      <trkpt lat="47.30452" lon="-1.33871">
        <ele>54</ele>
        <time>2020-06-01T16:00:00.000Z</time>
      </trkpt>
      <trkpt lat="47.30462" lon="-1.33862">
        <ele>54</ele>
        <time>2020-06-01T16:00:02.000Z</time>
      </trkpt>
      <trkpt lat="47.30471" lon="-1.33851">
        <ele>54</ele>
        <time>2020-06-01T16:00:04.000Z</time>
      </trkpt>
      <trkpt lat="47.3048" lon="-1.3384">
        <ele>54</ele>
        <time>2020-06-01T16:00:06.000Z</time>
      </trkpt>
      <trkpt lat="47.30491" lon="-1.33832">
        <ele>54</ele>
        <time>2020-06-01T16:00:08.000Z</time>
      </trkpt>
      <trkpt lat="47.30501" lon="-1.33824">
        <ele>54</ele>
        <time>2020-06-01T16:00:10.000Z</time>
      </trkpt>
      <trkpt lat="47.30512" lon="-1.33817">
        <ele>53</ele>
        <time>2020-06-01T16:00:12.000Z</time>
      </trkpt>
      <trkpt lat="47.3053" lon="-1.33806">
        <ele>53</ele>
        <time>2020-06-01T16:00:15.000Z</time>
      </trkpt>
      <trkpt lat="47.30541" lon="-1.33799">
        <ele>53</ele>
        <time>2020-06-01T16:00:17.000Z</time>
      </trkpt>
      <trkpt lat="47.30551" lon="-1.33793">
        <ele>53</ele>
        <time>2020-06-01T16:00:19.000Z</time>
      </trkpt>
      <trkpt lat="47.30562" lon="-1.33786">
        <ele>53</ele>
        <time>2020-06-01T16:00:21.000Z</time>
      </trkpt>
      <trkpt lat="47.30574" lon="-1.33781">
        <ele>53</ele>
        <time>2020-06-01T16:00:23.000Z</time>
      </trkpt>
      <trkpt lat="47.30586" lon="-1.33776">
        <ele>54</ele>
        <time>2020-06-01T16:00:25.000Z</time>
      </trkpt>
      <trkpt lat="47.30597" lon="-1.33772">
        <ele>54</ele>
        <time>2020-06-01T16:00:27.000Z</time>
      </trkpt>
      <trkpt lat="47.30609" lon="-1.33768">
        <ele>54</ele>
        <time>2020-06-01T16:00:29.000Z</time>
      </trkpt>
      <trkpt lat="47.30622" lon="-1.33764">
        <ele>54</ele>
        <time>2020-06-01T16:00:31.000Z</time>
      </trkpt>
      <trkpt lat="47.30634" lon="-1.3376">
        <ele>54</ele>
        <time>2020-06-01T16:00:33.000Z</time>
      </trkpt>
      <trkpt lat="47.30645" lon="-1.33756">
        <ele>54</ele>
        <time>2020-06-01T16:00:35.000Z</time>
      </trkpt>
      <trkpt lat="47.30657" lon="-1.3375">
        <ele>54</ele>
        <time>2020-06-01T16:00:37.000Z</time>
      </trkpt>
      <trkpt lat="47.30668" lon="-1.33742">
        <ele>53</ele>
        <time>2020-06-01T16:00:39.000Z</time>
      </trkpt>
      <trkpt lat="47.3068" lon="-1.33734">
        <ele>53</ele>
        <time>2020-06-01T16:00:41.000Z</time>
      </trkpt>
      <trkpt lat="47.3069" lon="-1.33722">
        <ele>53</ele>
        <time>2020-06-01T16:00:43.000Z</time>
      </trkpt>
      <trkpt lat="47.307" lon="-1.33707">
        <ele>53</ele>
        <time>2020-06-01T16:00:45.000Z</time>
      </trkpt>
      <trkpt lat="47.30709" lon="-1.33693">
        <ele>53</ele>
        <time>2020-06-01T16:00:47.000Z</time>
      </trkpt>
      <trkpt lat="47.30716" lon="-1.33677">
        <ele>53</ele>
        <time>2020-06-01T16:00:49.000Z</time>
      </trkpt>
      <trkpt lat="47.30723" lon="-1.3366">
        <ele>53</ele>
        <time>2020-06-01T16:00:51.000Z</time>
      </trkpt>
      <trkpt lat="47.30727" lon="-1.33643">
        <ele>52</ele>
        <time>2020-06-01T16:00:53.000Z</time>
      </trkpt>
      <trkpt lat="47.30725" lon="-1.33624">
        <ele>51</ele>
        <time>2020-06-01T16:00:55.000Z</time>
      </trkpt>
      <trkpt lat="47.30719" lon="-1.33605">
        <ele>51</ele>
        <time>2020-06-01T16:00:57.000Z</time>
      </trkpt>
      <trkpt lat="47.30712" lon="-1.33588">
        <ele>51</ele>
        <time>2020-06-01T16:00:59.000Z</time>
      </trkpt>
      <trkpt lat="47.30706" lon="-1.3357">
        <ele>51</ele>
        <time>2020-06-01T16:01:01.000Z</time>
      </trkpt>
      <trkpt lat="47.307" lon="-1.33552">
        <ele>51</ele>
        <time>2020-06-01T16:01:03.000Z</time>
      </trkpt>
      <trkpt lat="47.30694" lon="-1.33534">
        <ele>51</ele>
        <time>2020-06-01T16:01:05.000Z</time>
      </trkpt>
      <trkpt lat="47.30688" lon="-1.33516">
        <ele>52</ele>
        <time>2020-06-01T16:01:07.000Z</time>
      </trkpt>
      <trkpt lat="47.30682" lon="-1.33498">
        <ele>52</ele>
        <time>2020-06-01T16:01:09.000Z</time>
      </trkpt>
      <trkpt lat="47.30676" lon="-1.3348">
        <ele>52</ele>
        <time>2020-06-01T16:01:11.000Z</time>
      </trkpt>
      <trkpt lat="47.3067" lon="-1.33463">
        <ele>52</ele>
        <time>2020-06-01T16:01:13.000Z</time>
      </trkpt>
      <trkpt lat="47.30665" lon="-1.33445">
        <ele>52</ele>
        <time>2020-06-01T16:01:15.000Z</time>
      </trkpt>
      <trkpt lat="47.30658" lon="-1.33427">
        <ele>52</ele>
        <time>2020-06-01T16:01:17.000Z</time>
      </trkpt>
      <trkpt lat="47.30652" lon="-1.3341">
        <ele>52</ele>
        <time>2020-06-01T16:01:19.000Z</time>
      </trkpt>
      <trkpt lat="47.30646" lon="-1.33392">
        <ele>52</ele>
        <time>2020-06-01T16:01:21.000Z</time>
      </trkpt>
      <trkpt lat="47.30639" lon="-1.33374">
        <ele>52</ele>
        <time>2020-06-01T16:01:23.000Z</time>
      </trkpt>
      <trkpt lat="47.30632" lon="-1.33357">
        <ele>52</ele>
        <time>2020-06-01T16:01:25.000Z</time>
      </trkpt>
      <trkpt lat="47.30625" lon="-1.33342">
        <ele>53</ele>
        <time>2020-06-01T16:01:27.000Z</time>
      </trkpt>
      <trkpt lat="47.30616" lon="-1.33316">
        <ele>52</ele>
        <time>2020-06-01T16:01:30.000Z</time>
      </trkpt>
      <trkpt lat="47.30612" lon="-1.33298">
        <ele>52</ele>
        <time>2020-06-01T16:01:32.000Z</time>
      </trkpt>
      <trkpt lat="47.30612" lon="-1.3328">
        <ele>52</ele>
        <time>2020-06-01T16:01:34.000Z</time>
      </trkpt>
      <trkpt lat="47.30617" lon="-1.33261">
        <ele>52</ele>
        <time>2020-06-01T16:01:36.000Z</time>
      </trkpt>
      <trkpt lat="47.30624" lon="-1.33246">
        <ele>52</ele>
        <time>2020-06-01T16:01:38.000Z</time>
      </trkpt>
      <trkpt lat="47.30633" lon="-1.33234">
        <ele>52</ele>
        <time>2020-06-01T16:01:40.000Z</time>
      </trkpt>
      <trkpt lat="47.30644" lon="-1.33227">
        <ele>52</ele>
        <time>2020-06-01T16:01:42.000Z</time>
      </trkpt>
      <trkpt lat="47.30656" lon="-1.33223">
        <ele>53</ele>
        <time>2020-06-01T16:01:44.000Z</time>
      </trkpt>
      <trkpt lat="47.30667" lon="-1.33219">
        <ele>53</ele>
        <time>2020-06-01T16:01:46.000Z</time>
      </trkpt>
      <trkpt lat="47.30679" lon="-1.33215">
        <ele>53</ele>
        <time>2020-06-01T16:01:48.000Z</time>
      </trkpt>
      <trkpt lat="47.30691" lon="-1.33211">
        <ele>53</ele>
        <time>2020-06-01T16:01:50.000Z</time>
      </trkpt>
      <trkpt lat="47.30709" lon="-1.33204">
        <ele>53</ele>
        <time>2020-06-01T16:01:53.000Z</time>
      </trkpt>
      <trkpt lat="47.30721" lon="-1.33199">
        <ele>53</ele>
        <time>2020-06-01T16:01:55.000Z</time>
      </trkpt>
      <trkpt lat="47.30733" lon="-1.33195">
        <ele>53</ele>
        <time>2020-06-01T16:01:57.000Z</time>
      </trkpt>
      <trkpt lat="47.30745" lon="-1.3319">
        <ele>53</ele>
        <time>2020-06-01T16:01:59.000Z</time>
      </trkpt>
      <trkpt lat="47.30756" lon="-1.33185">
        <ele>53</ele>
        <time>2020-06-01T16:02:01.000Z</time>
      </trkpt>
      <trkpt lat="47.30768" lon="-1.33181">
        <ele>54</ele>
        <time>2020-06-01T16:02:03.000Z</time>
      </trkpt>
      <trkpt lat="47.30779" lon="-1.33177">
        <ele>54</ele>
        <time>2020-06-01T16:02:05.000Z</time>
      </trkpt>
      <trkpt lat="47.30791" lon="-1.33171">
        <ele>54</ele>
        <time>2020-06-01T16:02:07.000Z</time>
      </trkpt>
      <trkpt lat="47.30803" lon="-1.33166">
        <ele>54</ele>
        <time>2020-06-01T16:02:09.000Z</time>
      </trkpt>
      <trkpt lat="47.30815" lon="-1.3316">
        <ele>54</ele>
        <time>2020-06-01T16:02:11.000Z</time>
      </trkpt>
      <trkpt lat="47.30826" lon="-1.33154">
        <ele>55</ele>
        <time>2020-06-01T16:02:13.000Z</time>
      </trkpt>
      <trkpt lat="47.30838" lon="-1.3315">
        <ele>55</ele>
        <time>2020-06-01T16:02:15.000Z</time>
      </trkpt>
      <trkpt lat="47.3085" lon="-1.33144">
        <ele>54</ele>
        <time>2020-06-01T16:02:17.000Z</time>
      </trkpt>
      <trkpt lat="47.30862" lon="-1.3314">
        <ele>54</ele>
        <time>2020-06-01T16:02:19.000Z</time>
      </trkpt>
      <trkpt lat="47.3088" lon="-1.33133">
        <ele>54</ele>
        <time>2020-06-01T16:02:22.000Z</time>
      </trkpt>
      <trkpt lat="47.30892" lon="-1.33129">
        <ele>54</ele>
        <time>2020-06-01T16:02:24.000Z</time>
      </trkpt>
      <trkpt lat="47.30903" lon="-1.33123">
        <ele>54</ele>
        <time>2020-06-01T16:02:26.000Z</time>
      </trkpt>
      <trkpt lat="47.30914" lon="-1.33118">
        <ele>54</ele>
        <time>2020-06-01T16:02:28.000Z</time>
      </trkpt>
      <trkpt lat="47.30925" lon="-1.33113">
        <ele>54</ele>
        <time>2020-06-01T16:02:30.000Z</time>
      </trkpt>
      <trkpt lat="47.30937" lon="-1.33108">
        <ele>53</ele>
        <time>2020-06-01T16:02:32.000Z</time>
      </trkpt>
      <trkpt lat="47.30948" lon="-1.33103">
        <ele>53</ele>
        <time>2020-06-01T16:02:34.000Z</time>
      </trkpt>
      <trkpt lat="47.3096" lon="-1.33099">
        <ele>53</ele>
        <time>2020-06-01T16:02:36.000Z</time>
      </trkpt>
      <trkpt lat="47.30972" lon="-1.33094">
        <ele>53</ele>
        <time>2020-06-01T16:02:38.000Z</time>
      </trkpt>
      <trkpt lat="47.30984" lon="-1.33089">
        <ele>53</ele>
        <time>2020-06-01T16:02:40.000Z</time>
      </trkpt>
      <trkpt lat="47.30995" lon="-1.33084">
        <ele>53</ele>
        <time>2020-06-01T16:02:42.000Z</time>
      </trkpt>
      <trkpt lat="47.31007" lon="-1.33079">
        <ele>53</ele>
        <time>2020-06-01T16:02:44.000Z</time>
      </trkpt>
      <trkpt lat="47.31018" lon="-1.33074">
        <ele>53</ele>
        <time>2020-06-01T16:02:46.000Z</time>
      </trkpt>
      <trkpt lat="47.31029" lon="-1.3307">
        <ele>53</ele>
        <time>2020-06-01T16:02:48.000Z</time>
      </trkpt>
      <trkpt lat="47.3104" lon="-1.33064">
        <ele>53</ele>
        <time>2020-06-01T16:02:50.000Z</time>
      </trkpt>
      <trkpt lat="47.31052" lon="-1.3306">
        <ele>54</ele>
        <time>2020-06-01T16:02:52.000Z</time>
      </trkpt>
      <trkpt lat="47.31063" lon="-1.33055">
        <ele>54</ele>
        <time>2020-06-01T16:02:54.000Z</time>
      </trkpt>
      <trkpt lat="47.31075" lon="-1.3305">
        <ele>54</ele>
        <time>2020-06-01T16:02:56.000Z</time>
      </trkpt>
      <trkpt lat="47.31086" lon="-1.33045">
        <ele>54</ele>
        <time>2020-06-01T16:02:58.000Z</time>
      </trkpt>
      <trkpt lat="47.31098" lon="-1.33039">
        <ele>55</ele>
        <time>2020-06-01T16:03:00.000Z</time>
      </trkpt>
      <trkpt lat="47.31109" lon="-1.33035">
        <ele>55</ele>
        <time>2020-06-01T16:03:02.000Z</time>
      </trkpt>
      <trkpt lat="47.31121" lon="-1.33031">
        <ele>55</ele>
        <time>2020-06-01T16:03:04.000Z</time>
      </trkpt>
      <trkpt lat="47.31133" lon="-1.33026">
        <ele>54</ele>
        <time>2020-06-01T16:03:06.000Z</time>
      </trkpt>
      <trkpt lat="47.31145" lon="-1.33022">
        <ele>55</ele>
        <time>2020-06-01T16:03:08.000Z</time>
      </trkpt>
      <trkpt lat="47.31157" lon="-1.33017">
        <ele>55</ele>
        <time>2020-06-01T16:03:10.000Z</time>
      </trkpt>
      <trkpt lat="47.31168" lon="-1.33013">
        <ele>55</ele>
        <time>2020-06-01T16:03:12.000Z</time>
      </trkpt>
      <trkpt lat="47.31181" lon="-1.33009">
        <ele>55</ele>
        <time>2020-06-01T16:03:14.000Z</time>
      </trkpt>
      <trkpt lat="47.31192" lon="-1.33004">
        <ele>55</ele>
        <time>2020-06-01T16:03:16.000Z</time>
      </trkpt>
      <trkpt lat="47.31204" lon="-1.32999">
        <ele>54</ele>
        <time>2020-06-01T16:03:18.000Z</time>
      </trkpt>
      <trkpt lat="47.31215" lon="-1.32995">
        <ele>54</ele>
        <time>2020-06-01T16:03:20.000Z</time>
      </trkpt>
      <trkpt lat="47.31227" lon="-1.32989">
        <ele>54</ele>
        <time>2020-06-01T16:03:22.000Z</time>
      </trkpt>
      <trkpt lat="47.31238" lon="-1.32983">
        <ele>54</ele>
        <time>2020-06-01T16:03:24.000Z</time>
      </trkpt>
      <trkpt lat="47.31249" lon="-1.32976">
        <ele>54</ele>
        <time>2020-06-01T16:03:26.000Z</time>
      </trkpt>
      <trkpt lat="47.3126" lon="-1.32968">
        <ele>54</ele>
        <time>2020-06-01T16:03:28.000Z</time>
      </trkpt>
      <trkpt lat="47.3127" lon="-1.3296">
        <ele>54</ele>
        <time>2020-06-01T16:03:30.000Z</time>
      </trkpt>
      <trkpt lat="47.31281" lon="-1.32951">
        <ele>54</ele>
        <time>2020-06-01T16:03:32.000Z</time>
      </trkpt>
      <trkpt lat="47.31292" lon="-1.32941">
        <ele>54</ele>
        <time>2020-06-01T16:03:34.000Z</time>
      </trkpt>
      <trkpt lat="47.31303" lon="-1.32931">
        <ele>54</ele>
        <time>2020-06-01T16:03:36.000Z</time>
      </trkpt>
      <trkpt lat="47.31314" lon="-1.32923">
        <ele>54</ele>
        <time>2020-06-01T16:03:38.000Z</time>
      </trkpt>
      <trkpt lat="47.31325" lon="-1.32913">
        <ele>54</ele>
        <time>2020-06-01T16:03:40.000Z</time>
      </trkpt>
      <trkpt lat="47.31335" lon="-1.32903">
        <ele>54</ele>
        <time>2020-06-01T16:03:42.000Z</time>
      </trkpt>
      <trkpt lat="47.31346" lon="-1.32894">
        <ele>54</ele>
        <time>2020-06-01T16:03:44.000Z</time>
      </trkpt>
      <trkpt lat="47.31357" lon="-1.32886">
        <ele>54</ele>
        <time>2020-06-01T16:03:46.000Z</time>
      </trkpt>
      <trkpt lat="47.31367" lon="-1.32877">
        <ele>54</ele>
        <time>2020-06-01T16:03:48.000Z</time>
      </trkpt>
      <trkpt lat="47.31378" lon="-1.32868">
        <ele>53</ele>
        <time>2020-06-01T16:03:50.000Z</time>
      </trkpt>
      <trkpt lat="47.31389" lon="-1.32859">
        <ele>53</ele>
        <time>2020-06-01T16:03:52.000Z</time>
      </trkpt>
      <trkpt lat="47.314" lon="-1.3285">
        <ele>53</ele>
        <time>2020-06-01T16:03:54.000Z</time>
      </trkpt>
      <trkpt lat="47.31411" lon="-1.32841">
        <ele>53</ele>
        <time>2020-06-01T16:03:56.000Z</time>
      </trkpt>
      <trkpt lat="47.31422" lon="-1.32832">
        <ele>53</ele>
        <time>2020-06-01T16:03:58.000Z</time>
      </trkpt>
      <trkpt lat="47.31431" lon="-1.32823">
        <ele>53</ele>
        <time>2020-06-01T16:04:00.000Z</time>
      </trkpt>
      <trkpt lat="47.31442" lon="-1.32814">
        <ele>53</ele>
        <time>2020-06-01T16:04:02.000Z</time>
      </trkpt>
      <trkpt lat="47.31453" lon="-1.32806">
        <ele>53</ele>
        <time>2020-06-01T16:04:04.000Z</time>
      </trkpt>
      <trkpt lat="47.31464" lon="-1.32797">
        <ele>54</ele>
        <time>2020-06-01T16:04:06.000Z</time>
      </trkpt>
      <trkpt lat="47.31475" lon="-1.32789">
        <ele>54</ele>
        <time>2020-06-01T16:04:08.000Z</time>
      </trkpt>
      <trkpt lat="47.31484" lon="-1.3278">
        <ele>55</ele>
        <time>2020-06-01T16:04:10.000Z</time>
      </trkpt>
      <trkpt lat="47.31494" lon="-1.32769">
        <ele>55</ele>
        <time>2020-06-01T16:04:12.000Z</time>
      </trkpt>
      <trkpt lat="47.31504" lon="-1.32757">
        <ele>55</ele>
        <time>2020-06-01T16:04:14.000Z</time>
      </trkpt>
      <trkpt lat="47.31513" lon="-1.32745">
        <ele>56</ele>
        <time>2020-06-01T16:04:16.000Z</time>
      </trkpt>
      <trkpt lat="47.31523" lon="-1.32734">
        <ele>56</ele>
        <time>2020-06-01T16:04:18.000Z</time>
      </trkpt>
      <trkpt lat="47.31533" lon="-1.32722">
        <ele>56</ele>
        <time>2020-06-01T16:04:20.000Z</time>
      </trkpt>
      <trkpt lat="47.31542" lon="-1.3271">
        <ele>56</ele>
        <time>2020-06-01T16:04:22.000Z</time>
      </trkpt>
      <trkpt lat="47.31551" lon="-1.32699">
        <ele>55</ele>
        <time>2020-06-01T16:04:24.000Z</time>
      </trkpt>
      <trkpt lat="47.3156" lon="-1.32687">
        <ele>55</ele>
        <time>2020-06-01T16:04:26.000Z</time>
      </trkpt>
      <trkpt lat="47.3157" lon="-1.32675">
        <ele>55</ele>
        <time>2020-06-01T16:04:28.000Z</time>
      </trkpt>
      <trkpt lat="47.3158" lon="-1.32662">
        <ele>55</ele>
        <time>2020-06-01T16:04:30.000Z</time>
      </trkpt>
      <trkpt lat="47.3159" lon="-1.3265">
        <ele>54</ele>
        <time>2020-06-01T16:04:32.000Z</time>
      </trkpt>
      <trkpt lat="47.316" lon="-1.32636">
        <ele>54</ele>
        <time>2020-06-01T16:04:34.000Z</time>
      </trkpt>
      <trkpt lat="47.31609" lon="-1.32622">
        <ele>54</ele>
        <time>2020-06-01T16:04:36.000Z</time>
      </trkpt>
      <trkpt lat="47.31618" lon="-1.32607">
        <ele>55</ele>
        <time>2020-06-01T16:04:38.000Z</time>
      </trkpt>
      <trkpt lat="47.31626" lon="-1.32592">
        <ele>55</ele>
        <time>2020-06-01T16:04:40.000Z</time>
      </trkpt>
      <trkpt lat="47.31634" lon="-1.32577">
        <ele>55</ele>
        <time>2020-06-01T16:04:42.000Z</time>
      </trkpt>
      <trkpt lat="47.31642" lon="-1.32562">
        <ele>55</ele>
        <time>2020-06-01T16:04:44.000Z</time>
      </trkpt>
      <trkpt lat="47.3165" lon="-1.32547">
        <ele>55</ele>
        <time>2020-06-01T16:04:46.000Z</time>
      </trkpt>
      <trkpt lat="47.31658" lon="-1.32531">
        <ele>54</ele>
        <time>2020-06-01T16:04:48.000Z</time>
      </trkpt>
      <trkpt lat="47.31665" lon="-1.32515">
        <ele>54</ele>
        <time>2020-06-01T16:04:50.000Z</time>
      </trkpt>
      <trkpt lat="47.31672" lon="-1.32499">
        <ele>54</ele>
        <time>2020-06-01T16:04:52.000Z</time>
      </trkpt>
      <trkpt lat="47.31678" lon="-1.32481">
        <ele>53</ele>
        <time>2020-06-01T16:04:54.000Z</time>
      </trkpt>
      <trkpt lat="47.31682" lon="-1.32461">
        <ele>52</ele>
        <time>2020-06-01T16:04:56.000Z</time>
      </trkpt>
      <trkpt lat="47.31683" lon="-1.32441">
        <ele>53</ele>
        <time>2020-06-01T16:04:58.000Z</time>
      </trkpt>
      <trkpt lat="47.31685" lon="-1.32421">
        <ele>54</ele>
        <time>2020-06-01T16:05:00.000Z</time>
      </trkpt>
      <trkpt lat="47.31686" lon="-1.32403">
        <ele>54</ele>
        <time>2020-06-01T16:05:02.000Z</time>
      </trkpt>
      <trkpt lat="47.31689" lon="-1.32385">
        <ele>54</ele>
        <time>2020-06-01T16:05:04.000Z</time>
      </trkpt>
      <trkpt lat="47.31692" lon="-1.32368">
        <ele>54</ele>
        <time>2020-06-01T16:05:06.000Z</time>
      </trkpt>
      <trkpt lat="47.31695" lon="-1.3235">
        <ele>53</ele>
        <time>2020-06-01T16:05:08.000Z</time>
      </trkpt>
      <trkpt lat="47.31699" lon="-1.32332">
        <ele>54</ele>
        <time>2020-06-01T16:05:10.000Z</time>
      </trkpt>
      <trkpt lat="47.31702" lon="-1.32314">
        <ele>53</ele>
        <time>2020-06-01T16:05:12.000Z</time>
      </trkpt>
      <trkpt lat="47.31706" lon="-1.32295">
        <ele>53</ele>
        <time>2020-06-01T16:05:14.000Z</time>
      </trkpt>
      <trkpt lat="47.3171" lon="-1.32277">
        <ele>53</ele>
        <time>2020-06-01T16:05:16.000Z</time>
      </trkpt>
      <trkpt lat="47.31714" lon="-1.32259">
        <ele>53</ele>
        <time>2020-06-01T16:05:18.000Z</time>
      </trkpt>
      <trkpt lat="47.31718" lon="-1.32242">
        <ele>53</ele>
        <time>2020-06-01T16:05:20.000Z</time>
      </trkpt>
      <trkpt lat="47.31721" lon="-1.32225">
        <ele>54</ele>
        <time>2020-06-01T16:05:22.000Z</time>
      </trkpt>
      <trkpt lat="47.31723" lon="-1.32208">
        <ele>53</ele>
        <time>2020-06-01T16:05:24.000Z</time>
      </trkpt>
      <trkpt lat="47.31724" lon="-1.32191">
        <ele>54</ele>
        <time>2020-06-01T16:05:26.000Z</time>
      </trkpt>
      <trkpt lat="47.31726" lon="-1.32173">
        <ele>54</ele>
        <time>2020-06-01T16:05:28.000Z</time>
      </trkpt>
      <trkpt lat="47.31729" lon="-1.32155">
        <ele>54</ele>
        <time>2020-06-01T16:05:30.000Z</time>
      </trkpt>
      <trkpt lat="47.31733" lon="-1.32138">
        <ele>54</ele>
        <time>2020-06-01T16:05:32.000Z</time>
      </trkpt>
      <trkpt lat="47.31737" lon="-1.32122">
        <ele>55</ele>
        <time>2020-06-01T16:05:34.000Z</time>
      </trkpt>
      <trkpt lat="47.31743" lon="-1.32107">
        <ele>55</ele>
        <time>2020-06-01T16:05:36.000Z</time>
      </trkpt>
      <trkpt lat="47.31748" lon="-1.32092">
        <ele>55</ele>
        <time>2020-06-01T16:05:38.000Z</time>
      </trkpt>
      <trkpt lat="47.31754" lon="-1.32076">
        <ele>55</ele>
        <time>2020-06-01T16:05:40.000Z</time>
      </trkpt>
      <trkpt lat="47.3176" lon="-1.32061">
        <ele>54</ele>
        <time>2020-06-01T16:05:42.000Z</time>
      </trkpt>
      <trkpt lat="47.31765" lon="-1.32046">
        <ele>54</ele>
        <time>2020-06-01T16:05:44.000Z</time>
      </trkpt>
      <trkpt lat="47.31771" lon="-1.32031">
        <ele>54</ele>
        <time>2020-06-01T16:05:46.000Z</time>
      </trkpt>
      <trkpt lat="47.31777" lon="-1.32016">
        <ele>55</ele>
        <time>2020-06-01T16:05:48.000Z</time>
      </trkpt>
      <trkpt lat="47.31782" lon="-1.32001">
        <ele>55</ele>
        <time>2020-06-01T16:05:50.000Z</time>
      </trkpt>
      <trkpt lat="47.31787" lon="-1.31985">
        <ele>56</ele>
        <time>2020-06-01T16:05:52.000Z</time>
      </trkpt>
      <trkpt lat="47.31792" lon="-1.31971">
        <ele>56</ele>
        <time>2020-06-01T16:05:54.000Z</time>
      </trkpt>
      <trkpt lat="47.31798" lon="-1.31955">
        <ele>57</ele>
        <time>2020-06-01T16:05:57.000Z</time>
      </trkpt>
      <trkpt lat="47.31807" lon="-1.31949">
        <ele>57</ele>
        <time>2020-06-01T16:06:00.000Z</time>
      </trkpt>
      <trkpt lat="47.31817" lon="-1.31954">
        <ele>56</ele>
        <time>2020-06-01T16:06:02.000Z</time>
      </trkpt>
      <trkpt lat="47.3183" lon="-1.31962">
        <ele>55</ele>
        <time>2020-06-01T16:06:04.000Z</time>
      </trkpt>
      <trkpt lat="47.31842" lon="-1.31971">
        <ele>54</ele>
        <time>2020-06-01T16:06:06.000Z</time>
      </trkpt>
      <trkpt lat="47.31856" lon="-1.3198">
        <ele>54</ele>
        <time>2020-06-01T16:06:08.000Z</time>
      </trkpt>
      <trkpt lat="47.31869" lon="-1.31988">
        <ele>54</ele>
        <time>2020-06-01T16:06:10.000Z</time>
      </trkpt>
      <trkpt lat="47.31882" lon="-1.31995">
        <ele>54</ele>
        <time>2020-06-01T16:06:12.000Z</time>
      </trkpt>
      <trkpt lat="47.31895" lon="-1.32002">
        <ele>54</ele>
        <time>2020-06-01T16:06:14.000Z</time>
      </trkpt>
      <trkpt lat="47.31908" lon="-1.32006">
        <ele>53</ele>
        <time>2020-06-01T16:06:16.000Z</time>
      </trkpt>
      <trkpt lat="47.31921" lon="-1.3201">
        <ele>53</ele>
        <time>2020-06-01T16:06:18.000Z</time>
      </trkpt>
      <trkpt lat="47.31933" lon="-1.32011">
        <ele>53</ele>
        <time>2020-06-01T16:06:20.000Z</time>
      </trkpt>
      <trkpt lat="47.31945" lon="-1.32008">
        <ele>53</ele>
        <time>2020-06-01T16:06:22.000Z</time>
      </trkpt>
      <trkpt lat="47.31956" lon="-1.32">
        <ele>53</ele>
        <time>2020-06-01T16:06:24.000Z</time>
      </trkpt>
      <trkpt lat="47.31965" lon="-1.31989">
        <ele>53</ele>
        <time>2020-06-01T16:06:26.000Z</time>
      </trkpt>
      <trkpt lat="47.31973" lon="-1.31971">
        <ele>54</ele>
        <time>2020-06-01T16:06:28.000Z</time>
      </trkpt>
      <trkpt lat="47.31982" lon="-1.31955">
        <ele>53</ele>
        <time>2020-06-01T16:06:30.000Z</time>
      </trkpt>
      <trkpt lat="47.31992" lon="-1.31937">
        <ele>53</ele>
        <time>2020-06-01T16:06:32.000Z</time>
      </trkpt>
      <trkpt lat="47.31999" lon="-1.31918">
        <ele>53</ele>
        <time>2020-06-01T16:06:34.000Z</time>
      </trkpt>
      <trkpt lat="47.32005" lon="-1.319">
        <ele>53</ele>
        <time>2020-06-01T16:06:36.000Z</time>
      </trkpt>
      <trkpt lat="47.32011" lon="-1.31881">
        <ele>53</ele>
        <time>2020-06-01T16:06:38.000Z</time>
      </trkpt>
      <trkpt lat="47.32018" lon="-1.31862">
        <ele>53</ele>
        <time>2020-06-01T16:06:40.000Z</time>
      </trkpt>
      <trkpt lat="47.32024" lon="-1.31844">
        <ele>53</ele>
        <time>2020-06-01T16:06:42.000Z</time>
      </trkpt>
      <trkpt lat="47.32031" lon="-1.31826">
        <ele>53</ele>
        <time>2020-06-01T16:06:44.000Z</time>
      </trkpt>
      <trkpt lat="47.32037" lon="-1.31809">
        <ele>53</ele>
        <time>2020-06-01T16:06:46.000Z</time>
      </trkpt>
      <trkpt lat="47.32043" lon="-1.31791">
        <ele>53</ele>
        <time>2020-06-01T16:06:48.000Z</time>
      </trkpt>
      <trkpt lat="47.32049" lon="-1.31773">
        <ele>53</ele>
        <time>2020-06-01T16:06:50.000Z</time>
      </trkpt>
      <trkpt lat="47.32056" lon="-1.31756">
        <ele>53</ele>
        <time>2020-06-01T16:06:52.000Z</time>
      </trkpt>
      <trkpt lat="47.32064" lon="-1.31739">
        <ele>53</ele>
        <time>2020-06-01T16:06:54.000Z</time>
      </trkpt>
      <trkpt lat="47.32071" lon="-1.31723">
        <ele>53</ele>
        <time>2020-06-01T16:06:56.000Z</time>
      </trkpt>
      <trkpt lat="47.32079" lon="-1.31708">
        <ele>52</ele>
        <time>2020-06-01T16:06:58.000Z</time>
      </trkpt>
      <trkpt lat="47.32088" lon="-1.31693">
        <ele>53</ele>
        <time>2020-06-01T16:07:00.000Z</time>
      </trkpt>
      <trkpt lat="47.32095" lon="-1.31678">
        <ele>53</ele>
        <time>2020-06-01T16:07:02.000Z</time>
      </trkpt>
      <trkpt lat="47.32104" lon="-1.31664">
        <ele>53</ele>
        <time>2020-06-01T16:07:04.000Z</time>
      </trkpt>
      <trkpt lat="47.32114" lon="-1.3165">
        <ele>52</ele>
        <time>2020-06-01T16:07:06.000Z</time>
      </trkpt>
      <trkpt lat="47.32123" lon="-1.31635">
        <ele>52</ele>
        <time>2020-06-01T16:07:08.000Z</time>
      </trkpt>
      <trkpt lat="47.32132" lon="-1.3162">
        <ele>53</ele>
        <time>2020-06-01T16:07:10.000Z</time>
      </trkpt>
      <trkpt lat="47.32141" lon="-1.31607">
        <ele>53</ele>
        <time>2020-06-01T16:07:12.000Z</time>
      </trkpt>
      <trkpt lat="47.32151" lon="-1.31593">
        <ele>52</ele>
        <time>2020-06-01T16:07:14.000Z</time>
      </trkpt>
      <trkpt lat="47.3216" lon="-1.31579">
        <ele>52</ele>
        <time>2020-06-01T16:07:16.000Z</time>
      </trkpt>
      <trkpt lat="47.32169" lon="-1.31564">
        <ele>52</ele>
        <time>2020-06-01T16:07:18.000Z</time>
      </trkpt>
      <trkpt lat="47.32177" lon="-1.31549">
        <ele>52</ele>
        <time>2020-06-01T16:07:20.000Z</time>
      </trkpt>
      <trkpt lat="47.32186" lon="-1.31534">
        <ele>52</ele>
        <time>2020-06-01T16:07:22.000Z</time>
      </trkpt>
      <trkpt lat="47.32196" lon="-1.3152">
        <ele>52</ele>
        <time>2020-06-01T16:07:24.000Z</time>
      </trkpt>
      <trkpt lat="47.32205" lon="-1.31505">
        <ele>52</ele>
        <time>2020-06-01T16:07:26.000Z</time>
      </trkpt>
      <trkpt lat="47.32214" lon="-1.3149">
        <ele>52</ele>
        <time>2020-06-01T16:07:28.000Z</time>
      </trkpt>
      <trkpt lat="47.32223" lon="-1.31474">
        <ele>52</ele>
        <time>2020-06-01T16:07:30.000Z</time>
      </trkpt>
      <trkpt lat="47.32231" lon="-1.3146">
        <ele>52</ele>
        <time>2020-06-01T16:07:32.000Z</time>
      </trkpt>
      <trkpt lat="47.32239" lon="-1.31446">
        <ele>53</ele>
        <time>2020-06-01T16:07:34.000Z</time>
      </trkpt>
      <trkpt lat="47.32247" lon="-1.31433">
        <ele>53</ele>
        <time>2020-06-01T16:07:36.000Z</time>
      </trkpt>
      <trkpt lat="47.32256" lon="-1.3142">
        <ele>53</ele>
        <time>2020-06-01T16:07:38.000Z</time>
      </trkpt>
      <trkpt lat="47.32264" lon="-1.31406">
        <ele>52</ele>
        <time>2020-06-01T16:07:40.000Z</time>
      </trkpt>
      <trkpt lat="47.32272" lon="-1.31393">
        <ele>52</ele>
        <time>2020-06-01T16:07:42.000Z</time>
      </trkpt>
      <trkpt lat="47.32281" lon="-1.3138">
        <ele>52</ele>
        <time>2020-06-01T16:07:44.000Z</time>
      </trkpt>
      <trkpt lat="47.32291" lon="-1.31367">
        <ele>52</ele>
        <time>2020-06-01T16:07:46.000Z</time>
      </trkpt>
      <trkpt lat="47.32302" lon="-1.31353">
        <ele>52</ele>
        <time>2020-06-01T16:07:48.000Z</time>
      </trkpt>
      <trkpt lat="47.32312" lon="-1.31339">
        <ele>52</ele>
        <time>2020-06-01T16:07:50.000Z</time>
      </trkpt>
      <trkpt lat="47.32321" lon="-1.31324">
        <ele>52</ele>
        <time>2020-06-01T16:07:52.000Z</time>
      </trkpt>
      <trkpt lat="47.32331" lon="-1.31309">
        <ele>52</ele>
        <time>2020-06-01T16:07:54.000Z</time>
      </trkpt>
      <trkpt lat="47.32341" lon="-1.31296">
        <ele>52</ele>
        <time>2020-06-01T16:07:56.000Z</time>
      </trkpt>
      <trkpt lat="47.3235" lon="-1.31281">
        <ele>52</ele>
        <time>2020-06-01T16:07:58.000Z</time>
      </trkpt>
      <trkpt lat="47.3236" lon="-1.31267">
        <ele>51</ele>
        <time>2020-06-01T16:08:00.000Z</time>
      </trkpt>
      <trkpt lat="47.32368" lon="-1.31252">
        <ele>51</ele>
        <time>2020-06-01T16:08:02.000Z</time>
      </trkpt>
      <trkpt lat="47.32375" lon="-1.31236">
        <ele>51</ele>
        <time>2020-06-01T16:08:04.000Z</time>
      </trkpt>
      <trkpt lat="47.32381" lon="-1.31218">
        <ele>51</ele>
        <time>2020-06-01T16:08:06.000Z</time>
      </trkpt>
      <trkpt lat="47.32387" lon="-1.312">
        <ele>51</ele>
        <time>2020-06-01T16:08:08.000Z</time>
      </trkpt>
      <trkpt lat="47.32393" lon="-1.31182">
        <ele>51</ele>
        <time>2020-06-01T16:08:10.000Z</time>
      </trkpt>
      <trkpt lat="47.32398" lon="-1.31165">
        <ele>51</ele>
        <time>2020-06-01T16:08:12.000Z</time>
      </trkpt>
      <trkpt lat="47.32404" lon="-1.31147">
        <ele>50</ele>
        <time>2020-06-01T16:08:14.000Z</time>
      </trkpt>
      <trkpt lat="47.32409" lon="-1.31129">
        <ele>51</ele>
        <time>2020-06-01T16:08:16.000Z</time>
      </trkpt>
      <trkpt lat="47.32414" lon="-1.31112">
        <ele>51</ele>
        <time>2020-06-01T16:08:18.000Z</time>
      </trkpt>
      <trkpt lat="47.3242" lon="-1.31095">
        <ele>51</ele>
        <time>2020-06-01T16:08:20.000Z</time>
      </trkpt>
      <trkpt lat="47.32426" lon="-1.31078">
        <ele>52</ele>
        <time>2020-06-01T16:08:22.000Z</time>
      </trkpt>
      <trkpt lat="47.32431" lon="-1.31061">
        <ele>51</ele>
        <time>2020-06-01T16:08:24.000Z</time>
      </trkpt>
      <trkpt lat="47.32437" lon="-1.31044">
        <ele>51</ele>
        <time>2020-06-01T16:08:26.000Z</time>
      </trkpt>
      <trkpt lat="47.32441" lon="-1.31026">
        <ele>52</ele>
        <time>2020-06-01T16:08:28.000Z</time>
      </trkpt>
      <trkpt lat="47.32445" lon="-1.31007">
        <ele>52</ele>
        <time>2020-06-01T16:08:30.000Z</time>
      </trkpt>
      <trkpt lat="47.3245" lon="-1.30989">
        <ele>53</ele>
        <time>2020-06-01T16:08:32.000Z</time>
      </trkpt>
      <trkpt lat="47.32454" lon="-1.30972">
        <ele>54</ele>
        <time>2020-06-01T16:08:34.000Z</time>
      </trkpt>
      <trkpt lat="47.32458" lon="-1.30955">
        <ele>53</ele>
        <time>2020-06-01T16:08:36.000Z</time>
      </trkpt>
      <trkpt lat="47.32464" lon="-1.30937">
        <ele>53</ele>
        <time>2020-06-01T16:08:38.000Z</time>
      </trkpt>
      <trkpt lat="47.32471" lon="-1.3092">
        <ele>53</ele>
        <time>2020-06-01T16:08:40.000Z</time>
      </trkpt>
      <trkpt lat="47.32477" lon="-1.30903">
        <ele>53</ele>
        <time>2020-06-01T16:08:42.000Z</time>
      </trkpt>
      <trkpt lat="47.32483" lon="-1.30886">
        <ele>53</ele>
        <time>2020-06-01T16:08:44.000Z</time>
      </trkpt>
      <trkpt lat="47.32488" lon="-1.3087">
        <ele>54</ele>
        <time>2020-06-01T16:08:46.000Z</time>
      </trkpt>
      <trkpt lat="47.32495" lon="-1.30853">
        <ele>54</ele>
        <time>2020-06-01T16:08:48.000Z</time>
      </trkpt>
      <trkpt lat="47.32501" lon="-1.30837">
        <ele>54</ele>
        <time>2020-06-01T16:08:50.000Z</time>
      </trkpt>
      <trkpt lat="47.32508" lon="-1.3082">
        <ele>54</ele>
        <time>2020-06-01T16:08:52.000Z</time>
      </trkpt>
      <trkpt lat="47.32513" lon="-1.30804">
        <ele>54</ele>
        <time>2020-06-01T16:08:54.000Z</time>
      </trkpt>
      <trkpt lat="47.32519" lon="-1.30788">
        <ele>54</ele>
        <time>2020-06-01T16:08:56.000Z</time>
      </trkpt>
      <trkpt lat="47.32525" lon="-1.30773">
        <ele>54</ele>
        <time>2020-06-01T16:08:58.000Z</time>
      </trkpt>
      <trkpt lat="47.3253" lon="-1.30757">
        <ele>55</ele>
        <time>2020-06-01T16:09:00.000Z</time>
      </trkpt>
      <trkpt lat="47.32536" lon="-1.30742">
        <ele>56</ele>
        <time>2020-06-01T16:09:02.000Z</time>
      </trkpt>
      <trkpt lat="47.32543" lon="-1.30726">
        <ele>55</ele>
        <time>2020-06-01T16:09:04.000Z</time>
      </trkpt>
      <trkpt lat="47.3255" lon="-1.3071">
        <ele>56</ele>
        <time>2020-06-01T16:09:06.000Z</time>
      </trkpt>
      <trkpt lat="47.32556" lon="-1.30694">
        <ele>56</ele>
        <time>2020-06-01T16:09:08.000Z</time>
      </trkpt>
      <trkpt lat="47.32563" lon="-1.30679">
        <ele>56</ele>
        <time>2020-06-01T16:09:10.000Z</time>
      </trkpt>
      <trkpt lat="47.32571" lon="-1.30663">
        <ele>57</ele>
        <time>2020-06-01T16:09:12.000Z</time>
      </trkpt>
      <trkpt lat="47.32578" lon="-1.30648">
        <ele>57</ele>
        <time>2020-06-01T16:09:14.000Z</time>
      </trkpt>
      <trkpt lat="47.32585" lon="-1.30633">
        <ele>56</ele>
        <time>2020-06-01T16:09:16.000Z</time>
      </trkpt>
      <trkpt lat="47.32592" lon="-1.30617">
        <ele>55</ele>
        <time>2020-06-01T16:09:18.000Z</time>
      </trkpt>
      <trkpt lat="47.326" lon="-1.30601">
        <ele>55</ele>
        <time>2020-06-01T16:09:20.000Z</time>
      </trkpt>
      <trkpt lat="47.32607" lon="-1.30585">
        <ele>55</ele>
        <time>2020-06-01T16:09:22.000Z</time>
      </trkpt>
      <trkpt lat="47.32615" lon="-1.30568">
        <ele>55</ele>
        <time>2020-06-01T16:09:24.000Z</time>
      </trkpt>
      <trkpt lat="47.32622" lon="-1.30552">
        <ele>55</ele>
        <time>2020-06-01T16:09:26.000Z</time>
      </trkpt>
      <trkpt lat="47.32629" lon="-1.30536">
        <ele>54</ele>
        <time>2020-06-01T16:09:28.000Z</time>
      </trkpt>
      <trkpt lat="47.32636" lon="-1.30521">
        <ele>54</ele>
        <time>2020-06-01T16:09:30.000Z</time>
      </trkpt>
      <trkpt lat="47.32644" lon="-1.30505">
        <ele>53</ele>
        <time>2020-06-01T16:09:32.000Z</time>
      </trkpt>
      <trkpt lat="47.32651" lon="-1.30489">
        <ele>53</ele>
        <time>2020-06-01T16:09:34.000Z</time>
      </trkpt>
      <trkpt lat="47.32658" lon="-1.30472">
        <ele>53</ele>
        <time>2020-06-01T16:09:36.000Z</time>
      </trkpt>
      <trkpt lat="47.32666" lon="-1.30455">
        <ele>53</ele>
        <time>2020-06-01T16:09:38.000Z</time>
      </trkpt>
      <trkpt lat="47.32673" lon="-1.30438">
        <ele>52</ele>
        <time>2020-06-01T16:09:40.000Z</time>
      </trkpt>
      <trkpt lat="47.3268" lon="-1.30422">
        <ele>52</ele>
        <time>2020-06-01T16:09:42.000Z</time>
      </trkpt>
      <trkpt lat="47.32685" lon="-1.30404">
        <ele>51</ele>
        <time>2020-06-01T16:09:44.000Z</time>
      </trkpt>
      <trkpt lat="47.32687" lon="-1.30384">
        <ele>51</ele>
        <time>2020-06-01T16:09:46.000Z</time>
      </trkpt>
      <trkpt lat="47.32683" lon="-1.30366">
        <ele>51</ele>
        <time>2020-06-01T16:09:48.000Z</time>
      </trkpt>
      <trkpt lat="47.32677" lon="-1.30351">
        <ele>52</ele>
        <time>2020-06-01T16:09:50.000Z</time>
      </trkpt>
      <trkpt lat="47.3267" lon="-1.30335">
        <ele>52</ele>
        <time>2020-06-01T16:09:52.000Z</time>
      </trkpt>
      <trkpt lat="47.32662" lon="-1.3032">
        <ele>52</ele>
        <time>2020-06-01T16:09:54.000Z</time>
      </trkpt>
      <trkpt lat="47.32655" lon="-1.30304">
        <ele>53</ele>
        <time>2020-06-01T16:09:56.000Z</time>
      </trkpt>
      <trkpt lat="47.32649" lon="-1.30288">
        <ele>53</ele>
        <time>2020-06-01T16:09:58.000Z</time>
      </trkpt>
      <trkpt lat="47.32642" lon="-1.30272">
        <ele>53</ele>
        <time>2020-06-01T16:10:00.000Z</time>
      </trkpt>
      <trkpt lat="47.32638" lon="-1.30255">
        <ele>53</ele>
        <time>2020-06-01T16:10:02.000Z</time>
      </trkpt>
      <trkpt lat="47.32644" lon="-1.30239">
        <ele>55</ele>
        <time>2020-06-01T16:10:04.000Z</time>
      </trkpt>
      <trkpt lat="47.32652" lon="-1.30225">
        <ele>55</ele>
        <time>2020-06-01T16:10:06.000Z</time>
      </trkpt>
      <trkpt lat="47.3266" lon="-1.30212">
        <ele>55</ele>
        <time>2020-06-01T16:10:08.000Z</time>
      </trkpt>
      <trkpt lat="47.32667" lon="-1.30199">
        <ele>56</ele>
        <time>2020-06-01T16:10:10.000Z</time>
      </trkpt>
      <trkpt lat="47.32674" lon="-1.30187">
        <ele>55</ele>
        <time>2020-06-01T16:10:12.000Z</time>
      </trkpt>
      <trkpt lat="47.3268" lon="-1.30175">
        <ele>56</ele>
        <time>2020-06-01T16:10:14.000Z</time>
      </trkpt>
      <trkpt lat="47.32687" lon="-1.30161">
        <ele>56</ele>
        <time>2020-06-01T16:10:16.000Z</time>
      </trkpt>
      <trkpt lat="47.32695" lon="-1.30147">
        <ele>56</ele>
        <time>2020-06-01T16:10:18.000Z</time>
      </trkpt>
      <trkpt lat="47.32703" lon="-1.30134">
        <ele>55</ele>
        <time>2020-06-01T16:10:20.000Z</time>
      </trkpt>
      <trkpt lat="47.32712" lon="-1.30121">
        <ele>56</ele>
        <time>2020-06-01T16:10:22.000Z</time>
      </trkpt>
      <trkpt lat="47.32721" lon="-1.30106">
        <ele>56</ele>
        <time>2020-06-01T16:10:24.000Z</time>
      </trkpt>
      <trkpt lat="47.32731" lon="-1.30091">
        <ele>56</ele>
        <time>2020-06-01T16:10:26.000Z</time>
      </trkpt>
      <trkpt lat="47.3274" lon="-1.30076">
        <ele>56</ele>
        <time>2020-06-01T16:10:28.000Z</time>
      </trkpt>
      <trkpt lat="47.32748" lon="-1.30061">
        <ele>56</ele>
        <time>2020-06-01T16:10:30.000Z</time>
      </trkpt>
      <trkpt lat="47.32756" lon="-1.30046">
        <ele>56</ele>
        <time>2020-06-01T16:10:32.000Z</time>
      </trkpt>
      <trkpt lat="47.32763" lon="-1.30031">
        <ele>56</ele>
        <time>2020-06-01T16:10:34.000Z</time>
      </trkpt>
      <trkpt lat="47.32772" lon="-1.30017">
        <ele>56</ele>
        <time>2020-06-01T16:10:36.000Z</time>
      </trkpt>
      <trkpt lat="47.32779" lon="-1.30001">
        <ele>56</ele>
        <time>2020-06-01T16:10:38.000Z</time>
      </trkpt>
      <trkpt lat="47.32787" lon="-1.29986">
        <ele>56</ele>
        <time>2020-06-01T16:10:40.000Z</time>
      </trkpt>
      <trkpt lat="47.32795" lon="-1.29971">
        <ele>56</ele>
        <time>2020-06-01T16:10:42.000Z</time>
      </trkpt>
      <trkpt lat="47.32803" lon="-1.29955">
        <ele>56</ele>
        <time>2020-06-01T16:10:44.000Z</time>
      </trkpt>
      <trkpt lat="47.32811" lon="-1.29939">
        <ele>56</ele>
        <time>2020-06-01T16:10:46.000Z</time>
      </trkpt>
      <trkpt lat="47.32819" lon="-1.29924">
        <ele>56</ele>
        <time>2020-06-01T16:10:48.000Z</time>
      </trkpt>
      <trkpt lat="47.32827" lon="-1.29909">
        <ele>56</ele>
        <time>2020-06-01T16:10:50.000Z</time>
      </trkpt>
      <trkpt lat="47.32836" lon="-1.29895">
        <ele>56</ele>
        <time>2020-06-01T16:10:52.000Z</time>
      </trkpt>
      <trkpt lat="47.32843" lon="-1.2988">
        <ele>56</ele>
        <time>2020-06-01T16:10:54.000Z</time>
      </trkpt>
      <trkpt lat="47.32852" lon="-1.29865">
        <ele>56</ele>
        <time>2020-06-01T16:10:56.000Z</time>
      </trkpt>
      <trkpt lat="47.3286" lon="-1.29849">
        <ele>56</ele>
        <time>2020-06-01T16:10:58.000Z</time>
      </trkpt>
      <trkpt lat="47.32868" lon="-1.29835">
        <ele>56</ele>
        <time>2020-06-01T16:11:00.000Z</time>
      </trkpt>
      <trkpt lat="47.32877" lon="-1.2982">
        <ele>56</ele>
        <time>2020-06-01T16:11:02.000Z</time>
      </trkpt>
      <trkpt lat="47.32885" lon="-1.29805">
        <ele>55</ele>
        <time>2020-06-01T16:11:04.000Z</time>
      </trkpt>
      <trkpt lat="47.32893" lon="-1.29791">
        <ele>55</ele>
        <time>2020-06-01T16:11:06.000Z</time>
      </trkpt>
      <trkpt lat="47.32901" lon="-1.29777">
        <ele>54</ele>
        <time>2020-06-01T16:11:08.000Z</time>
      </trkpt>
      <trkpt lat="47.32909" lon="-1.29763">
        <ele>55</ele>
        <time>2020-06-01T16:11:10.000Z</time>
      </trkpt>
      <trkpt lat="47.32917" lon="-1.29748">
        <ele>55</ele>
        <time>2020-06-01T16:11:12.000Z</time>
      </trkpt>
      <trkpt lat="47.32926" lon="-1.29733">
        <ele>55</ele>
        <time>2020-06-01T16:11:14.000Z</time>
      </trkpt>
      <trkpt lat="47.32935" lon="-1.29717">
        <ele>55</ele>
        <time>2020-06-01T16:11:16.000Z</time>
      </trkpt>
      <trkpt lat="47.32943" lon="-1.29702">
        <ele>55</ele>
        <time>2020-06-01T16:11:18.000Z</time>
      </trkpt>
      <trkpt lat="47.32953" lon="-1.29687">
        <ele>55</ele>
        <time>2020-06-01T16:11:20.000Z</time>
      </trkpt>
      <trkpt lat="47.32962" lon="-1.29673">
        <ele>55</ele>
        <time>2020-06-01T16:11:22.000Z</time>
      </trkpt>
      <trkpt lat="47.32971" lon="-1.29659">
        <ele>55</ele>
        <time>2020-06-01T16:11:24.000Z</time>
      </trkpt>
      <trkpt lat="47.32981" lon="-1.29645">
        <ele>54</ele>
        <time>2020-06-01T16:11:26.000Z</time>
      </trkpt>
      <trkpt lat="47.32989" lon="-1.29631">
        <ele>54</ele>
        <time>2020-06-01T16:11:28.000Z</time>
      </trkpt>
      <trkpt lat="47.32997" lon="-1.29616">
        <ele>54</ele>
        <time>2020-06-01T16:11:30.000Z</time>
      </trkpt>
      <trkpt lat="47.33004" lon="-1.29601">
        <ele>54</ele>
        <time>2020-06-01T16:11:32.000Z</time>
      </trkpt>
      <trkpt lat="47.33012" lon="-1.29586">
        <ele>53</ele>
        <time>2020-06-01T16:11:34.000Z</time>
      </trkpt>
      <trkpt lat="47.3302" lon="-1.2957">
        <ele>53</ele>
        <time>2020-06-01T16:11:36.000Z</time>
      </trkpt>
      <trkpt lat="47.33029" lon="-1.29556">
        <ele>53</ele>
        <time>2020-06-01T16:11:38.000Z</time>
      </trkpt>
      <trkpt lat="47.33038" lon="-1.29541">
        <ele>52</ele>
        <time>2020-06-01T16:11:40.000Z</time>
      </trkpt>
      <trkpt lat="47.33046" lon="-1.29526">
        <ele>51</ele>
        <time>2020-06-01T16:11:42.000Z</time>
      </trkpt>
      <trkpt lat="47.33055" lon="-1.29512">
        <ele>51</ele>
        <time>2020-06-01T16:11:44.000Z</time>
      </trkpt>
      <trkpt lat="47.33064" lon="-1.29497">
        <ele>51</ele>
        <time>2020-06-01T16:11:46.000Z</time>
      </trkpt>
      <trkpt lat="47.33073" lon="-1.29484">
        <ele>51</ele>
        <time>2020-06-01T16:11:48.000Z</time>
      </trkpt>
      <trkpt lat="47.33083" lon="-1.29471">
        <ele>51</ele>
        <time>2020-06-01T16:11:50.000Z</time>
      </trkpt>
      <trkpt lat="47.33092" lon="-1.29458">
        <ele>51</ele>
        <time>2020-06-01T16:11:52.000Z</time>
      </trkpt>
      <trkpt lat="47.33101" lon="-1.29444">
        <ele>51</ele>
        <time>2020-06-01T16:11:54.000Z</time>
      </trkpt>
      <trkpt lat="47.3311" lon="-1.29431">
        <ele>51</ele>
        <time>2020-06-01T16:11:56.000Z</time>
      </trkpt>
      <trkpt lat="47.33119" lon="-1.29418">
        <ele>51</ele>
        <time>2020-06-01T16:11:58.000Z</time>
      </trkpt>
      <trkpt lat="47.33128" lon="-1.29404">
        <ele>51</ele>
        <time>2020-06-01T16:12:00.000Z</time>
      </trkpt>
      <trkpt lat="47.33136" lon="-1.2939">
        <ele>51</ele>
        <time>2020-06-01T16:12:02.000Z</time>
      </trkpt>
      <trkpt lat="47.33145" lon="-1.29377">
        <ele>52</ele>
        <time>2020-06-01T16:12:04.000Z</time>
      </trkpt>
      <trkpt lat="47.33151" lon="-1.29363">
        <ele>51</ele>
        <time>2020-06-01T16:12:06.000Z</time>
      </trkpt>
      <trkpt lat="47.33152" lon="-1.29348">
        <ele>52</ele>
        <time>2020-06-01T16:12:08.000Z</time>
      </trkpt>
      <trkpt lat="47.33143" lon="-1.29339">
        <ele>52</ele>
        <time>2020-06-01T16:12:10.000Z</time>
      </trkpt>
      <trkpt lat="47.33134" lon="-1.29332">
        <ele>53</ele>
        <time>2020-06-01T16:12:12.000Z</time>
      </trkpt>
      <trkpt lat="47.33129" lon="-1.2932">
        <ele>54</ele>
        <time>2020-06-01T16:12:14.000Z</time>
      </trkpt>
      <trkpt lat="47.33127" lon="-1.29301">
        <ele>54</ele>
        <time>2020-06-01T16:12:17.000Z</time>
      </trkpt>
      <trkpt lat="47.3313" lon="-1.29284">
        <ele>55</ele>
        <time>2020-06-01T16:12:20.000Z</time>
      </trkpt>
      <trkpt lat="47.33134" lon="-1.29272">
        <ele>56</ele>
        <time>2020-06-01T16:12:22.000Z</time>
      </trkpt>
      <trkpt lat="47.33139" lon="-1.29261">
        <ele>56</ele>
        <time>2020-06-01T16:12:24.000Z</time>
      </trkpt>
      <trkpt lat="47.33145" lon="-1.29249">
        <ele>57</ele>
        <time>2020-06-01T16:12:26.000Z</time>
      </trkpt>
      <trkpt lat="47.33152" lon="-1.29236">
        <ele>57</ele>
        <time>2020-06-01T16:12:28.000Z</time>
      </trkpt>
      <trkpt lat="47.3316" lon="-1.29225">
        <ele>57</ele>
        <time>2020-06-01T16:12:30.000Z</time>
      </trkpt>
      <trkpt lat="47.33167" lon="-1.29216">
        <ele>56</ele>
        <time>2020-06-01T16:12:32.000Z</time>
      </trkpt>
      <trkpt lat="47.33167" lon="-1.292">
        <ele>56</ele>
        <time>2020-06-01T16:12:34.000Z</time>
      </trkpt>
      <trkpt lat="47.33168" lon="-1.29184">
        <ele>56</ele>
        <time>2020-06-01T16:12:36.000Z</time>
      </trkpt>
      <trkpt lat="47.33171" lon="-1.29171">
        <ele>56</ele>
        <time>2020-06-01T16:12:38.000Z</time>
      </trkpt>
      <trkpt lat="47.33179" lon="-1.29162">
        <ele>56</ele>
        <time>2020-06-01T16:12:40.000Z</time>
      </trkpt>
      <trkpt lat="47.33187" lon="-1.29151">
        <ele>56</ele>
        <time>2020-06-01T16:12:42.000Z</time>
      </trkpt>
      <trkpt lat="47.33198" lon="-1.29146">
        <ele>55</ele>
        <time>2020-06-01T16:12:44.000Z</time>
      </trkpt>
      <trkpt lat="47.33212" lon="-1.29149">
        <ele>55</ele>
        <time>2020-06-01T16:12:46.000Z</time>
      </trkpt>
      <trkpt lat="47.33225" lon="-1.29155">
        <ele>54</ele>
        <time>2020-06-01T16:12:48.000Z</time>
      </trkpt>
      <trkpt lat="47.33238" lon="-1.29164">
        <ele>54</ele>
        <time>2020-06-01T16:12:50.000Z</time>
      </trkpt>
      <trkpt lat="47.33251" lon="-1.29171">
        <ele>53</ele>
        <time>2020-06-01T16:12:52.000Z</time>
      </trkpt>
      <trkpt lat="47.33265" lon="-1.29179">
        <ele>53</ele>
        <time>2020-06-01T16:12:54.000Z</time>
      </trkpt>
      <trkpt lat="47.33277" lon="-1.29188">
        <ele>53</ele>
        <time>2020-06-01T16:12:56.000Z</time>
      </trkpt>
      <trkpt lat="47.33289" lon="-1.29196">
        <ele>53</ele>
        <time>2020-06-01T16:12:58.000Z</time>
      </trkpt>
      <trkpt lat="47.333" lon="-1.29204">
        <ele>53</ele>
        <time>2020-06-01T16:13:00.000Z</time>
      </trkpt>
      <trkpt lat="47.3331" lon="-1.29213">
        <ele>52</ele>
        <time>2020-06-01T16:13:02.000Z</time>
      </trkpt>
      <trkpt lat="47.3332" lon="-1.29221">
        <ele>52</ele>
        <time>2020-06-01T16:13:04.000Z</time>
      </trkpt>
      <trkpt lat="47.3333" lon="-1.29229">
        <ele>52</ele>
        <time>2020-06-01T16:13:06.000Z</time>
      </trkpt>
      <trkpt lat="47.3334" lon="-1.29236">
        <ele>52</ele>
        <time>2020-06-01T16:13:08.000Z</time>
      </trkpt>
      <trkpt lat="47.33349" lon="-1.29245">
        <ele>52</ele>
        <time>2020-06-01T16:13:10.000Z</time>
      </trkpt>
      <trkpt lat="47.33358" lon="-1.29257">
        <ele>53</ele>
        <time>2020-06-01T16:13:12.000Z</time>
      </trkpt>
      <trkpt lat="47.33367" lon="-1.2927">
        <ele>53</ele>
        <time>2020-06-01T16:13:14.000Z</time>
      </trkpt>
      <trkpt lat="47.33374" lon="-1.29284">
        <ele>54</ele>
        <time>2020-06-01T16:13:16.000Z</time>
      </trkpt>
      <trkpt lat="47.33382" lon="-1.29297">
        <ele>54</ele>
        <time>2020-06-01T16:13:18.000Z</time>
      </trkpt>
      <trkpt lat="47.33389" lon="-1.2931">
        <ele>55</ele>
        <time>2020-06-01T16:13:20.000Z</time>
      </trkpt>
      <trkpt lat="47.33396" lon="-1.29324">
        <ele>54</ele>
        <time>2020-06-01T16:13:22.000Z</time>
      </trkpt>
      <trkpt lat="47.33403" lon="-1.29337">
        <ele>54</ele>
        <time>2020-06-01T16:13:24.000Z</time>
      </trkpt>
      <trkpt lat="47.33409" lon="-1.2935">
        <ele>54</ele>
        <time>2020-06-01T16:13:26.000Z</time>
      </trkpt>
      <trkpt lat="47.33411" lon="-1.29363">
        <ele>55</ele>
        <time>2020-06-01T16:13:28.000Z</time>
      </trkpt>
      <trkpt lat="47.33415" lon="-1.29378">
        <ele>56</ele>
        <time>2020-06-01T16:13:31.000Z</time>
      </trkpt>
      <trkpt lat="47.33426" lon="-1.29386">
        <ele>55</ele>
        <time>2020-06-01T16:13:34.000Z</time>
      </trkpt>
      <trkpt lat="47.33435" lon="-1.29394">
        <ele>54</ele>
        <time>2020-06-01T16:13:36.000Z</time>
      </trkpt>
      <trkpt lat="47.33445" lon="-1.29403">
        <ele>54</ele>
        <time>2020-06-01T16:13:38.000Z</time>
      </trkpt>
      <trkpt lat="47.33455" lon="-1.29411">
        <ele>54</ele>
        <time>2020-06-01T16:13:40.000Z</time>
      </trkpt>
      <trkpt lat="47.33464" lon="-1.29419">
        <ele>54</ele>
        <time>2020-06-01T16:13:42.000Z</time>
      </trkpt>
      <trkpt lat="47.33474" lon="-1.29427">
        <ele>54</ele>
        <time>2020-06-01T16:13:44.000Z</time>
      </trkpt>
      <trkpt lat="47.33484" lon="-1.29435">
        <ele>54</ele>
        <time>2020-06-01T16:13:46.000Z</time>
      </trkpt>
      <trkpt lat="47.33495" lon="-1.29443">
        <ele>54</ele>
        <time>2020-06-01T16:13:48.000Z</time>
      </trkpt>
      <trkpt lat="47.33505" lon="-1.29452">
        <ele>54</ele>
        <time>2020-06-01T16:13:50.000Z</time>
      </trkpt>
      <trkpt lat="47.33516" lon="-1.2946">
        <ele>54</ele>
        <time>2020-06-01T16:13:52.000Z</time>
      </trkpt>
      <trkpt lat="47.33528" lon="-1.2947">
        <ele>53</ele>
        <time>2020-06-01T16:13:54.000Z</time>
      </trkpt>
      <trkpt lat="47.33539" lon="-1.29479">
        <ele>53</ele>
        <time>2020-06-01T16:13:56.000Z</time>
      </trkpt>
      <trkpt lat="47.33549" lon="-1.29487">
        <ele>53</ele>
        <time>2020-06-01T16:13:58.000Z</time>
      </trkpt>
      <trkpt lat="47.33559" lon="-1.29496">
        <ele>53</ele>
        <time>2020-06-01T16:14:00.000Z</time>
      </trkpt>
      <trkpt lat="47.33569" lon="-1.29503">
        <ele>53</ele>
        <time>2020-06-01T16:14:02.000Z</time>
      </trkpt>
      <trkpt lat="47.33579" lon="-1.2951">
        <ele>54</ele>
        <time>2020-06-01T16:14:04.000Z</time>
      </trkpt>
      <trkpt lat="47.33589" lon="-1.29518">
        <ele>54</ele>
        <time>2020-06-01T16:14:06.000Z</time>
      </trkpt>
      <trkpt lat="47.33598" lon="-1.29526">
        <ele>54</ele>
        <time>2020-06-01T16:14:08.000Z</time>
      </trkpt>
      <trkpt lat="47.33608" lon="-1.29535">
        <ele>54</ele>
        <time>2020-06-01T16:14:10.000Z</time>
      </trkpt>
      <trkpt lat="47.33617" lon="-1.29542">
        <ele>54</ele>
        <time>2020-06-01T16:14:12.000Z</time>
      </trkpt>
      <trkpt lat="47.33628" lon="-1.29547">
        <ele>54</ele>
        <time>2020-06-01T16:14:14.000Z</time>
      </trkpt>
      <trkpt lat="47.33639" lon="-1.29547">
        <ele>55</ele>
        <time>2020-06-01T16:14:16.000Z</time>
      </trkpt>
      <trkpt lat="47.33647" lon="-1.29538">
        <ele>54</ele>
        <time>2020-06-01T16:14:18.000Z</time>
      </trkpt>
      <trkpt lat="47.33651" lon="-1.29522">
        <ele>54</ele>
        <time>2020-06-01T16:14:20.000Z</time>
      </trkpt>
      <trkpt lat="47.33653" lon="-1.29505">
        <ele>54</ele>
        <time>2020-06-01T16:14:22.000Z</time>
      </trkpt>
      <trkpt lat="47.33658" lon="-1.29487">
        <ele>54</ele>
        <time>2020-06-01T16:14:24.000Z</time>
      </trkpt>
      <trkpt lat="47.33659" lon="-1.2947">
        <ele>56</ele>
        <time>2020-06-01T16:14:26.000Z</time>
      </trkpt>
      <trkpt lat="47.33662" lon="-1.29454">
        <ele>56</ele>
        <time>2020-06-01T16:14:28.000Z</time>
      </trkpt>
      <trkpt lat="47.33665" lon="-1.2944">
        <ele>55</ele>
        <time>2020-06-01T16:14:30.000Z</time>
      </trkpt>
      <trkpt lat="47.33672" lon="-1.29426">
        <ele>55</ele>
        <time>2020-06-01T16:14:32.000Z</time>
      </trkpt>
      <trkpt lat="47.3368" lon="-1.29408">
        <ele>55</ele>
        <time>2020-06-01T16:14:34.000Z</time>
      </trkpt>
      <trkpt lat="47.33687" lon="-1.29391">
        <ele>55</ele>
        <time>2020-06-01T16:14:36.000Z</time>
      </trkpt>
      <trkpt lat="47.33693" lon="-1.29372">
        <ele>56</ele>
        <time>2020-06-01T16:14:38.000Z</time>
      </trkpt>
      <trkpt lat="47.33698" lon="-1.29355">
        <ele>56</ele>
        <time>2020-06-01T16:14:40.000Z</time>
      </trkpt>
      <trkpt lat="47.33703" lon="-1.29338">
        <ele>56</ele>
        <time>2020-06-01T16:14:42.000Z</time>
      </trkpt>
      <trkpt lat="47.33708" lon="-1.29321">
        <ele>56</ele>
        <time>2020-06-01T16:14:44.000Z</time>
      </trkpt>
      <trkpt lat="47.33713" lon="-1.29303">
        <ele>56</ele>
        <time>2020-06-01T16:14:46.000Z</time>
      </trkpt>
      <trkpt lat="47.33718" lon="-1.29285">
        <ele>55</ele>
        <time>2020-06-01T16:14:48.000Z</time>
      </trkpt>
      <trkpt lat="47.33723" lon="-1.29267">
        <ele>56</ele>
        <time>2020-06-01T16:14:50.000Z</time>
      </trkpt>
      <trkpt lat="47.33728" lon="-1.29249">
        <ele>56</ele>
        <time>2020-06-01T16:14:52.000Z</time>
      </trkpt>
      <trkpt lat="47.33732" lon="-1.29231">
        <ele>56</ele>
        <time>2020-06-01T16:14:54.000Z</time>
      </trkpt>
      <trkpt lat="47.33734" lon="-1.29212">
        <ele>56</ele>
        <time>2020-06-01T16:14:56.000Z</time>
      </trkpt>
      <trkpt lat="47.3374" lon="-1.29195">
        <ele>55</ele>
        <time>2020-06-01T16:14:58.000Z</time>
      </trkpt>
      <trkpt lat="47.33745" lon="-1.29176">
        <ele>55</ele>
        <time>2020-06-01T16:15:00.000Z</time>
      </trkpt>
      <trkpt lat="47.3375" lon="-1.29159">
        <ele>55</ele>
        <time>2020-06-01T16:15:02.000Z</time>
      </trkpt>
      <trkpt lat="47.33751" lon="-1.29143">
        <ele>55</ele>
        <time>2020-06-01T16:15:04.000Z</time>
      </trkpt>
      <trkpt lat="47.33749" lon="-1.29127">
        <ele>55</ele>
        <time>2020-06-01T16:15:06.000Z</time>
      </trkpt>
      <trkpt lat="47.33749" lon="-1.29109">
        <ele>54</ele>
        <time>2020-06-01T16:15:08.000Z</time>
      </trkpt>
      <trkpt lat="47.33749" lon="-1.29092">
        <ele>55</ele>
        <time>2020-06-01T16:15:10.000Z</time>
      </trkpt>
      <trkpt lat="47.3375" lon="-1.29073">
        <ele>55</ele>
        <time>2020-06-01T16:15:12.000Z</time>
      </trkpt>
      <trkpt lat="47.3375" lon="-1.29054">
        <ele>55</ele>
        <time>2020-06-01T16:15:14.000Z</time>
      </trkpt>
      <trkpt lat="47.3375" lon="-1.29035">
        <ele>55</ele>
        <time>2020-06-01T16:15:16.000Z</time>
      </trkpt>
      <trkpt lat="47.33751" lon="-1.29017">
        <ele>56</ele>
        <time>2020-06-01T16:15:18.000Z</time>
      </trkpt>
      <trkpt lat="47.3375" lon="-1.29001">
        <ele>56</ele>
        <time>2020-06-01T16:15:20.000Z</time>
      </trkpt>
      <trkpt lat="47.33752" lon="-1.28986">
        <ele>55</ele>
        <time>2020-06-01T16:15:22.000Z</time>
      </trkpt>
      <trkpt lat="47.33751" lon="-1.28966">
        <ele>55</ele>
        <time>2020-06-01T16:15:25.000Z</time>
      </trkpt>
      <trkpt lat="47.33751" lon="-1.28949">
        <ele>55</ele>
        <time>2020-06-01T16:15:27.000Z</time>
      </trkpt>
      <trkpt lat="47.33753" lon="-1.28933">
        <ele>55</ele>
        <time>2020-06-01T16:15:29.000Z</time>
      </trkpt>
      <trkpt lat="47.33757" lon="-1.28917">
        <ele>55</ele>
        <time>2020-06-01T16:15:31.000Z</time>
      </trkpt>
      <trkpt lat="47.33763" lon="-1.28901">
        <ele>55</ele>
        <time>2020-06-01T16:15:33.000Z</time>
      </trkpt>
      <trkpt lat="47.33767" lon="-1.28885">
        <ele>55</ele>
        <time>2020-06-01T16:15:35.000Z</time>
      </trkpt>
      <trkpt lat="47.33767" lon="-1.28867">
        <ele>55</ele>
        <time>2020-06-01T16:15:37.000Z</time>
      </trkpt>
      <trkpt lat="47.33765" lon="-1.28847">
        <ele>56</ele>
        <time>2020-06-01T16:15:39.000Z</time>
      </trkpt>
      <trkpt lat="47.33765" lon="-1.28827">
        <ele>56</ele>
        <time>2020-06-01T16:15:41.000Z</time>
      </trkpt>
      <trkpt lat="47.33766" lon="-1.28807">
        <ele>56</ele>
        <time>2020-06-01T16:15:43.000Z</time>
      </trkpt>
      <trkpt lat="47.3377" lon="-1.28786">
        <ele>55</ele>
        <time>2020-06-01T16:15:45.000Z</time>
      </trkpt>
      <trkpt lat="47.33774" lon="-1.28768">
        <ele>55</ele>
        <time>2020-06-01T16:15:47.000Z</time>
      </trkpt>
      <trkpt lat="47.33775" lon="-1.28748">
        <ele>55</ele>
        <time>2020-06-01T16:15:49.000Z</time>
      </trkpt>
      <trkpt lat="47.33775" lon="-1.28729">
        <ele>55</ele>
        <time>2020-06-01T16:15:51.000Z</time>
      </trkpt>
      <trkpt lat="47.33776" lon="-1.28708">
        <ele>55</ele>
        <time>2020-06-01T16:15:53.000Z</time>
      </trkpt>
      <trkpt lat="47.33781" lon="-1.2869">
        <ele>54</ele>
        <time>2020-06-01T16:15:55.000Z</time>
      </trkpt>
      <trkpt lat="47.33786" lon="-1.28676">
        <ele>54</ele>
        <time>2020-06-01T16:15:57.000Z</time>
      </trkpt>
      <trkpt lat="47.3379" lon="-1.28661">
        <ele>54</ele>
        <time>2020-06-01T16:15:59.000Z</time>
      </trkpt>
      <trkpt lat="47.3379" lon="-1.28643">
        <ele>54</ele>
        <time>2020-06-01T16:16:01.000Z</time>
      </trkpt>
      <trkpt lat="47.33792" lon="-1.28623">
        <ele>54</ele>
        <time>2020-06-01T16:16:03.000Z</time>
      </trkpt>
      <trkpt lat="47.33797" lon="-1.28608">
        <ele>54</ele>
        <time>2020-06-01T16:16:05.000Z</time>
      </trkpt>
      <trkpt lat="47.33803" lon="-1.28593">
        <ele>54</ele>
        <time>2020-06-01T16:16:07.000Z</time>
      </trkpt>
      <trkpt lat="47.33812" lon="-1.2858">
        <ele>54</ele>
        <time>2020-06-01T16:16:09.000Z</time>
      </trkpt>
      <trkpt lat="47.3381" lon="-1.28565">
        <ele>53</ele>
        <time>2020-06-01T16:16:12.000Z</time>
      </trkpt>
      <trkpt lat="47.33802" lon="-1.28556">
        <ele>53</ele>
        <time>2020-06-01T16:16:14.000Z</time>
      </trkpt>
      <trkpt lat="47.33798" lon="-1.28541">
        <ele>54</ele>
        <time>2020-06-01T16:16:16.000Z</time>
      </trkpt>
      <trkpt lat="47.33802" lon="-1.28522">
        <ele>53</ele>
        <time>2020-06-01T16:16:18.000Z</time>
      </trkpt>
      <trkpt lat="47.33806" lon="-1.28502">
        <ele>52</ele>
        <time>2020-06-01T16:16:20.000Z</time>
      </trkpt>
      <trkpt lat="47.33809" lon="-1.28484">
        <ele>52</ele>
        <time>2020-06-01T16:16:22.000Z</time>
      </trkpt>
      <trkpt lat="47.33811" lon="-1.28465">
        <ele>51</ele>
        <time>2020-06-01T16:16:24.000Z</time>
      </trkpt>
      <trkpt lat="47.33812" lon="-1.28444">
        <ele>51</ele>
        <time>2020-06-01T16:16:26.000Z</time>
      </trkpt>
      <trkpt lat="47.33814" lon="-1.28426">
        <ele>52</ele>
        <time>2020-06-01T16:16:28.000Z</time>
      </trkpt>
      <trkpt lat="47.33817" lon="-1.28408">
        <ele>52</ele>
        <time>2020-06-01T16:16:30.000Z</time>
      </trkpt>
      <trkpt lat="47.33819" lon="-1.28391">
        <ele>52</ele>
        <time>2020-06-01T16:16:32.000Z</time>
      </trkpt>
      <trkpt lat="47.33822" lon="-1.28374">
        <ele>52</ele>
        <time>2020-06-01T16:16:34.000Z</time>
      </trkpt>
      <trkpt lat="47.33824" lon="-1.28357">
        <ele>52</ele>
        <time>2020-06-01T16:16:36.000Z</time>
      </trkpt>
      <trkpt lat="47.33827" lon="-1.2834">
        <ele>52</ele>
        <time>2020-06-01T16:16:38.000Z</time>
      </trkpt>
      <trkpt lat="47.33829" lon="-1.28323">
        <ele>52</ele>
        <time>2020-06-01T16:16:40.000Z</time>
      </trkpt>
      <trkpt lat="47.33832" lon="-1.28306">
        <ele>52</ele>
        <time>2020-06-01T16:16:42.000Z</time>
      </trkpt>
      <trkpt lat="47.33835" lon="-1.28288">
        <ele>52</ele>
        <time>2020-06-01T16:16:44.000Z</time>
      </trkpt>
      <trkpt lat="47.33839" lon="-1.28271">
        <ele>52</ele>
        <time>2020-06-01T16:16:46.000Z</time>
      </trkpt>
      <trkpt lat="47.33842" lon="-1.28255">
        <ele>52</ele>
        <time>2020-06-01T16:16:48.000Z</time>
      </trkpt>
      <trkpt lat="47.33845" lon="-1.28239">
        <ele>51</ele>
        <time>2020-06-01T16:16:50.000Z</time>
      </trkpt>
      <trkpt lat="47.33847" lon="-1.28221">
        <ele>51</ele>
        <time>2020-06-01T16:16:52.000Z</time>
      </trkpt>
      <trkpt lat="47.33849" lon="-1.28203">
        <ele>51</ele>
        <time>2020-06-01T16:16:54.000Z</time>
      </trkpt>
      <trkpt lat="47.33851" lon="-1.28185">
        <ele>51</ele>
        <time>2020-06-01T16:16:56.000Z</time>
      </trkpt>
      <trkpt lat="47.33853" lon="-1.28166">
        <ele>51</ele>
        <time>2020-06-01T16:16:58.000Z</time>
      </trkpt>
      <trkpt lat="47.33855" lon="-1.28149">
        <ele>52</ele>
        <time>2020-06-01T16:17:00.000Z</time>
      </trkpt>
      <trkpt lat="47.33858" lon="-1.28132">
        <ele>52</ele>
        <time>2020-06-01T16:17:02.000Z</time>
      </trkpt>
      <trkpt lat="47.3386" lon="-1.28115">
        <ele>52</ele>
        <time>2020-06-01T16:17:04.000Z</time>
      </trkpt>
      <trkpt lat="47.33862" lon="-1.28099">
        <ele>52</ele>
        <time>2020-06-01T16:17:06.000Z</time>
      </trkpt>
      <trkpt lat="47.33864" lon="-1.28082">
        <ele>52</ele>
        <time>2020-06-01T16:17:08.000Z</time>
      </trkpt>
      <trkpt lat="47.33866" lon="-1.28066">
        <ele>51</ele>
        <time>2020-06-01T16:17:10.000Z</time>
      </trkpt>
      <trkpt lat="47.33868" lon="-1.28051">
        <ele>51</ele>
        <time>2020-06-01T16:17:12.000Z</time>
      </trkpt>
      <trkpt lat="47.33871" lon="-1.28038">
        <ele>51</ele>
        <time>2020-06-01T16:17:14.000Z</time>
      </trkpt>
      <trkpt lat="47.33872" lon="-1.28024">
        <ele>52</ele>
        <time>2020-06-01T16:17:16.000Z</time>
      </trkpt>
      <trkpt lat="47.33873" lon="-1.28009">
        <ele>51</ele>
        <time>2020-06-01T16:17:18.000Z</time>
      </trkpt>
      <trkpt lat="47.33874" lon="-1.27993">
        <ele>51</ele>
        <time>2020-06-01T16:17:20.000Z</time>
      </trkpt>
      <trkpt lat="47.33875" lon="-1.27977">
        <ele>51</ele>
        <time>2020-06-01T16:17:22.000Z</time>
      </trkpt>
      <trkpt lat="47.33875" lon="-1.27963">
        <ele>51</ele>
        <time>2020-06-01T16:17:24.000Z</time>
      </trkpt>
      <trkpt lat="47.33875" lon="-1.27949">
        <ele>50</ele>
        <time>2020-06-01T16:17:26.000Z</time>
      </trkpt>
      <trkpt lat="47.33874" lon="-1.2793">
        <ele>51</ele>
        <time>2020-06-01T16:17:29.000Z</time>
      </trkpt>
      <trkpt lat="47.33875" lon="-1.27914">
        <ele>51</ele>
        <time>2020-06-01T16:17:31.000Z</time>
      </trkpt>
      <trkpt lat="47.33876" lon="-1.27898">
        <ele>52</ele>
        <time>2020-06-01T16:17:33.000Z</time>
      </trkpt>
      <trkpt lat="47.33876" lon="-1.27879">
        <ele>51</ele>
        <time>2020-06-01T16:17:35.000Z</time>
      </trkpt>
      <trkpt lat="47.33876" lon="-1.2786">
        <ele>51</ele>
        <time>2020-06-01T16:17:37.000Z</time>
      </trkpt>
      <trkpt lat="47.33878" lon="-1.27841">
        <ele>51</ele>
        <time>2020-06-01T16:17:39.000Z</time>
      </trkpt>
      <trkpt lat="47.33877" lon="-1.27823">
        <ele>51</ele>
        <time>2020-06-01T16:17:41.000Z</time>
      </trkpt>
      <trkpt lat="47.33878" lon="-1.27807">
        <ele>51</ele>
        <time>2020-06-01T16:17:43.000Z</time>
      </trkpt>
      <trkpt lat="47.33871" lon="-1.27792">
        <ele>50</ele>
        <time>2020-06-01T16:17:46.000Z</time>
      </trkpt>
      <trkpt lat="47.33859" lon="-1.27789">
        <ele>51</ele>
        <time>2020-06-01T16:17:48.000Z</time>
      </trkpt>
      <trkpt lat="47.33845" lon="-1.27784">
        <ele>51</ele>
        <time>2020-06-01T16:17:50.000Z</time>
      </trkpt>
      <trkpt lat="47.33831" lon="-1.27779">
        <ele>51</ele>
        <time>2020-06-01T16:17:52.000Z</time>
      </trkpt>
      <trkpt lat="47.33817" lon="-1.27774">
        <ele>51</ele>
        <time>2020-06-01T16:17:54.000Z</time>
      </trkpt>
      <trkpt lat="47.33804" lon="-1.27771">
        <ele>51</ele>
        <time>2020-06-01T16:17:56.000Z</time>
      </trkpt>
      <trkpt lat="47.33792" lon="-1.27766">
        <ele>51</ele>
        <time>2020-06-01T16:17:58.000Z</time>
      </trkpt>
      <trkpt lat="47.33779" lon="-1.27762">
        <ele>52</ele>
        <time>2020-06-01T16:18:00.000Z</time>
      </trkpt>
      <trkpt lat="47.33767" lon="-1.27758">
        <ele>53</ele>
        <time>2020-06-01T16:18:02.000Z</time>
      </trkpt>
      <trkpt lat="47.33756" lon="-1.27755">
        <ele>54</ele>
        <time>2020-06-01T16:18:04.000Z</time>
      </trkpt>
      <trkpt lat="47.33746" lon="-1.27753">
        <ele>55</ele>
        <time>2020-06-01T16:18:06.000Z</time>
      </trkpt>
      <trkpt lat="47.33736" lon="-1.27746">
        <ele>55</ele>
        <time>2020-06-01T16:18:09.000Z</time>
      </trkpt>
      <trkpt lat="47.33735" lon="-1.27733">
        <ele>56</ele>
        <time>2020-06-01T16:18:12.000Z</time>
      </trkpt>
      <trkpt lat="47.33744" lon="-1.27724">
        <ele>56</ele>
        <time>2020-06-01T16:18:15.000Z</time>
      </trkpt>
      <trkpt lat="47.33754" lon="-1.27714">
        <ele>56</ele>
        <time>2020-06-01T16:18:18.000Z</time>
      </trkpt>
      <trkpt lat="47.33764" lon="-1.27718">
        <ele>55</ele>
        <time>2020-06-01T16:18:20.000Z</time>
      </trkpt>
      <trkpt lat="47.33769" lon="-1.27733">
        <ele>56</ele>
        <time>2020-06-01T16:18:22.000Z</time>
      </trkpt>
      <trkpt lat="47.33781" lon="-1.27742">
        <ele>56</ele>
        <time>2020-06-01T16:18:24.000Z</time>
      </trkpt>
      <trkpt lat="47.33796" lon="-1.27747">
        <ele>56</ele>
        <time>2020-06-01T16:18:26.000Z</time>
      </trkpt>
      <trkpt lat="47.33809" lon="-1.27751">
        <ele>58</ele>
        <time>2020-06-01T16:18:28.000Z</time>
      </trkpt>
      <trkpt lat="47.33822" lon="-1.27754">
        <ele>58</ele>
        <time>2020-06-01T16:18:30.000Z</time>
      </trkpt>
      <trkpt lat="47.33834" lon="-1.27759">
        <ele>58</ele>
        <time>2020-06-01T16:18:32.000Z</time>
      </trkpt>
      <trkpt lat="47.33847" lon="-1.27762">
        <ele>59</ele>
        <time>2020-06-01T16:18:34.000Z</time>
      </trkpt>
      <trkpt lat="47.33859" lon="-1.27766">
        <ele>59</ele>
        <time>2020-06-01T16:18:36.000Z</time>
      </trkpt>
      <trkpt lat="47.33871" lon="-1.2777">
        <ele>59</ele>
        <time>2020-06-01T16:18:38.000Z</time>
      </trkpt>
      <trkpt lat="47.33882" lon="-1.27774">
        <ele>59</ele>
        <time>2020-06-01T16:18:40.000Z</time>
      </trkpt>
      <trkpt lat="47.33895" lon="-1.27778">
        <ele>60</ele>
        <time>2020-06-01T16:18:42.000Z</time>
      </trkpt>
      <trkpt lat="47.33907" lon="-1.27781">
        <ele>60</ele>
        <time>2020-06-01T16:18:44.000Z</time>
      </trkpt>
      <trkpt lat="47.33919" lon="-1.27785">
        <ele>60</ele>
        <time>2020-06-01T16:18:46.000Z</time>
      </trkpt>
      <trkpt lat="47.3393" lon="-1.27789">
        <ele>60</ele>
        <time>2020-06-01T16:18:48.000Z</time>
      </trkpt>
      <trkpt lat="47.33942" lon="-1.27792">
        <ele>60</ele>
        <time>2020-06-01T16:18:50.000Z</time>
      </trkpt>
      <trkpt lat="47.33953" lon="-1.27797">
        <ele>60</ele>
        <time>2020-06-01T16:18:52.000Z</time>
      </trkpt>
      <trkpt lat="47.33965" lon="-1.27801">
        <ele>60</ele>
        <time>2020-06-01T16:18:54.000Z</time>
      </trkpt>
      <trkpt lat="47.33976" lon="-1.27805">
        <ele>60</ele>
        <time>2020-06-01T16:18:56.000Z</time>
      </trkpt>
      <trkpt lat="47.33988" lon="-1.27808">
        <ele>60</ele>
        <time>2020-06-01T16:18:58.000Z</time>
      </trkpt>
      <trkpt lat="47.34" lon="-1.27811">
        <ele>60</ele>
        <time>2020-06-01T16:19:00.000Z</time>
      </trkpt>
      <trkpt lat="47.34012" lon="-1.27815">
        <ele>61</ele>
        <time>2020-06-01T16:19:02.000Z</time>
      </trkpt>
      <trkpt lat="47.34024" lon="-1.27819">
        <ele>61</ele>
        <time>2020-06-01T16:19:04.000Z</time>
      </trkpt>
      <trkpt lat="47.34036" lon="-1.27823">
        <ele>61</ele>
        <time>2020-06-01T16:19:06.000Z</time>
      </trkpt>
      <trkpt lat="47.34048" lon="-1.27827">
        <ele>62</ele>
        <time>2020-06-01T16:19:08.000Z</time>
      </trkpt>
      <trkpt lat="47.34061" lon="-1.27831">
        <ele>62</ele>
        <time>2020-06-01T16:19:10.000Z</time>
      </trkpt>
      <trkpt lat="47.34073" lon="-1.27835">
        <ele>62</ele>
        <time>2020-06-01T16:19:12.000Z</time>
      </trkpt>
      <trkpt lat="47.34084" lon="-1.27839">
        <ele>62</ele>
        <time>2020-06-01T16:19:14.000Z</time>
      </trkpt>
      <trkpt lat="47.34096" lon="-1.27843">
        <ele>62</ele>
        <time>2020-06-01T16:19:16.000Z</time>
      </trkpt>
      <trkpt lat="47.34108" lon="-1.27846">
        <ele>63</ele>
        <time>2020-06-01T16:19:18.000Z</time>
      </trkpt>
      <trkpt lat="47.3412" lon="-1.2785">
        <ele>63</ele>
        <time>2020-06-01T16:19:20.000Z</time>
      </trkpt>
      <trkpt lat="47.34131" lon="-1.27853">
        <ele>63</ele>
        <time>2020-06-01T16:19:22.000Z</time>
      </trkpt>
      <trkpt lat="47.34143" lon="-1.27857">
        <ele>63</ele>
        <time>2020-06-01T16:19:24.000Z</time>
      </trkpt>
      <trkpt lat="47.34155" lon="-1.27861">
        <ele>63</ele>
        <time>2020-06-01T16:19:26.000Z</time>
      </trkpt>
      <trkpt lat="47.34167" lon="-1.27865">
        <ele>63</ele>
        <time>2020-06-01T16:19:28.000Z</time>
      </trkpt>
      <trkpt lat="47.34178" lon="-1.27869">
        <ele>63</ele>
        <time>2020-06-01T16:19:30.000Z</time>
      </trkpt>
      <trkpt lat="47.3419" lon="-1.27873">
        <ele>63</ele>
        <time>2020-06-01T16:19:32.000Z</time>
      </trkpt>
      <trkpt lat="47.34202" lon="-1.27877">
        <ele>63</ele>
        <time>2020-06-01T16:19:34.000Z</time>
      </trkpt>
      <trkpt lat="47.34215" lon="-1.2788">
        <ele>63</ele>
        <time>2020-06-01T16:19:36.000Z</time>
      </trkpt>
      <trkpt lat="47.34226" lon="-1.27883">
        <ele>64</ele>
        <time>2020-06-01T16:19:38.000Z</time>
      </trkpt>
      <trkpt lat="47.34238" lon="-1.27887">
        <ele>64</ele>
        <time>2020-06-01T16:19:40.000Z</time>
      </trkpt>
      <trkpt lat="47.34251" lon="-1.27891">
        <ele>64</ele>
        <time>2020-06-01T16:19:42.000Z</time>
      </trkpt>
      <trkpt lat="47.34263" lon="-1.27895">
        <ele>64</ele>
        <time>2020-06-01T16:19:44.000Z</time>
      </trkpt>
      <trkpt lat="47.34275" lon="-1.27899">
        <ele>64</ele>
        <time>2020-06-01T16:19:46.000Z</time>
      </trkpt>
      <trkpt lat="47.34288" lon="-1.27902">
        <ele>64</ele>
        <time>2020-06-01T16:19:48.000Z</time>
      </trkpt>
      <trkpt lat="47.343" lon="-1.27906">
        <ele>64</ele>
        <time>2020-06-01T16:19:50.000Z</time>
      </trkpt>
      <trkpt lat="47.34313" lon="-1.2791">
        <ele>63</ele>
        <time>2020-06-01T16:19:52.000Z</time>
      </trkpt>
      <trkpt lat="47.34325" lon="-1.27914">
        <ele>64</ele>
        <time>2020-06-01T16:19:54.000Z</time>
      </trkpt>
      <trkpt lat="47.34338" lon="-1.27918">
        <ele>64</ele>
        <time>2020-06-01T16:19:56.000Z</time>
      </trkpt>
      <trkpt lat="47.3435" lon="-1.27922">
        <ele>63</ele>
        <time>2020-06-01T16:19:58.000Z</time>
      </trkpt>
      <trkpt lat="47.34362" lon="-1.27926">
        <ele>64</ele>
        <time>2020-06-01T16:20:00.000Z</time>
      </trkpt>
      <trkpt lat="47.34375" lon="-1.2793">
        <ele>64</ele>
        <time>2020-06-01T16:20:02.000Z</time>
      </trkpt>
      <trkpt lat="47.34387" lon="-1.27933">
        <ele>63</ele>
        <time>2020-06-01T16:20:04.000Z</time>
      </trkpt>
      <trkpt lat="47.34399" lon="-1.27937">
        <ele>64</ele>
        <time>2020-06-01T16:20:06.000Z</time>
      </trkpt>
      <trkpt lat="47.34411" lon="-1.27942">
        <ele>64</ele>
        <time>2020-06-01T16:20:08.000Z</time>
      </trkpt>
      <trkpt lat="47.34423" lon="-1.27949">
        <ele>64</ele>
        <time>2020-06-01T16:20:10.000Z</time>
      </trkpt>
      <trkpt lat="47.34435" lon="-1.27956">
        <ele>64</ele>
        <time>2020-06-01T16:20:12.000Z</time>
      </trkpt>
      <trkpt lat="47.34445" lon="-1.27964">
        <ele>65</ele>
        <time>2020-06-01T16:20:14.000Z</time>
      </trkpt>
      <trkpt lat="47.34455" lon="-1.27972">
        <ele>65</ele>
        <time>2020-06-01T16:20:16.000Z</time>
      </trkpt>
      <trkpt lat="47.34465" lon="-1.27984">
        <ele>65</ele>
        <time>2020-06-01T16:20:18.000Z</time>
      </trkpt>
      <trkpt lat="47.34475" lon="-1.27996">
        <ele>65</ele>
        <time>2020-06-01T16:20:20.000Z</time>
      </trkpt>
      <trkpt lat="47.34484" lon="-1.28009">
        <ele>65</ele>
        <time>2020-06-01T16:20:22.000Z</time>
      </trkpt>
      <trkpt lat="47.34493" lon="-1.28024">
        <ele>64</ele>
        <time>2020-06-01T16:20:24.000Z</time>
      </trkpt>
      <trkpt lat="47.34501" lon="-1.28041">
        <ele>64</ele>
        <time>2020-06-01T16:20:26.000Z</time>
      </trkpt>
      <trkpt lat="47.34508" lon="-1.28059">
        <ele>62</ele>
        <time>2020-06-01T16:20:28.000Z</time>
      </trkpt>
      <trkpt lat="47.34515" lon="-1.2808">
        <ele>62</ele>
        <time>2020-06-01T16:20:30.000Z</time>
      </trkpt>
      <trkpt lat="47.34521" lon="-1.28102">
        <ele>60</ele>
        <time>2020-06-01T16:20:32.000Z</time>
      </trkpt>
      <trkpt lat="47.34524" lon="-1.28125">
        <ele>60</ele>
        <time>2020-06-01T16:20:34.000Z</time>
      </trkpt>
      <trkpt lat="47.34527" lon="-1.28149">
        <ele>59</ele>
        <time>2020-06-01T16:20:36.000Z</time>
      </trkpt>
      <trkpt lat="47.34528" lon="-1.28173">
        <ele>58</ele>
        <time>2020-06-01T16:20:38.000Z</time>
      </trkpt>
      <trkpt lat="47.34528" lon="-1.28196">
        <ele>58</ele>
        <time>2020-06-01T16:20:40.000Z</time>
      </trkpt>
      <trkpt lat="47.34528" lon="-1.28219">
        <ele>57</ele>
        <time>2020-06-01T16:20:42.000Z</time>
      </trkpt>
      <trkpt lat="47.34525" lon="-1.28241">
        <ele>57</ele>
        <time>2020-06-01T16:20:44.000Z</time>
      </trkpt>
      <trkpt lat="47.34522" lon="-1.28263">
        <ele>58</ele>
        <time>2020-06-01T16:20:46.000Z</time>
      </trkpt>
      <trkpt lat="47.3452" lon="-1.28286">
        <ele>58</ele>
        <time>2020-06-01T16:20:48.000Z</time>
      </trkpt>
      <trkpt lat="47.34518" lon="-1.28309">
        <ele>58</ele>
        <time>2020-06-01T16:20:50.000Z</time>
      </trkpt>
      <trkpt lat="47.34516" lon="-1.28332">
        <ele>58</ele>
        <time>2020-06-01T16:20:52.000Z</time>
      </trkpt>
      <trkpt lat="47.34515" lon="-1.28354">
        <ele>58</ele>
        <time>2020-06-01T16:20:54.000Z</time>
      </trkpt>
      <trkpt lat="47.34516" lon="-1.28376">
        <ele>58</ele>
        <time>2020-06-01T16:20:56.000Z</time>
      </trkpt>
      <trkpt lat="47.34518" lon="-1.28398">
        <ele>57</ele>
        <time>2020-06-01T16:20:58.000Z</time>
      </trkpt>
      <trkpt lat="47.34522" lon="-1.28419">
        <ele>57</ele>
        <time>2020-06-01T16:21:00.000Z</time>
      </trkpt>
      <trkpt lat="47.34527" lon="-1.28439">
        <ele>57</ele>
        <time>2020-06-01T16:21:02.000Z</time>
      </trkpt>
      <trkpt lat="47.34534" lon="-1.28458">
        <ele>57</ele>
        <time>2020-06-01T16:21:04.000Z</time>
      </trkpt>
      <trkpt lat="47.34542" lon="-1.28475">
        <ele>56</ele>
        <time>2020-06-01T16:21:06.000Z</time>
      </trkpt>
      <trkpt lat="47.34551" lon="-1.28492">
        <ele>56</ele>
        <time>2020-06-01T16:21:08.000Z</time>
      </trkpt>
      <trkpt lat="47.34561" lon="-1.28507">
        <ele>56</ele>
        <time>2020-06-01T16:21:10.000Z</time>
      </trkpt>
      <trkpt lat="47.34571" lon="-1.28522">
        <ele>55</ele>
        <time>2020-06-01T16:21:12.000Z</time>
      </trkpt>
      <trkpt lat="47.34583" lon="-1.28534">
        <ele>55</ele>
        <time>2020-06-01T16:21:14.000Z</time>
      </trkpt>
      <trkpt lat="47.34596" lon="-1.28545">
        <ele>56</ele>
        <time>2020-06-01T16:21:16.000Z</time>
      </trkpt>
      <trkpt lat="47.34609" lon="-1.28556">
        <ele>56</ele>
        <time>2020-06-01T16:21:18.000Z</time>
      </trkpt>
      <trkpt lat="47.3462" lon="-1.28565">
        <ele>57</ele>
        <time>2020-06-01T16:21:20.000Z</time>
      </trkpt>
      <trkpt lat="47.34631" lon="-1.28575">
        <ele>58</ele>
        <time>2020-06-01T16:21:22.000Z</time>
      </trkpt>
      <trkpt lat="47.34642" lon="-1.28583">
        <ele>59</ele>
        <time>2020-06-01T16:21:24.000Z</time>
      </trkpt>
      <trkpt lat="47.34649" lon="-1.28593">
        <ele>60</ele>
        <time>2020-06-01T16:21:26.000Z</time>
      </trkpt>
      <trkpt lat="47.34647" lon="-1.2861">
        <ele>60</ele>
        <time>2020-06-01T16:21:28.000Z</time>
      </trkpt>
      <trkpt lat="47.34637" lon="-1.28628">
        <ele>60</ele>
        <time>2020-06-01T16:21:30.000Z</time>
      </trkpt>
      <trkpt lat="47.34625" lon="-1.28647">
        <ele>59</ele>
        <time>2020-06-01T16:21:32.000Z</time>
      </trkpt>
      <trkpt lat="47.34614" lon="-1.28667">
        <ele>59</ele>
        <time>2020-06-01T16:21:34.000Z</time>
      </trkpt>
      <trkpt lat="47.34606" lon="-1.28688">
        <ele>58</ele>
        <time>2020-06-01T16:21:36.000Z</time>
      </trkpt>
      <trkpt lat="47.34597" lon="-1.28707">
        <ele>58</ele>
        <time>2020-06-01T16:21:38.000Z</time>
      </trkpt>
      <trkpt lat="47.34591" lon="-1.28727">
        <ele>58</ele>
        <time>2020-06-01T16:21:40.000Z</time>
      </trkpt>
      <trkpt lat="47.34585" lon="-1.28747">
        <ele>58</ele>
        <time>2020-06-01T16:21:42.000Z</time>
      </trkpt>
      <trkpt lat="47.34579" lon="-1.28768">
        <ele>58</ele>
        <time>2020-06-01T16:21:44.000Z</time>
      </trkpt>
      <trkpt lat="47.34573" lon="-1.28787">
        <ele>58</ele>
        <time>2020-06-01T16:21:46.000Z</time>
      </trkpt>
      <trkpt lat="47.34567" lon="-1.28807">
        <ele>58</ele>
        <time>2020-06-01T16:21:48.000Z</time>
      </trkpt>
      <trkpt lat="47.34561" lon="-1.28825">
        <ele>59</ele>
        <time>2020-06-01T16:21:50.000Z</time>
      </trkpt>
      <trkpt lat="47.34557" lon="-1.28844">
        <ele>59</ele>
        <time>2020-06-01T16:21:52.000Z</time>
      </trkpt>
      <trkpt lat="47.34554" lon="-1.28862">
        <ele>59</ele>
        <time>2020-06-01T16:21:54.000Z</time>
      </trkpt>
      <trkpt lat="47.34549" lon="-1.28878">
        <ele>60</ele>
        <time>2020-06-01T16:21:56.000Z</time>
      </trkpt>
      <trkpt lat="47.34542" lon="-1.28894">
        <ele>60</ele>
        <time>2020-06-01T16:21:58.000Z</time>
      </trkpt>
      <trkpt lat="47.34537" lon="-1.28911">
        <ele>60</ele>
        <time>2020-06-01T16:22:00.000Z</time>
      </trkpt>
      <trkpt lat="47.34529" lon="-1.28927">
        <ele>61</ele>
        <time>2020-06-01T16:22:02.000Z</time>
      </trkpt>
      <trkpt lat="47.34521" lon="-1.28943">
        <ele>61</ele>
        <time>2020-06-01T16:22:04.000Z</time>
      </trkpt>
      <trkpt lat="47.34513" lon="-1.28957">
        <ele>61</ele>
        <time>2020-06-01T16:22:06.000Z</time>
      </trkpt>
      <trkpt lat="47.34505" lon="-1.28971">
        <ele>60</ele>
        <time>2020-06-01T16:22:08.000Z</time>
      </trkpt>
      <trkpt lat="47.34498" lon="-1.28986">
        <ele>60</ele>
        <time>2020-06-01T16:22:10.000Z</time>
      </trkpt>
      <trkpt lat="47.34491" lon="-1.29003">
        <ele>60</ele>
        <time>2020-06-01T16:22:12.000Z</time>
      </trkpt>
      <trkpt lat="47.34484" lon="-1.29021">
        <ele>59</ele>
        <time>2020-06-01T16:22:14.000Z</time>
      </trkpt>
      <trkpt lat="47.34478" lon="-1.2904">
        <ele>58</ele>
        <time>2020-06-01T16:22:16.000Z</time>
      </trkpt>
      <trkpt lat="47.34472" lon="-1.29059">
        <ele>58</ele>
        <time>2020-06-01T16:22:18.000Z</time>
      </trkpt>
      <trkpt lat="47.34466" lon="-1.29081">
        <ele>57</ele>
        <time>2020-06-01T16:22:20.000Z</time>
      </trkpt>
      <trkpt lat="47.34461" lon="-1.29102">
        <ele>57</ele>
        <time>2020-06-01T16:22:22.000Z</time>
      </trkpt>
      <trkpt lat="47.34457" lon="-1.2912">
        <ele>58</ele>
        <time>2020-06-01T16:22:24.000Z</time>
      </trkpt>
      <trkpt lat="47.34447" lon="-1.29128">
        <ele>58</ele>
        <time>2020-06-01T16:22:26.000Z</time>
      </trkpt>
      <trkpt lat="47.34438" lon="-1.2914">
        <ele>58</ele>
        <time>2020-06-01T16:22:28.000Z</time>
      </trkpt>
      <trkpt lat="47.34438" lon="-1.29161">
        <ele>58</ele>
        <time>2020-06-01T16:22:30.000Z</time>
      </trkpt>
      <trkpt lat="47.34439" lon="-1.29182">
        <ele>57</ele>
        <time>2020-06-01T16:22:32.000Z</time>
      </trkpt>
      <trkpt lat="47.3444" lon="-1.29204">
        <ele>58</ele>
        <time>2020-06-01T16:22:34.000Z</time>
      </trkpt>
      <trkpt lat="47.3444" lon="-1.29225">
        <ele>57</ele>
        <time>2020-06-01T16:22:36.000Z</time>
      </trkpt>
      <trkpt lat="47.34441" lon="-1.29246">
        <ele>57</ele>
        <time>2020-06-01T16:22:38.000Z</time>
      </trkpt>
      <trkpt lat="47.34441" lon="-1.29267">
        <ele>57</ele>
        <time>2020-06-01T16:22:40.000Z</time>
      </trkpt>
      <trkpt lat="47.34442" lon="-1.29288">
        <ele>57</ele>
        <time>2020-06-01T16:22:42.000Z</time>
      </trkpt>
      <trkpt lat="47.34443" lon="-1.2931">
        <ele>56</ele>
        <time>2020-06-01T16:22:44.000Z</time>
      </trkpt>
      <trkpt lat="47.34443" lon="-1.29331">
        <ele>56</ele>
        <time>2020-06-01T16:22:46.000Z</time>
      </trkpt>
      <trkpt lat="47.34444" lon="-1.29353">
        <ele>56</ele>
        <time>2020-06-01T16:22:48.000Z</time>
      </trkpt>
      <trkpt lat="47.34444" lon="-1.29374">
        <ele>56</ele>
        <time>2020-06-01T16:22:50.000Z</time>
      </trkpt>
      <trkpt lat="47.34443" lon="-1.29396">
        <ele>56</ele>
        <time>2020-06-01T16:22:52.000Z</time>
      </trkpt>
      <trkpt lat="47.34443" lon="-1.29417">
        <ele>56</ele>
        <time>2020-06-01T16:22:54.000Z</time>
      </trkpt>
      <trkpt lat="47.34442" lon="-1.29438">
        <ele>56</ele>
        <time>2020-06-01T16:22:56.000Z</time>
      </trkpt>
      <trkpt lat="47.3444" lon="-1.29458">
        <ele>57</ele>
        <time>2020-06-01T16:22:58.000Z</time>
      </trkpt>
      <trkpt lat="47.34438" lon="-1.29478">
        <ele>57</ele>
        <time>2020-06-01T16:23:00.000Z</time>
      </trkpt>
      <trkpt lat="47.34435" lon="-1.29499">
        <ele>56</ele>
        <time>2020-06-01T16:23:02.000Z</time>
      </trkpt>
      <trkpt lat="47.34432" lon="-1.2952">
        <ele>56</ele>
        <time>2020-06-01T16:23:04.000Z</time>
      </trkpt>
      <trkpt lat="47.34429" lon="-1.29541">
        <ele>56</ele>
        <time>2020-06-01T16:23:06.000Z</time>
      </trkpt>
      <trkpt lat="47.34426" lon="-1.29561">
        <ele>56</ele>
        <time>2020-06-01T16:23:08.000Z</time>
      </trkpt>
      <trkpt lat="47.34424" lon="-1.29583">
        <ele>55</ele>
        <time>2020-06-01T16:23:10.000Z</time>
      </trkpt>
      <trkpt lat="47.34421" lon="-1.29604">
        <ele>55</ele>
        <time>2020-06-01T16:23:12.000Z</time>
      </trkpt>
      <trkpt lat="47.34417" lon="-1.29624">
        <ele>55</ele>
        <time>2020-06-01T16:23:14.000Z</time>
      </trkpt>
      <trkpt lat="47.34411" lon="-1.29643">
        <ele>55</ele>
        <time>2020-06-01T16:23:16.000Z</time>
      </trkpt>
      <trkpt lat="47.34405" lon="-1.29659">
        <ele>55</ele>
        <time>2020-06-01T16:23:18.000Z</time>
      </trkpt>
      <trkpt lat="47.34397" lon="-1.29676">
        <ele>55</ele>
        <time>2020-06-01T16:23:20.000Z</time>
      </trkpt>
      <trkpt lat="47.34388" lon="-1.29692">
        <ele>55</ele>
        <time>2020-06-01T16:23:22.000Z</time>
      </trkpt>
      <trkpt lat="47.3438" lon="-1.29708">
        <ele>55</ele>
        <time>2020-06-01T16:23:24.000Z</time>
      </trkpt>
      <trkpt lat="47.34371" lon="-1.29725">
        <ele>55</ele>
        <time>2020-06-01T16:23:26.000Z</time>
      </trkpt>
      <trkpt lat="47.34362" lon="-1.29742">
        <ele>55</ele>
        <time>2020-06-01T16:23:28.000Z</time>
      </trkpt>
      <trkpt lat="47.34354" lon="-1.2976">
        <ele>55</ele>
        <time>2020-06-01T16:23:30.000Z</time>
      </trkpt>
      <trkpt lat="47.34345" lon="-1.29777">
        <ele>54</ele>
        <time>2020-06-01T16:23:32.000Z</time>
      </trkpt>
      <trkpt lat="47.34337" lon="-1.29794">
        <ele>55</ele>
        <time>2020-06-01T16:23:34.000Z</time>
      </trkpt>
      <trkpt lat="47.3433" lon="-1.29812">
        <ele>54</ele>
        <time>2020-06-01T16:23:36.000Z</time>
      </trkpt>
      <trkpt lat="47.34323" lon="-1.2983">
        <ele>54</ele>
        <time>2020-06-01T16:23:38.000Z</time>
      </trkpt>
      <trkpt lat="47.34317" lon="-1.29847">
        <ele>54</ele>
        <time>2020-06-01T16:23:40.000Z</time>
      </trkpt>
      <trkpt lat="47.3431" lon="-1.29865">
        <ele>54</ele>
        <time>2020-06-01T16:23:42.000Z</time>
      </trkpt>
      <trkpt lat="47.34304" lon="-1.29884">
        <ele>54</ele>
        <time>2020-06-01T16:23:44.000Z</time>
      </trkpt>
      <trkpt lat="47.34298" lon="-1.29902">
        <ele>54</ele>
        <time>2020-06-01T16:23:46.000Z</time>
      </trkpt>
      <trkpt lat="47.34292" lon="-1.2992">
        <ele>54</ele>
        <time>2020-06-01T16:23:48.000Z</time>
      </trkpt>
      <trkpt lat="47.34285" lon="-1.29937">
        <ele>54</ele>
        <time>2020-06-01T16:23:50.000Z</time>
      </trkpt>
      <trkpt lat="47.34279" lon="-1.29955">
        <ele>54</ele>
        <time>2020-06-01T16:23:52.000Z</time>
      </trkpt>
      <trkpt lat="47.34275" lon="-1.29974">
        <ele>54</ele>
        <time>2020-06-01T16:23:54.000Z</time>
      </trkpt>
      <trkpt lat="47.34272" lon="-1.29992">
        <ele>55</ele>
        <time>2020-06-01T16:23:56.000Z</time>
      </trkpt>
      <trkpt lat="47.34268" lon="-1.3001">
        <ele>55</ele>
        <time>2020-06-01T16:23:58.000Z</time>
      </trkpt>
      <trkpt lat="47.34262" lon="-1.30029">
        <ele>55</ele>
        <time>2020-06-01T16:24:00.000Z</time>
      </trkpt>
      <trkpt lat="47.34257" lon="-1.30049">
        <ele>54</ele>
        <time>2020-06-01T16:24:02.000Z</time>
      </trkpt>
      <trkpt lat="47.34253" lon="-1.30068">
        <ele>54</ele>
        <time>2020-06-01T16:24:04.000Z</time>
      </trkpt>
      <trkpt lat="47.34248" lon="-1.30086">
        <ele>54</ele>
        <time>2020-06-01T16:24:06.000Z</time>
      </trkpt>
      <trkpt lat="47.34243" lon="-1.30104">
        <ele>54</ele>
        <time>2020-06-01T16:24:08.000Z</time>
      </trkpt>
      <trkpt lat="47.34237" lon="-1.30122">
        <ele>55</ele>
        <time>2020-06-01T16:24:10.000Z</time>
      </trkpt>
      <trkpt lat="47.34233" lon="-1.3014">
        <ele>55</ele>
        <time>2020-06-01T16:24:12.000Z</time>
      </trkpt>
      <trkpt lat="47.3423" lon="-1.30156">
        <ele>55</ele>
        <time>2020-06-01T16:24:14.000Z</time>
      </trkpt>
      <trkpt lat="47.34226" lon="-1.30172">
        <ele>55</ele>
        <time>2020-06-01T16:24:16.000Z</time>
      </trkpt>
      <trkpt lat="47.34222" lon="-1.3019">
        <ele>56</ele>
        <time>2020-06-01T16:24:18.000Z</time>
      </trkpt>
      <trkpt lat="47.34217" lon="-1.30208">
        <ele>57</ele>
        <time>2020-06-01T16:24:20.000Z</time>
      </trkpt>
      <trkpt lat="47.34211" lon="-1.30225">
        <ele>57</ele>
        <time>2020-06-01T16:24:22.000Z</time>
      </trkpt>
      <trkpt lat="47.34205" lon="-1.30241">
        <ele>57</ele>
        <time>2020-06-01T16:24:24.000Z</time>
      </trkpt>
      <trkpt lat="47.34198" lon="-1.30258">
        <ele>57</ele>
        <time>2020-06-01T16:24:26.000Z</time>
      </trkpt>
      <trkpt lat="47.34191" lon="-1.30274">
        <ele>57</ele>
        <time>2020-06-01T16:24:28.000Z</time>
      </trkpt>
      <trkpt lat="47.34185" lon="-1.30289">
        <ele>57</ele>
        <time>2020-06-01T16:24:30.000Z</time>
      </trkpt>
      <trkpt lat="47.34179" lon="-1.30304">
        <ele>58</ele>
        <time>2020-06-01T16:24:32.000Z</time>
      </trkpt>
      <trkpt lat="47.34172" lon="-1.30319">
        <ele>58</ele>
        <time>2020-06-01T16:24:34.000Z</time>
      </trkpt>
      <trkpt lat="47.34167" lon="-1.30332">
        <ele>58</ele>
        <time>2020-06-01T16:24:36.000Z</time>
      </trkpt>
      <trkpt lat="47.34161" lon="-1.30346">
        <ele>58</ele>
        <time>2020-06-01T16:24:38.000Z</time>
      </trkpt>
      <trkpt lat="47.34156" lon="-1.30359">
        <ele>58</ele>
        <time>2020-06-01T16:24:40.000Z</time>
      </trkpt>
      <trkpt lat="47.3415" lon="-1.30373">
        <ele>58</ele>
        <time>2020-06-01T16:24:42.000Z</time>
      </trkpt>
      <trkpt lat="47.34145" lon="-1.30387">
        <ele>58</ele>
        <time>2020-06-01T16:24:44.000Z</time>
      </trkpt>
      <trkpt lat="47.34139" lon="-1.304">
        <ele>58</ele>
        <time>2020-06-01T16:24:46.000Z</time>
      </trkpt>
      <trkpt lat="47.34132" lon="-1.30414">
        <ele>58</ele>
        <time>2020-06-01T16:24:48.000Z</time>
      </trkpt>
      <trkpt lat="47.34126" lon="-1.30427">
        <ele>58</ele>
        <time>2020-06-01T16:24:50.000Z</time>
      </trkpt>
      <trkpt lat="47.3412" lon="-1.30441">
        <ele>59</ele>
        <time>2020-06-01T16:24:52.000Z</time>
      </trkpt>
      <trkpt lat="47.34114" lon="-1.30455">
        <ele>59</ele>
        <time>2020-06-01T16:24:54.000Z</time>
      </trkpt>
      <trkpt lat="47.34108" lon="-1.30469">
        <ele>59</ele>
        <time>2020-06-01T16:24:56.000Z</time>
      </trkpt>
      <trkpt lat="47.34101" lon="-1.30483">
        <ele>58</ele>
        <time>2020-06-01T16:24:58.000Z</time>
      </trkpt>
      <trkpt lat="47.34095" lon="-1.30497">
        <ele>58</ele>
        <time>2020-06-01T16:25:00.000Z</time>
      </trkpt>
      <trkpt lat="47.34088" lon="-1.30511">
        <ele>57</ele>
        <time>2020-06-01T16:25:02.000Z</time>
      </trkpt>
      <trkpt lat="47.3408" lon="-1.30529">
        <ele>56</ele>
        <time>2020-06-01T16:25:04.000Z</time>
      </trkpt>
      <trkpt lat="47.34072" lon="-1.30546">
        <ele>56</ele>
        <time>2020-06-01T16:25:06.000Z</time>
      </trkpt>
      <trkpt lat="47.34064" lon="-1.30562">
        <ele>55</ele>
        <time>2020-06-01T16:25:08.000Z</time>
      </trkpt>
      <trkpt lat="47.34055" lon="-1.30577">
        <ele>55</ele>
        <time>2020-06-01T16:25:10.000Z</time>
      </trkpt>
      <trkpt lat="47.34047" lon="-1.30592">
        <ele>55</ele>
        <time>2020-06-01T16:25:12.000Z</time>
      </trkpt>
      <trkpt lat="47.34039" lon="-1.30608">
        <ele>55</ele>
        <time>2020-06-01T16:25:14.000Z</time>
      </trkpt>
      <trkpt lat="47.3403" lon="-1.30623">
        <ele>55</ele>
        <time>2020-06-01T16:25:16.000Z</time>
      </trkpt>
      <trkpt lat="47.34023" lon="-1.30638">
        <ele>54</ele>
        <time>2020-06-01T16:25:18.000Z</time>
      </trkpt>
      <trkpt lat="47.34015" lon="-1.30652">
        <ele>54</ele>
        <time>2020-06-01T16:25:20.000Z</time>
      </trkpt>
      <trkpt lat="47.34006" lon="-1.30664">
        <ele>54</ele>
        <time>2020-06-01T16:25:22.000Z</time>
      </trkpt>
      <trkpt lat="47.33997" lon="-1.30677">
        <ele>53</ele>
        <time>2020-06-01T16:25:24.000Z</time>
      </trkpt>
      <trkpt lat="47.3399" lon="-1.30688">
        <ele>53</ele>
        <time>2020-06-01T16:25:26.000Z</time>
      </trkpt>
      <trkpt lat="47.33981" lon="-1.30695">
        <ele>53</ele>
        <time>2020-06-01T16:25:28.000Z</time>
      </trkpt>
      <trkpt lat="47.33972" lon="-1.30689">
        <ele>53</ele>
        <time>2020-06-01T16:25:30.000Z</time>
      </trkpt>
      <trkpt lat="47.33964" lon="-1.30678">
        <ele>52</ele>
        <time>2020-06-01T16:25:32.000Z</time>
      </trkpt>
      <trkpt lat="47.33953" lon="-1.30681">
        <ele>54</ele>
        <time>2020-06-01T16:25:35.000Z</time>
      </trkpt>
      <trkpt lat="47.33947" lon="-1.30692">
        <ele>53</ele>
        <time>2020-06-01T16:25:37.000Z</time>
      </trkpt>
      <trkpt lat="47.33939" lon="-1.30702">
        <ele>53</ele>
        <time>2020-06-01T16:25:39.000Z</time>
      </trkpt>
      <trkpt lat="47.33931" lon="-1.30712">
        <ele>53</ele>
        <time>2020-06-01T16:25:41.000Z</time>
      </trkpt>
      <trkpt lat="47.33923" lon="-1.30723">
        <ele>54</ele>
        <time>2020-06-01T16:25:43.000Z</time>
      </trkpt>
      <trkpt lat="47.33915" lon="-1.30736">
        <ele>53</ele>
        <time>2020-06-01T16:25:45.000Z</time>
      </trkpt>
      <trkpt lat="47.33908" lon="-1.30747">
        <ele>53</ele>
        <time>2020-06-01T16:25:47.000Z</time>
      </trkpt>
      <trkpt lat="47.33898" lon="-1.30758">
        <ele>54</ele>
        <time>2020-06-01T16:25:50.000Z</time>
      </trkpt>
      <trkpt lat="47.33888" lon="-1.3077">
        <ele>54</ele>
        <time>2020-06-01T16:25:53.000Z</time>
      </trkpt>
      <trkpt lat="47.33878" lon="-1.30781">
        <ele>55</ele>
        <time>2020-06-01T16:25:55.000Z</time>
      </trkpt>
      <trkpt lat="47.33868" lon="-1.30791">
        <ele>55</ele>
        <time>2020-06-01T16:25:57.000Z</time>
      </trkpt>
      <trkpt lat="47.33859" lon="-1.30801">
        <ele>55</ele>
        <time>2020-06-01T16:25:59.000Z</time>
      </trkpt>
      <trkpt lat="47.3385" lon="-1.3081">
        <ele>56</ele>
        <time>2020-06-01T16:26:01.000Z</time>
      </trkpt>
      <trkpt lat="47.33841" lon="-1.30819">
        <ele>56</ele>
        <time>2020-06-01T16:26:03.000Z</time>
      </trkpt>
      <trkpt lat="47.33832" lon="-1.30828">
        <ele>57</ele>
        <time>2020-06-01T16:26:05.000Z</time>
      </trkpt>
      <trkpt lat="47.33823" lon="-1.30837">
        <ele>56</ele>
        <time>2020-06-01T16:26:07.000Z</time>
      </trkpt>
      <trkpt lat="47.33814" lon="-1.30846">
        <ele>57</ele>
        <time>2020-06-01T16:26:09.000Z</time>
      </trkpt>
      <trkpt lat="47.33805" lon="-1.30853">
        <ele>57</ele>
        <time>2020-06-01T16:26:11.000Z</time>
      </trkpt>
      <trkpt lat="47.33796" lon="-1.30862">
        <ele>58</ele>
        <time>2020-06-01T16:26:13.000Z</time>
      </trkpt>
      <trkpt lat="47.33786" lon="-1.30872">
        <ele>58</ele>
        <time>2020-06-01T16:26:15.000Z</time>
      </trkpt>
      <trkpt lat="47.33778" lon="-1.3088">
        <ele>59</ele>
        <time>2020-06-01T16:26:17.000Z</time>
      </trkpt>
      <trkpt lat="47.3377" lon="-1.30888">
        <ele>59</ele>
        <time>2020-06-01T16:26:19.000Z</time>
      </trkpt>
      <trkpt lat="47.3376" lon="-1.30899">
        <ele>59</ele>
        <time>2020-06-01T16:26:22.000Z</time>
      </trkpt>
      <trkpt lat="47.33751" lon="-1.30909">
        <ele>59</ele>
        <time>2020-06-01T16:26:25.000Z</time>
      </trkpt>
      <trkpt lat="47.33741" lon="-1.30921">
        <ele>60</ele>
        <time>2020-06-01T16:26:28.000Z</time>
      </trkpt>
      <trkpt lat="47.33732" lon="-1.30931">
        <ele>60</ele>
        <time>2020-06-01T16:26:31.000Z</time>
      </trkpt>
      <trkpt lat="47.33723" lon="-1.30941">
        <ele>61</ele>
        <time>2020-06-01T16:26:35.000Z</time>
      </trkpt>
      <trkpt lat="47.33713" lon="-1.30953">
        <ele>60</ele>
        <time>2020-06-01T16:26:38.000Z</time>
      </trkpt>
      <trkpt lat="47.33706" lon="-1.30962">
        <ele>59</ele>
        <time>2020-06-01T16:26:40.000Z</time>
      </trkpt>
      <trkpt lat="47.33697" lon="-1.30975">
        <ele>59</ele>
        <time>2020-06-01T16:26:42.000Z</time>
      </trkpt>
      <trkpt lat="47.33687" lon="-1.30984">
        <ele>59</ele>
        <time>2020-06-01T16:26:44.000Z</time>
      </trkpt>
      <trkpt lat="47.33677" lon="-1.30993">
        <ele>59</ele>
        <time>2020-06-01T16:26:47.000Z</time>
      </trkpt>
      <trkpt lat="47.33673" lon="-1.31005">
        <ele>59</ele>
        <time>2020-06-01T16:26:49.000Z</time>
      </trkpt>
      <trkpt lat="47.33664" lon="-1.31019">
        <ele>59</ele>
        <time>2020-06-01T16:26:51.000Z</time>
      </trkpt>
      <trkpt lat="47.33654" lon="-1.31034">
        <ele>59</ele>
        <time>2020-06-01T16:26:53.000Z</time>
      </trkpt>
      <trkpt lat="47.33644" lon="-1.31049">
        <ele>58</ele>
        <time>2020-06-01T16:26:55.000Z</time>
      </trkpt>
      <trkpt lat="47.33635" lon="-1.31064">
        <ele>58</ele>
        <time>2020-06-01T16:26:57.000Z</time>
      </trkpt>
      <trkpt lat="47.33625" lon="-1.31078">
        <ele>58</ele>
        <time>2020-06-01T16:26:59.000Z</time>
      </trkpt>
      <trkpt lat="47.33615" lon="-1.31092">
        <ele>56</ele>
        <time>2020-06-01T16:27:01.000Z</time>
      </trkpt>
      <trkpt lat="47.33606" lon="-1.31108">
        <ele>54</ele>
        <time>2020-06-01T16:27:03.000Z</time>
      </trkpt>
      <trkpt lat="47.33596" lon="-1.31123">
        <ele>54</ele>
        <time>2020-06-01T16:27:05.000Z</time>
      </trkpt>
      <trkpt lat="47.33588" lon="-1.31138">
        <ele>53</ele>
        <time>2020-06-01T16:27:07.000Z</time>
      </trkpt>
      <trkpt lat="47.33578" lon="-1.31154">
        <ele>54</ele>
        <time>2020-06-01T16:27:09.000Z</time>
      </trkpt>
      <trkpt lat="47.33569" lon="-1.3117">
        <ele>54</ele>
        <time>2020-06-01T16:27:11.000Z</time>
      </trkpt>
      <trkpt lat="47.33561" lon="-1.31186">
        <ele>54</ele>
        <time>2020-06-01T16:27:13.000Z</time>
      </trkpt>
      <trkpt lat="47.33553" lon="-1.31202">
        <ele>55</ele>
        <time>2020-06-01T16:27:15.000Z</time>
      </trkpt>
      <trkpt lat="47.33545" lon="-1.31217">
        <ele>55</ele>
        <time>2020-06-01T16:27:17.000Z</time>
      </trkpt>
      <trkpt lat="47.33536" lon="-1.31232">
        <ele>55</ele>
        <time>2020-06-01T16:27:19.000Z</time>
      </trkpt>
      <trkpt lat="47.33527" lon="-1.31248">
        <ele>55</ele>
        <time>2020-06-01T16:27:21.000Z</time>
      </trkpt>
      <trkpt lat="47.3352" lon="-1.31263">
        <ele>54</ele>
        <time>2020-06-01T16:27:23.000Z</time>
      </trkpt>
      <trkpt lat="47.33513" lon="-1.31276">
        <ele>55</ele>
        <time>2020-06-01T16:27:25.000Z</time>
      </trkpt>
      <trkpt lat="47.33506" lon="-1.31288">
        <ele>55</ele>
        <time>2020-06-01T16:27:27.000Z</time>
      </trkpt>
      <trkpt lat="47.335" lon="-1.31303">
        <ele>55</ele>
        <time>2020-06-01T16:27:29.000Z</time>
      </trkpt>
      <trkpt lat="47.33493" lon="-1.31317">
        <ele>54</ele>
        <time>2020-06-01T16:27:31.000Z</time>
      </trkpt>
      <trkpt lat="47.33486" lon="-1.31331">
        <ele>54</ele>
        <time>2020-06-01T16:27:33.000Z</time>
      </trkpt>
      <trkpt lat="47.33478" lon="-1.31344">
        <ele>53</ele>
        <time>2020-06-01T16:27:35.000Z</time>
      </trkpt>
      <trkpt lat="47.33471" lon="-1.31357">
        <ele>53</ele>
        <time>2020-06-01T16:27:37.000Z</time>
      </trkpt>
      <trkpt lat="47.33466" lon="-1.31368">
        <ele>53</ele>
        <time>2020-06-01T16:27:39.000Z</time>
      </trkpt>
      <trkpt lat="47.3346" lon="-1.3138">
        <ele>54</ele>
        <time>2020-06-01T16:27:42.000Z</time>
      </trkpt>
      <trkpt lat="47.33452" lon="-1.31395">
        <ele>53</ele>
        <time>2020-06-01T16:27:45.000Z</time>
      </trkpt>
      <trkpt lat="47.33445" lon="-1.31409">
        <ele>53</ele>
        <time>2020-06-01T16:27:47.000Z</time>
      </trkpt>
      <trkpt lat="47.33437" lon="-1.31425">
        <ele>53</ele>
        <time>2020-06-01T16:27:49.000Z</time>
      </trkpt>
      <trkpt lat="47.3343" lon="-1.31439">
        <ele>53</ele>
        <time>2020-06-01T16:27:51.000Z</time>
      </trkpt>
      <trkpt lat="47.33422" lon="-1.31454">
        <ele>53</ele>
        <time>2020-06-01T16:27:53.000Z</time>
      </trkpt>
      <trkpt lat="47.33413" lon="-1.31469">
        <ele>53</ele>
        <time>2020-06-01T16:27:55.000Z</time>
      </trkpt>
      <trkpt lat="47.33405" lon="-1.31484">
        <ele>53</ele>
        <time>2020-06-01T16:27:57.000Z</time>
      </trkpt>
      <trkpt lat="47.33396" lon="-1.315">
        <ele>52</ele>
        <time>2020-06-01T16:27:59.000Z</time>
      </trkpt>
      <trkpt lat="47.33388" lon="-1.31517">
        <ele>52</ele>
        <time>2020-06-01T16:28:01.000Z</time>
      </trkpt>
      <trkpt lat="47.33379" lon="-1.31533">
        <ele>52</ele>
        <time>2020-06-01T16:28:03.000Z</time>
      </trkpt>
      <trkpt lat="47.3337" lon="-1.31549">
        <ele>52</ele>
        <time>2020-06-01T16:28:05.000Z</time>
      </trkpt>
      <trkpt lat="47.33362" lon="-1.31564">
        <ele>52</ele>
        <time>2020-06-01T16:28:07.000Z</time>
      </trkpt>
      <trkpt lat="47.33355" lon="-1.3158">
        <ele>52</ele>
        <time>2020-06-01T16:28:09.000Z</time>
      </trkpt>
      <trkpt lat="47.33347" lon="-1.31596">
        <ele>52</ele>
        <time>2020-06-01T16:28:11.000Z</time>
      </trkpt>
      <trkpt lat="47.3334" lon="-1.3161">
        <ele>52</ele>
        <time>2020-06-01T16:28:13.000Z</time>
      </trkpt>
      <trkpt lat="47.33333" lon="-1.31624">
        <ele>53</ele>
        <time>2020-06-01T16:28:15.000Z</time>
      </trkpt>
      <trkpt lat="47.33326" lon="-1.31637">
        <ele>52</ele>
        <time>2020-06-01T16:28:17.000Z</time>
      </trkpt>
      <trkpt lat="47.33318" lon="-1.31652">
        <ele>53</ele>
        <time>2020-06-01T16:28:19.000Z</time>
      </trkpt>
      <trkpt lat="47.3331" lon="-1.31668">
        <ele>53</ele>
        <time>2020-06-01T16:28:21.000Z</time>
      </trkpt>
      <trkpt lat="47.33302" lon="-1.31683">
        <ele>52</ele>
        <time>2020-06-01T16:28:23.000Z</time>
      </trkpt>
      <trkpt lat="47.33295" lon="-1.31698">
        <ele>51</ele>
        <time>2020-06-01T16:28:25.000Z</time>
      </trkpt>
      <trkpt lat="47.33288" lon="-1.31714">
        <ele>51</ele>
        <time>2020-06-01T16:28:27.000Z</time>
      </trkpt>
      <trkpt lat="47.3328" lon="-1.3173">
        <ele>51</ele>
        <time>2020-06-01T16:28:29.000Z</time>
      </trkpt>
      <trkpt lat="47.33271" lon="-1.31744">
        <ele>52</ele>
        <time>2020-06-01T16:28:31.000Z</time>
      </trkpt>
      <trkpt lat="47.33263" lon="-1.3176">
        <ele>52</ele>
        <time>2020-06-01T16:28:33.000Z</time>
      </trkpt>
      <trkpt lat="47.33255" lon="-1.31775">
        <ele>52</ele>
        <time>2020-06-01T16:28:35.000Z</time>
      </trkpt>
      <trkpt lat="47.33247" lon="-1.3179">
        <ele>52</ele>
        <time>2020-06-01T16:28:37.000Z</time>
      </trkpt>
      <trkpt lat="47.33239" lon="-1.31806">
        <ele>53</ele>
        <time>2020-06-01T16:28:39.000Z</time>
      </trkpt>
      <trkpt lat="47.3323" lon="-1.31821">
        <ele>52</ele>
        <time>2020-06-01T16:28:41.000Z</time>
      </trkpt>
      <trkpt lat="47.33222" lon="-1.31838">
        <ele>52</ele>
        <time>2020-06-01T16:28:43.000Z</time>
      </trkpt>
      <trkpt lat="47.33214" lon="-1.31853">
        <ele>52</ele>
        <time>2020-06-01T16:28:45.000Z</time>
      </trkpt>
      <trkpt lat="47.33206" lon="-1.31868">
        <ele>52</ele>
        <time>2020-06-01T16:28:47.000Z</time>
      </trkpt>
      <trkpt lat="47.33198" lon="-1.31885">
        <ele>51</ele>
        <time>2020-06-01T16:28:49.000Z</time>
      </trkpt>
      <trkpt lat="47.3319" lon="-1.31901">
        <ele>51</ele>
        <time>2020-06-01T16:28:51.000Z</time>
      </trkpt>
      <trkpt lat="47.33182" lon="-1.31917">
        <ele>51</ele>
        <time>2020-06-01T16:28:53.000Z</time>
      </trkpt>
      <trkpt lat="47.33175" lon="-1.31932">
        <ele>52</ele>
        <time>2020-06-01T16:28:55.000Z</time>
      </trkpt>
      <trkpt lat="47.33168" lon="-1.31947">
        <ele>52</ele>
        <time>2020-06-01T16:28:57.000Z</time>
      </trkpt>
      <trkpt lat="47.33161" lon="-1.31962">
        <ele>52</ele>
        <time>2020-06-01T16:28:59.000Z</time>
      </trkpt>
      <trkpt lat="47.33155" lon="-1.31974">
        <ele>52</ele>
        <time>2020-06-01T16:29:01.000Z</time>
      </trkpt>
      <trkpt lat="47.33145" lon="-1.31981">
        <ele>53</ele>
        <time>2020-06-01T16:29:03.000Z</time>
      </trkpt>
      <trkpt lat="47.33135" lon="-1.31988">
        <ele>54</ele>
        <time>2020-06-01T16:29:05.000Z</time>
      </trkpt>
      <trkpt lat="47.33124" lon="-1.31998">
        <ele>53</ele>
        <time>2020-06-01T16:29:07.000Z</time>
      </trkpt>
      <trkpt lat="47.33115" lon="-1.32009">
        <ele>54</ele>
        <time>2020-06-01T16:29:09.000Z</time>
      </trkpt>
      <trkpt lat="47.33107" lon="-1.32023">
        <ele>54</ele>
        <time>2020-06-01T16:29:11.000Z</time>
      </trkpt>
      <trkpt lat="47.33101" lon="-1.32035">
        <ele>54</ele>
        <time>2020-06-01T16:29:13.000Z</time>
      </trkpt>
      <trkpt lat="47.33094" lon="-1.32044">
        <ele>54</ele>
        <time>2020-06-01T16:29:15.000Z</time>
      </trkpt>
      <trkpt lat="47.33096" lon="-1.32062">
        <ele>54</ele>
        <time>2020-06-01T16:29:18.000Z</time>
      </trkpt>
      <trkpt lat="47.33094" lon="-1.32078">
        <ele>54</ele>
        <time>2020-06-01T16:29:20.000Z</time>
      </trkpt>
      <trkpt lat="47.3309" lon="-1.32096">
        <ele>54</ele>
        <time>2020-06-01T16:29:22.000Z</time>
      </trkpt>
      <trkpt lat="47.33081" lon="-1.32112">
        <ele>54</ele>
        <time>2020-06-01T16:29:24.000Z</time>
      </trkpt>
      <trkpt lat="47.33074" lon="-1.32128">
        <ele>55</ele>
        <time>2020-06-01T16:29:26.000Z</time>
      </trkpt>
      <trkpt lat="47.33065" lon="-1.32143">
        <ele>55</ele>
        <time>2020-06-01T16:29:28.000Z</time>
      </trkpt>
      <trkpt lat="47.33057" lon="-1.32159">
        <ele>54</ele>
        <time>2020-06-01T16:29:30.000Z</time>
      </trkpt>
      <trkpt lat="47.3305" lon="-1.32175">
        <ele>55</ele>
        <time>2020-06-01T16:29:32.000Z</time>
      </trkpt>
      <trkpt lat="47.33043" lon="-1.32189">
        <ele>55</ele>
        <time>2020-06-01T16:29:34.000Z</time>
      </trkpt>
      <trkpt lat="47.33037" lon="-1.32201">
        <ele>54</ele>
        <time>2020-06-01T16:29:36.000Z</time>
      </trkpt>
      <trkpt lat="47.33029" lon="-1.32216">
        <ele>54</ele>
        <time>2020-06-01T16:29:38.000Z</time>
      </trkpt>
      <trkpt lat="47.33021" lon="-1.32231">
        <ele>54</ele>
        <time>2020-06-01T16:29:40.000Z</time>
      </trkpt>
      <trkpt lat="47.33013" lon="-1.32247">
        <ele>54</ele>
        <time>2020-06-01T16:29:42.000Z</time>
      </trkpt>
      <trkpt lat="47.33004" lon="-1.32262">
        <ele>54</ele>
        <time>2020-06-01T16:29:44.000Z</time>
      </trkpt>
      <trkpt lat="47.32996" lon="-1.32277">
        <ele>54</ele>
        <time>2020-06-01T16:29:46.000Z</time>
      </trkpt>
      <trkpt lat="47.32988" lon="-1.32293">
        <ele>54</ele>
        <time>2020-06-01T16:29:48.000Z</time>
      </trkpt>
      <trkpt lat="47.32979" lon="-1.32309">
        <ele>54</ele>
        <time>2020-06-01T16:29:50.000Z</time>
      </trkpt>
      <trkpt lat="47.32972" lon="-1.32324">
        <ele>54</ele>
        <time>2020-06-01T16:29:52.000Z</time>
      </trkpt>
      <trkpt lat="47.32964" lon="-1.32339">
        <ele>54</ele>
        <time>2020-06-01T16:29:54.000Z</time>
      </trkpt>
      <trkpt lat="47.32956" lon="-1.32354">
        <ele>54</ele>
        <time>2020-06-01T16:29:56.000Z</time>
      </trkpt>
      <trkpt lat="47.32948" lon="-1.32369">
        <ele>54</ele>
        <time>2020-06-01T16:29:58.000Z</time>
      </trkpt>
      <trkpt lat="47.3294" lon="-1.32383">
        <ele>53</ele>
        <time>2020-06-01T16:30:00.000Z</time>
      </trkpt>
      <trkpt lat="47.32932" lon="-1.32398">
        <ele>53</ele>
        <time>2020-06-01T16:30:02.000Z</time>
      </trkpt>
      <trkpt lat="47.32925" lon="-1.32413">
        <ele>53</ele>
        <time>2020-06-01T16:30:04.000Z</time>
      </trkpt>
      <trkpt lat="47.32917" lon="-1.32428">
        <ele>53</ele>
        <time>2020-06-01T16:30:06.000Z</time>
      </trkpt>
      <trkpt lat="47.3291" lon="-1.32444">
        <ele>52</ele>
        <time>2020-06-01T16:30:08.000Z</time>
      </trkpt>
      <trkpt lat="47.32901" lon="-1.3246">
        <ele>52</ele>
        <time>2020-06-01T16:30:10.000Z</time>
      </trkpt>
      <trkpt lat="47.32893" lon="-1.32476">
        <ele>52</ele>
        <time>2020-06-01T16:30:12.000Z</time>
      </trkpt>
      <trkpt lat="47.32884" lon="-1.32492">
        <ele>52</ele>
        <time>2020-06-01T16:30:14.000Z</time>
      </trkpt>
      <trkpt lat="47.32877" lon="-1.32509">
        <ele>51</ele>
        <time>2020-06-01T16:30:16.000Z</time>
      </trkpt>
      <trkpt lat="47.32868" lon="-1.32526">
        <ele>51</ele>
        <time>2020-06-01T16:30:18.000Z</time>
      </trkpt>
      <trkpt lat="47.3286" lon="-1.32544">
        <ele>51</ele>
        <time>2020-06-01T16:30:20.000Z</time>
      </trkpt>
      <trkpt lat="47.32852" lon="-1.32561">
        <ele>50</ele>
        <time>2020-06-01T16:30:22.000Z</time>
      </trkpt>
      <trkpt lat="47.32844" lon="-1.32579">
        <ele>50</ele>
        <time>2020-06-01T16:30:24.000Z</time>
      </trkpt>
      <trkpt lat="47.32836" lon="-1.32595">
        <ele>51</ele>
        <time>2020-06-01T16:30:26.000Z</time>
      </trkpt>
      <trkpt lat="47.32827" lon="-1.32611">
        <ele>52</ele>
        <time>2020-06-01T16:30:28.000Z</time>
      </trkpt>
      <trkpt lat="47.32817" lon="-1.32625">
        <ele>52</ele>
        <time>2020-06-01T16:30:30.000Z</time>
      </trkpt>
      <trkpt lat="47.32807" lon="-1.3264">
        <ele>52</ele>
        <time>2020-06-01T16:30:32.000Z</time>
      </trkpt>
      <trkpt lat="47.32796" lon="-1.32654">
        <ele>53</ele>
        <time>2020-06-01T16:30:34.000Z</time>
      </trkpt>
      <trkpt lat="47.32787" lon="-1.32669">
        <ele>53</ele>
        <time>2020-06-01T16:30:36.000Z</time>
      </trkpt>
      <trkpt lat="47.3278" lon="-1.32687">
        <ele>54</ele>
        <time>2020-06-01T16:30:38.000Z</time>
      </trkpt>
      <trkpt lat="47.32773" lon="-1.32705">
        <ele>54</ele>
        <time>2020-06-01T16:30:40.000Z</time>
      </trkpt>
      <trkpt lat="47.32766" lon="-1.32723">
        <ele>54</ele>
        <time>2020-06-01T16:30:42.000Z</time>
      </trkpt>
      <trkpt lat="47.32757" lon="-1.3274">
        <ele>54</ele>
        <time>2020-06-01T16:30:44.000Z</time>
      </trkpt>
      <trkpt lat="47.32748" lon="-1.32757">
        <ele>54</ele>
        <time>2020-06-01T16:30:46.000Z</time>
      </trkpt>
      <trkpt lat="47.32739" lon="-1.32772">
        <ele>55</ele>
        <time>2020-06-01T16:30:48.000Z</time>
      </trkpt>
      <trkpt lat="47.3273" lon="-1.32787">
        <ele>56</ele>
        <time>2020-06-01T16:30:50.000Z</time>
      </trkpt>
      <trkpt lat="47.32721" lon="-1.32803">
        <ele>56</ele>
        <time>2020-06-01T16:30:52.000Z</time>
      </trkpt>
      <trkpt lat="47.32712" lon="-1.32818">
        <ele>56</ele>
        <time>2020-06-01T16:30:54.000Z</time>
      </trkpt>
      <trkpt lat="47.32702" lon="-1.32833">
        <ele>56</ele>
        <time>2020-06-01T16:30:56.000Z</time>
      </trkpt>
      <trkpt lat="47.32693" lon="-1.32847">
        <ele>55</ele>
        <time>2020-06-01T16:30:58.000Z</time>
      </trkpt>
      <trkpt lat="47.32683" lon="-1.32862">
        <ele>55</ele>
        <time>2020-06-01T16:31:00.000Z</time>
      </trkpt>
      <trkpt lat="47.32674" lon="-1.32876">
        <ele>55</ele>
        <time>2020-06-01T16:31:02.000Z</time>
      </trkpt>
      <trkpt lat="47.32664" lon="-1.3289">
        <ele>55</ele>
        <time>2020-06-01T16:31:04.000Z</time>
      </trkpt>
      <trkpt lat="47.32654" lon="-1.32903">
        <ele>55</ele>
        <time>2020-06-01T16:31:06.000Z</time>
      </trkpt>
      <trkpt lat="47.32645" lon="-1.32916">
        <ele>55</ele>
        <time>2020-06-01T16:31:08.000Z</time>
      </trkpt>
      <trkpt lat="47.32637" lon="-1.32926">
        <ele>55</ele>
        <time>2020-06-01T16:31:10.000Z</time>
      </trkpt>
      <trkpt lat="47.32625" lon="-1.32932">
        <ele>54</ele>
        <time>2020-06-01T16:31:13.000Z</time>
      </trkpt>
      <trkpt lat="47.32615" lon="-1.32943">
        <ele>54</ele>
        <time>2020-06-01T16:31:16.000Z</time>
      </trkpt>
      <trkpt lat="47.32609" lon="-1.32954">
        <ele>54</ele>
        <time>2020-06-01T16:31:18.000Z</time>
      </trkpt>
      <trkpt lat="47.32602" lon="-1.32965">
        <ele>53</ele>
        <time>2020-06-01T16:31:20.000Z</time>
      </trkpt>
      <trkpt lat="47.32595" lon="-1.32976">
        <ele>53</ele>
        <time>2020-06-01T16:31:22.000Z</time>
      </trkpt>
      <trkpt lat="47.32587" lon="-1.32989">
        <ele>54</ele>
        <time>2020-06-01T16:31:24.000Z</time>
      </trkpt>
      <trkpt lat="47.32579" lon="-1.32999">
        <ele>55</ele>
        <time>2020-06-01T16:31:26.000Z</time>
      </trkpt>
      <trkpt lat="47.32572" lon="-1.33008">
        <ele>55</ele>
        <time>2020-06-01T16:31:28.000Z</time>
      </trkpt>
      <trkpt lat="47.32563" lon="-1.33016">
        <ele>55</ele>
        <time>2020-06-01T16:31:30.000Z</time>
      </trkpt>
      <trkpt lat="47.32554" lon="-1.33025">
        <ele>56</ele>
        <time>2020-06-01T16:31:32.000Z</time>
      </trkpt>
      <trkpt lat="47.32544" lon="-1.33034">
        <ele>56</ele>
        <time>2020-06-01T16:31:34.000Z</time>
      </trkpt>
      <trkpt lat="47.32533" lon="-1.33042">
        <ele>54</ele>
        <time>2020-06-01T16:31:36.000Z</time>
      </trkpt>
      <trkpt lat="47.32522" lon="-1.33053">
        <ele>54</ele>
        <time>2020-06-01T16:31:38.000Z</time>
      </trkpt>
      <trkpt lat="47.32512" lon="-1.33065">
        <ele>53</ele>
        <time>2020-06-01T16:31:40.000Z</time>
      </trkpt>
      <trkpt lat="47.32501" lon="-1.33076">
        <ele>52</ele>
        <time>2020-06-01T16:31:42.000Z</time>
      </trkpt>
      <trkpt lat="47.32491" lon="-1.33086">
        <ele>52</ele>
        <time>2020-06-01T16:31:44.000Z</time>
      </trkpt>
      <trkpt lat="47.32481" lon="-1.33096">
        <ele>52</ele>
        <time>2020-06-01T16:31:46.000Z</time>
      </trkpt>
      <trkpt lat="47.32472" lon="-1.33105">
        <ele>52</ele>
        <time>2020-06-01T16:31:48.000Z</time>
      </trkpt>
      <trkpt lat="47.32463" lon="-1.33116">
        <ele>52</ele>
        <time>2020-06-01T16:31:50.000Z</time>
      </trkpt>
      <trkpt lat="47.32455" lon="-1.33127">
        <ele>52</ele>
        <time>2020-06-01T16:31:52.000Z</time>
      </trkpt>
      <trkpt lat="47.32447" lon="-1.33138">
        <ele>53</ele>
        <time>2020-06-01T16:31:54.000Z</time>
      </trkpt>
      <trkpt lat="47.32438" lon="-1.33145">
        <ele>53</ele>
        <time>2020-06-01T16:31:56.000Z</time>
      </trkpt>
      <trkpt lat="47.32426" lon="-1.33143">
        <ele>53</ele>
        <time>2020-06-01T16:31:59.000Z</time>
      </trkpt>
      <trkpt lat="47.32416" lon="-1.33147">
        <ele>54</ele>
        <time>2020-06-01T16:32:02.000Z</time>
      </trkpt>
      <trkpt lat="47.32409" lon="-1.33158">
        <ele>54</ele>
        <time>2020-06-01T16:32:04.000Z</time>
      </trkpt>
      <trkpt lat="47.32401" lon="-1.33169">
        <ele>54</ele>
        <time>2020-06-01T16:32:06.000Z</time>
      </trkpt>
      <trkpt lat="47.32393" lon="-1.33181">
        <ele>54</ele>
        <time>2020-06-01T16:32:08.000Z</time>
      </trkpt>
      <trkpt lat="47.32387" lon="-1.33192">
        <ele>55</ele>
        <time>2020-06-01T16:32:10.000Z</time>
      </trkpt>
      <trkpt lat="47.32381" lon="-1.33204">
        <ele>55</ele>
        <time>2020-06-01T16:32:12.000Z</time>
      </trkpt>
      <trkpt lat="47.32373" lon="-1.33218">
        <ele>54</ele>
        <time>2020-06-01T16:32:15.000Z</time>
      </trkpt>
      <trkpt lat="47.32366" lon="-1.33232">
        <ele>54</ele>
        <time>2020-06-01T16:32:18.000Z</time>
      </trkpt>
      <trkpt lat="47.3236" lon="-1.33243">
        <ele>54</ele>
        <time>2020-06-01T16:32:20.000Z</time>
      </trkpt>
      <trkpt lat="47.32353" lon="-1.33257">
        <ele>53</ele>
        <time>2020-06-01T16:32:22.000Z</time>
      </trkpt>
      <trkpt lat="47.32346" lon="-1.33273">
        <ele>53</ele>
        <time>2020-06-01T16:32:24.000Z</time>
      </trkpt>
      <trkpt lat="47.32337" lon="-1.33291">
        <ele>53</ele>
        <time>2020-06-01T16:32:26.000Z</time>
      </trkpt>
      <trkpt lat="47.3233" lon="-1.33308">
        <ele>52</ele>
        <time>2020-06-01T16:32:28.000Z</time>
      </trkpt>
      <trkpt lat="47.32322" lon="-1.33326">
        <ele>52</ele>
        <time>2020-06-01T16:32:30.000Z</time>
      </trkpt>
      <trkpt lat="47.32314" lon="-1.33344">
        <ele>53</ele>
        <time>2020-06-01T16:32:32.000Z</time>
      </trkpt>
      <trkpt lat="47.32306" lon="-1.33361">
        <ele>52</ele>
        <time>2020-06-01T16:32:34.000Z</time>
      </trkpt>
      <trkpt lat="47.32299" lon="-1.33378">
        <ele>52</ele>
        <time>2020-06-01T16:32:36.000Z</time>
      </trkpt>
      <trkpt lat="47.32291" lon="-1.33396">
        <ele>52</ele>
        <time>2020-06-01T16:32:38.000Z</time>
      </trkpt>
      <trkpt lat="47.32283" lon="-1.33414">
        <ele>51</ele>
        <time>2020-06-01T16:32:40.000Z</time>
      </trkpt>
      <trkpt lat="47.32274" lon="-1.3343">
        <ele>52</ele>
        <time>2020-06-01T16:32:42.000Z</time>
      </trkpt>
      <trkpt lat="47.32265" lon="-1.33447">
        <ele>52</ele>
        <time>2020-06-01T16:32:44.000Z</time>
      </trkpt>
      <trkpt lat="47.32256" lon="-1.33465">
        <ele>53</ele>
        <time>2020-06-01T16:32:46.000Z</time>
      </trkpt>
      <trkpt lat="47.32247" lon="-1.33482">
        <ele>53</ele>
        <time>2020-06-01T16:32:48.000Z</time>
      </trkpt>
      <trkpt lat="47.32239" lon="-1.335">
        <ele>53</ele>
        <time>2020-06-01T16:32:50.000Z</time>
      </trkpt>
      <trkpt lat="47.32231" lon="-1.33517">
        <ele>52</ele>
        <time>2020-06-01T16:32:52.000Z</time>
      </trkpt>
      <trkpt lat="47.32223" lon="-1.33534">
        <ele>52</ele>
        <time>2020-06-01T16:32:54.000Z</time>
      </trkpt>
      <trkpt lat="47.32215" lon="-1.33551">
        <ele>52</ele>
        <time>2020-06-01T16:32:56.000Z</time>
      </trkpt>
      <trkpt lat="47.32207" lon="-1.33569">
        <ele>53</ele>
        <time>2020-06-01T16:32:58.000Z</time>
      </trkpt>
      <trkpt lat="47.322" lon="-1.33585">
        <ele>53</ele>
        <time>2020-06-01T16:33:00.000Z</time>
      </trkpt>
      <trkpt lat="47.32194" lon="-1.33601">
        <ele>53</ele>
        <time>2020-06-01T16:33:02.000Z</time>
      </trkpt>
      <trkpt lat="47.32188" lon="-1.33617">
        <ele>54</ele>
        <time>2020-06-01T16:33:04.000Z</time>
      </trkpt>
      <trkpt lat="47.32183" lon="-1.33632">
        <ele>54</ele>
        <time>2020-06-01T16:33:06.000Z</time>
      </trkpt>
      <trkpt lat="47.32177" lon="-1.33643">
        <ele>54</ele>
        <time>2020-06-01T16:33:08.000Z</time>
      </trkpt>
      <trkpt lat="47.32173" lon="-1.33655">
        <ele>54</ele>
        <time>2020-06-01T16:33:10.000Z</time>
      </trkpt>
      <trkpt lat="47.32168" lon="-1.3367">
        <ele>53</ele>
        <time>2020-06-01T16:33:12.000Z</time>
      </trkpt>
      <trkpt lat="47.32162" lon="-1.33687">
        <ele>53</ele>
        <time>2020-06-01T16:33:14.000Z</time>
      </trkpt>
      <trkpt lat="47.32157" lon="-1.33704">
        <ele>54</ele>
        <time>2020-06-01T16:33:16.000Z</time>
      </trkpt>
      <trkpt lat="47.3215" lon="-1.33721">
        <ele>54</ele>
        <time>2020-06-01T16:33:18.000Z</time>
      </trkpt>
      <trkpt lat="47.32143" lon="-1.33738">
        <ele>53</ele>
        <time>2020-06-01T16:33:20.000Z</time>
      </trkpt>
      <trkpt lat="47.32136" lon="-1.33755">
        <ele>53</ele>
        <time>2020-06-01T16:33:22.000Z</time>
      </trkpt>
      <trkpt lat="47.32129" lon="-1.3377">
        <ele>53</ele>
        <time>2020-06-01T16:33:24.000Z</time>
      </trkpt>
      <trkpt lat="47.32121" lon="-1.33787">
        <ele>53</ele>
        <time>2020-06-01T16:33:26.000Z</time>
      </trkpt>
      <trkpt lat="47.32114" lon="-1.33804">
        <ele>52</ele>
        <time>2020-06-01T16:33:28.000Z</time>
      </trkpt>
      <trkpt lat="47.32106" lon="-1.3382">
        <ele>52</ele>
        <time>2020-06-01T16:33:30.000Z</time>
      </trkpt>
      <trkpt lat="47.32098" lon="-1.33836">
        <ele>52</ele>
        <time>2020-06-01T16:33:32.000Z</time>
      </trkpt>
      <trkpt lat="47.3209" lon="-1.33853">
        <ele>52</ele>
        <time>2020-06-01T16:33:34.000Z</time>
      </trkpt>
      <trkpt lat="47.32082" lon="-1.33868">
        <ele>52</ele>
        <time>2020-06-01T16:33:36.000Z</time>
      </trkpt>
      <trkpt lat="47.32074" lon="-1.33884">
        <ele>52</ele>
        <time>2020-06-01T16:33:38.000Z</time>
      </trkpt>
      <trkpt lat="47.32065" lon="-1.33899">
        <ele>52</ele>
        <time>2020-06-01T16:33:40.000Z</time>
      </trkpt>
      <trkpt lat="47.32057" lon="-1.33915">
        <ele>52</ele>
        <time>2020-06-01T16:33:42.000Z</time>
      </trkpt>
      <trkpt lat="47.32048" lon="-1.33929">
        <ele>52</ele>
        <time>2020-06-01T16:33:44.000Z</time>
      </trkpt>
      <trkpt lat="47.32039" lon="-1.33945">
        <ele>52</ele>
        <time>2020-06-01T16:33:46.000Z</time>
      </trkpt>
      <trkpt lat="47.32032" lon="-1.33958">
        <ele>53</ele>
        <time>2020-06-01T16:33:48.000Z</time>
      </trkpt>
      <trkpt lat="47.32026" lon="-1.3397">
        <ele>54</ele>
        <time>2020-06-01T16:33:50.000Z</time>
      </trkpt>
      <trkpt lat="47.3202" lon="-1.33981">
        <ele>54</ele>
        <time>2020-06-01T16:33:52.000Z</time>
      </trkpt>
      <trkpt lat="47.32013" lon="-1.33993">
        <ele>54</ele>
        <time>2020-06-01T16:33:54.000Z</time>
      </trkpt>
      <trkpt lat="47.32004" lon="-1.34006">
        <ele>55</ele>
        <time>2020-06-01T16:33:56.000Z</time>
      </trkpt>
      <trkpt lat="47.31995" lon="-1.3402">
        <ele>55</ele>
        <time>2020-06-01T16:33:58.000Z</time>
      </trkpt>
      <trkpt lat="47.31987" lon="-1.34033">
        <ele>55</ele>
        <time>2020-06-01T16:34:00.000Z</time>
      </trkpt>
      <trkpt lat="47.31978" lon="-1.34047">
        <ele>56</ele>
        <time>2020-06-01T16:34:02.000Z</time>
      </trkpt>
      <trkpt lat="47.31969" lon="-1.3406">
        <ele>55</ele>
        <time>2020-06-01T16:34:04.000Z</time>
      </trkpt>
      <trkpt lat="47.3196" lon="-1.34074">
        <ele>55</ele>
        <time>2020-06-01T16:34:06.000Z</time>
      </trkpt>
      <trkpt lat="47.31951" lon="-1.34087">
        <ele>56</ele>
        <time>2020-06-01T16:34:08.000Z</time>
      </trkpt>
      <trkpt lat="47.31943" lon="-1.34101">
        <ele>56</ele>
        <time>2020-06-01T16:34:10.000Z</time>
      </trkpt>
      <trkpt lat="47.31935" lon="-1.34115">
        <ele>56</ele>
        <time>2020-06-01T16:34:12.000Z</time>
      </trkpt>
      <trkpt lat="47.31927" lon="-1.34128">
        <ele>56</ele>
        <time>2020-06-01T16:34:14.000Z</time>
      </trkpt>
      <trkpt lat="47.31918" lon="-1.34141">
        <ele>55</ele>
        <time>2020-06-01T16:34:16.000Z</time>
      </trkpt>
      <trkpt lat="47.31909" lon="-1.34155">
        <ele>55</ele>
        <time>2020-06-01T16:34:18.000Z</time>
      </trkpt>
      <trkpt lat="47.319" lon="-1.34168">
        <ele>55</ele>
        <time>2020-06-01T16:34:20.000Z</time>
      </trkpt>
      <trkpt lat="47.3189" lon="-1.34181">
        <ele>54</ele>
        <time>2020-06-01T16:34:22.000Z</time>
      </trkpt>
      <trkpt lat="47.31879" lon="-1.34196">
        <ele>53</ele>
        <time>2020-06-01T16:34:24.000Z</time>
      </trkpt>
      <trkpt lat="47.31869" lon="-1.3421">
        <ele>53</ele>
        <time>2020-06-01T16:34:26.000Z</time>
      </trkpt>
      <trkpt lat="47.3186" lon="-1.34225">
        <ele>53</ele>
        <time>2020-06-01T16:34:28.000Z</time>
      </trkpt>
      <trkpt lat="47.3185" lon="-1.3424">
        <ele>53</ele>
        <time>2020-06-01T16:34:30.000Z</time>
      </trkpt>
      <trkpt lat="47.31841" lon="-1.34255">
        <ele>53</ele>
        <time>2020-06-01T16:34:32.000Z</time>
      </trkpt>
      <trkpt lat="47.31832" lon="-1.3427">
        <ele>52</ele>
        <time>2020-06-01T16:34:34.000Z</time>
      </trkpt>
      <trkpt lat="47.31823" lon="-1.34285">
        <ele>52</ele>
        <time>2020-06-01T16:34:36.000Z</time>
      </trkpt>
      <trkpt lat="47.31814" lon="-1.34299">
        <ele>52</ele>
        <time>2020-06-01T16:34:38.000Z</time>
      </trkpt>
      <trkpt lat="47.31804" lon="-1.34315">
        <ele>52</ele>
        <time>2020-06-01T16:34:40.000Z</time>
      </trkpt>
      <trkpt lat="47.31795" lon="-1.3433">
        <ele>52</ele>
        <time>2020-06-01T16:34:42.000Z</time>
      </trkpt>
      <trkpt lat="47.31785" lon="-1.34344">
        <ele>52</ele>
        <time>2020-06-01T16:34:44.000Z</time>
      </trkpt>
      <trkpt lat="47.31776" lon="-1.34358">
        <ele>53</ele>
        <time>2020-06-01T16:34:46.000Z</time>
      </trkpt>
      <trkpt lat="47.31767" lon="-1.34373">
        <ele>53</ele>
        <time>2020-06-01T16:34:48.000Z</time>
      </trkpt>
      <trkpt lat="47.31758" lon="-1.34386">
        <ele>53</ele>
        <time>2020-06-01T16:34:50.000Z</time>
      </trkpt>
      <trkpt lat="47.3175" lon="-1.34399">
        <ele>53</ele>
        <time>2020-06-01T16:34:52.000Z</time>
      </trkpt>
      <trkpt lat="47.3174" lon="-1.34413">
        <ele>52</ele>
        <time>2020-06-01T16:34:54.000Z</time>
      </trkpt>
      <trkpt lat="47.3173" lon="-1.34428">
        <ele>53</ele>
        <time>2020-06-01T16:34:56.000Z</time>
      </trkpt>
      <trkpt lat="47.31721" lon="-1.34443">
        <ele>53</ele>
        <time>2020-06-01T16:34:58.000Z</time>
      </trkpt>
      <trkpt lat="47.31712" lon="-1.34458">
        <ele>53</ele>
        <time>2020-06-01T16:35:00.000Z</time>
      </trkpt>
      <trkpt lat="47.31704" lon="-1.34473">
        <ele>53</ele>
        <time>2020-06-01T16:35:02.000Z</time>
      </trkpt>
      <trkpt lat="47.31695" lon="-1.34487">
        <ele>52</ele>
        <time>2020-06-01T16:35:04.000Z</time>
      </trkpt>
      <trkpt lat="47.31685" lon="-1.34502">
        <ele>53</ele>
        <time>2020-06-01T16:35:06.000Z</time>
      </trkpt>
      <trkpt lat="47.31676" lon="-1.34516">
        <ele>53</ele>
        <time>2020-06-01T16:35:08.000Z</time>
      </trkpt>
      <trkpt lat="47.31666" lon="-1.34529">
        <ele>53</ele>
        <time>2020-06-01T16:35:10.000Z</time>
      </trkpt>
      <trkpt lat="47.31657" lon="-1.34543">
        <ele>53</ele>
        <time>2020-06-01T16:35:12.000Z</time>
      </trkpt>
      <trkpt lat="47.31648" lon="-1.34558">
        <ele>52</ele>
        <time>2020-06-01T16:35:14.000Z</time>
      </trkpt>
      <trkpt lat="47.31642" lon="-1.34572">
        <ele>52</ele>
        <time>2020-06-01T16:35:16.000Z</time>
      </trkpt>
      <trkpt lat="47.31635" lon="-1.34585">
        <ele>52</ele>
        <time>2020-06-01T16:35:18.000Z</time>
      </trkpt>
      <trkpt lat="47.31627" lon="-1.34597">
        <ele>52</ele>
        <time>2020-06-01T16:35:20.000Z</time>
      </trkpt>
      <trkpt lat="47.31619" lon="-1.3461">
        <ele>52</ele>
        <time>2020-06-01T16:35:22.000Z</time>
      </trkpt>
      <trkpt lat="47.31611" lon="-1.34624">
        <ele>51</ele>
        <time>2020-06-01T16:35:24.000Z</time>
      </trkpt>
      <trkpt lat="47.31603" lon="-1.34637">
        <ele>51</ele>
        <time>2020-06-01T16:35:26.000Z</time>
      </trkpt>
      <trkpt lat="47.31594" lon="-1.34652">
        <ele>49</ele>
        <time>2020-06-01T16:35:28.000Z</time>
      </trkpt>
      <trkpt lat="47.31586" lon="-1.34666">
        <ele>48</ele>
        <time>2020-06-01T16:35:30.000Z</time>
      </trkpt>
      <trkpt lat="47.31577" lon="-1.3468">
        <ele>48</ele>
        <time>2020-06-01T16:35:32.000Z</time>
      </trkpt>
      <trkpt lat="47.31567" lon="-1.34695">
        <ele>48</ele>
        <time>2020-06-01T16:35:34.000Z</time>
      </trkpt>
      <trkpt lat="47.31558" lon="-1.34709">
        <ele>48</ele>
        <time>2020-06-01T16:35:36.000Z</time>
      </trkpt>
      <trkpt lat="47.3155" lon="-1.34723">
        <ele>48</ele>
        <time>2020-06-01T16:35:38.000Z</time>
      </trkpt>
      <trkpt lat="47.31541" lon="-1.34738">
        <ele>48</ele>
        <time>2020-06-01T16:35:40.000Z</time>
      </trkpt>
      <trkpt lat="47.31531" lon="-1.34752">
        <ele>49</ele>
        <time>2020-06-01T16:35:42.000Z</time>
      </trkpt>
      <trkpt lat="47.31522" lon="-1.34765">
        <ele>49</ele>
        <time>2020-06-01T16:35:44.000Z</time>
      </trkpt>
      <trkpt lat="47.31512" lon="-1.34777">
        <ele>50</ele>
        <time>2020-06-01T16:35:46.000Z</time>
      </trkpt>
      <trkpt lat="47.31504" lon="-1.3479">
        <ele>49</ele>
        <time>2020-06-01T16:35:48.000Z</time>
      </trkpt>
      <trkpt lat="47.31495" lon="-1.34806">
        <ele>49</ele>
        <time>2020-06-01T16:35:50.000Z</time>
      </trkpt>
      <trkpt lat="47.31486" lon="-1.34821">
        <ele>50</ele>
        <time>2020-06-01T16:35:52.000Z</time>
      </trkpt>
      <trkpt lat="47.31477" lon="-1.34835">
        <ele>50</ele>
        <time>2020-06-01T16:35:54.000Z</time>
      </trkpt>
      <trkpt lat="47.31468" lon="-1.3485">
        <ele>50</ele>
        <time>2020-06-01T16:35:56.000Z</time>
      </trkpt>
      <trkpt lat="47.31458" lon="-1.34865">
        <ele>50</ele>
        <time>2020-06-01T16:35:58.000Z</time>
      </trkpt>
      <trkpt lat="47.31449" lon="-1.34879">
        <ele>49</ele>
        <time>2020-06-01T16:36:00.000Z</time>
      </trkpt>
      <trkpt lat="47.3144" lon="-1.34892">
        <ele>49</ele>
        <time>2020-06-01T16:36:02.000Z</time>
      </trkpt>
      <trkpt lat="47.31431" lon="-1.34906">
        <ele>49</ele>
        <time>2020-06-01T16:36:04.000Z</time>
      </trkpt>
      <trkpt lat="47.31421" lon="-1.34921">
        <ele>49</ele>
        <time>2020-06-01T16:36:06.000Z</time>
      </trkpt>
      <trkpt lat="47.31412" lon="-1.34935">
        <ele>49</ele>
        <time>2020-06-01T16:36:08.000Z</time>
      </trkpt>
      <trkpt lat="47.31403" lon="-1.34949">
        <ele>50</ele>
        <time>2020-06-01T16:36:10.000Z</time>
      </trkpt>
      <trkpt lat="47.31395" lon="-1.34963">
        <ele>50</ele>
        <time>2020-06-01T16:36:12.000Z</time>
      </trkpt>
      <trkpt lat="47.31387" lon="-1.34977">
        <ele>50</ele>
        <time>2020-06-01T16:36:14.000Z</time>
      </trkpt>
      <trkpt lat="47.31379" lon="-1.34992">
        <ele>50</ele>
        <time>2020-06-01T16:36:16.000Z</time>
      </trkpt>
      <trkpt lat="47.31371" lon="-1.35007">
        <ele>50</ele>
        <time>2020-06-01T16:36:18.000Z</time>
      </trkpt>
      <trkpt lat="47.31362" lon="-1.35022">
        <ele>50</ele>
        <time>2020-06-01T16:36:20.000Z</time>
      </trkpt>
      <trkpt lat="47.31354" lon="-1.35037">
        <ele>50</ele>
        <time>2020-06-01T16:36:22.000Z</time>
      </trkpt>
      <trkpt lat="47.31346" lon="-1.3505">
        <ele>50</ele>
        <time>2020-06-01T16:36:24.000Z</time>
      </trkpt>
      <trkpt lat="47.31338" lon="-1.35063">
        <ele>50</ele>
        <time>2020-06-01T16:36:26.000Z</time>
      </trkpt>
      <trkpt lat="47.3133" lon="-1.35076">
        <ele>51</ele>
        <time>2020-06-01T16:36:28.000Z</time>
      </trkpt>
      <trkpt lat="47.31322" lon="-1.35085">
        <ele>51</ele>
        <time>2020-06-01T16:36:30.000Z</time>
      </trkpt>
      <trkpt lat="47.3131" lon="-1.35089">
        <ele>50</ele>
        <time>2020-06-01T16:36:32.000Z</time>
      </trkpt>
      <trkpt lat="47.31299" lon="-1.35098">
        <ele>51</ele>
        <time>2020-06-01T16:36:34.000Z</time>
      </trkpt>
      <trkpt lat="47.31291" lon="-1.35111">
        <ele>52</ele>
        <time>2020-06-01T16:36:36.000Z</time>
      </trkpt>
      <trkpt lat="47.31285" lon="-1.35125">
        <ele>52</ele>
        <time>2020-06-01T16:36:38.000Z</time>
      </trkpt>
      <trkpt lat="47.31279" lon="-1.35141">
        <ele>51</ele>
        <time>2020-06-01T16:36:40.000Z</time>
      </trkpt>
      <trkpt lat="47.31271" lon="-1.35157">
        <ele>52</ele>
        <time>2020-06-01T16:36:42.000Z</time>
      </trkpt>
      <trkpt lat="47.31263" lon="-1.35172">
        <ele>52</ele>
        <time>2020-06-01T16:36:44.000Z</time>
      </trkpt>
      <trkpt lat="47.31254" lon="-1.35187">
        <ele>52</ele>
        <time>2020-06-01T16:36:46.000Z</time>
      </trkpt>
      <trkpt lat="47.31244" lon="-1.35202">
        <ele>52</ele>
        <time>2020-06-01T16:36:48.000Z</time>
      </trkpt>
      <trkpt lat="47.31235" lon="-1.35217">
        <ele>52</ele>
        <time>2020-06-01T16:36:50.000Z</time>
      </trkpt>
      <trkpt lat="47.31226" lon="-1.35232">
        <ele>52</ele>
        <time>2020-06-01T16:36:52.000Z</time>
      </trkpt>
      <trkpt lat="47.31217" lon="-1.35247">
        <ele>52</ele>
        <time>2020-06-01T16:36:54.000Z</time>
      </trkpt>
      <trkpt lat="47.31207" lon="-1.35261">
        <ele>52</ele>
        <time>2020-06-01T16:36:56.000Z</time>
      </trkpt>
      <trkpt lat="47.31199" lon="-1.35276">
        <ele>52</ele>
        <time>2020-06-01T16:36:58.000Z</time>
      </trkpt>
      <trkpt lat="47.3119" lon="-1.3529">
        <ele>52</ele>
        <time>2020-06-01T16:37:00.000Z</time>
      </trkpt>
      <trkpt lat="47.31181" lon="-1.35305">
        <ele>52</ele>
        <time>2020-06-01T16:37:02.000Z</time>
      </trkpt>
      <trkpt lat="47.31171" lon="-1.3532">
        <ele>52</ele>
        <time>2020-06-01T16:37:04.000Z</time>
      </trkpt>
      <trkpt lat="47.31162" lon="-1.35334">
        <ele>52</ele>
        <time>2020-06-01T16:37:06.000Z</time>
      </trkpt>
      <trkpt lat="47.31152" lon="-1.35348">
        <ele>53</ele>
        <time>2020-06-01T16:37:08.000Z</time>
      </trkpt>
      <trkpt lat="47.31143" lon="-1.35363">
        <ele>53</ele>
        <time>2020-06-01T16:37:10.000Z</time>
      </trkpt>
      <trkpt lat="47.31133" lon="-1.35378">
        <ele>53</ele>
        <time>2020-06-01T16:37:12.000Z</time>
      </trkpt>
      <trkpt lat="47.31124" lon="-1.35392">
        <ele>53</ele>
        <time>2020-06-01T16:37:14.000Z</time>
      </trkpt>
      <trkpt lat="47.31114" lon="-1.35405">
        <ele>53</ele>
        <time>2020-06-01T16:37:16.000Z</time>
      </trkpt>
      <trkpt lat="47.31104" lon="-1.35419">
        <ele>53</ele>
        <time>2020-06-01T16:37:18.000Z</time>
      </trkpt>
      <trkpt lat="47.31094" lon="-1.35433">
        <ele>52</ele>
        <time>2020-06-01T16:37:20.000Z</time>
      </trkpt>
      <trkpt lat="47.31084" lon="-1.35448">
        <ele>52</ele>
        <time>2020-06-01T16:37:22.000Z</time>
      </trkpt>
      <trkpt lat="47.31074" lon="-1.35462">
        <ele>52</ele>
        <time>2020-06-01T16:37:24.000Z</time>
      </trkpt>
      <trkpt lat="47.31063" lon="-1.35476">
        <ele>52</ele>
        <time>2020-06-01T16:37:26.000Z</time>
      </trkpt>
      <trkpt lat="47.31052" lon="-1.35489">
        <ele>52</ele>
        <time>2020-06-01T16:37:28.000Z</time>
      </trkpt>
      <trkpt lat="47.31041" lon="-1.35502">
        <ele>52</ele>
        <time>2020-06-01T16:37:30.000Z</time>
      </trkpt>
      <trkpt lat="47.3103" lon="-1.35515">
        <ele>52</ele>
        <time>2020-06-01T16:37:32.000Z</time>
      </trkpt>
      <trkpt lat="47.31018" lon="-1.35528">
        <ele>52</ele>
        <time>2020-06-01T16:37:34.000Z</time>
      </trkpt>
      <trkpt lat="47.31007" lon="-1.3554">
        <ele>52</ele>
        <time>2020-06-01T16:37:36.000Z</time>
      </trkpt>
      <trkpt lat="47.30996" lon="-1.35554">
        <ele>52</ele>
        <time>2020-06-01T16:37:38.000Z</time>
      </trkpt>
      <trkpt lat="47.30984" lon="-1.35566">
        <ele>52</ele>
        <time>2020-06-01T16:37:40.000Z</time>
      </trkpt>
      <trkpt lat="47.30973" lon="-1.3558">
        <ele>52</ele>
        <time>2020-06-01T16:37:42.000Z</time>
      </trkpt>
      <trkpt lat="47.30962" lon="-1.35592">
        <ele>53</ele>
        <time>2020-06-01T16:37:44.000Z</time>
      </trkpt>
      <trkpt lat="47.30951" lon="-1.35605">
        <ele>53</ele>
        <time>2020-06-01T16:37:46.000Z</time>
      </trkpt>
      <trkpt lat="47.3094" lon="-1.35618">
        <ele>53</ele>
        <time>2020-06-01T16:37:48.000Z</time>
      </trkpt>
      <trkpt lat="47.30929" lon="-1.3563">
        <ele>53</ele>
        <time>2020-06-01T16:37:50.000Z</time>
      </trkpt>
      <trkpt lat="47.30918" lon="-1.35643">
        <ele>53</ele>
        <time>2020-06-01T16:37:52.000Z</time>
      </trkpt>
      <trkpt lat="47.30907" lon="-1.35655">
        <ele>52</ele>
        <time>2020-06-01T16:37:54.000Z</time>
      </trkpt>
      <trkpt lat="47.30896" lon="-1.35669">
        <ele>51</ele>
        <time>2020-06-01T16:37:56.000Z</time>
      </trkpt>
      <trkpt lat="47.30884" lon="-1.35683">
        <ele>51</ele>
        <time>2020-06-01T16:37:58.000Z</time>
      </trkpt>
      <trkpt lat="47.30872" lon="-1.35697">
        <ele>51</ele>
        <time>2020-06-01T16:38:00.000Z</time>
      </trkpt>
      <trkpt lat="47.3086" lon="-1.3571">
        <ele>52</ele>
        <time>2020-06-01T16:38:02.000Z</time>
      </trkpt>
      <trkpt lat="47.30849" lon="-1.35723">
        <ele>52</ele>
        <time>2020-06-01T16:38:04.000Z</time>
      </trkpt>
      <trkpt lat="47.30838" lon="-1.35737">
        <ele>52</ele>
        <time>2020-06-01T16:38:06.000Z</time>
      </trkpt>
      <trkpt lat="47.30826" lon="-1.3575">
        <ele>52</ele>
        <time>2020-06-01T16:38:08.000Z</time>
      </trkpt>
      <trkpt lat="47.30815" lon="-1.35763">
        <ele>52</ele>
        <time>2020-06-01T16:38:10.000Z</time>
      </trkpt>
      <trkpt lat="47.30805" lon="-1.35776">
        <ele>52</ele>
        <time>2020-06-01T16:38:12.000Z</time>
      </trkpt>
      <trkpt lat="47.30794" lon="-1.35789">
        <ele>52</ele>
        <time>2020-06-01T16:38:14.000Z</time>
      </trkpt>
      <trkpt lat="47.30784" lon="-1.35803">
        <ele>52</ele>
        <time>2020-06-01T16:38:16.000Z</time>
      </trkpt>
      <trkpt lat="47.30773" lon="-1.35816">
        <ele>51</ele>
        <time>2020-06-01T16:38:18.000Z</time>
      </trkpt>
      <trkpt lat="47.30762" lon="-1.3583">
        <ele>51</ele>
        <time>2020-06-01T16:38:20.000Z</time>
      </trkpt>
      <trkpt lat="47.3075" lon="-1.35842">
        <ele>52</ele>
        <time>2020-06-01T16:38:22.000Z</time>
      </trkpt>
      <trkpt lat="47.30739" lon="-1.35855">
        <ele>52</ele>
        <time>2020-06-01T16:38:24.000Z</time>
      </trkpt>
      <trkpt lat="47.30728" lon="-1.35867">
        <ele>52</ele>
        <time>2020-06-01T16:38:26.000Z</time>
      </trkpt>
      <trkpt lat="47.30717" lon="-1.35878">
        <ele>52</ele>
        <time>2020-06-01T16:38:28.000Z</time>
      </trkpt>
      <trkpt lat="47.30707" lon="-1.3589">
        <ele>51</ele>
        <time>2020-06-01T16:38:30.000Z</time>
      </trkpt>
      <trkpt lat="47.30696" lon="-1.35901">
        <ele>52</ele>
        <time>2020-06-01T16:38:32.000Z</time>
      </trkpt>
      <trkpt lat="47.30686" lon="-1.35913">
        <ele>52</ele>
        <time>2020-06-01T16:38:34.000Z</time>
      </trkpt>
      <trkpt lat="47.30675" lon="-1.35927">
        <ele>52</ele>
        <time>2020-06-01T16:38:36.000Z</time>
      </trkpt>
      <trkpt lat="47.30665" lon="-1.3594">
        <ele>52</ele>
        <time>2020-06-01T16:38:38.000Z</time>
      </trkpt>
      <trkpt lat="47.30654" lon="-1.35952">
        <ele>52</ele>
        <time>2020-06-01T16:38:40.000Z</time>
      </trkpt>
      <trkpt lat="47.30644" lon="-1.35964">
        <ele>52</ele>
        <time>2020-06-01T16:38:42.000Z</time>
      </trkpt>
      <trkpt lat="47.30634" lon="-1.35977">
        <ele>51</ele>
        <time>2020-06-01T16:38:44.000Z</time>
      </trkpt>
      <trkpt lat="47.30624" lon="-1.35989">
        <ele>51</ele>
        <time>2020-06-01T16:38:46.000Z</time>
      </trkpt>
      <trkpt lat="47.30614" lon="-1.36001">
        <ele>52</ele>
        <time>2020-06-01T16:38:48.000Z</time>
      </trkpt>
      <trkpt lat="47.30603" lon="-1.36011">
        <ele>52</ele>
        <time>2020-06-01T16:38:50.000Z</time>
      </trkpt>
      <trkpt lat="47.30593" lon="-1.36021">
        <ele>52</ele>
        <time>2020-06-01T16:38:52.000Z</time>
      </trkpt>
      <trkpt lat="47.30585" lon="-1.36031">
        <ele>52</ele>
        <time>2020-06-01T16:38:54.000Z</time>
      </trkpt>
      <trkpt lat="47.30581" lon="-1.36047">
        <ele>52</ele>
        <time>2020-06-01T16:38:57.000Z</time>
      </trkpt>
      <trkpt lat="47.30572" lon="-1.36062">
        <ele>52</ele>
        <time>2020-06-01T16:39:00.000Z</time>
      </trkpt>
      <trkpt lat="47.30562" lon="-1.36075">
        <ele>51</ele>
        <time>2020-06-01T16:39:02.000Z</time>
      </trkpt>
      <trkpt lat="47.30551" lon="-1.36088">
        <ele>51</ele>
        <time>2020-06-01T16:39:04.000Z</time>
      </trkpt>
      <trkpt lat="47.30542" lon="-1.36101">
        <ele>52</ele>
        <time>2020-06-01T16:39:06.000Z</time>
      </trkpt>
      <trkpt lat="47.30532" lon="-1.36114">
        <ele>51</ele>
        <time>2020-06-01T16:39:08.000Z</time>
      </trkpt>
      <trkpt lat="47.30523" lon="-1.36129">
        <ele>50</ele>
        <time>2020-06-01T16:39:10.000Z</time>
      </trkpt>
      <trkpt lat="47.30514" lon="-1.36144">
        <ele>50</ele>
        <time>2020-06-01T16:39:12.000Z</time>
      </trkpt>
      <trkpt lat="47.30505" lon="-1.36159">
        <ele>50</ele>
        <time>2020-06-01T16:39:14.000Z</time>
      </trkpt>
      <trkpt lat="47.30497" lon="-1.36173">
        <ele>50</ele>
        <time>2020-06-01T16:39:16.000Z</time>
      </trkpt>
      <trkpt lat="47.30488" lon="-1.36188">
        <ele>50</ele>
        <time>2020-06-01T16:39:18.000Z</time>
      </trkpt>
      <trkpt lat="47.30481" lon="-1.36204">
        <ele>50</ele>
        <time>2020-06-01T16:39:20.000Z</time>
      </trkpt>
      <trkpt lat="47.30473" lon="-1.36221">
        <ele>50</ele>
        <time>2020-06-01T16:39:22.000Z</time>
      </trkpt>
      <trkpt lat="47.30465" lon="-1.36237">
        <ele>50</ele>
        <time>2020-06-01T16:39:24.000Z</time>
      </trkpt>
      <trkpt lat="47.30458" lon="-1.36253">
        <ele>51</ele>
        <time>2020-06-01T16:39:26.000Z</time>
      </trkpt>
      <trkpt lat="47.3045" lon="-1.36269">
        <ele>51</ele>
        <time>2020-06-01T16:39:28.000Z</time>
      </trkpt>
      <trkpt lat="47.30441" lon="-1.36285">
        <ele>51</ele>
        <time>2020-06-01T16:39:30.000Z</time>
      </trkpt>
      <trkpt lat="47.30433" lon="-1.36301">
        <ele>51</ele>
        <time>2020-06-01T16:39:32.000Z</time>
      </trkpt>
      <trkpt lat="47.30425" lon="-1.36318">
        <ele>51</ele>
        <time>2020-06-01T16:39:34.000Z</time>
      </trkpt>
      <trkpt lat="47.30417" lon="-1.36333">
        <ele>51</ele>
        <time>2020-06-01T16:39:36.000Z</time>
      </trkpt>
      <trkpt lat="47.30409" lon="-1.36349">
        <ele>50</ele>
        <time>2020-06-01T16:39:38.000Z</time>
      </trkpt>
      <trkpt lat="47.30402" lon="-1.36366">
        <ele>50</ele>
        <time>2020-06-01T16:39:40.000Z</time>
      </trkpt>
      <trkpt lat="47.30393" lon="-1.36382">
        <ele>51</ele>
        <time>2020-06-01T16:39:42.000Z</time>
      </trkpt>
      <trkpt lat="47.30386" lon="-1.36397">
        <ele>50</ele>
        <time>2020-06-01T16:39:44.000Z</time>
      </trkpt>
      <trkpt lat="47.30378" lon="-1.36413">
        <ele>50</ele>
        <time>2020-06-01T16:39:46.000Z</time>
      </trkpt>
      <trkpt lat="47.30371" lon="-1.3643">
        <ele>50</ele>
        <time>2020-06-01T16:39:48.000Z</time>
      </trkpt>
      <trkpt lat="47.30364" lon="-1.36445">
        <ele>50</ele>
        <time>2020-06-01T16:39:50.000Z</time>
      </trkpt>
      <trkpt lat="47.30356" lon="-1.36461">
        <ele>49</ele>
        <time>2020-06-01T16:39:52.000Z</time>
      </trkpt>
      <trkpt lat="47.30348" lon="-1.36477">
        <ele>50</ele>
        <time>2020-06-01T16:39:54.000Z</time>
      </trkpt>
      <trkpt lat="47.3034" lon="-1.36493">
        <ele>50</ele>
        <time>2020-06-01T16:39:56.000Z</time>
      </trkpt>
      <trkpt lat="47.30332" lon="-1.3651">
        <ele>50</ele>
        <time>2020-06-01T16:39:58.000Z</time>
      </trkpt>
      <trkpt lat="47.30323" lon="-1.36526">
        <ele>50</ele>
        <time>2020-06-01T16:40:00.000Z</time>
      </trkpt>
      <trkpt lat="47.30315" lon="-1.36542">
        <ele>50</ele>
        <time>2020-06-01T16:40:02.000Z</time>
      </trkpt>
      <trkpt lat="47.30307" lon="-1.36558">
        <ele>50</ele>
        <time>2020-06-01T16:40:04.000Z</time>
      </trkpt>
      <trkpt lat="47.303" lon="-1.36575">
        <ele>49</ele>
        <time>2020-06-01T16:40:06.000Z</time>
      </trkpt>
      <trkpt lat="47.30292" lon="-1.36591">
        <ele>50</ele>
        <time>2020-06-01T16:40:08.000Z</time>
      </trkpt>
      <trkpt lat="47.30284" lon="-1.36607">
        <ele>50</ele>
        <time>2020-06-01T16:40:10.000Z</time>
      </trkpt>
      <trkpt lat="47.30276" lon="-1.36623">
        <ele>50</ele>
        <time>2020-06-01T16:40:12.000Z</time>
      </trkpt>
      <trkpt lat="47.30269" lon="-1.36638">
        <ele>51</ele>
        <time>2020-06-01T16:40:14.000Z</time>
      </trkpt>
      <trkpt lat="47.30261" lon="-1.36653">
        <ele>50</ele>
        <time>2020-06-01T16:40:16.000Z</time>
      </trkpt>
      <trkpt lat="47.30254" lon="-1.36669">
        <ele>50</ele>
        <time>2020-06-01T16:40:18.000Z</time>
      </trkpt>
      <trkpt lat="47.30246" lon="-1.36685">
        <ele>50</ele>
        <time>2020-06-01T16:40:20.000Z</time>
      </trkpt>
      <trkpt lat="47.30238" lon="-1.36702">
        <ele>50</ele>
        <time>2020-06-01T16:40:22.000Z</time>
      </trkpt>
      <trkpt lat="47.3023" lon="-1.36718">
        <ele>50</ele>
        <time>2020-06-01T16:40:24.000Z</time>
      </trkpt>
      <trkpt lat="47.30223" lon="-1.36734">
        <ele>50</ele>
        <time>2020-06-01T16:40:26.000Z</time>
      </trkpt>
      <trkpt lat="47.30216" lon="-1.36749">
        <ele>50</ele>
        <time>2020-06-01T16:40:28.000Z</time>
      </trkpt>
      <trkpt lat="47.30208" lon="-1.36765">
        <ele>51</ele>
        <time>2020-06-01T16:40:30.000Z</time>
      </trkpt>
      <trkpt lat="47.30201" lon="-1.36781">
        <ele>50</ele>
        <time>2020-06-01T16:40:32.000Z</time>
      </trkpt>
      <trkpt lat="47.30194" lon="-1.36796">
        <ele>50</ele>
        <time>2020-06-01T16:40:34.000Z</time>
      </trkpt>
      <trkpt lat="47.30186" lon="-1.36812">
        <ele>50</ele>
        <time>2020-06-01T16:40:36.000Z</time>
      </trkpt>
      <trkpt lat="47.30178" lon="-1.36828">
        <ele>51</ele>
        <time>2020-06-01T16:40:38.000Z</time>
      </trkpt>
      <trkpt lat="47.30171" lon="-1.36843">
        <ele>51</ele>
        <time>2020-06-01T16:40:40.000Z</time>
      </trkpt>
      <trkpt lat="47.30163" lon="-1.36859">
        <ele>51</ele>
        <time>2020-06-01T16:40:42.000Z</time>
      </trkpt>
      <trkpt lat="47.30156" lon="-1.36874">
        <ele>51</ele>
        <time>2020-06-01T16:40:44.000Z</time>
      </trkpt>
      <trkpt lat="47.30148" lon="-1.3689">
        <ele>50</ele>
        <time>2020-06-01T16:40:46.000Z</time>
      </trkpt>
      <trkpt lat="47.30141" lon="-1.36906">
        <ele>50</ele>
        <time>2020-06-01T16:40:48.000Z</time>
      </trkpt>
      <trkpt lat="47.30133" lon="-1.36923">
        <ele>50</ele>
        <time>2020-06-01T16:40:50.000Z</time>
      </trkpt>
      <trkpt lat="47.30125" lon="-1.36939">
        <ele>50</ele>
        <time>2020-06-01T16:40:52.000Z</time>
      </trkpt>
      <trkpt lat="47.30118" lon="-1.36955">
        <ele>50</ele>
        <time>2020-06-01T16:40:54.000Z</time>
      </trkpt>
      <trkpt lat="47.30112" lon="-1.36973">
        <ele>51</ele>
        <time>2020-06-01T16:40:56.000Z</time>
      </trkpt>
      <trkpt lat="47.30105" lon="-1.36987">
        <ele>51</ele>
        <time>2020-06-01T16:40:58.000Z</time>
      </trkpt>
      <trkpt lat="47.30097" lon="-1.37003">
        <ele>51</ele>
        <time>2020-06-01T16:41:00.000Z</time>
      </trkpt>
      <trkpt lat="47.3009" lon="-1.37019">
        <ele>51</ele>
        <time>2020-06-01T16:41:02.000Z</time>
      </trkpt>
      <trkpt lat="47.30082" lon="-1.37034">
        <ele>51</ele>
        <time>2020-06-01T16:41:04.000Z</time>
      </trkpt>
      <trkpt lat="47.30074" lon="-1.37049">
        <ele>51</ele>
        <time>2020-06-01T16:41:06.000Z</time>
      </trkpt>
      <trkpt lat="47.30065" lon="-1.37064">
        <ele>51</ele>
        <time>2020-06-01T16:41:08.000Z</time>
      </trkpt>
      <trkpt lat="47.30057" lon="-1.37079">
        <ele>51</ele>
        <time>2020-06-01T16:41:10.000Z</time>
      </trkpt>
      <trkpt lat="47.30049" lon="-1.37094">
        <ele>50</ele>
        <time>2020-06-01T16:41:12.000Z</time>
      </trkpt>
      <trkpt lat="47.3004" lon="-1.37108">
        <ele>51</ele>
        <time>2020-06-01T16:41:14.000Z</time>
      </trkpt>
      <trkpt lat="47.30032" lon="-1.37122">
        <ele>51</ele>
        <time>2020-06-01T16:41:16.000Z</time>
      </trkpt>
      <trkpt lat="47.30024" lon="-1.37137">
        <ele>51</ele>
        <time>2020-06-01T16:41:18.000Z</time>
      </trkpt>
      <trkpt lat="47.30014" lon="-1.37151">
        <ele>51</ele>
        <time>2020-06-01T16:41:20.000Z</time>
      </trkpt>
      <trkpt lat="47.30005" lon="-1.37165">
        <ele>50</ele>
        <time>2020-06-01T16:41:22.000Z</time>
      </trkpt>
      <trkpt lat="47.29996" lon="-1.37178">
        <ele>50</ele>
        <time>2020-06-01T16:41:24.000Z</time>
      </trkpt>
      <trkpt lat="47.29987" lon="-1.37192">
        <ele>50</ele>
        <time>2020-06-01T16:41:26.000Z</time>
      </trkpt>
      <trkpt lat="47.29978" lon="-1.37205">
        <ele>50</ele>
        <time>2020-06-01T16:41:28.000Z</time>
      </trkpt>
      <trkpt lat="47.29969" lon="-1.37219">
        <ele>50</ele>
        <time>2020-06-01T16:41:30.000Z</time>
      </trkpt>
      <trkpt lat="47.2996" lon="-1.37232">
        <ele>50</ele>
        <time>2020-06-01T16:41:32.000Z</time>
      </trkpt>
      <trkpt lat="47.29952" lon="-1.37246">
        <ele>50</ele>
        <time>2020-06-01T16:41:34.000Z</time>
      </trkpt>
      <trkpt lat="47.29937" lon="-1.37268">
        <ele>49</ele>
        <time>2020-06-01T16:41:37.000Z</time>
      </trkpt>
      <trkpt lat="47.29927" lon="-1.37284">
        <ele>49</ele>
        <time>2020-06-01T16:41:39.000Z</time>
      </trkpt>
      <trkpt lat="47.29918" lon="-1.37299">
        <ele>50</ele>
        <time>2020-06-01T16:41:41.000Z</time>
      </trkpt>
      <trkpt lat="47.29908" lon="-1.37314">
        <ele>49</ele>
        <time>2020-06-01T16:41:43.000Z</time>
      </trkpt>
      <trkpt lat="47.29894" lon="-1.37337">
        <ele>50</ele>
        <time>2020-06-01T16:41:46.000Z</time>
      </trkpt>
      <trkpt lat="47.29884" lon="-1.37352">
        <ele>50</ele>
        <time>2020-06-01T16:41:48.000Z</time>
      </trkpt>
      <trkpt lat="47.29869" lon="-1.37374">
        <ele>50</ele>
        <time>2020-06-01T16:41:51.000Z</time>
      </trkpt>
      <trkpt lat="47.2986" lon="-1.37389">
        <ele>50</ele>
        <time>2020-06-01T16:41:53.000Z</time>
      </trkpt>
      <trkpt lat="47.2985" lon="-1.37404">
        <ele>50</ele>
        <time>2020-06-01T16:41:55.000Z</time>
      </trkpt>
      <trkpt lat="47.29841" lon="-1.37418">
        <ele>50</ele>
        <time>2020-06-01T16:41:57.000Z</time>
      </trkpt>
      <trkpt lat="47.29831" lon="-1.37433">
        <ele>50</ele>
        <time>2020-06-01T16:41:59.000Z</time>
      </trkpt>
      <trkpt lat="47.29818" lon="-1.37453">
        <ele>51</ele>
        <time>2020-06-01T16:42:02.000Z</time>
      </trkpt>
      <trkpt lat="47.29809" lon="-1.37468">
        <ele>50</ele>
        <time>2020-06-01T16:42:04.000Z</time>
      </trkpt>
      <trkpt lat="47.298" lon="-1.37483">
        <ele>49</ele>
        <time>2020-06-01T16:42:06.000Z</time>
      </trkpt>
      <trkpt lat="47.29788" lon="-1.37506">
        <ele>49</ele>
        <time>2020-06-01T16:42:09.000Z</time>
      </trkpt>
      <trkpt lat="47.29779" lon="-1.37521">
        <ele>49</ele>
        <time>2020-06-01T16:42:11.000Z</time>
      </trkpt>
      <trkpt lat="47.29771" lon="-1.37537">
        <ele>49</ele>
        <time>2020-06-01T16:42:13.000Z</time>
      </trkpt>
      <trkpt lat="47.29763" lon="-1.37554">
        <ele>49</ele>
        <time>2020-06-01T16:42:15.000Z</time>
      </trkpt>
      <trkpt lat="47.29754" lon="-1.3757">
        <ele>49</ele>
        <time>2020-06-01T16:42:17.000Z</time>
      </trkpt>
      <trkpt lat="47.29746" lon="-1.37585">
        <ele>49</ele>
        <time>2020-06-01T16:42:19.000Z</time>
      </trkpt>
      <trkpt lat="47.29738" lon="-1.37601">
        <ele>49</ele>
        <time>2020-06-01T16:42:21.000Z</time>
      </trkpt>
      <trkpt lat="47.29729" lon="-1.37617">
        <ele>49</ele>
        <time>2020-06-01T16:42:23.000Z</time>
      </trkpt>
      <trkpt lat="47.29721" lon="-1.37634">
        <ele>50</ele>
        <time>2020-06-01T16:42:25.000Z</time>
      </trkpt>
      <trkpt lat="47.29708" lon="-1.37658">
        <ele>50</ele>
        <time>2020-06-01T16:42:28.000Z</time>
      </trkpt>
      <trkpt lat="47.29699" lon="-1.37676">
        <ele>51</ele>
        <time>2020-06-01T16:42:30.000Z</time>
      </trkpt>
      <trkpt lat="47.2969" lon="-1.37692">
        <ele>51</ele>
        <time>2020-06-01T16:42:32.000Z</time>
      </trkpt>
      <trkpt lat="47.29682" lon="-1.37707">
        <ele>52</ele>
        <time>2020-06-01T16:42:34.000Z</time>
      </trkpt>
      <trkpt lat="47.29674" lon="-1.37722">
        <ele>52</ele>
        <time>2020-06-01T16:42:36.000Z</time>
      </trkpt>
      <trkpt lat="47.29666" lon="-1.37739">
        <ele>52</ele>
        <time>2020-06-01T16:42:38.000Z</time>
      </trkpt>
      <trkpt lat="47.29658" lon="-1.37755">
        <ele>52</ele>
        <time>2020-06-01T16:42:40.000Z</time>
      </trkpt>
      <trkpt lat="47.29649" lon="-1.37772">
        <ele>52</ele>
        <time>2020-06-01T16:42:42.000Z</time>
      </trkpt>
      <trkpt lat="47.29637" lon="-1.37796">
        <ele>51</ele>
        <time>2020-06-01T16:42:45.000Z</time>
      </trkpt>
      <trkpt lat="47.29628" lon="-1.37812">
        <ele>51</ele>
        <time>2020-06-01T16:42:47.000Z</time>
      </trkpt>
      <trkpt lat="47.29619" lon="-1.37828">
        <ele>52</ele>
        <time>2020-06-01T16:42:49.000Z</time>
      </trkpt>
      <trkpt lat="47.29611" lon="-1.37844">
        <ele>51</ele>
        <time>2020-06-01T16:42:51.000Z</time>
      </trkpt>
      <trkpt lat="47.29602" lon="-1.37861">
        <ele>51</ele>
        <time>2020-06-01T16:42:53.000Z</time>
      </trkpt>
      <trkpt lat="47.29594" lon="-1.37877">
        <ele>52</ele>
        <time>2020-06-01T16:42:55.000Z</time>
      </trkpt>
      <trkpt lat="47.29587" lon="-1.37895">
        <ele>52</ele>
        <time>2020-06-01T16:42:57.000Z</time>
      </trkpt>
      <trkpt lat="47.29579" lon="-1.37912">
        <ele>53</ele>
        <time>2020-06-01T16:42:59.000Z</time>
      </trkpt>
      <trkpt lat="47.29572" lon="-1.37927">
        <ele>53</ele>
        <time>2020-06-01T16:43:01.000Z</time>
      </trkpt>
      <trkpt lat="47.29564" lon="-1.37944">
        <ele>54</ele>
        <time>2020-06-01T16:43:03.000Z</time>
      </trkpt>
      <trkpt lat="47.29558" lon="-1.37962">
        <ele>54</ele>
        <time>2020-06-01T16:43:05.000Z</time>
      </trkpt>
      <trkpt lat="47.29552" lon="-1.3798">
        <ele>54</ele>
        <time>2020-06-01T16:43:07.000Z</time>
      </trkpt>
      <trkpt lat="47.29545" lon="-1.37998">
        <ele>54</ele>
        <time>2020-06-01T16:43:09.000Z</time>
      </trkpt>
      <trkpt lat="47.29538" lon="-1.38016">
        <ele>54</ele>
        <time>2020-06-01T16:43:11.000Z</time>
      </trkpt>
      <trkpt lat="47.29532" lon="-1.38033">
        <ele>53</ele>
        <time>2020-06-01T16:43:13.000Z</time>
      </trkpt>
      <trkpt lat="47.29526" lon="-1.38051">
        <ele>53</ele>
        <time>2020-06-01T16:43:15.000Z</time>
      </trkpt>
      <trkpt lat="47.2952" lon="-1.38069">
        <ele>53</ele>
        <time>2020-06-01T16:43:17.000Z</time>
      </trkpt>
      <trkpt lat="47.29515" lon="-1.38087">
        <ele>53</ele>
        <time>2020-06-01T16:43:19.000Z</time>
      </trkpt>
      <trkpt lat="47.2951" lon="-1.38106">
        <ele>52</ele>
        <time>2020-06-01T16:43:21.000Z</time>
      </trkpt>
      <trkpt lat="47.29504" lon="-1.38125">
        <ele>53</ele>
        <time>2020-06-01T16:43:23.000Z</time>
      </trkpt>
      <trkpt lat="47.29496" lon="-1.38152">
        <ele>53</ele>
        <time>2020-06-01T16:43:26.000Z</time>
      </trkpt>
      <trkpt lat="47.29491" lon="-1.38171">
        <ele>53</ele>
        <time>2020-06-01T16:43:28.000Z</time>
      </trkpt>
      <trkpt lat="47.29486" lon="-1.38189">
        <ele>53</ele>
        <time>2020-06-01T16:43:30.000Z</time>
      </trkpt>
      <trkpt lat="47.29481" lon="-1.38207">
        <ele>53</ele>
        <time>2020-06-01T16:43:32.000Z</time>
      </trkpt>
      <trkpt lat="47.29476" lon="-1.38225">
        <ele>53</ele>
        <time>2020-06-01T16:43:34.000Z</time>
      </trkpt>
      <trkpt lat="47.29471" lon="-1.38243">
        <ele>54</ele>
        <time>2020-06-01T16:43:36.000Z</time>
      </trkpt>
      <trkpt lat="47.29466" lon="-1.38261">
        <ele>54</ele>
        <time>2020-06-01T16:43:38.000Z</time>
      </trkpt>
      <trkpt lat="47.29461" lon="-1.38277">
        <ele>53</ele>
        <time>2020-06-01T16:43:40.000Z</time>
      </trkpt>
      <trkpt lat="47.29456" lon="-1.38295">
        <ele>53</ele>
        <time>2020-06-01T16:43:42.000Z</time>
      </trkpt>
      <trkpt lat="47.29451" lon="-1.38312">
        <ele>55</ele>
        <time>2020-06-01T16:43:44.000Z</time>
      </trkpt>
      <trkpt lat="47.29445" lon="-1.38325">
        <ele>55</ele>
        <time>2020-06-01T16:43:46.000Z</time>
      </trkpt>
      <trkpt lat="47.29438" lon="-1.38337">
        <ele>54</ele>
        <time>2020-06-01T16:43:48.000Z</time>
      </trkpt>
      <trkpt lat="47.29437" lon="-1.38356">
        <ele>54</ele>
        <time>2020-06-01T16:43:50.000Z</time>
      </trkpt>
      <trkpt lat="47.29433" lon="-1.38374">
        <ele>53</ele>
        <time>2020-06-01T16:43:52.000Z</time>
      </trkpt>
      <trkpt lat="47.29427" lon="-1.38404">
        <ele>53</ele>
        <time>2020-06-01T16:43:55.000Z</time>
      </trkpt>
      <trkpt lat="47.29422" lon="-1.38424">
        <ele>53</ele>
        <time>2020-06-01T16:43:57.000Z</time>
      </trkpt>
      <trkpt lat="47.29417" lon="-1.38443">
        <ele>53</ele>
        <time>2020-06-01T16:43:59.000Z</time>
      </trkpt>
      <trkpt lat="47.29411" lon="-1.38463">
        <ele>53</ele>
        <time>2020-06-01T16:44:01.000Z</time>
      </trkpt>
      <trkpt lat="47.29405" lon="-1.38483">
        <ele>53</ele>
        <time>2020-06-01T16:44:03.000Z</time>
      </trkpt>
      <trkpt lat="47.294" lon="-1.38503">
        <ele>52</ele>
        <time>2020-06-01T16:44:05.000Z</time>
      </trkpt>
      <trkpt lat="47.29394" lon="-1.38523">
        <ele>52</ele>
        <time>2020-06-01T16:44:07.000Z</time>
      </trkpt>
      <trkpt lat="47.29389" lon="-1.38543">
        <ele>52</ele>
        <time>2020-06-01T16:44:09.000Z</time>
      </trkpt>
      <trkpt lat="47.29383" lon="-1.38564">
        <ele>52</ele>
        <time>2020-06-01T16:44:11.000Z</time>
      </trkpt>
      <trkpt lat="47.29378" lon="-1.38584">
        <ele>53</ele>
        <time>2020-06-01T16:44:13.000Z</time>
      </trkpt>
      <trkpt lat="47.29372" lon="-1.38606">
        <ele>53</ele>
        <time>2020-06-01T16:44:15.000Z</time>
      </trkpt>
      <trkpt lat="47.29366" lon="-1.38627">
        <ele>53</ele>
        <time>2020-06-01T16:44:17.000Z</time>
      </trkpt>
      <trkpt lat="47.2936" lon="-1.38648">
        <ele>53</ele>
        <time>2020-06-01T16:44:19.000Z</time>
      </trkpt>
      <trkpt lat="47.29354" lon="-1.3867">
        <ele>53</ele>
        <time>2020-06-01T16:44:21.000Z</time>
      </trkpt>
      <trkpt lat="47.29348" lon="-1.3869">
        <ele>53</ele>
        <time>2020-06-01T16:44:23.000Z</time>
      </trkpt>
      <trkpt lat="47.29341" lon="-1.38712">
        <ele>53</ele>
        <time>2020-06-01T16:44:25.000Z</time>
      </trkpt>
      <trkpt lat="47.29335" lon="-1.38734">
        <ele>53</ele>
        <time>2020-06-01T16:44:27.000Z</time>
      </trkpt>
      <trkpt lat="47.2933" lon="-1.38755">
        <ele>53</ele>
        <time>2020-06-01T16:44:29.000Z</time>
      </trkpt>
      <trkpt lat="47.29324" lon="-1.38776">
        <ele>53</ele>
        <time>2020-06-01T16:44:31.000Z</time>
      </trkpt>
      <trkpt lat="47.29318" lon="-1.38798">
        <ele>53</ele>
        <time>2020-06-01T16:44:33.000Z</time>
      </trkpt>
      <trkpt lat="47.29312" lon="-1.38819">
        <ele>53</ele>
        <time>2020-06-01T16:44:35.000Z</time>
      </trkpt>
      <trkpt lat="47.29306" lon="-1.3884">
        <ele>53</ele>
        <time>2020-06-01T16:44:37.000Z</time>
      </trkpt>
      <trkpt lat="47.293" lon="-1.38861">
        <ele>53</ele>
        <time>2020-06-01T16:44:39.000Z</time>
      </trkpt>
      <trkpt lat="47.29292" lon="-1.38893">
        <ele>53</ele>
        <time>2020-06-01T16:44:42.000Z</time>
      </trkpt>
      <trkpt lat="47.29286" lon="-1.38913">
        <ele>53</ele>
        <time>2020-06-01T16:44:44.000Z</time>
      </trkpt>
      <trkpt lat="47.29281" lon="-1.38934">
        <ele>53</ele>
        <time>2020-06-01T16:44:46.000Z</time>
      </trkpt>
      <trkpt lat="47.29275" lon="-1.38955">
        <ele>53</ele>
        <time>2020-06-01T16:44:48.000Z</time>
      </trkpt>
      <trkpt lat="47.2927" lon="-1.38976">
        <ele>53</ele>
        <time>2020-06-01T16:44:50.000Z</time>
      </trkpt>
      <trkpt lat="47.29264" lon="-1.38996">
        <ele>53</ele>
        <time>2020-06-01T16:44:52.000Z</time>
      </trkpt>
      <trkpt lat="47.29258" lon="-1.39017">
        <ele>53</ele>
        <time>2020-06-01T16:44:54.000Z</time>
      </trkpt>
      <trkpt lat="47.29252" lon="-1.39038">
        <ele>52</ele>
        <time>2020-06-01T16:44:56.000Z</time>
      </trkpt>
      <trkpt lat="47.29246" lon="-1.39059">
        <ele>52</ele>
        <time>2020-06-01T16:44:58.000Z</time>
      </trkpt>
      <trkpt lat="47.29241" lon="-1.39079">
        <ele>53</ele>
        <time>2020-06-01T16:45:00.000Z</time>
      </trkpt>
      <trkpt lat="47.29234" lon="-1.39099">
        <ele>53</ele>
        <time>2020-06-01T16:45:02.000Z</time>
      </trkpt>
      <trkpt lat="47.29225" lon="-1.39116">
        <ele>53</ele>
        <time>2020-06-01T16:45:04.000Z</time>
      </trkpt>
      <trkpt lat="47.29215" lon="-1.39134">
        <ele>53</ele>
        <time>2020-06-01T16:45:06.000Z</time>
      </trkpt>
      <trkpt lat="47.29203" lon="-1.39149">
        <ele>53</ele>
        <time>2020-06-01T16:45:08.000Z</time>
      </trkpt>
      <trkpt lat="47.29191" lon="-1.39164">
        <ele>53</ele>
        <time>2020-06-01T16:45:10.000Z</time>
      </trkpt>
      <trkpt lat="47.29179" lon="-1.39177">
        <ele>53</ele>
        <time>2020-06-01T16:45:12.000Z</time>
      </trkpt>
      <trkpt lat="47.29161" lon="-1.39199">
        <ele>52</ele>
        <time>2020-06-01T16:45:15.000Z</time>
      </trkpt>
      <trkpt lat="47.29149" lon="-1.39213">
        <ele>52</ele>
        <time>2020-06-01T16:45:17.000Z</time>
      </trkpt>
      <trkpt lat="47.29137" lon="-1.39228">
        <ele>52</ele>
        <time>2020-06-01T16:45:19.000Z</time>
      </trkpt>
      <trkpt lat="47.29126" lon="-1.39243">
        <ele>52</ele>
        <time>2020-06-01T16:45:21.000Z</time>
      </trkpt>
      <trkpt lat="47.29115" lon="-1.39259">
        <ele>52</ele>
        <time>2020-06-01T16:45:23.000Z</time>
      </trkpt>
      <trkpt lat="47.29105" lon="-1.39276">
        <ele>52</ele>
        <time>2020-06-01T16:45:25.000Z</time>
      </trkpt>
      <trkpt lat="47.29097" lon="-1.39294">
        <ele>53</ele>
        <time>2020-06-01T16:45:27.000Z</time>
      </trkpt>
      <trkpt lat="47.29089" lon="-1.3931">
        <ele>53</ele>
        <time>2020-06-01T16:45:29.000Z</time>
      </trkpt>
      <trkpt lat="47.29076" lon="-1.39317">
        <ele>53</ele>
        <time>2020-06-01T16:45:31.000Z</time>
      </trkpt>
      <trkpt lat="47.29062" lon="-1.39322">
        <ele>52</ele>
        <time>2020-06-01T16:45:33.000Z</time>
      </trkpt>
      <trkpt lat="47.29049" lon="-1.39335">
        <ele>51</ele>
        <time>2020-06-01T16:45:35.000Z</time>
      </trkpt>
      <trkpt lat="47.29035" lon="-1.39352">
        <ele>51</ele>
        <time>2020-06-01T16:45:37.000Z</time>
      </trkpt>
      <trkpt lat="47.29021" lon="-1.39367">
        <ele>52</ele>
        <time>2020-06-01T16:45:39.000Z</time>
      </trkpt>
      <trkpt lat="47.29009" lon="-1.39382">
        <ele>52</ele>
        <time>2020-06-01T16:45:41.000Z</time>
      </trkpt>
      <trkpt lat="47.28996" lon="-1.39396">
        <ele>52</ele>
        <time>2020-06-01T16:45:43.000Z</time>
      </trkpt>
      <trkpt lat="47.28984" lon="-1.39412">
        <ele>52</ele>
        <time>2020-06-01T16:45:45.000Z</time>
      </trkpt>
      <trkpt lat="47.28973" lon="-1.39427">
        <ele>52</ele>
        <time>2020-06-01T16:45:47.000Z</time>
      </trkpt>
      <trkpt lat="47.28962" lon="-1.39441">
        <ele>52</ele>
        <time>2020-06-01T16:45:49.000Z</time>
      </trkpt>
      <trkpt lat="47.28949" lon="-1.39455">
        <ele>52</ele>
        <time>2020-06-01T16:45:51.000Z</time>
      </trkpt>
      <trkpt lat="47.28937" lon="-1.3947">
        <ele>52</ele>
        <time>2020-06-01T16:45:53.000Z</time>
      </trkpt>
      <trkpt lat="47.2892" lon="-1.39489">
        <ele>51</ele>
        <time>2020-06-01T16:45:56.000Z</time>
      </trkpt>
      <trkpt lat="47.28909" lon="-1.39503">
        <ele>51</ele>
        <time>2020-06-01T16:45:58.000Z</time>
      </trkpt>
      <trkpt lat="47.28898" lon="-1.39516">
        <ele>51</ele>
        <time>2020-06-01T16:46:00.000Z</time>
      </trkpt>
      <trkpt lat="47.28886" lon="-1.39529">
        <ele>51</ele>
        <time>2020-06-01T16:46:02.000Z</time>
      </trkpt>
      <trkpt lat="47.28875" lon="-1.39542">
        <ele>51</ele>
        <time>2020-06-01T16:46:04.000Z</time>
      </trkpt>
      <trkpt lat="47.28865" lon="-1.39555">
        <ele>51</ele>
        <time>2020-06-01T16:46:06.000Z</time>
      </trkpt>
      <trkpt lat="47.28854" lon="-1.39568">
        <ele>51</ele>
        <time>2020-06-01T16:46:08.000Z</time>
      </trkpt>
      <trkpt lat="47.28843" lon="-1.39581">
        <ele>50</ele>
        <time>2020-06-01T16:46:10.000Z</time>
      </trkpt>
      <trkpt lat="47.28831" lon="-1.39594">
        <ele>50</ele>
        <time>2020-06-01T16:46:12.000Z</time>
      </trkpt>
      <trkpt lat="47.2882" lon="-1.39608">
        <ele>50</ele>
        <time>2020-06-01T16:46:14.000Z</time>
      </trkpt>
      <trkpt lat="47.28809" lon="-1.39621">
        <ele>50</ele>
        <time>2020-06-01T16:46:16.000Z</time>
      </trkpt>
      <trkpt lat="47.28798" lon="-1.39635">
        <ele>50</ele>
        <time>2020-06-01T16:46:18.000Z</time>
      </trkpt>
      <trkpt lat="47.28786" lon="-1.39649">
        <ele>50</ele>
        <time>2020-06-01T16:46:20.000Z</time>
      </trkpt>
      <trkpt lat="47.28775" lon="-1.39663">
        <ele>50</ele>
        <time>2020-06-01T16:46:22.000Z</time>
      </trkpt>
      <trkpt lat="47.28763" lon="-1.39676">
        <ele>50</ele>
        <time>2020-06-01T16:46:24.000Z</time>
      </trkpt>
      <trkpt lat="47.28752" lon="-1.39691">
        <ele>50</ele>
        <time>2020-06-01T16:46:26.000Z</time>
      </trkpt>
      <trkpt lat="47.28741" lon="-1.39704">
        <ele>50</ele>
        <time>2020-06-01T16:46:28.000Z</time>
      </trkpt>
      <trkpt lat="47.28729" lon="-1.39718">
        <ele>50</ele>
        <time>2020-06-01T16:46:30.000Z</time>
      </trkpt>
      <trkpt lat="47.28718" lon="-1.39731">
        <ele>50</ele>
        <time>2020-06-01T16:46:32.000Z</time>
      </trkpt>
      <trkpt lat="47.28707" lon="-1.39745">
        <ele>50</ele>
        <time>2020-06-01T16:46:34.000Z</time>
      </trkpt>
      <trkpt lat="47.28696" lon="-1.39758">
        <ele>50</ele>
        <time>2020-06-01T16:46:36.000Z</time>
      </trkpt>
      <trkpt lat="47.28685" lon="-1.3977">
        <ele>50</ele>
        <time>2020-06-01T16:46:38.000Z</time>
      </trkpt>
      <trkpt lat="47.28675" lon="-1.39784">
        <ele>50</ele>
        <time>2020-06-01T16:46:40.000Z</time>
      </trkpt>
      <trkpt lat="47.28665" lon="-1.39798">
        <ele>50</ele>
        <time>2020-06-01T16:46:42.000Z</time>
      </trkpt>
      <trkpt lat="47.28655" lon="-1.39813">
        <ele>50</ele>
        <time>2020-06-01T16:46:44.000Z</time>
      </trkpt>
      <trkpt lat="47.28645" lon="-1.39828">
        <ele>51</ele>
        <time>2020-06-01T16:46:46.000Z</time>
      </trkpt>
      <trkpt lat="47.28636" lon="-1.39843">
        <ele>51</ele>
        <time>2020-06-01T16:46:48.000Z</time>
      </trkpt>
      <trkpt lat="47.28627" lon="-1.39857">
        <ele>51</ele>
        <time>2020-06-01T16:46:50.000Z</time>
      </trkpt>
      <trkpt lat="47.28619" lon="-1.39869">
        <ele>51</ele>
        <time>2020-06-01T16:46:52.000Z</time>
      </trkpt>
      <trkpt lat="47.2861" lon="-1.39883">
        <ele>51</ele>
        <time>2020-06-01T16:46:54.000Z</time>
      </trkpt>
      <trkpt lat="47.286" lon="-1.399">
        <ele>51</ele>
        <time>2020-06-01T16:46:56.000Z</time>
      </trkpt>
      <trkpt lat="47.28589" lon="-1.39916">
        <ele>51</ele>
        <time>2020-06-01T16:46:58.000Z</time>
      </trkpt>
      <trkpt lat="47.28578" lon="-1.39932">
        <ele>51</ele>
        <time>2020-06-01T16:47:00.000Z</time>
      </trkpt>
      <trkpt lat="47.28567" lon="-1.39947">
        <ele>51</ele>
        <time>2020-06-01T16:47:02.000Z</time>
      </trkpt>
      <trkpt lat="47.28555" lon="-1.39964">
        <ele>51</ele>
        <time>2020-06-01T16:47:04.000Z</time>
      </trkpt>
      <trkpt lat="47.28545" lon="-1.39981">
        <ele>51</ele>
        <time>2020-06-01T16:47:06.000Z</time>
      </trkpt>
      <trkpt lat="47.28533" lon="-1.39996">
        <ele>51</ele>
        <time>2020-06-01T16:47:08.000Z</time>
      </trkpt>
      <trkpt lat="47.28522" lon="-1.40011">
        <ele>51</ele>
        <time>2020-06-01T16:47:10.000Z</time>
      </trkpt>
      <trkpt lat="47.28512" lon="-1.40027">
        <ele>51</ele>
        <time>2020-06-01T16:47:12.000Z</time>
      </trkpt>
      <trkpt lat="47.28503" lon="-1.40043">
        <ele>51</ele>
        <time>2020-06-01T16:47:14.000Z</time>
      </trkpt>
      <trkpt lat="47.28495" lon="-1.40058">
        <ele>50</ele>
        <time>2020-06-01T16:47:16.000Z</time>
      </trkpt>
      <trkpt lat="47.28487" lon="-1.40075">
        <ele>51</ele>
        <time>2020-06-01T16:47:18.000Z</time>
      </trkpt>
      <trkpt lat="47.28479" lon="-1.40091">
        <ele>51</ele>
        <time>2020-06-01T16:47:20.000Z</time>
      </trkpt>
      <trkpt lat="47.28472" lon="-1.40108">
        <ele>51</ele>
        <time>2020-06-01T16:47:22.000Z</time>
      </trkpt>
      <trkpt lat="47.28466" lon="-1.40126">
        <ele>50</ele>
        <time>2020-06-01T16:47:24.000Z</time>
      </trkpt>
      <trkpt lat="47.28459" lon="-1.40146">
        <ele>50</ele>
        <time>2020-06-01T16:47:26.000Z</time>
      </trkpt>
      <trkpt lat="47.28451" lon="-1.40167">
        <ele>49</ele>
        <time>2020-06-01T16:47:28.000Z</time>
      </trkpt>
      <trkpt lat="47.28443" lon="-1.40185">
        <ele>49</ele>
        <time>2020-06-01T16:47:30.000Z</time>
      </trkpt>
      <trkpt lat="47.28435" lon="-1.40205">
        <ele>49</ele>
        <time>2020-06-01T16:47:32.000Z</time>
      </trkpt>
      <trkpt lat="47.28428" lon="-1.40222">
        <ele>49</ele>
        <time>2020-06-01T16:47:34.000Z</time>
      </trkpt>
      <trkpt lat="47.28421" lon="-1.4024">
        <ele>48</ele>
        <time>2020-06-01T16:47:36.000Z</time>
      </trkpt>
      <trkpt lat="47.28414" lon="-1.40259">
        <ele>49</ele>
        <time>2020-06-01T16:47:38.000Z</time>
      </trkpt>
      <trkpt lat="47.28405" lon="-1.40277">
        <ele>49</ele>
        <time>2020-06-01T16:47:40.000Z</time>
      </trkpt>
      <trkpt lat="47.28396" lon="-1.40296">
        <ele>50</ele>
        <time>2020-06-01T16:47:42.000Z</time>
      </trkpt>
      <trkpt lat="47.28387" lon="-1.40313">
        <ele>50</ele>
        <time>2020-06-01T16:47:44.000Z</time>
      </trkpt>
      <trkpt lat="47.28377" lon="-1.40329">
        <ele>51</ele>
        <time>2020-06-01T16:47:46.000Z</time>
      </trkpt>
      <trkpt lat="47.28367" lon="-1.40345">
        <ele>51</ele>
        <time>2020-06-01T16:47:48.000Z</time>
      </trkpt>
      <trkpt lat="47.28357" lon="-1.40359">
        <ele>51</ele>
        <time>2020-06-01T16:47:50.000Z</time>
      </trkpt>
      <trkpt lat="47.28346" lon="-1.40373">
        <ele>51</ele>
        <time>2020-06-01T16:47:52.000Z</time>
      </trkpt>
      <trkpt lat="47.28336" lon="-1.40387">
        <ele>51</ele>
        <time>2020-06-01T16:47:54.000Z</time>
      </trkpt>
      <trkpt lat="47.28325" lon="-1.40401">
        <ele>51</ele>
        <time>2020-06-01T16:47:56.000Z</time>
      </trkpt>
      <trkpt lat="47.28313" lon="-1.40415">
        <ele>51</ele>
        <time>2020-06-01T16:47:58.000Z</time>
      </trkpt>
      <trkpt lat="47.28302" lon="-1.40428">
        <ele>51</ele>
        <time>2020-06-01T16:48:00.000Z</time>
      </trkpt>
      <trkpt lat="47.28289" lon="-1.4044">
        <ele>51</ele>
        <time>2020-06-01T16:48:02.000Z</time>
      </trkpt>
      <trkpt lat="47.28277" lon="-1.40451">
        <ele>51</ele>
        <time>2020-06-01T16:48:04.000Z</time>
      </trkpt>
      <trkpt lat="47.28265" lon="-1.40461">
        <ele>51</ele>
        <time>2020-06-01T16:48:06.000Z</time>
      </trkpt>
      <trkpt lat="47.28252" lon="-1.40474">
        <ele>51</ele>
        <time>2020-06-01T16:48:08.000Z</time>
      </trkpt>
      <trkpt lat="47.2824" lon="-1.40488">
        <ele>51</ele>
        <time>2020-06-01T16:48:10.000Z</time>
      </trkpt>
      <trkpt lat="47.28227" lon="-1.405">
        <ele>51</ele>
        <time>2020-06-01T16:48:12.000Z</time>
      </trkpt>
      <trkpt lat="47.28214" lon="-1.40513">
        <ele>51</ele>
        <time>2020-06-01T16:48:14.000Z</time>
      </trkpt>
      <trkpt lat="47.28201" lon="-1.40526">
        <ele>52</ele>
        <time>2020-06-01T16:48:16.000Z</time>
      </trkpt>
      <trkpt lat="47.28189" lon="-1.40539">
        <ele>52</ele>
        <time>2020-06-01T16:48:18.000Z</time>
      </trkpt>
      <trkpt lat="47.28176" lon="-1.40551">
        <ele>52</ele>
        <time>2020-06-01T16:48:20.000Z</time>
      </trkpt>
      <trkpt lat="47.28163" lon="-1.40564">
        <ele>52</ele>
        <time>2020-06-01T16:48:22.000Z</time>
      </trkpt>
      <trkpt lat="47.28151" lon="-1.40576">
        <ele>52</ele>
        <time>2020-06-01T16:48:24.000Z</time>
      </trkpt>
      <trkpt lat="47.28138" lon="-1.40588">
        <ele>52</ele>
        <time>2020-06-01T16:48:26.000Z</time>
      </trkpt>
      <trkpt lat="47.28126" lon="-1.406">
        <ele>51</ele>
        <time>2020-06-01T16:48:28.000Z</time>
      </trkpt>
      <trkpt lat="47.28114" lon="-1.40611">
        <ele>51</ele>
        <time>2020-06-01T16:48:30.000Z</time>
      </trkpt>
      <trkpt lat="47.28102" lon="-1.40622">
        <ele>51</ele>
        <time>2020-06-01T16:48:32.000Z</time>
      </trkpt>
      <trkpt lat="47.28089" lon="-1.40634">
        <ele>51</ele>
        <time>2020-06-01T16:48:34.000Z</time>
      </trkpt>
      <trkpt lat="47.28077" lon="-1.40645">
        <ele>51</ele>
        <time>2020-06-01T16:48:36.000Z</time>
      </trkpt>
      <trkpt lat="47.28065" lon="-1.40657">
        <ele>51</ele>
        <time>2020-06-01T16:48:38.000Z</time>
      </trkpt>
      <trkpt lat="47.28053" lon="-1.40669">
        <ele>51</ele>
        <time>2020-06-01T16:48:40.000Z</time>
      </trkpt>
      <trkpt lat="47.2804" lon="-1.40681">
        <ele>51</ele>
        <time>2020-06-01T16:48:42.000Z</time>
      </trkpt>
      <trkpt lat="47.28028" lon="-1.40694">
        <ele>52</ele>
        <time>2020-06-01T16:48:44.000Z</time>
      </trkpt>
      <trkpt lat="47.28017" lon="-1.40706">
        <ele>51</ele>
        <time>2020-06-01T16:48:46.000Z</time>
      </trkpt>
      <trkpt lat="47.28005" lon="-1.40718">
        <ele>52</ele>
        <time>2020-06-01T16:48:48.000Z</time>
      </trkpt>
      <trkpt lat="47.27993" lon="-1.4073">
        <ele>52</ele>
        <time>2020-06-01T16:48:50.000Z</time>
      </trkpt>
      <trkpt lat="47.2798" lon="-1.40741">
        <ele>51</ele>
        <time>2020-06-01T16:48:52.000Z</time>
      </trkpt>
      <trkpt lat="47.27968" lon="-1.40753">
        <ele>51</ele>
        <time>2020-06-01T16:48:54.000Z</time>
      </trkpt>
      <trkpt lat="47.27955" lon="-1.40764">
        <ele>51</ele>
        <time>2020-06-01T16:48:56.000Z</time>
      </trkpt>
      <trkpt lat="47.27943" lon="-1.40775">
        <ele>51</ele>
        <time>2020-06-01T16:48:58.000Z</time>
      </trkpt>
      <trkpt lat="47.2793" lon="-1.40786">
        <ele>51</ele>
        <time>2020-06-01T16:49:00.000Z</time>
      </trkpt>
      <trkpt lat="47.27918" lon="-1.40797">
        <ele>51</ele>
        <time>2020-06-01T16:49:02.000Z</time>
      </trkpt>
      <trkpt lat="47.27906" lon="-1.40809">
        <ele>51</ele>
        <time>2020-06-01T16:49:04.000Z</time>
      </trkpt>
      <trkpt lat="47.27894" lon="-1.40821">
        <ele>51</ele>
        <time>2020-06-01T16:49:06.000Z</time>
      </trkpt>
      <trkpt lat="47.27883" lon="-1.40835">
        <ele>51</ele>
        <time>2020-06-01T16:49:08.000Z</time>
      </trkpt>
      <trkpt lat="47.27875" lon="-1.40852">
        <ele>51</ele>
        <time>2020-06-01T16:49:10.000Z</time>
      </trkpt>
      <trkpt lat="47.27866" lon="-1.4087">
        <ele>52</ele>
        <time>2020-06-01T16:49:12.000Z</time>
      </trkpt>
      <trkpt lat="47.27858" lon="-1.40887">
        <ele>52</ele>
        <time>2020-06-01T16:49:14.000Z</time>
      </trkpt>
      <trkpt lat="47.2785" lon="-1.40905">
        <ele>51</ele>
        <time>2020-06-01T16:49:16.000Z</time>
      </trkpt>
      <trkpt lat="47.27842" lon="-1.40922">
        <ele>51</ele>
        <time>2020-06-01T16:49:18.000Z</time>
      </trkpt>
      <trkpt lat="47.27834" lon="-1.40939">
        <ele>51</ele>
        <time>2020-06-01T16:49:20.000Z</time>
      </trkpt>
      <trkpt lat="47.27826" lon="-1.40956">
        <ele>52</ele>
        <time>2020-06-01T16:49:22.000Z</time>
      </trkpt>
      <trkpt lat="47.27817" lon="-1.40971">
        <ele>52</ele>
        <time>2020-06-01T16:49:24.000Z</time>
      </trkpt>
      <trkpt lat="47.27807" lon="-1.40987">
        <ele>52</ele>
        <time>2020-06-01T16:49:26.000Z</time>
      </trkpt>
      <trkpt lat="47.27797" lon="-1.41002">
        <ele>52</ele>
        <time>2020-06-01T16:49:28.000Z</time>
      </trkpt>
      <trkpt lat="47.27787" lon="-1.41016">
        <ele>52</ele>
        <time>2020-06-01T16:49:30.000Z</time>
      </trkpt>
      <trkpt lat="47.27777" lon="-1.41031">
        <ele>51</ele>
        <time>2020-06-01T16:49:32.000Z</time>
      </trkpt>
      <trkpt lat="47.27771" lon="-1.4105">
        <ele>51</ele>
        <time>2020-06-01T16:49:34.000Z</time>
      </trkpt>
      <trkpt lat="47.27764" lon="-1.41069">
        <ele>51</ele>
        <time>2020-06-01T16:49:36.000Z</time>
      </trkpt>
      <trkpt lat="47.27754" lon="-1.41082">
        <ele>51</ele>
        <time>2020-06-01T16:49:38.000Z</time>
      </trkpt>
      <trkpt lat="47.27742" lon="-1.41093">
        <ele>51</ele>
        <time>2020-06-01T16:49:40.000Z</time>
      </trkpt>
      <trkpt lat="47.27731" lon="-1.41105">
        <ele>52</ele>
        <time>2020-06-01T16:49:42.000Z</time>
      </trkpt>
      <trkpt lat="47.27719" lon="-1.41116">
        <ele>52</ele>
        <time>2020-06-01T16:49:44.000Z</time>
      </trkpt>
      <trkpt lat="47.27708" lon="-1.41129">
        <ele>52</ele>
        <time>2020-06-01T16:49:46.000Z</time>
      </trkpt>
      <trkpt lat="47.27696" lon="-1.41141">
        <ele>52</ele>
        <time>2020-06-01T16:49:48.000Z</time>
      </trkpt>
      <trkpt lat="47.27685" lon="-1.41154">
        <ele>52</ele>
        <time>2020-06-01T16:49:50.000Z</time>
      </trkpt>
      <trkpt lat="47.27673" lon="-1.41168">
        <ele>52</ele>
        <time>2020-06-01T16:49:52.000Z</time>
      </trkpt>
      <trkpt lat="47.27662" lon="-1.4118">
        <ele>52</ele>
        <time>2020-06-01T16:49:54.000Z</time>
      </trkpt>
      <trkpt lat="47.2765" lon="-1.41192">
        <ele>52</ele>
        <time>2020-06-01T16:49:56.000Z</time>
      </trkpt>
      <trkpt lat="47.27638" lon="-1.41204">
        <ele>52</ele>
        <time>2020-06-01T16:49:58.000Z</time>
      </trkpt>
      <trkpt lat="47.27626" lon="-1.41216">
        <ele>51</ele>
        <time>2020-06-01T16:50:00.000Z</time>
      </trkpt>
      <trkpt lat="47.27614" lon="-1.41228">
        <ele>51</ele>
        <time>2020-06-01T16:50:02.000Z</time>
      </trkpt>
      <trkpt lat="47.27603" lon="-1.41239">
        <ele>51</ele>
        <time>2020-06-01T16:50:04.000Z</time>
      </trkpt>
      <trkpt lat="47.27592" lon="-1.41252">
        <ele>51</ele>
        <time>2020-06-01T16:50:06.000Z</time>
      </trkpt>
      <trkpt lat="47.27581" lon="-1.41265">
        <ele>52</ele>
        <time>2020-06-01T16:50:08.000Z</time>
      </trkpt>
      <trkpt lat="47.2757" lon="-1.41278">
        <ele>52</ele>
        <time>2020-06-01T16:50:10.000Z</time>
      </trkpt>
      <trkpt lat="47.27559" lon="-1.41291">
        <ele>51</ele>
        <time>2020-06-01T16:50:12.000Z</time>
      </trkpt>
      <trkpt lat="47.27548" lon="-1.41304">
        <ele>52</ele>
        <time>2020-06-01T16:50:14.000Z</time>
      </trkpt>
      <trkpt lat="47.27538" lon="-1.41318">
        <ele>51</ele>
        <time>2020-06-01T16:50:16.000Z</time>
      </trkpt>
      <trkpt lat="47.27527" lon="-1.41332">
        <ele>51</ele>
        <time>2020-06-01T16:50:18.000Z</time>
      </trkpt>
      <trkpt lat="47.27518" lon="-1.41346">
        <ele>51</ele>
        <time>2020-06-01T16:50:20.000Z</time>
      </trkpt>
      <trkpt lat="47.27507" lon="-1.41361">
        <ele>51</ele>
        <time>2020-06-01T16:50:22.000Z</time>
      </trkpt>
      <trkpt lat="47.27497" lon="-1.41376">
        <ele>51</ele>
        <time>2020-06-01T16:50:24.000Z</time>
      </trkpt>
      <trkpt lat="47.27488" lon="-1.41391">
        <ele>51</ele>
        <time>2020-06-01T16:50:26.000Z</time>
      </trkpt>
      <trkpt lat="47.27479" lon="-1.41407">
        <ele>51</ele>
        <time>2020-06-01T16:50:28.000Z</time>
      </trkpt>
      <trkpt lat="47.2747" lon="-1.41423">
        <ele>50</ele>
        <time>2020-06-01T16:50:30.000Z</time>
      </trkpt>
      <trkpt lat="47.2746" lon="-1.41439">
        <ele>50</ele>
        <time>2020-06-01T16:50:32.000Z</time>
      </trkpt>
      <trkpt lat="47.27451" lon="-1.41455">
        <ele>50</ele>
        <time>2020-06-01T16:50:34.000Z</time>
      </trkpt>
      <trkpt lat="47.27443" lon="-1.41472">
        <ele>51</ele>
        <time>2020-06-01T16:50:36.000Z</time>
      </trkpt>
      <trkpt lat="47.27433" lon="-1.41487">
        <ele>50</ele>
        <time>2020-06-01T16:50:38.000Z</time>
      </trkpt>
      <trkpt lat="47.27424" lon="-1.41502">
        <ele>50</ele>
        <time>2020-06-01T16:50:40.000Z</time>
      </trkpt>
      <trkpt lat="47.27414" lon="-1.41517">
        <ele>50</ele>
        <time>2020-06-01T16:50:42.000Z</time>
      </trkpt>
      <trkpt lat="47.27404" lon="-1.41532">
        <ele>50</ele>
        <time>2020-06-01T16:50:44.000Z</time>
      </trkpt>
      <trkpt lat="47.27394" lon="-1.41548">
        <ele>50</ele>
        <time>2020-06-01T16:50:46.000Z</time>
      </trkpt>
      <trkpt lat="47.27384" lon="-1.41563">
        <ele>50</ele>
        <time>2020-06-01T16:50:48.000Z</time>
      </trkpt>
      <trkpt lat="47.27374" lon="-1.4158">
        <ele>50</ele>
        <time>2020-06-01T16:50:50.000Z</time>
      </trkpt>
      <trkpt lat="47.27363" lon="-1.41598">
        <ele>50</ele>
        <time>2020-06-01T16:50:52.000Z</time>
      </trkpt>
      <trkpt lat="47.27352" lon="-1.41614">
        <ele>50</ele>
        <time>2020-06-01T16:50:54.000Z</time>
      </trkpt>
      <trkpt lat="47.27342" lon="-1.41629">
        <ele>50</ele>
        <time>2020-06-01T16:50:56.000Z</time>
      </trkpt>
      <trkpt lat="47.27331" lon="-1.41645">
        <ele>50</ele>
        <time>2020-06-01T16:50:58.000Z</time>
      </trkpt>
      <trkpt lat="47.27322" lon="-1.41662">
        <ele>50</ele>
        <time>2020-06-01T16:51:00.000Z</time>
      </trkpt>
      <trkpt lat="47.27313" lon="-1.41679">
        <ele>50</ele>
        <time>2020-06-01T16:51:02.000Z</time>
      </trkpt>
      <trkpt lat="47.27304" lon="-1.41696">
        <ele>50</ele>
        <time>2020-06-01T16:51:04.000Z</time>
      </trkpt>
      <trkpt lat="47.27296" lon="-1.41713">
        <ele>50</ele>
        <time>2020-06-01T16:51:06.000Z</time>
      </trkpt>
      <trkpt lat="47.27287" lon="-1.41731">
        <ele>49</ele>
        <time>2020-06-01T16:51:08.000Z</time>
      </trkpt>
      <trkpt lat="47.27278" lon="-1.41748">
        <ele>49</ele>
        <time>2020-06-01T16:51:10.000Z</time>
      </trkpt>
      <trkpt lat="47.27269" lon="-1.41766">
        <ele>49</ele>
        <time>2020-06-01T16:51:12.000Z</time>
      </trkpt>
      <trkpt lat="47.2726" lon="-1.41783">
        <ele>50</ele>
        <time>2020-06-01T16:51:14.000Z</time>
      </trkpt>
      <trkpt lat="47.2725" lon="-1.418">
        <ele>50</ele>
        <time>2020-06-01T16:51:16.000Z</time>
      </trkpt>
      <trkpt lat="47.27241" lon="-1.41817">
        <ele>50</ele>
        <time>2020-06-01T16:51:18.000Z</time>
      </trkpt>
      <trkpt lat="47.27232" lon="-1.41833">
        <ele>50</ele>
        <time>2020-06-01T16:51:20.000Z</time>
      </trkpt>
      <trkpt lat="47.27223" lon="-1.41848">
        <ele>50</ele>
        <time>2020-06-01T16:51:22.000Z</time>
      </trkpt>
      <trkpt lat="47.27214" lon="-1.41865">
        <ele>50</ele>
        <time>2020-06-01T16:51:24.000Z</time>
      </trkpt>
      <trkpt lat="47.27205" lon="-1.4188">
        <ele>50</ele>
        <time>2020-06-01T16:51:26.000Z</time>
      </trkpt>
      <trkpt lat="47.27195" lon="-1.41896">
        <ele>50</ele>
        <time>2020-06-01T16:51:28.000Z</time>
      </trkpt>
      <trkpt lat="47.27186" lon="-1.41911">
        <ele>50</ele>
        <time>2020-06-01T16:51:30.000Z</time>
      </trkpt>
      <trkpt lat="47.27177" lon="-1.41927">
        <ele>50</ele>
        <time>2020-06-01T16:51:32.000Z</time>
      </trkpt>
      <trkpt lat="47.27168" lon="-1.41944">
        <ele>49</ele>
        <time>2020-06-01T16:51:34.000Z</time>
      </trkpt>
      <trkpt lat="47.27159" lon="-1.4196">
        <ele>49</ele>
        <time>2020-06-01T16:51:36.000Z</time>
      </trkpt>
      <trkpt lat="47.2715" lon="-1.41977">
        <ele>49</ele>
        <time>2020-06-01T16:51:38.000Z</time>
      </trkpt>
      <trkpt lat="47.27141" lon="-1.41994">
        <ele>50</ele>
        <time>2020-06-01T16:51:40.000Z</time>
      </trkpt>
      <trkpt lat="47.27132" lon="-1.42009">
        <ele>49</ele>
        <time>2020-06-01T16:51:42.000Z</time>
      </trkpt>
      <trkpt lat="47.27122" lon="-1.42023">
        <ele>49</ele>
        <time>2020-06-01T16:51:44.000Z</time>
      </trkpt>
      <trkpt lat="47.27112" lon="-1.42039">
        <ele>49</ele>
        <time>2020-06-01T16:51:46.000Z</time>
      </trkpt>
      <trkpt lat="47.27103" lon="-1.42055">
        <ele>49</ele>
        <time>2020-06-01T16:51:48.000Z</time>
      </trkpt>
      <trkpt lat="47.27092" lon="-1.4207">
        <ele>50</ele>
        <time>2020-06-01T16:51:50.000Z</time>
      </trkpt>
      <trkpt lat="47.27083" lon="-1.42087">
        <ele>50</ele>
        <time>2020-06-01T16:51:52.000Z</time>
      </trkpt>
      <trkpt lat="47.27073" lon="-1.42103">
        <ele>50</ele>
        <time>2020-06-01T16:51:54.000Z</time>
      </trkpt>
      <trkpt lat="47.27065" lon="-1.42119">
        <ele>50</ele>
        <time>2020-06-01T16:51:56.000Z</time>
      </trkpt>
      <trkpt lat="47.27055" lon="-1.42132">
        <ele>50</ele>
        <time>2020-06-01T16:51:58.000Z</time>
      </trkpt>
      <trkpt lat="47.27047" lon="-1.42148">
        <ele>50</ele>
        <time>2020-06-01T16:52:00.000Z</time>
      </trkpt>
      <trkpt lat="47.27039" lon="-1.42166">
        <ele>50</ele>
        <time>2020-06-01T16:52:02.000Z</time>
      </trkpt>
      <trkpt lat="47.27031" lon="-1.42184">
        <ele>50</ele>
        <time>2020-06-01T16:52:04.000Z</time>
      </trkpt>
      <trkpt lat="47.2702" lon="-1.42202">
        <ele>50</ele>
        <time>2020-06-01T16:52:06.000Z</time>
      </trkpt>
      <trkpt lat="47.2701" lon="-1.4222">
        <ele>50</ele>
        <time>2020-06-01T16:52:08.000Z</time>
      </trkpt>
      <trkpt lat="47.26999" lon="-1.42237">
        <ele>50</ele>
        <time>2020-06-01T16:52:10.000Z</time>
      </trkpt>
      <trkpt lat="47.26989" lon="-1.42255">
        <ele>50</ele>
        <time>2020-06-01T16:52:12.000Z</time>
      </trkpt>
      <trkpt lat="47.26979" lon="-1.42273">
        <ele>51</ele>
        <time>2020-06-01T16:52:14.000Z</time>
      </trkpt>
      <trkpt lat="47.2697" lon="-1.4229">
        <ele>50</ele>
        <time>2020-06-01T16:52:16.000Z</time>
      </trkpt>
      <trkpt lat="47.26961" lon="-1.42308">
        <ele>50</ele>
        <time>2020-06-01T16:52:18.000Z</time>
      </trkpt>
      <trkpt lat="47.26952" lon="-1.42325">
        <ele>50</ele>
        <time>2020-06-01T16:52:20.000Z</time>
      </trkpt>
      <trkpt lat="47.26943" lon="-1.42342">
        <ele>50</ele>
        <time>2020-06-01T16:52:22.000Z</time>
      </trkpt>
      <trkpt lat="47.26935" lon="-1.4236">
        <ele>50</ele>
        <time>2020-06-01T16:52:24.000Z</time>
      </trkpt>
      <trkpt lat="47.26927" lon="-1.42377">
        <ele>50</ele>
        <time>2020-06-01T16:52:26.000Z</time>
      </trkpt>
      <trkpt lat="47.26918" lon="-1.42394">
        <ele>50</ele>
        <time>2020-06-01T16:52:28.000Z</time>
      </trkpt>
      <trkpt lat="47.26909" lon="-1.42411">
        <ele>50</ele>
        <time>2020-06-01T16:52:30.000Z</time>
      </trkpt>
      <trkpt lat="47.269" lon="-1.42428">
        <ele>50</ele>
        <time>2020-06-01T16:52:32.000Z</time>
      </trkpt>
      <trkpt lat="47.26891" lon="-1.42444">
        <ele>50</ele>
        <time>2020-06-01T16:52:34.000Z</time>
      </trkpt>
      <trkpt lat="47.26882" lon="-1.4246">
        <ele>50</ele>
        <time>2020-06-01T16:52:36.000Z</time>
      </trkpt>
      <trkpt lat="47.26873" lon="-1.42477">
        <ele>50</ele>
        <time>2020-06-01T16:52:38.000Z</time>
      </trkpt>
      <trkpt lat="47.26863" lon="-1.42493">
        <ele>50</ele>
        <time>2020-06-01T16:52:40.000Z</time>
      </trkpt>
      <trkpt lat="47.26854" lon="-1.4251">
        <ele>50</ele>
        <time>2020-06-01T16:52:42.000Z</time>
      </trkpt>
      <trkpt lat="47.26845" lon="-1.42527">
        <ele>50</ele>
        <time>2020-06-01T16:52:44.000Z</time>
      </trkpt>
      <trkpt lat="47.26836" lon="-1.42543">
        <ele>49</ele>
        <time>2020-06-01T16:52:46.000Z</time>
      </trkpt>
      <trkpt lat="47.26828" lon="-1.4256">
        <ele>49</ele>
        <time>2020-06-01T16:52:48.000Z</time>
      </trkpt>
      <trkpt lat="47.2682" lon="-1.42577">
        <ele>49</ele>
        <time>2020-06-01T16:52:50.000Z</time>
      </trkpt>
      <trkpt lat="47.26812" lon="-1.42594">
        <ele>49</ele>
        <time>2020-06-01T16:52:52.000Z</time>
      </trkpt>
      <trkpt lat="47.26805" lon="-1.42611">
        <ele>49</ele>
        <time>2020-06-01T16:52:54.000Z</time>
      </trkpt>
      <trkpt lat="47.26798" lon="-1.42629">
        <ele>48</ele>
        <time>2020-06-01T16:52:56.000Z</time>
      </trkpt>
      <trkpt lat="47.26791" lon="-1.42647">
        <ele>48</ele>
        <time>2020-06-01T16:52:58.000Z</time>
      </trkpt>
      <trkpt lat="47.26784" lon="-1.42666">
        <ele>48</ele>
        <time>2020-06-01T16:53:00.000Z</time>
      </trkpt>
      <trkpt lat="47.26778" lon="-1.42685">
        <ele>49</ele>
        <time>2020-06-01T16:53:02.000Z</time>
      </trkpt>
      <trkpt lat="47.26772" lon="-1.42703">
        <ele>49</ele>
        <time>2020-06-01T16:53:04.000Z</time>
      </trkpt>
      <trkpt lat="47.26765" lon="-1.42721">
        <ele>49</ele>
        <time>2020-06-01T16:53:06.000Z</time>
      </trkpt>
      <trkpt lat="47.26757" lon="-1.42738">
        <ele>49</ele>
        <time>2020-06-01T16:53:08.000Z</time>
      </trkpt>
      <trkpt lat="47.26748" lon="-1.42755">
        <ele>49</ele>
        <time>2020-06-01T16:53:10.000Z</time>
      </trkpt>
      <trkpt lat="47.26738" lon="-1.42771">
        <ele>50</ele>
        <time>2020-06-01T16:53:12.000Z</time>
      </trkpt>
      <trkpt lat="47.26732" lon="-1.42789">
        <ele>52</ele>
        <time>2020-06-01T16:53:14.000Z</time>
      </trkpt>
      <trkpt lat="47.26728" lon="-1.42808">
        <ele>53</ele>
        <time>2020-06-01T16:53:16.000Z</time>
      </trkpt>
      <trkpt lat="47.26724" lon="-1.42827">
        <ele>53</ele>
        <time>2020-06-01T16:53:18.000Z</time>
      </trkpt>
      <trkpt lat="47.26717" lon="-1.42847">
        <ele>51</ele>
        <time>2020-06-01T16:53:20.000Z</time>
      </trkpt>
      <trkpt lat="47.26709" lon="-1.42867">
        <ele>52</ele>
        <time>2020-06-01T16:53:22.000Z</time>
      </trkpt>
      <trkpt lat="47.267" lon="-1.42886">
        <ele>51</ele>
        <time>2020-06-01T16:53:24.000Z</time>
      </trkpt>
      <trkpt lat="47.26689" lon="-1.42905">
        <ele>50</ele>
        <time>2020-06-01T16:53:26.000Z</time>
      </trkpt>
      <trkpt lat="47.26679" lon="-1.42924">
        <ele>50</ele>
        <time>2020-06-01T16:53:28.000Z</time>
      </trkpt>
      <trkpt lat="47.2667" lon="-1.42942">
        <ele>50</ele>
        <time>2020-06-01T16:53:30.000Z</time>
      </trkpt>
      <trkpt lat="47.26661" lon="-1.42961">
        <ele>51</ele>
        <time>2020-06-01T16:53:32.000Z</time>
      </trkpt>
      <trkpt lat="47.26652" lon="-1.42978">
        <ele>51</ele>
        <time>2020-06-01T16:53:34.000Z</time>
      </trkpt>
      <trkpt lat="47.26644" lon="-1.42995">
        <ele>50</ele>
        <time>2020-06-01T16:53:36.000Z</time>
      </trkpt>
      <trkpt lat="47.26636" lon="-1.43012">
        <ele>50</ele>
        <time>2020-06-01T16:53:38.000Z</time>
      </trkpt>
      <trkpt lat="47.26627" lon="-1.4303">
        <ele>50</ele>
        <time>2020-06-01T16:53:40.000Z</time>
      </trkpt>
      <trkpt lat="47.26618" lon="-1.43048">
        <ele>50</ele>
        <time>2020-06-01T16:53:42.000Z</time>
      </trkpt>
      <trkpt lat="47.26609" lon="-1.43065">
        <ele>50</ele>
        <time>2020-06-01T16:53:44.000Z</time>
      </trkpt>
      <trkpt lat="47.266" lon="-1.43083">
        <ele>50</ele>
        <time>2020-06-01T16:53:46.000Z</time>
      </trkpt>
      <trkpt lat="47.2659" lon="-1.43099">
        <ele>50</ele>
        <time>2020-06-01T16:53:48.000Z</time>
      </trkpt>
      <trkpt lat="47.2658" lon="-1.43115">
        <ele>50</ele>
        <time>2020-06-01T16:53:50.000Z</time>
      </trkpt>
      <trkpt lat="47.2657" lon="-1.43131">
        <ele>50</ele>
        <time>2020-06-01T16:53:52.000Z</time>
      </trkpt>
      <trkpt lat="47.2656" lon="-1.43147">
        <ele>50</ele>
        <time>2020-06-01T16:53:54.000Z</time>
      </trkpt>
      <trkpt lat="47.2655" lon="-1.43162">
        <ele>50</ele>
        <time>2020-06-01T16:53:56.000Z</time>
      </trkpt>
      <trkpt lat="47.2654" lon="-1.43179">
        <ele>51</ele>
        <time>2020-06-01T16:53:58.000Z</time>
      </trkpt>
      <trkpt lat="47.2653" lon="-1.43195">
        <ele>51</ele>
        <time>2020-06-01T16:54:00.000Z</time>
      </trkpt>
      <trkpt lat="47.26519" lon="-1.43211">
        <ele>51</ele>
        <time>2020-06-01T16:54:02.000Z</time>
      </trkpt>
      <trkpt lat="47.26508" lon="-1.43226">
        <ele>51</ele>
        <time>2020-06-01T16:54:04.000Z</time>
      </trkpt>
      <trkpt lat="47.26497" lon="-1.43241">
        <ele>52</ele>
        <time>2020-06-01T16:54:06.000Z</time>
      </trkpt>
      <trkpt lat="47.26486" lon="-1.43256">
        <ele>52</ele>
        <time>2020-06-01T16:54:08.000Z</time>
      </trkpt>
      <trkpt lat="47.26475" lon="-1.43271">
        <ele>51</ele>
        <time>2020-06-01T16:54:10.000Z</time>
      </trkpt>
      <trkpt lat="47.26464" lon="-1.43286">
        <ele>51</ele>
        <time>2020-06-01T16:54:12.000Z</time>
      </trkpt>
      <trkpt lat="47.26454" lon="-1.433">
        <ele>51</ele>
        <time>2020-06-01T16:54:14.000Z</time>
      </trkpt>
      <trkpt lat="47.26445" lon="-1.43317">
        <ele>51</ele>
        <time>2020-06-01T16:54:16.000Z</time>
      </trkpt>
      <trkpt lat="47.26435" lon="-1.43332">
        <ele>52</ele>
        <time>2020-06-01T16:54:18.000Z</time>
      </trkpt>
      <trkpt lat="47.26425" lon="-1.43346">
        <ele>52</ele>
        <time>2020-06-01T16:54:20.000Z</time>
      </trkpt>
      <trkpt lat="47.26414" lon="-1.4336">
        <ele>52</ele>
        <time>2020-06-01T16:54:22.000Z</time>
      </trkpt>
      <trkpt lat="47.26403" lon="-1.43373">
        <ele>51</ele>
        <time>2020-06-01T16:54:24.000Z</time>
      </trkpt>
      <trkpt lat="47.26392" lon="-1.43386">
        <ele>51</ele>
        <time>2020-06-01T16:54:26.000Z</time>
      </trkpt>
      <trkpt lat="47.2638" lon="-1.43398">
        <ele>51</ele>
        <time>2020-06-01T16:54:28.000Z</time>
      </trkpt>
      <trkpt lat="47.26368" lon="-1.4341">
        <ele>50</ele>
        <time>2020-06-01T16:54:30.000Z</time>
      </trkpt>
      <trkpt lat="47.26356" lon="-1.43422">
        <ele>51</ele>
        <time>2020-06-01T16:54:32.000Z</time>
      </trkpt>
      <trkpt lat="47.26345" lon="-1.43434">
        <ele>51</ele>
        <time>2020-06-01T16:54:34.000Z</time>
      </trkpt>
      <trkpt lat="47.26334" lon="-1.43446">
        <ele>51</ele>
        <time>2020-06-01T16:54:36.000Z</time>
      </trkpt>
      <trkpt lat="47.26323" lon="-1.43458">
        <ele>51</ele>
        <time>2020-06-01T16:54:38.000Z</time>
      </trkpt>
      <trkpt lat="47.26312" lon="-1.4347">
        <ele>51</ele>
        <time>2020-06-01T16:54:40.000Z</time>
      </trkpt>
      <trkpt lat="47.26301" lon="-1.43481">
        <ele>51</ele>
        <time>2020-06-01T16:54:42.000Z</time>
      </trkpt>
      <trkpt lat="47.2629" lon="-1.4349">
        <ele>51</ele>
        <time>2020-06-01T16:54:44.000Z</time>
      </trkpt>
      <trkpt lat="47.26278" lon="-1.43495">
        <ele>50</ele>
        <time>2020-06-01T16:54:46.000Z</time>
      </trkpt>
      <trkpt lat="47.26264" lon="-1.43499">
        <ele>50</ele>
        <time>2020-06-01T16:54:48.000Z</time>
      </trkpt>
      <trkpt lat="47.26251" lon="-1.43509">
        <ele>50</ele>
        <time>2020-06-01T16:54:50.000Z</time>
      </trkpt>
      <trkpt lat="47.26239" lon="-1.4352">
        <ele>50</ele>
        <time>2020-06-01T16:54:52.000Z</time>
      </trkpt>
      <trkpt lat="47.26228" lon="-1.43532">
        <ele>50</ele>
        <time>2020-06-01T16:54:54.000Z</time>
      </trkpt>
      <trkpt lat="47.26218" lon="-1.43545">
        <ele>49</ele>
        <time>2020-06-01T16:54:56.000Z</time>
      </trkpt>
      <trkpt lat="47.26215" lon="-1.43563">
        <ele>49</ele>
        <time>2020-06-01T16:54:58.000Z</time>
      </trkpt>
      <trkpt lat="47.2621" lon="-1.4358">
        <ele>49</ele>
        <time>2020-06-01T16:55:00.000Z</time>
      </trkpt>
      <trkpt lat="47.262" lon="-1.43595">
        <ele>49</ele>
        <time>2020-06-01T16:55:02.000Z</time>
      </trkpt>
      <trkpt lat="47.26192" lon="-1.43609">
        <ele>49</ele>
        <time>2020-06-01T16:55:04.000Z</time>
      </trkpt>
      <trkpt lat="47.26182" lon="-1.43624">
        <ele>49</ele>
        <time>2020-06-01T16:55:06.000Z</time>
      </trkpt>
      <trkpt lat="47.26175" lon="-1.4364">
        <ele>50</ele>
        <time>2020-06-01T16:55:08.000Z</time>
      </trkpt>
      <trkpt lat="47.26167" lon="-1.43656">
        <ele>49</ele>
        <time>2020-06-01T16:55:10.000Z</time>
      </trkpt>
      <trkpt lat="47.26157" lon="-1.43671">
        <ele>50</ele>
        <time>2020-06-01T16:55:12.000Z</time>
      </trkpt>
      <trkpt lat="47.26148" lon="-1.43687">
        <ele>50</ele>
        <time>2020-06-01T16:55:14.000Z</time>
      </trkpt>
      <trkpt lat="47.26139" lon="-1.437">
        <ele>50</ele>
        <time>2020-06-01T16:55:16.000Z</time>
      </trkpt>
      <trkpt lat="47.2613" lon="-1.43715">
        <ele>50</ele>
        <time>2020-06-01T16:55:18.000Z</time>
      </trkpt>
      <trkpt lat="47.26121" lon="-1.43729">
        <ele>49</ele>
        <time>2020-06-01T16:55:20.000Z</time>
      </trkpt>
      <trkpt lat="47.26112" lon="-1.43743">
        <ele>49</ele>
        <time>2020-06-01T16:55:22.000Z</time>
      </trkpt>
      <trkpt lat="47.26101" lon="-1.43755">
        <ele>49</ele>
        <time>2020-06-01T16:55:24.000Z</time>
      </trkpt>
      <trkpt lat="47.26091" lon="-1.43767">
        <ele>50</ele>
        <time>2020-06-01T16:55:26.000Z</time>
      </trkpt>
      <trkpt lat="47.26081" lon="-1.4378">
        <ele>49</ele>
        <time>2020-06-01T16:55:28.000Z</time>
      </trkpt>
      <trkpt lat="47.2607" lon="-1.43794">
        <ele>49</ele>
        <time>2020-06-01T16:55:30.000Z</time>
      </trkpt>
      <trkpt lat="47.2606" lon="-1.43809">
        <ele>49</ele>
        <time>2020-06-01T16:55:32.000Z</time>
      </trkpt>
      <trkpt lat="47.26051" lon="-1.43827">
        <ele>49</ele>
        <time>2020-06-01T16:55:34.000Z</time>
      </trkpt>
      <trkpt lat="47.26045" lon="-1.43845">
        <ele>49</ele>
        <time>2020-06-01T16:55:36.000Z</time>
      </trkpt>
      <trkpt lat="47.26036" lon="-1.43861">
        <ele>49</ele>
        <time>2020-06-01T16:55:38.000Z</time>
      </trkpt>
      <trkpt lat="47.26024" lon="-1.43873">
        <ele>49</ele>
        <time>2020-06-01T16:55:40.000Z</time>
      </trkpt>
      <trkpt lat="47.26013" lon="-1.43884">
        <ele>49</ele>
        <time>2020-06-01T16:55:42.000Z</time>
      </trkpt>
      <trkpt lat="47.26002" lon="-1.43895">
        <ele>50</ele>
        <time>2020-06-01T16:55:44.000Z</time>
      </trkpt>
      <trkpt lat="47.25991" lon="-1.43906">
        <ele>51</ele>
        <time>2020-06-01T16:55:46.000Z</time>
      </trkpt>
      <trkpt lat="47.2598" lon="-1.43919">
        <ele>51</ele>
        <time>2020-06-01T16:55:48.000Z</time>
      </trkpt>
      <trkpt lat="47.25967" lon="-1.43936">
        <ele>50</ele>
        <time>2020-06-01T16:55:50.000Z</time>
      </trkpt>
      <trkpt lat="47.2596" lon="-1.43945">
        <ele>50</ele>
        <time>2020-06-01T16:55:51.000Z</time>
      </trkpt>
      <trkpt lat="47.25947" lon="-1.43962">
        <ele>50</ele>
        <time>2020-06-01T16:55:53.000Z</time>
      </trkpt>
      <trkpt lat="47.25933" lon="-1.43978">
        <ele>51</ele>
        <time>2020-06-01T16:55:55.000Z</time>
      </trkpt>
      <trkpt lat="47.25919" lon="-1.43993">
        <ele>51</ele>
        <time>2020-06-01T16:55:57.000Z</time>
      </trkpt>
      <trkpt lat="47.25905" lon="-1.44007">
        <ele>51</ele>
        <time>2020-06-01T16:55:59.000Z</time>
      </trkpt>
      <trkpt lat="47.25893" lon="-1.44022">
        <ele>51</ele>
        <time>2020-06-01T16:56:01.000Z</time>
      </trkpt>
      <trkpt lat="47.25882" lon="-1.44037">
        <ele>51</ele>
        <time>2020-06-01T16:56:03.000Z</time>
      </trkpt>
      <trkpt lat="47.25874" lon="-1.44055">
        <ele>51</ele>
        <time>2020-06-01T16:56:05.000Z</time>
      </trkpt>
      <trkpt lat="47.25868" lon="-1.44076">
        <ele>50</ele>
        <time>2020-06-01T16:56:07.000Z</time>
      </trkpt>
      <trkpt lat="47.25857" lon="-1.44094">
        <ele>50</ele>
        <time>2020-06-01T16:56:09.000Z</time>
      </trkpt>
      <trkpt lat="47.25845" lon="-1.44108">
        <ele>49</ele>
        <time>2020-06-01T16:56:11.000Z</time>
      </trkpt>
      <trkpt lat="47.25834" lon="-1.44122">
        <ele>50</ele>
        <time>2020-06-01T16:56:13.000Z</time>
      </trkpt>
      <trkpt lat="47.25822" lon="-1.44134">
        <ele>49</ele>
        <time>2020-06-01T16:56:15.000Z</time>
      </trkpt>
      <trkpt lat="47.25811" lon="-1.44146">
        <ele>50</ele>
        <time>2020-06-01T16:56:17.000Z</time>
      </trkpt>
      <trkpt lat="47.25799" lon="-1.44159">
        <ele>49</ele>
        <time>2020-06-01T16:56:19.000Z</time>
      </trkpt>
      <trkpt lat="47.25787" lon="-1.44172">
        <ele>49</ele>
        <time>2020-06-01T16:56:21.000Z</time>
      </trkpt>
      <trkpt lat="47.25776" lon="-1.44185">
        <ele>50</ele>
        <time>2020-06-01T16:56:23.000Z</time>
      </trkpt>
      <trkpt lat="47.25765" lon="-1.44198">
        <ele>50</ele>
        <time>2020-06-01T16:56:25.000Z</time>
      </trkpt>
      <trkpt lat="47.25753" lon="-1.44212">
        <ele>49</ele>
        <time>2020-06-01T16:56:27.000Z</time>
      </trkpt>
      <trkpt lat="47.25743" lon="-1.44227">
        <ele>49</ele>
        <time>2020-06-01T16:56:29.000Z</time>
      </trkpt>
      <trkpt lat="47.25733" lon="-1.44241">
        <ele>49</ele>
        <time>2020-06-01T16:56:31.000Z</time>
      </trkpt>
      <trkpt lat="47.25721" lon="-1.44254">
        <ele>49</ele>
        <time>2020-06-01T16:56:33.000Z</time>
      </trkpt>
      <trkpt lat="47.25711" lon="-1.44268">
        <ele>50</ele>
        <time>2020-06-01T16:56:35.000Z</time>
      </trkpt>
      <trkpt lat="47.257" lon="-1.4428">
        <ele>50</ele>
        <time>2020-06-01T16:56:37.000Z</time>
      </trkpt>
      <trkpt lat="47.25689" lon="-1.44293">
        <ele>50</ele>
        <time>2020-06-01T16:56:39.000Z</time>
      </trkpt>
      <trkpt lat="47.25678" lon="-1.44307">
        <ele>51</ele>
        <time>2020-06-01T16:56:41.000Z</time>
      </trkpt>
      <trkpt lat="47.25668" lon="-1.4432">
        <ele>51</ele>
        <time>2020-06-01T16:56:43.000Z</time>
      </trkpt>
      <trkpt lat="47.25658" lon="-1.44334">
        <ele>51</ele>
        <time>2020-06-01T16:56:45.000Z</time>
      </trkpt>
      <trkpt lat="47.25647" lon="-1.44346">
        <ele>52</ele>
        <time>2020-06-01T16:56:47.000Z</time>
      </trkpt>
      <trkpt lat="47.25636" lon="-1.44358">
        <ele>52</ele>
        <time>2020-06-01T16:56:49.000Z</time>
      </trkpt>
      <trkpt lat="47.25624" lon="-1.44371">
        <ele>53</ele>
        <time>2020-06-01T16:56:51.000Z</time>
      </trkpt>
      <trkpt lat="47.25612" lon="-1.44383">
        <ele>52</ele>
        <time>2020-06-01T16:56:53.000Z</time>
      </trkpt>
      <trkpt lat="47.25601" lon="-1.44396">
        <ele>52</ele>
        <time>2020-06-01T16:56:55.000Z</time>
      </trkpt>
      <trkpt lat="47.25589" lon="-1.4441">
        <ele>52</ele>
        <time>2020-06-01T16:56:57.000Z</time>
      </trkpt>
      <trkpt lat="47.25578" lon="-1.44424">
        <ele>51</ele>
        <time>2020-06-01T16:56:59.000Z</time>
      </trkpt>
      <trkpt lat="47.25567" lon="-1.44437">
        <ele>52</ele>
        <time>2020-06-01T16:57:01.000Z</time>
      </trkpt>
      <trkpt lat="47.25557" lon="-1.44452">
        <ele>52</ele>
        <time>2020-06-01T16:57:03.000Z</time>
      </trkpt>
      <trkpt lat="47.25546" lon="-1.44466">
        <ele>52</ele>
        <time>2020-06-01T16:57:05.000Z</time>
      </trkpt>
      <trkpt lat="47.25536" lon="-1.44482">
        <ele>52</ele>
        <time>2020-06-01T16:57:07.000Z</time>
      </trkpt>
      <trkpt lat="47.25526" lon="-1.44498">
        <ele>52</ele>
        <time>2020-06-01T16:57:09.000Z</time>
      </trkpt>
      <trkpt lat="47.25515" lon="-1.44514">
        <ele>52</ele>
        <time>2020-06-01T16:57:11.000Z</time>
      </trkpt>
      <trkpt lat="47.25505" lon="-1.44529">
        <ele>51</ele>
        <time>2020-06-01T16:57:13.000Z</time>
      </trkpt>
      <trkpt lat="47.25494" lon="-1.44543">
        <ele>50</ele>
        <time>2020-06-01T16:57:15.000Z</time>
      </trkpt>
      <trkpt lat="47.25484" lon="-1.44557">
        <ele>50</ele>
        <time>2020-06-01T16:57:17.000Z</time>
      </trkpt>
      <trkpt lat="47.25473" lon="-1.44573">
        <ele>50</ele>
        <time>2020-06-01T16:57:19.000Z</time>
      </trkpt>
      <trkpt lat="47.25464" lon="-1.44588">
        <ele>50</ele>
        <time>2020-06-01T16:57:21.000Z</time>
      </trkpt>
      <trkpt lat="47.25455" lon="-1.44603">
        <ele>50</ele>
        <time>2020-06-01T16:57:23.000Z</time>
      </trkpt>
      <trkpt lat="47.25445" lon="-1.44617">
        <ele>51</ele>
        <time>2020-06-01T16:57:25.000Z</time>
      </trkpt>
      <trkpt lat="47.25436" lon="-1.4463">
        <ele>51</ele>
        <time>2020-06-01T16:57:27.000Z</time>
      </trkpt>
      <trkpt lat="47.25426" lon="-1.44643">
        <ele>51</ele>
        <time>2020-06-01T16:57:29.000Z</time>
      </trkpt>
      <trkpt lat="47.25416" lon="-1.44657">
        <ele>51</ele>
        <time>2020-06-01T16:57:31.000Z</time>
      </trkpt>
      <trkpt lat="47.25405" lon="-1.4467">
        <ele>51</ele>
        <time>2020-06-01T16:57:33.000Z</time>
      </trkpt>
      <trkpt lat="47.25395" lon="-1.44684">
        <ele>51</ele>
        <time>2020-06-01T16:57:35.000Z</time>
      </trkpt>
      <trkpt lat="47.25384" lon="-1.44697">
        <ele>51</ele>
        <time>2020-06-01T16:57:37.000Z</time>
      </trkpt>
      <trkpt lat="47.25374" lon="-1.4471">
        <ele>51</ele>
        <time>2020-06-01T16:57:39.000Z</time>
      </trkpt>
      <trkpt lat="47.25363" lon="-1.44723">
        <ele>51</ele>
        <time>2020-06-01T16:57:41.000Z</time>
      </trkpt>
      <trkpt lat="47.25352" lon="-1.44734">
        <ele>51</ele>
        <time>2020-06-01T16:57:43.000Z</time>
      </trkpt>
      <trkpt lat="47.25341" lon="-1.44745">
        <ele>51</ele>
        <time>2020-06-01T16:57:45.000Z</time>
      </trkpt>
      <trkpt lat="47.25328" lon="-1.44756">
        <ele>51</ele>
        <time>2020-06-01T16:57:47.000Z</time>
      </trkpt>
      <trkpt lat="47.25317" lon="-1.44768">
        <ele>51</ele>
        <time>2020-06-01T16:57:49.000Z</time>
      </trkpt>
      <trkpt lat="47.25306" lon="-1.4478">
        <ele>50</ele>
        <time>2020-06-01T16:57:51.000Z</time>
      </trkpt>
      <trkpt lat="47.25296" lon="-1.44792">
        <ele>51</ele>
        <time>2020-06-01T16:57:53.000Z</time>
      </trkpt>
      <trkpt lat="47.25285" lon="-1.44804">
        <ele>51</ele>
        <time>2020-06-01T16:57:55.000Z</time>
      </trkpt>
      <trkpt lat="47.25274" lon="-1.44816">
        <ele>51</ele>
        <time>2020-06-01T16:57:57.000Z</time>
      </trkpt>
      <trkpt lat="47.25262" lon="-1.44829">
        <ele>51</ele>
        <time>2020-06-01T16:57:59.000Z</time>
      </trkpt>
      <trkpt lat="47.25251" lon="-1.44842">
        <ele>51</ele>
        <time>2020-06-01T16:58:01.000Z</time>
      </trkpt>
      <trkpt lat="47.25241" lon="-1.44856">
        <ele>51</ele>
        <time>2020-06-01T16:58:03.000Z</time>
      </trkpt>
      <trkpt lat="47.2523" lon="-1.44868">
        <ele>51</ele>
        <time>2020-06-01T16:58:05.000Z</time>
      </trkpt>
      <trkpt lat="47.25219" lon="-1.44878">
        <ele>51</ele>
        <time>2020-06-01T16:58:07.000Z</time>
      </trkpt>
      <trkpt lat="47.25208" lon="-1.44887">
        <ele>51</ele>
        <time>2020-06-01T16:58:09.000Z</time>
      </trkpt>
      <trkpt lat="47.25195" lon="-1.44898">
        <ele>50</ele>
        <time>2020-06-01T16:58:11.000Z</time>
      </trkpt>
      <trkpt lat="47.25182" lon="-1.44909">
        <ele>50</ele>
        <time>2020-06-01T16:58:13.000Z</time>
      </trkpt>
      <trkpt lat="47.25169" lon="-1.44921">
        <ele>49</ele>
        <time>2020-06-01T16:58:15.000Z</time>
      </trkpt>
      <trkpt lat="47.25155" lon="-1.44933">
        <ele>49</ele>
        <time>2020-06-01T16:58:17.000Z</time>
      </trkpt>
      <trkpt lat="47.25141" lon="-1.44944">
        <ele>49</ele>
        <time>2020-06-01T16:58:19.000Z</time>
      </trkpt>
      <trkpt lat="47.25129" lon="-1.44955">
        <ele>49</ele>
        <time>2020-06-01T16:58:21.000Z</time>
      </trkpt>
      <trkpt lat="47.25117" lon="-1.44967">
        <ele>49</ele>
        <time>2020-06-01T16:58:23.000Z</time>
      </trkpt>
      <trkpt lat="47.25105" lon="-1.44978">
        <ele>49</ele>
        <time>2020-06-01T16:58:25.000Z</time>
      </trkpt>
      <trkpt lat="47.25093" lon="-1.44989">
        <ele>49</ele>
        <time>2020-06-01T16:58:27.000Z</time>
      </trkpt>
      <trkpt lat="47.25081" lon="-1.45">
        <ele>49</ele>
        <time>2020-06-01T16:58:29.000Z</time>
      </trkpt>
      <trkpt lat="47.25068" lon="-1.45009">
        <ele>50</ele>
        <time>2020-06-01T16:58:31.000Z</time>
      </trkpt>
      <trkpt lat="47.25056" lon="-1.45019">
        <ele>50</ele>
        <time>2020-06-01T16:58:33.000Z</time>
      </trkpt>
      <trkpt lat="47.25044" lon="-1.45029">
        <ele>50</ele>
        <time>2020-06-01T16:58:35.000Z</time>
      </trkpt>
      <trkpt lat="47.25032" lon="-1.45037">
        <ele>50</ele>
        <time>2020-06-01T16:58:37.000Z</time>
      </trkpt>
      <trkpt lat="47.25018" lon="-1.45047">
        <ele>50</ele>
        <time>2020-06-01T16:58:39.000Z</time>
      </trkpt>
      <trkpt lat="47.25006" lon="-1.45059">
        <ele>50</ele>
        <time>2020-06-01T16:58:41.000Z</time>
      </trkpt>
      <trkpt lat="47.24995" lon="-1.45071">
        <ele>51</ele>
        <time>2020-06-01T16:58:43.000Z</time>
      </trkpt>
      <trkpt lat="47.24984" lon="-1.45086">
        <ele>51</ele>
        <time>2020-06-01T16:58:45.000Z</time>
      </trkpt>
      <trkpt lat="47.24972" lon="-1.45099">
        <ele>50</ele>
        <time>2020-06-01T16:58:47.000Z</time>
      </trkpt>
      <trkpt lat="47.2496" lon="-1.45111">
        <ele>50</ele>
        <time>2020-06-01T16:58:49.000Z</time>
      </trkpt>
      <trkpt lat="47.24949" lon="-1.45122">
        <ele>50</ele>
        <time>2020-06-01T16:58:51.000Z</time>
      </trkpt>
      <trkpt lat="47.24937" lon="-1.45133">
        <ele>50</ele>
        <time>2020-06-01T16:58:53.000Z</time>
      </trkpt>
      <trkpt lat="47.24925" lon="-1.45145">
        <ele>50</ele>
        <time>2020-06-01T16:58:55.000Z</time>
      </trkpt>
      <trkpt lat="47.24915" lon="-1.45157">
        <ele>50</ele>
        <time>2020-06-01T16:58:57.000Z</time>
      </trkpt>
      <trkpt lat="47.24904" lon="-1.4517">
        <ele>49</ele>
        <time>2020-06-01T16:58:59.000Z</time>
      </trkpt>
      <trkpt lat="47.24895" lon="-1.45183">
        <ele>49</ele>
        <time>2020-06-01T16:59:01.000Z</time>
      </trkpt>
      <trkpt lat="47.24886" lon="-1.45197">
        <ele>49</ele>
        <time>2020-06-01T16:59:03.000Z</time>
      </trkpt>
      <trkpt lat="47.24876" lon="-1.45211">
        <ele>49</ele>
        <time>2020-06-01T16:59:05.000Z</time>
      </trkpt>
      <trkpt lat="47.24867" lon="-1.45224">
        <ele>49</ele>
        <time>2020-06-01T16:59:07.000Z</time>
      </trkpt>
      <trkpt lat="47.24857" lon="-1.45236">
        <ele>49</ele>
        <time>2020-06-01T16:59:09.000Z</time>
      </trkpt>
      <trkpt lat="47.24847" lon="-1.4525">
        <ele>48</ele>
        <time>2020-06-01T16:59:11.000Z</time>
      </trkpt>
      <trkpt lat="47.24838" lon="-1.45265">
        <ele>48</ele>
        <time>2020-06-01T16:59:13.000Z</time>
      </trkpt>
      <trkpt lat="47.24829" lon="-1.45281">
        <ele>48</ele>
        <time>2020-06-01T16:59:15.000Z</time>
      </trkpt>
      <trkpt lat="47.24821" lon="-1.45297">
        <ele>48</ele>
        <time>2020-06-01T16:59:17.000Z</time>
      </trkpt>
      <trkpt lat="47.24812" lon="-1.45313">
        <ele>48</ele>
        <time>2020-06-01T16:59:19.000Z</time>
      </trkpt>
      <trkpt lat="47.24804" lon="-1.45329">
        <ele>48</ele>
        <time>2020-06-01T16:59:21.000Z</time>
      </trkpt>
      <trkpt lat="47.24797" lon="-1.45346">
        <ele>49</ele>
        <time>2020-06-01T16:59:23.000Z</time>
      </trkpt>
      <trkpt lat="47.2479" lon="-1.45362">
        <ele>48</ele>
        <time>2020-06-01T16:59:25.000Z</time>
      </trkpt>
      <trkpt lat="47.24782" lon="-1.4538">
        <ele>48</ele>
        <time>2020-06-01T16:59:27.000Z</time>
      </trkpt>
      <trkpt lat="47.24775" lon="-1.45398">
        <ele>49</ele>
        <time>2020-06-01T16:59:29.000Z</time>
      </trkpt>
      <trkpt lat="47.24767" lon="-1.45415">
        <ele>50</ele>
        <time>2020-06-01T16:59:31.000Z</time>
      </trkpt>
      <trkpt lat="47.24759" lon="-1.45433">
        <ele>50</ele>
        <time>2020-06-01T16:59:33.000Z</time>
      </trkpt>
      <trkpt lat="47.24753" lon="-1.45452">
        <ele>51</ele>
        <time>2020-06-01T16:59:35.000Z</time>
      </trkpt>
      <trkpt lat="47.24747" lon="-1.45472">
        <ele>51</ele>
        <time>2020-06-01T16:59:37.000Z</time>
      </trkpt>
      <trkpt lat="47.2474" lon="-1.4549">
        <ele>50</ele>
        <time>2020-06-01T16:59:39.000Z</time>
      </trkpt>
      <trkpt lat="47.24732" lon="-1.45509">
        <ele>50</ele>
        <time>2020-06-01T16:59:41.000Z</time>
      </trkpt>
      <trkpt lat="47.24725" lon="-1.45529">
        <ele>50</ele>
        <time>2020-06-01T16:59:43.000Z</time>
      </trkpt>
      <trkpt lat="47.24717" lon="-1.45548">
        <ele>50</ele>
        <time>2020-06-01T16:59:45.000Z</time>
      </trkpt>
      <trkpt lat="47.24711" lon="-1.45568">
        <ele>50</ele>
        <time>2020-06-01T16:59:47.000Z</time>
      </trkpt>
      <trkpt lat="47.24706" lon="-1.45588">
        <ele>50</ele>
        <time>2020-06-01T16:59:49.000Z</time>
      </trkpt>
      <trkpt lat="47.24699" lon="-1.45607">
        <ele>51</ele>
        <time>2020-06-01T16:59:51.000Z</time>
      </trkpt>
      <trkpt lat="47.24692" lon="-1.45626">
        <ele>51</ele>
        <time>2020-06-01T16:59:53.000Z</time>
      </trkpt>
      <trkpt lat="47.24686" lon="-1.45645">
        <ele>51</ele>
        <time>2020-06-01T16:59:55.000Z</time>
      </trkpt>
      <trkpt lat="47.2468" lon="-1.45664">
        <ele>51</ele>
        <time>2020-06-01T16:59:57.000Z</time>
      </trkpt>
      <trkpt lat="47.24675" lon="-1.45682">
        <ele>51</ele>
        <time>2020-06-01T16:59:59.000Z</time>
      </trkpt>
      <trkpt lat="47.2467" lon="-1.45701">
        <ele>50</ele>
        <time>2020-06-01T17:00:01.000Z</time>
      </trkpt>
      <trkpt lat="47.24665" lon="-1.45721">
        <ele>49</ele>
        <time>2020-06-01T17:00:03.000Z</time>
      </trkpt>
      <trkpt lat="47.2466" lon="-1.4574">
        <ele>50</ele>
        <time>2020-06-01T17:00:05.000Z</time>
      </trkpt>
      <trkpt lat="47.24657" lon="-1.4576">
        <ele>50</ele>
        <time>2020-06-01T17:00:07.000Z</time>
      </trkpt>
      <trkpt lat="47.24652" lon="-1.4578">
        <ele>50</ele>
        <time>2020-06-01T17:00:09.000Z</time>
      </trkpt>
      <trkpt lat="47.24648" lon="-1.45799">
        <ele>50</ele>
        <time>2020-06-01T17:00:11.000Z</time>
      </trkpt>
      <trkpt lat="47.24641" lon="-1.45818">
        <ele>50</ele>
        <time>2020-06-01T17:00:13.000Z</time>
      </trkpt>
      <trkpt lat="47.24635" lon="-1.45836">
        <ele>51</ele>
        <time>2020-06-01T17:00:15.000Z</time>
      </trkpt>
      <trkpt lat="47.2463" lon="-1.45854">
        <ele>51</ele>
        <time>2020-06-01T17:00:17.000Z</time>
      </trkpt>
      <trkpt lat="47.24627" lon="-1.45872">
        <ele>51</ele>
        <time>2020-06-01T17:00:19.000Z</time>
      </trkpt>
      <trkpt lat="47.24622" lon="-1.45892">
        <ele>51</ele>
        <time>2020-06-01T17:00:21.000Z</time>
      </trkpt>
      <trkpt lat="47.24617" lon="-1.45912">
        <ele>50</ele>
        <time>2020-06-01T17:00:23.000Z</time>
      </trkpt>
      <trkpt lat="47.24612" lon="-1.4593">
        <ele>49</ele>
        <time>2020-06-01T17:00:25.000Z</time>
      </trkpt>
      <trkpt lat="47.24603" lon="-1.45947">
        <ele>48</ele>
        <time>2020-06-01T17:00:27.000Z</time>
      </trkpt>
      <trkpt lat="47.24594" lon="-1.45964">
        <ele>48</ele>
        <time>2020-06-01T17:00:29.000Z</time>
      </trkpt>
      <trkpt lat="47.24585" lon="-1.45982">
        <ele>49</ele>
        <time>2020-06-01T17:00:31.000Z</time>
      </trkpt>
      <trkpt lat="47.24576" lon="-1.46">
        <ele>49</ele>
        <time>2020-06-01T17:00:33.000Z</time>
      </trkpt>
      <trkpt lat="47.24568" lon="-1.46017">
        <ele>49</ele>
        <time>2020-06-01T17:00:35.000Z</time>
      </trkpt>
      <trkpt lat="47.2456" lon="-1.46032">
        <ele>50</ele>
        <time>2020-06-01T17:00:37.000Z</time>
      </trkpt>
      <trkpt lat="47.24552" lon="-1.46047">
        <ele>50</ele>
        <time>2020-06-01T17:00:39.000Z</time>
      </trkpt>
      <trkpt lat="47.24544" lon="-1.4606">
        <ele>50</ele>
        <time>2020-06-01T17:00:41.000Z</time>
      </trkpt>
      <trkpt lat="47.24537" lon="-1.46074">
        <ele>50</ele>
        <time>2020-06-01T17:00:43.000Z</time>
      </trkpt>
      <trkpt lat="47.24531" lon="-1.46087">
        <ele>50</ele>
        <time>2020-06-01T17:00:45.000Z</time>
      </trkpt>
      <trkpt lat="47.24525" lon="-1.46099">
        <ele>50</ele>
        <time>2020-06-01T17:00:47.000Z</time>
      </trkpt>
      <trkpt lat="47.24515" lon="-1.46111">
        <ele>51</ele>
        <time>2020-06-01T17:00:50.000Z</time>
      </trkpt>
      <trkpt lat="47.24506" lon="-1.46119">
        <ele>51</ele>
        <time>2020-06-01T17:00:52.000Z</time>
      </trkpt>
      <trkpt lat="47.24496" lon="-1.46132">
        <ele>50</ele>
        <time>2020-06-01T17:00:54.000Z</time>
      </trkpt>
      <trkpt lat="47.24485" lon="-1.46148">
        <ele>50</ele>
        <time>2020-06-01T17:00:56.000Z</time>
      </trkpt>
      <trkpt lat="47.24473" lon="-1.46164">
        <ele>50</ele>
        <time>2020-06-01T17:00:58.000Z</time>
      </trkpt>
      <trkpt lat="47.24461" lon="-1.46177">
        <ele>50</ele>
        <time>2020-06-01T17:01:00.000Z</time>
      </trkpt>
      <trkpt lat="47.24451" lon="-1.46189">
        <ele>50</ele>
        <time>2020-06-01T17:01:02.000Z</time>
      </trkpt>
      <trkpt lat="47.24439" lon="-1.46203">
        <ele>50</ele>
        <time>2020-06-01T17:01:04.000Z</time>
      </trkpt>
      <trkpt lat="47.24428" lon="-1.4622">
        <ele>50</ele>
        <time>2020-06-01T17:01:06.000Z</time>
      </trkpt>
      <trkpt lat="47.24418" lon="-1.46236">
        <ele>51</ele>
        <time>2020-06-01T17:01:08.000Z</time>
      </trkpt>
      <trkpt lat="47.24406" lon="-1.46251">
        <ele>51</ele>
        <time>2020-06-01T17:01:10.000Z</time>
      </trkpt>
      <trkpt lat="47.24395" lon="-1.46266">
        <ele>51</ele>
        <time>2020-06-01T17:01:12.000Z</time>
      </trkpt>
      <trkpt lat="47.24385" lon="-1.46281">
        <ele>50</ele>
        <time>2020-06-01T17:01:14.000Z</time>
      </trkpt>
      <trkpt lat="47.24373" lon="-1.46298">
        <ele>50</ele>
        <time>2020-06-01T17:01:16.000Z</time>
      </trkpt>
      <trkpt lat="47.24362" lon="-1.46315">
        <ele>50</ele>
        <time>2020-06-01T17:01:18.000Z</time>
      </trkpt>
      <trkpt lat="47.24352" lon="-1.46332">
        <ele>50</ele>
        <time>2020-06-01T17:01:20.000Z</time>
      </trkpt>
      <trkpt lat="47.24341" lon="-1.46348">
        <ele>51</ele>
        <time>2020-06-01T17:01:22.000Z</time>
      </trkpt>
      <trkpt lat="47.24332" lon="-1.46364">
        <ele>50</ele>
        <time>2020-06-01T17:01:24.000Z</time>
      </trkpt>
      <trkpt lat="47.24322" lon="-1.46381">
        <ele>49</ele>
        <time>2020-06-01T17:01:26.000Z</time>
      </trkpt>
      <trkpt lat="47.24313" lon="-1.46398">
        <ele>49</ele>
        <time>2020-06-01T17:01:28.000Z</time>
      </trkpt>
      <trkpt lat="47.24303" lon="-1.46414">
        <ele>49</ele>
        <time>2020-06-01T17:01:30.000Z</time>
      </trkpt>
      <trkpt lat="47.24294" lon="-1.4643">
        <ele>49</ele>
        <time>2020-06-01T17:01:32.000Z</time>
      </trkpt>
      <trkpt lat="47.24284" lon="-1.46445">
        <ele>50</ele>
        <time>2020-06-01T17:01:34.000Z</time>
      </trkpt>
      <trkpt lat="47.24274" lon="-1.46459">
        <ele>50</ele>
        <time>2020-06-01T17:01:36.000Z</time>
      </trkpt>
      <trkpt lat="47.24263" lon="-1.46473">
        <ele>50</ele>
        <time>2020-06-01T17:01:38.000Z</time>
      </trkpt>
      <trkpt lat="47.24253" lon="-1.46486">
        <ele>51</ele>
        <time>2020-06-01T17:01:40.000Z</time>
      </trkpt>
      <trkpt lat="47.24242" lon="-1.46499">
        <ele>50</ele>
        <time>2020-06-01T17:01:42.000Z</time>
      </trkpt>
      <trkpt lat="47.24231" lon="-1.46513">
        <ele>50</ele>
        <time>2020-06-01T17:01:44.000Z</time>
      </trkpt>
      <trkpt lat="47.2422" lon="-1.46526">
        <ele>51</ele>
        <time>2020-06-01T17:01:46.000Z</time>
      </trkpt>
      <trkpt lat="47.24209" lon="-1.46539">
        <ele>51</ele>
        <time>2020-06-01T17:01:48.000Z</time>
      </trkpt>
      <trkpt lat="47.24197" lon="-1.46552">
        <ele>51</ele>
        <time>2020-06-01T17:01:50.000Z</time>
      </trkpt>
      <trkpt lat="47.24188" lon="-1.46568">
        <ele>51</ele>
        <time>2020-06-01T17:01:52.000Z</time>
      </trkpt>
      <trkpt lat="47.24177" lon="-1.46581">
        <ele>51</ele>
        <time>2020-06-01T17:01:54.000Z</time>
      </trkpt>
      <trkpt lat="47.24166" lon="-1.46594">
        <ele>51</ele>
        <time>2020-06-01T17:01:56.000Z</time>
      </trkpt>
      <trkpt lat="47.24155" lon="-1.46609">
        <ele>51</ele>
        <time>2020-06-01T17:01:58.000Z</time>
      </trkpt>
      <trkpt lat="47.24145" lon="-1.46623">
        <ele>51</ele>
        <time>2020-06-01T17:02:00.000Z</time>
      </trkpt>
      <trkpt lat="47.24135" lon="-1.46637">
        <ele>51</ele>
        <time>2020-06-01T17:02:02.000Z</time>
      </trkpt>
      <trkpt lat="47.24125" lon="-1.46651">
        <ele>51</ele>
        <time>2020-06-01T17:02:04.000Z</time>
      </trkpt>
      <trkpt lat="47.24114" lon="-1.46665">
        <ele>51</ele>
        <time>2020-06-01T17:02:06.000Z</time>
      </trkpt>
      <trkpt lat="47.24104" lon="-1.46679">
        <ele>51</ele>
        <time>2020-06-01T17:02:08.000Z</time>
      </trkpt>
      <trkpt lat="47.24095" lon="-1.46693">
        <ele>51</ele>
        <time>2020-06-01T17:02:10.000Z</time>
      </trkpt>
      <trkpt lat="47.24087" lon="-1.46707">
        <ele>50</ele>
        <time>2020-06-01T17:02:12.000Z</time>
      </trkpt>
      <trkpt lat="47.24082" lon="-1.46722">
        <ele>50</ele>
        <time>2020-06-01T17:02:14.000Z</time>
      </trkpt>
      <trkpt lat="47.24074" lon="-1.46738">
        <ele>50</ele>
        <time>2020-06-01T17:02:16.000Z</time>
      </trkpt>
      <trkpt lat="47.24062" lon="-1.46748">
        <ele>50</ele>
        <time>2020-06-01T17:02:18.000Z</time>
      </trkpt>
      <trkpt lat="47.2405" lon="-1.46757">
        <ele>50</ele>
        <time>2020-06-01T17:02:20.000Z</time>
      </trkpt>
      <trkpt lat="47.24038" lon="-1.46769">
        <ele>50</ele>
        <time>2020-06-01T17:02:22.000Z</time>
      </trkpt>
      <trkpt lat="47.24026" lon="-1.46782">
        <ele>51</ele>
        <time>2020-06-01T17:02:24.000Z</time>
      </trkpt>
      <trkpt lat="47.24015" lon="-1.46794">
        <ele>51</ele>
        <time>2020-06-01T17:02:26.000Z</time>
      </trkpt>
      <trkpt lat="47.24004" lon="-1.46806">
        <ele>51</ele>
        <time>2020-06-01T17:02:28.000Z</time>
      </trkpt>
      <trkpt lat="47.23993" lon="-1.46819">
        <ele>51</ele>
        <time>2020-06-01T17:02:30.000Z</time>
      </trkpt>
      <trkpt lat="47.23983" lon="-1.46831">
        <ele>51</ele>
        <time>2020-06-01T17:02:32.000Z</time>
      </trkpt>
      <trkpt lat="47.2397" lon="-1.46843">
        <ele>51</ele>
        <time>2020-06-01T17:02:34.000Z</time>
      </trkpt>
      <trkpt lat="47.23959" lon="-1.46854">
        <ele>51</ele>
        <time>2020-06-01T17:02:36.000Z</time>
      </trkpt>
      <trkpt lat="47.23947" lon="-1.46864">
        <ele>51</ele>
        <time>2020-06-01T17:02:38.000Z</time>
      </trkpt>
      <trkpt lat="47.23936" lon="-1.46873">
        <ele>52</ele>
        <time>2020-06-01T17:02:40.000Z</time>
      </trkpt>
      <trkpt lat="47.23924" lon="-1.46885">
        <ele>51</ele>
        <time>2020-06-01T17:02:42.000Z</time>
      </trkpt>
      <trkpt lat="47.23914" lon="-1.46897">
        <ele>52</ele>
        <time>2020-06-01T17:02:44.000Z</time>
      </trkpt>
      <trkpt lat="47.23903" lon="-1.46911">
        <ele>52</ele>
        <time>2020-06-01T17:02:46.000Z</time>
      </trkpt>
      <trkpt lat="47.23894" lon="-1.46923">
        <ele>52</ele>
        <time>2020-06-01T17:02:48.000Z</time>
      </trkpt>
      <trkpt lat="47.23884" lon="-1.46937">
        <ele>52</ele>
        <time>2020-06-01T17:02:50.000Z</time>
      </trkpt>
      <trkpt lat="47.23872" lon="-1.46951">
        <ele>52</ele>
        <time>2020-06-01T17:02:52.000Z</time>
      </trkpt>
      <trkpt lat="47.23861" lon="-1.46965">
        <ele>53</ele>
        <time>2020-06-01T17:02:54.000Z</time>
      </trkpt>
      <trkpt lat="47.2385" lon="-1.4698">
        <ele>52</ele>
        <time>2020-06-01T17:02:56.000Z</time>
      </trkpt>
      <trkpt lat="47.2384" lon="-1.46995">
        <ele>52</ele>
        <time>2020-06-01T17:02:58.000Z</time>
      </trkpt>
      <trkpt lat="47.23829" lon="-1.4701">
        <ele>52</ele>
        <time>2020-06-01T17:03:00.000Z</time>
      </trkpt>
      <trkpt lat="47.23819" lon="-1.47026">
        <ele>51</ele>
        <time>2020-06-01T17:03:02.000Z</time>
      </trkpt>
      <trkpt lat="47.23809" lon="-1.47041">
        <ele>52</ele>
        <time>2020-06-01T17:03:04.000Z</time>
      </trkpt>
      <trkpt lat="47.23798" lon="-1.47055">
        <ele>52</ele>
        <time>2020-06-01T17:03:06.000Z</time>
      </trkpt>
      <trkpt lat="47.23788" lon="-1.4707">
        <ele>51</ele>
        <time>2020-06-01T17:03:08.000Z</time>
      </trkpt>
      <trkpt lat="47.23777" lon="-1.47085">
        <ele>51</ele>
        <time>2020-06-01T17:03:10.000Z</time>
      </trkpt>
      <trkpt lat="47.23767" lon="-1.47099">
        <ele>51</ele>
        <time>2020-06-01T17:03:12.000Z</time>
      </trkpt>
      <trkpt lat="47.23756" lon="-1.47113">
        <ele>51</ele>
        <time>2020-06-01T17:03:14.000Z</time>
      </trkpt>
      <trkpt lat="47.23746" lon="-1.47128">
        <ele>51</ele>
        <time>2020-06-01T17:03:16.000Z</time>
      </trkpt>
      <trkpt lat="47.23735" lon="-1.47141">
        <ele>51</ele>
        <time>2020-06-01T17:03:18.000Z</time>
      </trkpt>
      <trkpt lat="47.23723" lon="-1.47154">
        <ele>51</ele>
        <time>2020-06-01T17:03:20.000Z</time>
      </trkpt>
      <trkpt lat="47.23712" lon="-1.47169">
        <ele>51</ele>
        <time>2020-06-01T17:03:22.000Z</time>
      </trkpt>
      <trkpt lat="47.23701" lon="-1.47184">
        <ele>51</ele>
        <time>2020-06-01T17:03:24.000Z</time>
      </trkpt>
      <trkpt lat="47.23691" lon="-1.47199">
        <ele>50</ele>
        <time>2020-06-01T17:03:26.000Z</time>
      </trkpt>
      <trkpt lat="47.23682" lon="-1.47215">
        <ele>49</ele>
        <time>2020-06-01T17:03:28.000Z</time>
      </trkpt>
      <trkpt lat="47.2367" lon="-1.47229">
        <ele>49</ele>
        <time>2020-06-01T17:03:30.000Z</time>
      </trkpt>
      <trkpt lat="47.23658" lon="-1.47243">
        <ele>50</ele>
        <time>2020-06-01T17:03:32.000Z</time>
      </trkpt>
      <trkpt lat="47.23646" lon="-1.47257">
        <ele>50</ele>
        <time>2020-06-01T17:03:34.000Z</time>
      </trkpt>
      <trkpt lat="47.23635" lon="-1.4727">
        <ele>50</ele>
        <time>2020-06-01T17:03:36.000Z</time>
      </trkpt>
      <trkpt lat="47.23624" lon="-1.47283">
        <ele>50</ele>
        <time>2020-06-01T17:03:38.000Z</time>
      </trkpt>
      <trkpt lat="47.23612" lon="-1.47295">
        <ele>50</ele>
        <time>2020-06-01T17:03:40.000Z</time>
      </trkpt>
      <trkpt lat="47.236" lon="-1.47307">
        <ele>51</ele>
        <time>2020-06-01T17:03:42.000Z</time>
      </trkpt>
      <trkpt lat="47.23588" lon="-1.47319">
        <ele>50</ele>
        <time>2020-06-01T17:03:44.000Z</time>
      </trkpt>
      <trkpt lat="47.23576" lon="-1.47331">
        <ele>51</ele>
        <time>2020-06-01T17:03:46.000Z</time>
      </trkpt>
      <trkpt lat="47.23564" lon="-1.47342">
        <ele>51</ele>
        <time>2020-06-01T17:03:48.000Z</time>
      </trkpt>
      <trkpt lat="47.2355" lon="-1.47353">
        <ele>51</ele>
        <time>2020-06-01T17:03:50.000Z</time>
      </trkpt>
      <trkpt lat="47.23538" lon="-1.47362">
        <ele>51</ele>
        <time>2020-06-01T17:03:52.000Z</time>
      </trkpt>
      <trkpt lat="47.23525" lon="-1.47373">
        <ele>51</ele>
        <time>2020-06-01T17:03:54.000Z</time>
      </trkpt>
      <trkpt lat="47.23513" lon="-1.47382">
        <ele>52</ele>
        <time>2020-06-01T17:03:56.000Z</time>
      </trkpt>
      <trkpt lat="47.23501" lon="-1.47393">
        <ele>52</ele>
        <time>2020-06-01T17:03:58.000Z</time>
      </trkpt>
      <trkpt lat="47.23488" lon="-1.47403">
        <ele>52</ele>
        <time>2020-06-01T17:04:00.000Z</time>
      </trkpt>
      <trkpt lat="47.23474" lon="-1.47411">
        <ele>51</ele>
        <time>2020-06-01T17:04:02.000Z</time>
      </trkpt>
      <trkpt lat="47.2346" lon="-1.47415">
        <ele>51</ele>
        <time>2020-06-01T17:04:04.000Z</time>
      </trkpt>
      <trkpt lat="47.23446" lon="-1.47421">
        <ele>51</ele>
        <time>2020-06-01T17:04:06.000Z</time>
      </trkpt>
      <trkpt lat="47.23433" lon="-1.47426">
        <ele>51</ele>
        <time>2020-06-01T17:04:08.000Z</time>
      </trkpt>
      <trkpt lat="47.23421" lon="-1.47431">
        <ele>51</ele>
        <time>2020-06-01T17:04:10.000Z</time>
      </trkpt>
      <trkpt lat="47.23408" lon="-1.4744">
        <ele>51</ele>
        <time>2020-06-01T17:04:12.000Z</time>
      </trkpt>
      <trkpt lat="47.23395" lon="-1.47449">
        <ele>51</ele>
        <time>2020-06-01T17:04:14.000Z</time>
      </trkpt>
      <trkpt lat="47.23382" lon="-1.47458">
        <ele>51</ele>
        <time>2020-06-01T17:04:16.000Z</time>
      </trkpt>
      <trkpt lat="47.23369" lon="-1.47467">
        <ele>52</ele>
        <time>2020-06-01T17:04:18.000Z</time>
      </trkpt>
      <trkpt lat="47.23355" lon="-1.47472">
        <ele>51</ele>
        <time>2020-06-01T17:04:20.000Z</time>
      </trkpt>
      <trkpt lat="47.23341" lon="-1.47476">
        <ele>51</ele>
        <time>2020-06-01T17:04:22.000Z</time>
      </trkpt>
      <trkpt lat="47.23327" lon="-1.47483">
        <ele>51</ele>
        <time>2020-06-01T17:04:24.000Z</time>
      </trkpt>
      <trkpt lat="47.23316" lon="-1.47493">
        <ele>50</ele>
        <time>2020-06-01T17:04:26.000Z</time>
      </trkpt>
      <trkpt lat="47.23305" lon="-1.47504">
        <ele>51</ele>
        <time>2020-06-01T17:04:28.000Z</time>
      </trkpt>
      <trkpt lat="47.23292" lon="-1.47512">
        <ele>51</ele>
        <time>2020-06-01T17:04:30.000Z</time>
      </trkpt>
      <trkpt lat="47.2328" lon="-1.47519">
        <ele>51</ele>
        <time>2020-06-01T17:04:32.000Z</time>
      </trkpt>
      <trkpt lat="47.23267" lon="-1.47524">
        <ele>52</ele>
        <time>2020-06-01T17:04:34.000Z</time>
      </trkpt>
      <trkpt lat="47.23259" lon="-1.47537">
        <ele>51</ele>
        <time>2020-06-01T17:04:36.000Z</time>
      </trkpt>
      <trkpt lat="47.23251" lon="-1.47556">
        <ele>52</ele>
        <time>2020-06-01T17:04:38.000Z</time>
      </trkpt>
      <trkpt lat="47.23243" lon="-1.47573">
        <ele>51</ele>
        <time>2020-06-01T17:04:40.000Z</time>
      </trkpt>
      <trkpt lat="47.23234" lon="-1.47589">
        <ele>51</ele>
        <time>2020-06-01T17:04:42.000Z</time>
      </trkpt>
      <trkpt lat="47.23225" lon="-1.47606">
        <ele>51</ele>
        <time>2020-06-01T17:04:44.000Z</time>
      </trkpt>
      <trkpt lat="47.23216" lon="-1.47624">
        <ele>50</ele>
        <time>2020-06-01T17:04:46.000Z</time>
      </trkpt>
      <trkpt lat="47.23209" lon="-1.47642">
        <ele>50</ele>
        <time>2020-06-01T17:04:48.000Z</time>
      </trkpt>
      <trkpt lat="47.23201" lon="-1.4766">
        <ele>51</ele>
        <time>2020-06-01T17:04:50.000Z</time>
      </trkpt>
      <trkpt lat="47.23194" lon="-1.47678">
        <ele>51</ele>
        <time>2020-06-01T17:04:52.000Z</time>
      </trkpt>
      <trkpt lat="47.23186" lon="-1.47696">
        <ele>51</ele>
        <time>2020-06-01T17:04:54.000Z</time>
      </trkpt>
      <trkpt lat="47.23178" lon="-1.47713">
        <ele>50</ele>
        <time>2020-06-01T17:04:56.000Z</time>
      </trkpt>
      <trkpt lat="47.2317" lon="-1.47731">
        <ele>50</ele>
        <time>2020-06-01T17:04:58.000Z</time>
      </trkpt>
      <trkpt lat="47.23162" lon="-1.47749">
        <ele>50</ele>
        <time>2020-06-01T17:05:00.000Z</time>
      </trkpt>
      <trkpt lat="47.23155" lon="-1.47767">
        <ele>50</ele>
        <time>2020-06-01T17:05:02.000Z</time>
      </trkpt>
      <trkpt lat="47.23148" lon="-1.47785">
        <ele>50</ele>
        <time>2020-06-01T17:05:04.000Z</time>
      </trkpt>
      <trkpt lat="47.23142" lon="-1.47801">
        <ele>51</ele>
        <time>2020-06-01T17:05:06.000Z</time>
      </trkpt>
      <trkpt lat="47.23136" lon="-1.4782">
        <ele>50</ele>
        <time>2020-06-01T17:05:08.000Z</time>
      </trkpt>
      <trkpt lat="47.23128" lon="-1.47838">
        <ele>50</ele>
        <time>2020-06-01T17:05:10.000Z</time>
      </trkpt>
      <trkpt lat="47.2312" lon="-1.47856">
        <ele>50</ele>
        <time>2020-06-01T17:05:12.000Z</time>
      </trkpt>
      <trkpt lat="47.23111" lon="-1.47871">
        <ele>50</ele>
        <time>2020-06-01T17:05:14.000Z</time>
      </trkpt>
      <trkpt lat="47.231" lon="-1.47886">
        <ele>50</ele>
        <time>2020-06-01T17:05:16.000Z</time>
      </trkpt>
      <trkpt lat="47.2309" lon="-1.479">
        <ele>50</ele>
        <time>2020-06-01T17:05:18.000Z</time>
      </trkpt>
      <trkpt lat="47.23079" lon="-1.47913">
        <ele>50</ele>
        <time>2020-06-01T17:05:20.000Z</time>
      </trkpt>
      <trkpt lat="47.23068" lon="-1.47927">
        <ele>49</ele>
        <time>2020-06-01T17:05:22.000Z</time>
      </trkpt>
      <trkpt lat="47.23058" lon="-1.4794">
        <ele>48</ele>
        <time>2020-06-01T17:05:24.000Z</time>
      </trkpt>
      <trkpt lat="47.23048" lon="-1.47953">
        <ele>48</ele>
        <time>2020-06-01T17:05:26.000Z</time>
      </trkpt>
      <trkpt lat="47.23037" lon="-1.47966">
        <ele>48</ele>
        <time>2020-06-01T17:05:28.000Z</time>
      </trkpt>
      <trkpt lat="47.23027" lon="-1.4798">
        <ele>48</ele>
        <time>2020-06-01T17:05:30.000Z</time>
      </trkpt>
      <trkpt lat="47.23018" lon="-1.47994">
        <ele>49</ele>
        <time>2020-06-01T17:05:32.000Z</time>
      </trkpt>
      <trkpt lat="47.23008" lon="-1.48009">
        <ele>49</ele>
        <time>2020-06-01T17:05:34.000Z</time>
      </trkpt>
      <trkpt lat="47.22999" lon="-1.48024">
        <ele>49</ele>
        <time>2020-06-01T17:05:36.000Z</time>
      </trkpt>
      <trkpt lat="47.2299" lon="-1.48039">
        <ele>49</ele>
        <time>2020-06-01T17:05:38.000Z</time>
      </trkpt>
      <trkpt lat="47.22982" lon="-1.48053">
        <ele>49</ele>
        <time>2020-06-01T17:05:40.000Z</time>
      </trkpt>
      <trkpt lat="47.22974" lon="-1.48067">
        <ele>50</ele>
        <time>2020-06-01T17:05:42.000Z</time>
      </trkpt>
      <trkpt lat="47.22967" lon="-1.4808">
        <ele>50</ele>
        <time>2020-06-01T17:05:44.000Z</time>
      </trkpt>
      <trkpt lat="47.22958" lon="-1.4809">
        <ele>50</ele>
        <time>2020-06-01T17:05:47.000Z</time>
      </trkpt>
      <trkpt lat="47.22952" lon="-1.48104">
        <ele>49</ele>
        <time>2020-06-01T17:05:49.000Z</time>
      </trkpt>
      <trkpt lat="47.22942" lon="-1.48112">
        <ele>50</ele>
        <time>2020-06-01T17:05:51.000Z</time>
      </trkpt>
      <trkpt lat="47.22928" lon="-1.48113">
        <ele>50</ele>
        <time>2020-06-01T17:05:53.000Z</time>
      </trkpt>
      <trkpt lat="47.22915" lon="-1.48116">
        <ele>49</ele>
        <time>2020-06-01T17:05:55.000Z</time>
      </trkpt>
      <trkpt lat="47.22903" lon="-1.48125">
        <ele>49</ele>
        <time>2020-06-01T17:05:57.000Z</time>
      </trkpt>
      <trkpt lat="47.22893" lon="-1.48138">
        <ele>49</ele>
        <time>2020-06-01T17:05:59.000Z</time>
      </trkpt>
      <trkpt lat="47.22883" lon="-1.48152">
        <ele>49</ele>
        <time>2020-06-01T17:06:01.000Z</time>
      </trkpt>
      <trkpt lat="47.22874" lon="-1.48167">
        <ele>49</ele>
        <time>2020-06-01T17:06:03.000Z</time>
      </trkpt>
      <trkpt lat="47.22865" lon="-1.48182">
        <ele>49</ele>
        <time>2020-06-01T17:06:05.000Z</time>
      </trkpt>
      <trkpt lat="47.22855" lon="-1.48198">
        <ele>50</ele>
        <time>2020-06-01T17:06:07.000Z</time>
      </trkpt>
      <trkpt lat="47.22846" lon="-1.48213">
        <ele>50</ele>
        <time>2020-06-01T17:06:09.000Z</time>
      </trkpt>
      <trkpt lat="47.22836" lon="-1.48227">
        <ele>49</ele>
        <time>2020-06-01T17:06:11.000Z</time>
      </trkpt>
      <trkpt lat="47.22826" lon="-1.48242">
        <ele>50</ele>
        <time>2020-06-01T17:06:13.000Z</time>
      </trkpt>
      <trkpt lat="47.22817" lon="-1.48256">
        <ele>50</ele>
        <time>2020-06-01T17:06:15.000Z</time>
      </trkpt>
      <trkpt lat="47.22808" lon="-1.48271">
        <ele>50</ele>
        <time>2020-06-01T17:06:17.000Z</time>
      </trkpt>
      <trkpt lat="47.22798" lon="-1.48285">
        <ele>51</ele>
        <time>2020-06-01T17:06:19.000Z</time>
      </trkpt>
      <trkpt lat="47.22789" lon="-1.483">
        <ele>51</ele>
        <time>2020-06-01T17:06:21.000Z</time>
      </trkpt>
      <trkpt lat="47.22781" lon="-1.48316">
        <ele>50</ele>
        <time>2020-06-01T17:06:23.000Z</time>
      </trkpt>
      <trkpt lat="47.22771" lon="-1.4833">
        <ele>50</ele>
        <time>2020-06-01T17:06:25.000Z</time>
      </trkpt>
      <trkpt lat="47.22761" lon="-1.48344">
        <ele>51</ele>
        <time>2020-06-01T17:06:27.000Z</time>
      </trkpt>
      <trkpt lat="47.22752" lon="-1.48357">
        <ele>51</ele>
        <time>2020-06-01T17:06:29.000Z</time>
      </trkpt>
      <trkpt lat="47.22742" lon="-1.4837">
        <ele>51</ele>
        <time>2020-06-01T17:06:31.000Z</time>
      </trkpt>
      <trkpt lat="47.22732" lon="-1.48384">
        <ele>50</ele>
        <time>2020-06-01T17:06:33.000Z</time>
      </trkpt>
      <trkpt lat="47.22722" lon="-1.48397">
        <ele>50</ele>
        <time>2020-06-01T17:06:35.000Z</time>
      </trkpt>
      <trkpt lat="47.22712" lon="-1.4841">
        <ele>50</ele>
        <time>2020-06-01T17:06:37.000Z</time>
      </trkpt>
      <trkpt lat="47.22705" lon="-1.48428">
        <ele>50</ele>
        <time>2020-06-01T17:06:39.000Z</time>
      </trkpt>
      <trkpt lat="47.22698" lon="-1.48447">
        <ele>50</ele>
        <time>2020-06-01T17:06:41.000Z</time>
      </trkpt>
      <trkpt lat="47.22692" lon="-1.48464">
        <ele>50</ele>
        <time>2020-06-01T17:06:43.000Z</time>
      </trkpt>
      <trkpt lat="47.22686" lon="-1.48481">
        <ele>50</ele>
        <time>2020-06-01T17:06:45.000Z</time>
      </trkpt>
      <trkpt lat="47.22677" lon="-1.48498">
        <ele>50</ele>
        <time>2020-06-01T17:06:47.000Z</time>
      </trkpt>
      <trkpt lat="47.22671" lon="-1.48515">
        <ele>50</ele>
        <time>2020-06-01T17:06:49.000Z</time>
      </trkpt>
      <trkpt lat="47.22664" lon="-1.48534">
        <ele>51</ele>
        <time>2020-06-01T17:06:51.000Z</time>
      </trkpt>
      <trkpt lat="47.22658" lon="-1.48554">
        <ele>52</ele>
        <time>2020-06-01T17:06:53.000Z</time>
      </trkpt>
      <trkpt lat="47.22651" lon="-1.48572">
        <ele>51</ele>
        <time>2020-06-01T17:06:55.000Z</time>
      </trkpt>
      <trkpt lat="47.22645" lon="-1.4859">
        <ele>51</ele>
        <time>2020-06-01T17:06:57.000Z</time>
      </trkpt>
      <trkpt lat="47.22638" lon="-1.48606">
        <ele>51</ele>
        <time>2020-06-01T17:06:59.000Z</time>
      </trkpt>
      <trkpt lat="47.22632" lon="-1.48623">
        <ele>51</ele>
        <time>2020-06-01T17:07:01.000Z</time>
      </trkpt>
      <trkpt lat="47.22626" lon="-1.4864">
        <ele>50</ele>
        <time>2020-06-01T17:07:03.000Z</time>
      </trkpt>
      <trkpt lat="47.2262" lon="-1.48659">
        <ele>50</ele>
        <time>2020-06-01T17:07:05.000Z</time>
      </trkpt>
      <trkpt lat="47.22614" lon="-1.48678">
        <ele>50</ele>
        <time>2020-06-01T17:07:07.000Z</time>
      </trkpt>
      <trkpt lat="47.22607" lon="-1.48697">
        <ele>49</ele>
        <time>2020-06-01T17:07:09.000Z</time>
      </trkpt>
      <trkpt lat="47.22601" lon="-1.48716">
        <ele>49</ele>
        <time>2020-06-01T17:07:11.000Z</time>
      </trkpt>
      <trkpt lat="47.22596" lon="-1.48735">
        <ele>50</ele>
        <time>2020-06-01T17:07:13.000Z</time>
      </trkpt>
      <trkpt lat="47.22592" lon="-1.48755">
        <ele>50</ele>
        <time>2020-06-01T17:07:15.000Z</time>
      </trkpt>
      <trkpt lat="47.22586" lon="-1.48775">
        <ele>50</ele>
        <time>2020-06-01T17:07:17.000Z</time>
      </trkpt>
      <trkpt lat="47.22581" lon="-1.48793">
        <ele>51</ele>
        <time>2020-06-01T17:07:19.000Z</time>
      </trkpt>
      <trkpt lat="47.22574" lon="-1.48812">
        <ele>51</ele>
        <time>2020-06-01T17:07:21.000Z</time>
      </trkpt>
      <trkpt lat="47.22568" lon="-1.48829">
        <ele>51</ele>
        <time>2020-06-01T17:07:23.000Z</time>
      </trkpt>
      <trkpt lat="47.22563" lon="-1.48846">
        <ele>51</ele>
        <time>2020-06-01T17:07:25.000Z</time>
      </trkpt>
      <trkpt lat="47.22559" lon="-1.48862">
        <ele>51</ele>
        <time>2020-06-01T17:07:27.000Z</time>
      </trkpt>
      <trkpt lat="47.22555" lon="-1.48878">
        <ele>51</ele>
        <time>2020-06-01T17:07:29.000Z</time>
      </trkpt>
      <trkpt lat="47.2255" lon="-1.48894">
        <ele>51</ele>
        <time>2020-06-01T17:07:31.000Z</time>
      </trkpt>
      <trkpt lat="47.22545" lon="-1.48911">
        <ele>50</ele>
        <time>2020-06-01T17:07:33.000Z</time>
      </trkpt>
      <trkpt lat="47.22539" lon="-1.4893">
        <ele>50</ele>
        <time>2020-06-01T17:07:35.000Z</time>
      </trkpt>
      <trkpt lat="47.22533" lon="-1.48946">
        <ele>49</ele>
        <time>2020-06-01T17:07:37.000Z</time>
      </trkpt>
      <trkpt lat="47.22528" lon="-1.4896">
        <ele>49</ele>
        <time>2020-06-01T17:07:39.000Z</time>
      </trkpt>
      <trkpt lat="47.22523" lon="-1.48975">
        <ele>50</ele>
        <time>2020-06-01T17:07:41.000Z</time>
      </trkpt>
      <trkpt lat="47.22518" lon="-1.48989">
        <ele>49</ele>
        <time>2020-06-01T17:07:43.000Z</time>
      </trkpt>
      <trkpt lat="47.22515" lon="-1.49008">
        <ele>48</ele>
        <time>2020-06-01T17:07:45.000Z</time>
      </trkpt>
      <trkpt lat="47.22509" lon="-1.49029">
        <ele>47</ele>
        <time>2020-06-01T17:07:47.000Z</time>
      </trkpt>
      <trkpt lat="47.22503" lon="-1.49051">
        <ele>47</ele>
        <time>2020-06-01T17:07:49.000Z</time>
      </trkpt>
      <trkpt lat="47.22495" lon="-1.49075">
        <ele>48</ele>
        <time>2020-06-01T17:07:51.000Z</time>
      </trkpt>
      <trkpt lat="47.22491" lon="-1.49088">
        <ele>48</ele>
        <time>2020-06-01T17:07:52.000Z</time>
      </trkpt>
      <trkpt lat="47.22488" lon="-1.491">
        <ele>48</ele>
        <time>2020-06-01T17:07:53.000Z</time>
      </trkpt>
      <trkpt lat="47.22482" lon="-1.49124">
        <ele>49</ele>
        <time>2020-06-01T17:07:55.000Z</time>
      </trkpt>
      <trkpt lat="47.22477" lon="-1.49136">
        <ele>49</ele>
        <time>2020-06-01T17:07:56.000Z</time>
      </trkpt>
      <trkpt lat="47.22469" lon="-1.49159">
        <ele>49</ele>
        <time>2020-06-01T17:07:58.000Z</time>
      </trkpt>
      <trkpt lat="47.22464" lon="-1.4917">
        <ele>49</ele>
        <time>2020-06-01T17:07:59.000Z</time>
      </trkpt>
      <trkpt lat="47.22458" lon="-1.49182">
        <ele>48</ele>
        <time>2020-06-01T17:08:00.000Z</time>
      </trkpt>
      <trkpt lat="47.2245" lon="-1.49204">
        <ele>48</ele>
        <time>2020-06-01T17:08:02.000Z</time>
      </trkpt>
      <trkpt lat="47.22443" lon="-1.49225">
        <ele>48</ele>
        <time>2020-06-01T17:08:04.000Z</time>
      </trkpt>
      <trkpt lat="47.22435" lon="-1.49247">
        <ele>49</ele>
        <time>2020-06-01T17:08:06.000Z</time>
      </trkpt>
      <trkpt lat="47.22427" lon="-1.49266">
        <ele>49</ele>
        <time>2020-06-01T17:08:08.000Z</time>
      </trkpt>
      <trkpt lat="47.22418" lon="-1.49287">
        <ele>49</ele>
        <time>2020-06-01T17:08:10.000Z</time>
      </trkpt>
      <trkpt lat="47.2241" lon="-1.49306">
        <ele>49</ele>
        <time>2020-06-01T17:08:12.000Z</time>
      </trkpt>
      <trkpt lat="47.22403" lon="-1.49326">
        <ele>50</ele>
        <time>2020-06-01T17:08:14.000Z</time>
      </trkpt>
      <trkpt lat="47.22395" lon="-1.49345">
        <ele>50</ele>
        <time>2020-06-01T17:08:16.000Z</time>
      </trkpt>
      <trkpt lat="47.22388" lon="-1.49363">
        <ele>49</ele>
        <time>2020-06-01T17:08:18.000Z</time>
      </trkpt>
      <trkpt lat="47.22381" lon="-1.4938">
        <ele>49</ele>
        <time>2020-06-01T17:08:20.000Z</time>
      </trkpt>
      <trkpt lat="47.22373" lon="-1.49396">
        <ele>49</ele>
        <time>2020-06-01T17:08:22.000Z</time>
      </trkpt>
      <trkpt lat="47.22366" lon="-1.49413">
        <ele>49</ele>
        <time>2020-06-01T17:08:24.000Z</time>
      </trkpt>
      <trkpt lat="47.22359" lon="-1.49431">
        <ele>49</ele>
        <time>2020-06-01T17:08:26.000Z</time>
      </trkpt>
      <trkpt lat="47.22353" lon="-1.49447">
        <ele>49</ele>
        <time>2020-06-01T17:08:28.000Z</time>
      </trkpt>
      <trkpt lat="47.22347" lon="-1.49465">
        <ele>49</ele>
        <time>2020-06-01T17:08:30.000Z</time>
      </trkpt>
      <trkpt lat="47.22342" lon="-1.49482">
        <ele>50</ele>
        <time>2020-06-01T17:08:32.000Z</time>
      </trkpt>
      <trkpt lat="47.22337" lon="-1.49502">
        <ele>49</ele>
        <time>2020-06-01T17:08:34.000Z</time>
      </trkpt>
      <trkpt lat="47.22331" lon="-1.4952">
        <ele>49</ele>
        <time>2020-06-01T17:08:36.000Z</time>
      </trkpt>
      <trkpt lat="47.22325" lon="-1.49539">
        <ele>49</ele>
        <time>2020-06-01T17:08:38.000Z</time>
      </trkpt>
      <trkpt lat="47.22319" lon="-1.49556">
        <ele>50</ele>
        <time>2020-06-01T17:08:40.000Z</time>
      </trkpt>
      <trkpt lat="47.22312" lon="-1.49574">
        <ele>49</ele>
        <time>2020-06-01T17:08:42.000Z</time>
      </trkpt>
      <trkpt lat="47.22305" lon="-1.49591">
        <ele>49</ele>
        <time>2020-06-01T17:08:44.000Z</time>
      </trkpt>
      <trkpt lat="47.22299" lon="-1.4961">
        <ele>49</ele>
        <time>2020-06-01T17:08:46.000Z</time>
      </trkpt>
      <trkpt lat="47.22293" lon="-1.49628">
        <ele>49</ele>
        <time>2020-06-01T17:08:48.000Z</time>
      </trkpt>
      <trkpt lat="47.22289" lon="-1.49646">
        <ele>49</ele>
        <time>2020-06-01T17:08:50.000Z</time>
      </trkpt>
      <trkpt lat="47.22284" lon="-1.49666">
        <ele>49</ele>
        <time>2020-06-01T17:08:52.000Z</time>
      </trkpt>
      <trkpt lat="47.22278" lon="-1.49684">
        <ele>49</ele>
        <time>2020-06-01T17:08:54.000Z</time>
      </trkpt>
      <trkpt lat="47.22272" lon="-1.49703">
        <ele>50</ele>
        <time>2020-06-01T17:08:56.000Z</time>
      </trkpt>
      <trkpt lat="47.22265" lon="-1.49721">
        <ele>51</ele>
        <time>2020-06-01T17:08:58.000Z</time>
      </trkpt>
      <trkpt lat="47.2226" lon="-1.49739">
        <ele>50</ele>
        <time>2020-06-01T17:09:00.000Z</time>
      </trkpt>
      <trkpt lat="47.22257" lon="-1.49759">
        <ele>51</ele>
        <time>2020-06-01T17:09:02.000Z</time>
      </trkpt>
      <trkpt lat="47.22255" lon="-1.49777">
        <ele>51</ele>
        <time>2020-06-01T17:09:04.000Z</time>
      </trkpt>
      <trkpt lat="47.22252" lon="-1.49796">
        <ele>51</ele>
        <time>2020-06-01T17:09:06.000Z</time>
      </trkpt>
      <trkpt lat="47.2225" lon="-1.49814">
        <ele>52</ele>
        <time>2020-06-01T17:09:08.000Z</time>
      </trkpt>
      <trkpt lat="47.22246" lon="-1.49834">
        <ele>52</ele>
        <time>2020-06-01T17:09:10.000Z</time>
      </trkpt>
      <trkpt lat="47.22242" lon="-1.49854">
        <ele>52</ele>
        <time>2020-06-01T17:09:12.000Z</time>
      </trkpt>
      <trkpt lat="47.22237" lon="-1.49874">
        <ele>52</ele>
        <time>2020-06-01T17:09:14.000Z</time>
      </trkpt>
      <trkpt lat="47.22232" lon="-1.49894">
        <ele>52</ele>
        <time>2020-06-01T17:09:16.000Z</time>
      </trkpt>
      <trkpt lat="47.22227" lon="-1.49913">
        <ele>52</ele>
        <time>2020-06-01T17:09:18.000Z</time>
      </trkpt>
      <trkpt lat="47.22223" lon="-1.49931">
        <ele>51</ele>
        <time>2020-06-01T17:09:20.000Z</time>
      </trkpt>
      <trkpt lat="47.22219" lon="-1.49949">
        <ele>51</ele>
        <time>2020-06-01T17:09:22.000Z</time>
      </trkpt>
      <trkpt lat="47.22214" lon="-1.49967">
        <ele>51</ele>
        <time>2020-06-01T17:09:24.000Z</time>
      </trkpt>
      <trkpt lat="47.22208" lon="-1.49984">
        <ele>50</ele>
        <time>2020-06-01T17:09:26.000Z</time>
      </trkpt>
      <trkpt lat="47.22202" lon="-1.50003">
        <ele>50</ele>
        <time>2020-06-01T17:09:28.000Z</time>
      </trkpt>
      <trkpt lat="47.22197" lon="-1.50023">
        <ele>51</ele>
        <time>2020-06-01T17:09:30.000Z</time>
      </trkpt>
      <trkpt lat="47.22192" lon="-1.50045">
        <ele>51</ele>
        <time>2020-06-01T17:09:32.000Z</time>
      </trkpt>
      <trkpt lat="47.22188" lon="-1.50065">
        <ele>51</ele>
        <time>2020-06-01T17:09:34.000Z</time>
      </trkpt>
      <trkpt lat="47.22183" lon="-1.50084">
        <ele>51</ele>
        <time>2020-06-01T17:09:36.000Z</time>
      </trkpt>
      <trkpt lat="47.22178" lon="-1.50105">
        <ele>50</ele>
        <time>2020-06-01T17:09:38.000Z</time>
      </trkpt>
      <trkpt lat="47.22171" lon="-1.50124">
        <ele>51</ele>
        <time>2020-06-01T17:09:40.000Z</time>
      </trkpt>
      <trkpt lat="47.22163" lon="-1.50144">
        <ele>51</ele>
        <time>2020-06-01T17:09:42.000Z</time>
      </trkpt>
      <trkpt lat="47.22158" lon="-1.50162">
        <ele>51</ele>
        <time>2020-06-01T17:09:44.000Z</time>
      </trkpt>
      <trkpt lat="47.22153" lon="-1.50181">
        <ele>51</ele>
        <time>2020-06-01T17:09:46.000Z</time>
      </trkpt>
      <trkpt lat="47.22148" lon="-1.502">
        <ele>51</ele>
        <time>2020-06-01T17:09:48.000Z</time>
      </trkpt>
      <trkpt lat="47.22143" lon="-1.50219">
        <ele>51</ele>
        <time>2020-06-01T17:09:50.000Z</time>
      </trkpt>
      <trkpt lat="47.22138" lon="-1.50237">
        <ele>51</ele>
        <time>2020-06-01T17:09:52.000Z</time>
      </trkpt>
      <trkpt lat="47.22134" lon="-1.50255">
        <ele>50</ele>
        <time>2020-06-01T17:09:54.000Z</time>
      </trkpt>
      <trkpt lat="47.22128" lon="-1.50274">
        <ele>50</ele>
        <time>2020-06-01T17:09:56.000Z</time>
      </trkpt>
      <trkpt lat="47.22119" lon="-1.50292">
        <ele>49</ele>
        <time>2020-06-01T17:09:58.000Z</time>
      </trkpt>
      <trkpt lat="47.2211" lon="-1.5031">
        <ele>49</ele>
        <time>2020-06-01T17:10:00.000Z</time>
      </trkpt>
      <trkpt lat="47.22101" lon="-1.50327">
        <ele>49</ele>
        <time>2020-06-01T17:10:02.000Z</time>
      </trkpt>
      <trkpt lat="47.22094" lon="-1.50344">
        <ele>49</ele>
        <time>2020-06-01T17:10:04.000Z</time>
      </trkpt>
      <trkpt lat="47.22088" lon="-1.50363">
        <ele>50</ele>
        <time>2020-06-01T17:10:06.000Z</time>
      </trkpt>
      <trkpt lat="47.22084" lon="-1.50382">
        <ele>50</ele>
        <time>2020-06-01T17:10:08.000Z</time>
      </trkpt>
      <trkpt lat="47.22079" lon="-1.50401">
        <ele>51</ele>
        <time>2020-06-01T17:10:10.000Z</time>
      </trkpt>
      <trkpt lat="47.22074" lon="-1.50419">
        <ele>51</ele>
        <time>2020-06-01T17:10:12.000Z</time>
      </trkpt>
      <trkpt lat="47.22071" lon="-1.50439">
        <ele>51</ele>
        <time>2020-06-01T17:10:14.000Z</time>
      </trkpt>
      <trkpt lat="47.22067" lon="-1.50461">
        <ele>50</ele>
        <time>2020-06-01T17:10:16.000Z</time>
      </trkpt>
      <trkpt lat="47.22064" lon="-1.5048">
        <ele>50</ele>
        <time>2020-06-01T17:10:18.000Z</time>
      </trkpt>
      <trkpt lat="47.22062" lon="-1.50501">
        <ele>50</ele>
        <time>2020-06-01T17:10:20.000Z</time>
      </trkpt>
      <trkpt lat="47.22061" lon="-1.5052">
        <ele>49</ele>
        <time>2020-06-01T17:10:22.000Z</time>
      </trkpt>
      <trkpt lat="47.22059" lon="-1.50539">
        <ele>49</ele>
        <time>2020-06-01T17:10:24.000Z</time>
      </trkpt>
      <trkpt lat="47.22057" lon="-1.50558">
        <ele>49</ele>
        <time>2020-06-01T17:10:26.000Z</time>
      </trkpt>
      <trkpt lat="47.22055" lon="-1.50577">
        <ele>49</ele>
        <time>2020-06-01T17:10:28.000Z</time>
      </trkpt>
      <trkpt lat="47.22054" lon="-1.50596">
        <ele>48</ele>
        <time>2020-06-01T17:10:30.000Z</time>
      </trkpt>
      <trkpt lat="47.22052" lon="-1.50614">
        <ele>47</ele>
        <time>2020-06-01T17:10:32.000Z</time>
      </trkpt>
      <trkpt lat="47.22052" lon="-1.50632">
        <ele>47</ele>
        <time>2020-06-01T17:10:34.000Z</time>
      </trkpt>
      <trkpt lat="47.22051" lon="-1.50651">
        <ele>48</ele>
        <time>2020-06-01T17:10:36.000Z</time>
      </trkpt>
      <trkpt lat="47.2205" lon="-1.50669">
        <ele>48</ele>
        <time>2020-06-01T17:10:38.000Z</time>
      </trkpt>
      <trkpt lat="47.22049" lon="-1.50685">
        <ele>48</ele>
        <time>2020-06-01T17:10:40.000Z</time>
      </trkpt>
      <trkpt lat="47.2205" lon="-1.507">
        <ele>48</ele>
        <time>2020-06-01T17:10:42.000Z</time>
      </trkpt>
      <trkpt lat="47.22049" lon="-1.50717">
        <ele>49</ele>
        <time>2020-06-01T17:10:44.000Z</time>
      </trkpt>
      <trkpt lat="47.2205" lon="-1.50735">
        <ele>49</ele>
        <time>2020-06-01T17:10:46.000Z</time>
      </trkpt>
      <trkpt lat="47.22049" lon="-1.50752">
        <ele>48</ele>
        <time>2020-06-01T17:10:48.000Z</time>
      </trkpt>
      <trkpt lat="47.22046" lon="-1.5077">
        <ele>47</ele>
        <time>2020-06-01T17:10:50.000Z</time>
      </trkpt>
      <trkpt lat="47.22042" lon="-1.5079">
        <ele>47</ele>
        <time>2020-06-01T17:10:52.000Z</time>
      </trkpt>
      <trkpt lat="47.22037" lon="-1.50806">
        <ele>47</ele>
        <time>2020-06-01T17:10:54.000Z</time>
      </trkpt>
      <trkpt lat="47.2203" lon="-1.50822">
        <ele>46</ele>
        <time>2020-06-01T17:10:56.000Z</time>
      </trkpt>
      <trkpt lat="47.22022" lon="-1.50841">
        <ele>46</ele>
        <time>2020-06-01T17:10:58.000Z</time>
      </trkpt>
      <trkpt lat="47.22013" lon="-1.50863">
        <ele>45</ele>
        <time>2020-06-01T17:11:00.000Z</time>
      </trkpt>
      <trkpt lat="47.22008" lon="-1.50875">
        <ele>46</ele>
        <time>2020-06-01T17:11:01.000Z</time>
      </trkpt>
      <trkpt lat="47.22003" lon="-1.50887">
        <ele>47</ele>
        <time>2020-06-01T17:11:02.000Z</time>
      </trkpt>
      <trkpt lat="47.21996" lon="-1.5091">
        <ele>49</ele>
        <time>2020-06-01T17:11:04.000Z</time>
      </trkpt>
      <trkpt lat="47.21989" lon="-1.50931">
        <ele>50</ele>
        <time>2020-06-01T17:11:06.000Z</time>
      </trkpt>
      <trkpt lat="47.21983" lon="-1.50949">
        <ele>49</ele>
        <time>2020-06-01T17:11:08.000Z</time>
      </trkpt>
      <trkpt lat="47.21977" lon="-1.50967">
        <ele>50</ele>
        <time>2020-06-01T17:11:10.000Z</time>
      </trkpt>
      <trkpt lat="47.21971" lon="-1.50986">
        <ele>50</ele>
        <time>2020-06-01T17:11:12.000Z</time>
      </trkpt>
      <trkpt lat="47.21966" lon="-1.51005">
        <ele>50</ele>
        <time>2020-06-01T17:11:14.000Z</time>
      </trkpt>
      <trkpt lat="47.2196" lon="-1.51023">
        <ele>50</ele>
        <time>2020-06-01T17:11:16.000Z</time>
      </trkpt>
      <trkpt lat="47.21956" lon="-1.5104">
        <ele>50</ele>
        <time>2020-06-01T17:11:18.000Z</time>
      </trkpt>
      <trkpt lat="47.21951" lon="-1.51055">
        <ele>51</ele>
        <time>2020-06-01T17:11:20.000Z</time>
      </trkpt>
      <trkpt lat="47.21943" lon="-1.51066">
        <ele>51</ele>
        <time>2020-06-01T17:11:22.000Z</time>
      </trkpt>
      <trkpt lat="47.21934" lon="-1.51079">
        <ele>50</ele>
        <time>2020-06-01T17:11:24.000Z</time>
      </trkpt>
      <trkpt lat="47.21928" lon="-1.51097">
        <ele>49</ele>
        <time>2020-06-01T17:11:26.000Z</time>
      </trkpt>
      <trkpt lat="47.21922" lon="-1.51116">
        <ele>49</ele>
        <time>2020-06-01T17:11:28.000Z</time>
      </trkpt>
      <trkpt lat="47.21916" lon="-1.51134">
        <ele>49</ele>
        <time>2020-06-01T17:11:30.000Z</time>
      </trkpt>
      <trkpt lat="47.2191" lon="-1.51152">
        <ele>50</ele>
        <time>2020-06-01T17:11:32.000Z</time>
      </trkpt>
      <trkpt lat="47.21904" lon="-1.51171">
        <ele>51</ele>
        <time>2020-06-01T17:11:34.000Z</time>
      </trkpt>
      <trkpt lat="47.21898" lon="-1.51189">
        <ele>51</ele>
        <time>2020-06-01T17:11:36.000Z</time>
      </trkpt>
      <trkpt lat="47.21892" lon="-1.51207">
        <ele>51</ele>
        <time>2020-06-01T17:11:38.000Z</time>
      </trkpt>
      <trkpt lat="47.21887" lon="-1.51225">
        <ele>51</ele>
        <time>2020-06-01T17:11:40.000Z</time>
      </trkpt>
      <trkpt lat="47.2188" lon="-1.51244">
        <ele>51</ele>
        <time>2020-06-01T17:11:42.000Z</time>
      </trkpt>
      <trkpt lat="47.21875" lon="-1.5126">
        <ele>51</ele>
        <time>2020-06-01T17:11:44.000Z</time>
      </trkpt>
      <trkpt lat="47.21869" lon="-1.51276">
        <ele>51</ele>
        <time>2020-06-01T17:11:46.000Z</time>
      </trkpt>
      <trkpt lat="47.21864" lon="-1.51295">
        <ele>51</ele>
        <time>2020-06-01T17:11:48.000Z</time>
      </trkpt>
      <trkpt lat="47.21859" lon="-1.51315">
        <ele>51</ele>
        <time>2020-06-01T17:11:50.000Z</time>
      </trkpt>
      <trkpt lat="47.21853" lon="-1.51335">
        <ele>51</ele>
        <time>2020-06-01T17:11:52.000Z</time>
      </trkpt>
      <trkpt lat="47.21847" lon="-1.51356">
        <ele>51</ele>
        <time>2020-06-01T17:11:54.000Z</time>
      </trkpt>
      <trkpt lat="47.21841" lon="-1.51377">
        <ele>51</ele>
        <time>2020-06-01T17:11:56.000Z</time>
      </trkpt>
      <trkpt lat="47.21836" lon="-1.51398">
        <ele>51</ele>
        <time>2020-06-01T17:11:58.000Z</time>
      </trkpt>
      <trkpt lat="47.21831" lon="-1.51419">
        <ele>51</ele>
        <time>2020-06-01T17:12:00.000Z</time>
      </trkpt>
      <trkpt lat="47.21827" lon="-1.5144">
        <ele>52</ele>
        <time>2020-06-01T17:12:02.000Z</time>
      </trkpt>
      <trkpt lat="47.21823" lon="-1.5146">
        <ele>51</ele>
        <time>2020-06-01T17:12:04.000Z</time>
      </trkpt>
      <trkpt lat="47.21818" lon="-1.51482">
        <ele>52</ele>
        <time>2020-06-01T17:12:06.000Z</time>
      </trkpt>
      <trkpt lat="47.21812" lon="-1.51502">
        <ele>52</ele>
        <time>2020-06-01T17:12:08.000Z</time>
      </trkpt>
      <trkpt lat="47.21803" lon="-1.51519">
        <ele>52</ele>
        <time>2020-06-01T17:12:10.000Z</time>
      </trkpt>
      <trkpt lat="47.21796" lon="-1.51537">
        <ele>52</ele>
        <time>2020-06-01T17:12:12.000Z</time>
      </trkpt>
      <trkpt lat="47.21789" lon="-1.51556">
        <ele>52</ele>
        <time>2020-06-01T17:12:14.000Z</time>
      </trkpt>
      <trkpt lat="47.21779" lon="-1.51573">
        <ele>52</ele>
        <time>2020-06-01T17:12:16.000Z</time>
      </trkpt>
      <trkpt lat="47.21769" lon="-1.51587">
        <ele>52</ele>
        <time>2020-06-01T17:12:18.000Z</time>
      </trkpt>
      <trkpt lat="47.21759" lon="-1.51602">
        <ele>52</ele>
        <time>2020-06-01T17:12:20.000Z</time>
      </trkpt>
      <trkpt lat="47.21751" lon="-1.51621">
        <ele>52</ele>
        <time>2020-06-01T17:12:22.000Z</time>
      </trkpt>
      <trkpt lat="47.21742" lon="-1.5164">
        <ele>52</ele>
        <time>2020-06-01T17:12:24.000Z</time>
      </trkpt>
      <trkpt lat="47.21733" lon="-1.51659">
        <ele>51</ele>
        <time>2020-06-01T17:12:26.000Z</time>
      </trkpt>
      <trkpt lat="47.21725" lon="-1.51677">
        <ele>51</ele>
        <time>2020-06-01T17:12:28.000Z</time>
      </trkpt>
      <trkpt lat="47.21717" lon="-1.51696">
        <ele>51</ele>
        <time>2020-06-01T17:12:30.000Z</time>
      </trkpt>
      <trkpt lat="47.21709" lon="-1.51713">
        <ele>51</ele>
        <time>2020-06-01T17:12:32.000Z</time>
      </trkpt>
      <trkpt lat="47.21701" lon="-1.51731">
        <ele>51</ele>
        <time>2020-06-01T17:12:34.000Z</time>
      </trkpt>
      <trkpt lat="47.21693" lon="-1.51751">
        <ele>51</ele>
        <time>2020-06-01T17:12:36.000Z</time>
      </trkpt>
      <trkpt lat="47.21685" lon="-1.51769">
        <ele>51</ele>
        <time>2020-06-01T17:12:38.000Z</time>
      </trkpt>
      <trkpt lat="47.21677" lon="-1.51787">
        <ele>52</ele>
        <time>2020-06-01T17:12:40.000Z</time>
      </trkpt>
      <trkpt lat="47.21669" lon="-1.51805">
        <ele>53</ele>
        <time>2020-06-01T17:12:42.000Z</time>
      </trkpt>
      <trkpt lat="47.21661" lon="-1.51824">
        <ele>53</ele>
        <time>2020-06-01T17:12:44.000Z</time>
      </trkpt>
      <trkpt lat="47.21654" lon="-1.51843">
        <ele>53</ele>
        <time>2020-06-01T17:12:46.000Z</time>
      </trkpt>
      <trkpt lat="47.21648" lon="-1.51861">
        <ele>53</ele>
        <time>2020-06-01T17:12:48.000Z</time>
      </trkpt>
      <trkpt lat="47.21645" lon="-1.51881">
        <ele>53</ele>
        <time>2020-06-01T17:12:50.000Z</time>
      </trkpt>
      <trkpt lat="47.21637" lon="-1.51898">
        <ele>53</ele>
        <time>2020-06-01T17:12:52.000Z</time>
      </trkpt>
      <trkpt lat="47.2163" lon="-1.51915">
        <ele>53</ele>
        <time>2020-06-01T17:12:54.000Z</time>
      </trkpt>
      <trkpt lat="47.21625" lon="-1.51934">
        <ele>53</ele>
        <time>2020-06-01T17:12:56.000Z</time>
      </trkpt>
      <trkpt lat="47.21621" lon="-1.51953">
        <ele>53</ele>
        <time>2020-06-01T17:12:58.000Z</time>
      </trkpt>
      <trkpt lat="47.21617" lon="-1.51974">
        <ele>51</ele>
        <time>2020-06-01T17:13:00.000Z</time>
      </trkpt>
      <trkpt lat="47.21609" lon="-1.51989">
        <ele>52</ele>
        <time>2020-06-01T17:13:02.000Z</time>
      </trkpt>
      <trkpt lat="47.21604" lon="-1.52005">
        <ele>51</ele>
        <time>2020-06-01T17:13:04.000Z</time>
      </trkpt>
      <trkpt lat="47.21598" lon="-1.52024">
        <ele>51</ele>
        <time>2020-06-01T17:13:06.000Z</time>
      </trkpt>
      <trkpt lat="47.21591" lon="-1.52043">
        <ele>51</ele>
        <time>2020-06-01T17:13:08.000Z</time>
      </trkpt>
      <trkpt lat="47.21584" lon="-1.52063">
        <ele>51</ele>
        <time>2020-06-01T17:13:10.000Z</time>
      </trkpt>
      <trkpt lat="47.21578" lon="-1.52081">
        <ele>51</ele>
        <time>2020-06-01T17:13:12.000Z</time>
      </trkpt>
      <trkpt lat="47.21572" lon="-1.52099">
        <ele>51</ele>
        <time>2020-06-01T17:13:14.000Z</time>
      </trkpt>
      <trkpt lat="47.21566" lon="-1.52118">
        <ele>51</ele>
        <time>2020-06-01T17:13:16.000Z</time>
      </trkpt>
      <trkpt lat="47.2156" lon="-1.52137">
        <ele>51</ele>
        <time>2020-06-01T17:13:18.000Z</time>
      </trkpt>
      <trkpt lat="47.21554" lon="-1.52156">
        <ele>52</ele>
        <time>2020-06-01T17:13:20.000Z</time>
      </trkpt>
      <trkpt lat="47.21548" lon="-1.52175">
        <ele>52</ele>
        <time>2020-06-01T17:13:22.000Z</time>
      </trkpt>
      <trkpt lat="47.21541" lon="-1.52191">
        <ele>52</ele>
        <time>2020-06-01T17:13:24.000Z</time>
      </trkpt>
      <trkpt lat="47.21537" lon="-1.52204">
        <ele>52</ele>
        <time>2020-06-01T17:13:26.000Z</time>
      </trkpt>
      <trkpt lat="47.21534" lon="-1.52217">
        <ele>52</ele>
        <time>2020-06-01T17:13:29.000Z</time>
      </trkpt>
      <trkpt lat="47.21528" lon="-1.5223">
        <ele>52</ele>
        <time>2020-06-01T17:13:32.000Z</time>
      </trkpt>
      <trkpt lat="47.21526" lon="-1.52245">
        <ele>52</ele>
        <time>2020-06-01T17:13:34.000Z</time>
      </trkpt>
      <trkpt lat="47.21521" lon="-1.52262">
        <ele>52</ele>
        <time>2020-06-01T17:13:36.000Z</time>
      </trkpt>
      <trkpt lat="47.21513" lon="-1.52283">
        <ele>51</ele>
        <time>2020-06-01T17:13:38.000Z</time>
      </trkpt>
      <trkpt lat="47.21506" lon="-1.52303">
        <ele>51</ele>
        <time>2020-06-01T17:13:40.000Z</time>
      </trkpt>
      <trkpt lat="47.21498" lon="-1.52323">
        <ele>51</ele>
        <time>2020-06-01T17:13:42.000Z</time>
      </trkpt>
      <trkpt lat="47.21493" lon="-1.52342">
        <ele>52</ele>
        <time>2020-06-01T17:13:44.000Z</time>
      </trkpt>
      <trkpt lat="47.21488" lon="-1.52362">
        <ele>52</ele>
        <time>2020-06-01T17:13:46.000Z</time>
      </trkpt>
      <trkpt lat="47.21482" lon="-1.52383">
        <ele>53</ele>
        <time>2020-06-01T17:13:48.000Z</time>
      </trkpt>
      <trkpt lat="47.21476" lon="-1.52402">
        <ele>53</ele>
        <time>2020-06-01T17:13:50.000Z</time>
      </trkpt>
      <trkpt lat="47.21469" lon="-1.52422">
        <ele>53</ele>
        <time>2020-06-01T17:13:52.000Z</time>
      </trkpt>
      <trkpt lat="47.21462" lon="-1.52441">
        <ele>53</ele>
        <time>2020-06-01T17:13:54.000Z</time>
      </trkpt>
      <trkpt lat="47.21456" lon="-1.52461">
        <ele>53</ele>
        <time>2020-06-01T17:13:56.000Z</time>
      </trkpt>
      <trkpt lat="47.2145" lon="-1.52481">
        <ele>53</ele>
        <time>2020-06-01T17:13:58.000Z</time>
      </trkpt>
      <trkpt lat="47.21443" lon="-1.52501">
        <ele>53</ele>
        <time>2020-06-01T17:14:00.000Z</time>
      </trkpt>
      <trkpt lat="47.21435" lon="-1.52521">
        <ele>52</ele>
        <time>2020-06-01T17:14:02.000Z</time>
      </trkpt>
      <trkpt lat="47.21429" lon="-1.52542">
        <ele>52</ele>
        <time>2020-06-01T17:14:04.000Z</time>
      </trkpt>
      <trkpt lat="47.21423" lon="-1.52563">
        <ele>52</ele>
        <time>2020-06-01T17:14:06.000Z</time>
      </trkpt>
      <trkpt lat="47.21416" lon="-1.52583">
        <ele>52</ele>
        <time>2020-06-01T17:14:08.000Z</time>
      </trkpt>
      <trkpt lat="47.21409" lon="-1.52604">
        <ele>52</ele>
        <time>2020-06-01T17:14:10.000Z</time>
      </trkpt>
      <trkpt lat="47.21403" lon="-1.52625">
        <ele>52</ele>
        <time>2020-06-01T17:14:12.000Z</time>
      </trkpt>
      <trkpt lat="47.21397" lon="-1.52645">
        <ele>52</ele>
        <time>2020-06-01T17:14:14.000Z</time>
      </trkpt>
      <trkpt lat="47.21392" lon="-1.52665">
        <ele>52</ele>
        <time>2020-06-01T17:14:16.000Z</time>
      </trkpt>
      <trkpt lat="47.21387" lon="-1.52685">
        <ele>52</ele>
        <time>2020-06-01T17:14:18.000Z</time>
      </trkpt>
      <trkpt lat="47.21381" lon="-1.52706">
        <ele>52</ele>
        <time>2020-06-01T17:14:20.000Z</time>
      </trkpt>
      <trkpt lat="47.21377" lon="-1.52727">
        <ele>52</ele>
        <time>2020-06-01T17:14:22.000Z</time>
      </trkpt>
      <trkpt lat="47.21374" lon="-1.52747">
        <ele>52</ele>
        <time>2020-06-01T17:14:24.000Z</time>
      </trkpt>
      <trkpt lat="47.2137" lon="-1.52767">
        <ele>52</ele>
        <time>2020-06-01T17:14:26.000Z</time>
      </trkpt>
      <trkpt lat="47.21368" lon="-1.5279">
        <ele>53</ele>
        <time>2020-06-01T17:14:28.000Z</time>
      </trkpt>
      <trkpt lat="47.21365" lon="-1.5281">
        <ele>53</ele>
        <time>2020-06-01T17:14:30.000Z</time>
      </trkpt>
      <trkpt lat="47.21359" lon="-1.52831">
        <ele>52</ele>
        <time>2020-06-01T17:14:32.000Z</time>
      </trkpt>
      <trkpt lat="47.21353" lon="-1.52852">
        <ele>51</ele>
        <time>2020-06-01T17:14:34.000Z</time>
      </trkpt>
      <trkpt lat="47.21349" lon="-1.52876">
        <ele>51</ele>
        <time>2020-06-01T17:14:36.000Z</time>
      </trkpt>
      <trkpt lat="47.21345" lon="-1.52899">
        <ele>51</ele>
        <time>2020-06-01T17:14:38.000Z</time>
      </trkpt>
      <trkpt lat="47.21341" lon="-1.52922">
        <ele>51</ele>
        <time>2020-06-01T17:14:40.000Z</time>
      </trkpt>
      <trkpt lat="47.21339" lon="-1.52944">
        <ele>51</ele>
        <time>2020-06-01T17:14:42.000Z</time>
      </trkpt>
      <trkpt lat="47.21335" lon="-1.52968">
        <ele>51</ele>
        <time>2020-06-01T17:14:44.000Z</time>
      </trkpt>
      <trkpt lat="47.21333" lon="-1.52991">
        <ele>50</ele>
        <time>2020-06-01T17:14:46.000Z</time>
      </trkpt>
      <trkpt lat="47.21331" lon="-1.53015">
        <ele>51</ele>
        <time>2020-06-01T17:14:48.000Z</time>
      </trkpt>
      <trkpt lat="47.2133" lon="-1.53037">
        <ele>51</ele>
        <time>2020-06-01T17:14:50.000Z</time>
      </trkpt>
      <trkpt lat="47.21328" lon="-1.53059">
        <ele>52</ele>
        <time>2020-06-01T17:14:52.000Z</time>
      </trkpt>
      <trkpt lat="47.21327" lon="-1.53081">
        <ele>52</ele>
        <time>2020-06-01T17:14:54.000Z</time>
      </trkpt>
      <trkpt lat="47.21325" lon="-1.53102">
        <ele>52</ele>
        <time>2020-06-01T17:14:56.000Z</time>
      </trkpt>
      <trkpt lat="47.21322" lon="-1.53122">
        <ele>51</ele>
        <time>2020-06-01T17:14:58.000Z</time>
      </trkpt>
      <trkpt lat="47.21318" lon="-1.53143">
        <ele>51</ele>
        <time>2020-06-01T17:15:00.000Z</time>
      </trkpt>
      <trkpt lat="47.21314" lon="-1.53164">
        <ele>51</ele>
        <time>2020-06-01T17:15:02.000Z</time>
      </trkpt>
      <trkpt lat="47.21313" lon="-1.53185">
        <ele>51</ele>
        <time>2020-06-01T17:15:04.000Z</time>
      </trkpt>
      <trkpt lat="47.21311" lon="-1.53208">
        <ele>51</ele>
        <time>2020-06-01T17:15:06.000Z</time>
      </trkpt>
      <trkpt lat="47.2131" lon="-1.53231">
        <ele>52</ele>
        <time>2020-06-01T17:15:08.000Z</time>
      </trkpt>
      <trkpt lat="47.2131" lon="-1.53255">
        <ele>53</ele>
        <time>2020-06-01T17:15:10.000Z</time>
      </trkpt>
      <trkpt lat="47.2131" lon="-1.53279">
        <ele>53</ele>
        <time>2020-06-01T17:15:12.000Z</time>
      </trkpt>
      <trkpt lat="47.2131" lon="-1.53301">
        <ele>53</ele>
        <time>2020-06-01T17:15:14.000Z</time>
      </trkpt>
      <trkpt lat="47.21307" lon="-1.53321">
        <ele>52</ele>
        <time>2020-06-01T17:15:16.000Z</time>
      </trkpt>
      <trkpt lat="47.21304" lon="-1.53343">
        <ele>52</ele>
        <time>2020-06-01T17:15:18.000Z</time>
      </trkpt>
      <trkpt lat="47.213" lon="-1.53365">
        <ele>52</ele>
        <time>2020-06-01T17:15:20.000Z</time>
      </trkpt>
      <trkpt lat="47.21296" lon="-1.53386">
        <ele>52</ele>
        <time>2020-06-01T17:15:22.000Z</time>
      </trkpt>
      <trkpt lat="47.21294" lon="-1.53408">
        <ele>52</ele>
        <time>2020-06-01T17:15:24.000Z</time>
      </trkpt>
      <trkpt lat="47.21292" lon="-1.53429">
        <ele>53</ele>
        <time>2020-06-01T17:15:26.000Z</time>
      </trkpt>
      <trkpt lat="47.21291" lon="-1.53451">
        <ele>52</ele>
        <time>2020-06-01T17:15:28.000Z</time>
      </trkpt>
      <trkpt lat="47.21296" lon="-1.53471">
        <ele>52</ele>
        <time>2020-06-01T17:15:30.000Z</time>
      </trkpt>
      <trkpt lat="47.213" lon="-1.53491">
        <ele>52</ele>
        <time>2020-06-01T17:15:32.000Z</time>
      </trkpt>
      <trkpt lat="47.21301" lon="-1.53513">
        <ele>52</ele>
        <time>2020-06-01T17:15:34.000Z</time>
      </trkpt>
      <trkpt lat="47.21302" lon="-1.53535">
        <ele>53</ele>
        <time>2020-06-01T17:15:36.000Z</time>
      </trkpt>
      <trkpt lat="47.21302" lon="-1.53557">
        <ele>53</ele>
        <time>2020-06-01T17:15:38.000Z</time>
      </trkpt>
      <trkpt lat="47.21303" lon="-1.53577">
        <ele>52</ele>
        <time>2020-06-01T17:15:40.000Z</time>
      </trkpt>
      <trkpt lat="47.21304" lon="-1.53597">
        <ele>52</ele>
        <time>2020-06-01T17:15:42.000Z</time>
      </trkpt>
      <trkpt lat="47.21305" lon="-1.53616">
        <ele>53</ele>
        <time>2020-06-01T17:15:44.000Z</time>
      </trkpt>
      <trkpt lat="47.21303" lon="-1.53634">
        <ele>52</ele>
        <time>2020-06-01T17:15:46.000Z</time>
      </trkpt>
      <trkpt lat="47.21295" lon="-1.53644">
        <ele>53</ele>
        <time>2020-06-01T17:15:49.000Z</time>
      </trkpt>
      <trkpt lat="47.21293" lon="-1.53658">
        <ele>53</ele>
        <time>2020-06-01T17:15:52.000Z</time>
      </trkpt>
      <trkpt lat="47.21293" lon="-1.53673">
        <ele>53</ele>
        <time>2020-06-01T17:15:54.000Z</time>
      </trkpt>
      <trkpt lat="47.213" lon="-1.53685">
        <ele>53</ele>
        <time>2020-06-01T17:15:56.000Z</time>
      </trkpt>
      <trkpt lat="47.21305" lon="-1.53706">
        <ele>53</ele>
        <time>2020-06-01T17:15:58.000Z</time>
      </trkpt>
      <trkpt lat="47.21311" lon="-1.53728">
        <ele>52</ele>
        <time>2020-06-01T17:16:00.000Z</time>
      </trkpt>
      <trkpt lat="47.21316" lon="-1.53749">
        <ele>51</ele>
        <time>2020-06-01T17:16:02.000Z</time>
      </trkpt>
      <trkpt lat="47.21318" lon="-1.53771">
        <ele>52</ele>
        <time>2020-06-01T17:16:04.000Z</time>
      </trkpt>
      <trkpt lat="47.21322" lon="-1.53792">
        <ele>52</ele>
        <time>2020-06-01T17:16:06.000Z</time>
      </trkpt>
      <trkpt lat="47.21324" lon="-1.53812">
        <ele>52</ele>
        <time>2020-06-01T17:16:08.000Z</time>
      </trkpt>
      <trkpt lat="47.21327" lon="-1.53832">
        <ele>52</ele>
        <time>2020-06-01T17:16:10.000Z</time>
      </trkpt>
      <trkpt lat="47.21329" lon="-1.53851">
        <ele>52</ele>
        <time>2020-06-01T17:16:12.000Z</time>
      </trkpt>
      <trkpt lat="47.21333" lon="-1.53868">
        <ele>53</ele>
        <time>2020-06-01T17:16:14.000Z</time>
      </trkpt>
      <trkpt lat="47.21335" lon="-1.53886">
        <ele>53</ele>
        <time>2020-06-01T17:16:16.000Z</time>
      </trkpt>
      <trkpt lat="47.21337" lon="-1.53903">
        <ele>53</ele>
        <time>2020-06-01T17:16:18.000Z</time>
      </trkpt>
      <trkpt lat="47.2134" lon="-1.53917">
        <ele>53</ele>
        <time>2020-06-01T17:16:20.000Z</time>
      </trkpt>
      <trkpt lat="47.21348" lon="-1.53922">
        <ele>54</ele>
        <time>2020-06-01T17:16:23.000Z</time>
      </trkpt>
      <trkpt lat="47.21359" lon="-1.53925">
        <ele>54</ele>
        <time>2020-06-01T17:16:26.000Z</time>
      </trkpt>
      <trkpt lat="47.21373" lon="-1.5393">
        <ele>54</ele>
        <time>2020-06-01T17:16:29.000Z</time>
      </trkpt>
      <trkpt lat="47.21384" lon="-1.53943">
        <ele>53</ele>
        <time>2020-06-01T17:16:31.000Z</time>
      </trkpt>
      <trkpt lat="47.21391" lon="-1.53964">
        <ele>54</ele>
        <time>2020-06-01T17:16:33.000Z</time>
      </trkpt>
      <trkpt lat="47.21387" lon="-1.53989">
        <ele>53</ele>
        <time>2020-06-01T17:16:35.000Z</time>
      </trkpt>
      <trkpt lat="47.21391" lon="-1.54009">
        <ele>52</ele>
        <time>2020-06-01T17:16:37.000Z</time>
      </trkpt>
      <trkpt lat="47.21404" lon="-1.54024">
        <ele>51</ele>
        <time>2020-06-01T17:16:39.000Z</time>
      </trkpt>
      <trkpt lat="47.21415" lon="-1.54041">
        <ele>51</ele>
        <time>2020-06-01T17:16:41.000Z</time>
      </trkpt>
      <trkpt lat="47.21424" lon="-1.54058">
        <ele>51</ele>
        <time>2020-06-01T17:16:43.000Z</time>
      </trkpt>
      <trkpt lat="47.21436" lon="-1.54076">
        <ele>51</ele>
        <time>2020-06-01T17:16:45.000Z</time>
      </trkpt>
      <trkpt lat="47.21447" lon="-1.54092">
        <ele>51</ele>
        <time>2020-06-01T17:16:47.000Z</time>
      </trkpt>
      <trkpt lat="47.21458" lon="-1.54109">
        <ele>51</ele>
        <time>2020-06-01T17:16:49.000Z</time>
      </trkpt>
      <trkpt lat="47.21469" lon="-1.54126">
        <ele>52</ele>
        <time>2020-06-01T17:16:51.000Z</time>
      </trkpt>
      <trkpt lat="47.2148" lon="-1.54142">
        <ele>52</ele>
        <time>2020-06-01T17:16:53.000Z</time>
      </trkpt>
      <trkpt lat="47.21489" lon="-1.54157">
        <ele>53</ele>
        <time>2020-06-01T17:16:55.000Z</time>
      </trkpt>
      <trkpt lat="47.21498" lon="-1.54168">
        <ele>53</ele>
        <time>2020-06-01T17:16:57.000Z</time>
      </trkpt>
      <trkpt lat="47.21506" lon="-1.54179">
        <ele>53</ele>
        <time>2020-06-01T17:16:59.000Z</time>
      </trkpt>
      <trkpt lat="47.21515" lon="-1.54197">
        <ele>53</ele>
        <time>2020-06-01T17:17:01.000Z</time>
      </trkpt>
      <trkpt lat="47.21525" lon="-1.54213">
        <ele>53</ele>
        <time>2020-06-01T17:17:03.000Z</time>
      </trkpt>
      <trkpt lat="47.21536" lon="-1.54231">
        <ele>53</ele>
        <time>2020-06-01T17:17:05.000Z</time>
      </trkpt>
      <trkpt lat="47.21547" lon="-1.54245">
        <ele>53</ele>
        <time>2020-06-01T17:17:07.000Z</time>
      </trkpt>
      <trkpt lat="47.21561" lon="-1.54249">
        <ele>54</ele>
        <time>2020-06-01T17:17:09.000Z</time>
      </trkpt>
      <trkpt lat="47.21573" lon="-1.54259">
        <ele>54</ele>
        <time>2020-06-01T17:17:11.000Z</time>
      </trkpt>
      <trkpt lat="47.21577" lon="-1.54282">
        <ele>54</ele>
        <time>2020-06-01T17:17:13.000Z</time>
      </trkpt>
      <trkpt lat="47.21584" lon="-1.54302">
        <ele>54</ele>
        <time>2020-06-01T17:17:15.000Z</time>
      </trkpt>
      <trkpt lat="47.21594" lon="-1.5432">
        <ele>54</ele>
        <time>2020-06-01T17:17:17.000Z</time>
      </trkpt>
      <trkpt lat="47.21601" lon="-1.54341">
        <ele>53</ele>
        <time>2020-06-01T17:17:19.000Z</time>
      </trkpt>
      <trkpt lat="47.21607" lon="-1.54362">
        <ele>53</ele>
        <time>2020-06-01T17:17:21.000Z</time>
      </trkpt>
      <trkpt lat="47.21613" lon="-1.54383">
        <ele>53</ele>
        <time>2020-06-01T17:17:23.000Z</time>
      </trkpt>
      <trkpt lat="47.21614" lon="-1.54405">
        <ele>53</ele>
        <time>2020-06-01T17:17:25.000Z</time>
      </trkpt>
      <trkpt lat="47.21615" lon="-1.54427">
        <ele>53</ele>
        <time>2020-06-01T17:17:27.000Z</time>
      </trkpt>
      <trkpt lat="47.21614" lon="-1.54449">
        <ele>53</ele>
        <time>2020-06-01T17:17:29.000Z</time>
      </trkpt>
      <trkpt lat="47.21612" lon="-1.54471">
        <ele>53</ele>
        <time>2020-06-01T17:17:31.000Z</time>
      </trkpt>
      <trkpt lat="47.21609" lon="-1.54493">
        <ele>54</ele>
        <time>2020-06-01T17:17:33.000Z</time>
      </trkpt>
      <trkpt lat="47.21604" lon="-1.54513">
        <ele>54</ele>
        <time>2020-06-01T17:17:35.000Z</time>
      </trkpt>
      <trkpt lat="47.21597" lon="-1.54532">
        <ele>54</ele>
        <time>2020-06-01T17:17:37.000Z</time>
      </trkpt>
      <trkpt lat="47.2159" lon="-1.5455">
        <ele>55</ele>
        <time>2020-06-01T17:17:39.000Z</time>
      </trkpt>
      <trkpt lat="47.21583" lon="-1.54567">
        <ele>54</ele>
        <time>2020-06-01T17:17:41.000Z</time>
      </trkpt>
      <trkpt lat="47.21576" lon="-1.54584">
        <ele>53</ele>
        <time>2020-06-01T17:17:43.000Z</time>
      </trkpt>
      <trkpt lat="47.2157" lon="-1.54603">
        <ele>53</ele>
        <time>2020-06-01T17:17:45.000Z</time>
      </trkpt>
      <trkpt lat="47.21564" lon="-1.54622">
        <ele>53</ele>
        <time>2020-06-01T17:17:47.000Z</time>
      </trkpt>
      <trkpt lat="47.21557" lon="-1.54641">
        <ele>53</ele>
        <time>2020-06-01T17:17:49.000Z</time>
      </trkpt>
      <trkpt lat="47.2155" lon="-1.54659">
        <ele>53</ele>
        <time>2020-06-01T17:17:51.000Z</time>
      </trkpt>
      <trkpt lat="47.21544" lon="-1.54676">
        <ele>53</ele>
        <time>2020-06-01T17:17:53.000Z</time>
      </trkpt>
      <trkpt lat="47.21539" lon="-1.54695">
        <ele>52</ele>
        <time>2020-06-01T17:17:55.000Z</time>
      </trkpt>
      <trkpt lat="47.21532" lon="-1.54714">
        <ele>53</ele>
        <time>2020-06-01T17:17:57.000Z</time>
      </trkpt>
      <trkpt lat="47.21526" lon="-1.54731">
        <ele>53</ele>
        <time>2020-06-01T17:17:59.000Z</time>
      </trkpt>
      <trkpt lat="47.21519" lon="-1.54748">
        <ele>53</ele>
        <time>2020-06-01T17:18:01.000Z</time>
      </trkpt>
      <trkpt lat="47.21512" lon="-1.54766">
        <ele>53</ele>
        <time>2020-06-01T17:18:03.000Z</time>
      </trkpt>
      <trkpt lat="47.21504" lon="-1.54784">
        <ele>53</ele>
        <time>2020-06-01T17:18:05.000Z</time>
      </trkpt>
      <trkpt lat="47.21495" lon="-1.54804">
        <ele>53</ele>
        <time>2020-06-01T17:18:07.000Z</time>
      </trkpt>
      <trkpt lat="47.21487" lon="-1.54821">
        <ele>53</ele>
        <time>2020-06-01T17:18:09.000Z</time>
      </trkpt>
      <trkpt lat="47.21478" lon="-1.54839">
        <ele>53</ele>
        <time>2020-06-01T17:18:11.000Z</time>
      </trkpt>
      <trkpt lat="47.2147" lon="-1.54857">
        <ele>53</ele>
        <time>2020-06-01T17:18:13.000Z</time>
      </trkpt>
      <trkpt lat="47.21461" lon="-1.54874">
        <ele>53</ele>
        <time>2020-06-01T17:18:15.000Z</time>
      </trkpt>
      <trkpt lat="47.21453" lon="-1.54889">
        <ele>53</ele>
        <time>2020-06-01T17:18:17.000Z</time>
      </trkpt>
      <trkpt lat="47.21445" lon="-1.54905">
        <ele>53</ele>
        <time>2020-06-01T17:18:19.000Z</time>
      </trkpt>
      <trkpt lat="47.21437" lon="-1.54921">
        <ele>52</ele>
        <time>2020-06-01T17:18:21.000Z</time>
      </trkpt>
      <trkpt lat="47.21429" lon="-1.54938">
        <ele>51</ele>
        <time>2020-06-01T17:18:23.000Z</time>
      </trkpt>
      <trkpt lat="47.2142" lon="-1.54955">
        <ele>50</ele>
        <time>2020-06-01T17:18:25.000Z</time>
      </trkpt>
      <trkpt lat="47.21411" lon="-1.54975">
        <ele>50</ele>
        <time>2020-06-01T17:18:27.000Z</time>
      </trkpt>
      <trkpt lat="47.21406" lon="-1.54986">
        <ele>50</ele>
        <time>2020-06-01T17:18:28.000Z</time>
      </trkpt>
      <trkpt lat="47.21401" lon="-1.54998">
        <ele>51</ele>
        <time>2020-06-01T17:18:29.000Z</time>
      </trkpt>
      <trkpt lat="47.21392" lon="-1.55018">
        <ele>51</ele>
        <time>2020-06-01T17:18:31.000Z</time>
      </trkpt>
      <trkpt lat="47.21384" lon="-1.55038">
        <ele>51</ele>
        <time>2020-06-01T17:18:33.000Z</time>
      </trkpt>
      <trkpt lat="47.21376" lon="-1.55058">
        <ele>51</ele>
        <time>2020-06-01T17:18:35.000Z</time>
      </trkpt>
      <trkpt lat="47.21368" lon="-1.55077">
        <ele>51</ele>
        <time>2020-06-01T17:18:37.000Z</time>
      </trkpt>
      <trkpt lat="47.21361" lon="-1.55096">
        <ele>51</ele>
        <time>2020-06-01T17:18:39.000Z</time>
      </trkpt>
      <trkpt lat="47.21353" lon="-1.55114">
        <ele>52</ele>
        <time>2020-06-01T17:18:41.000Z</time>
      </trkpt>
      <trkpt lat="47.21346" lon="-1.55134">
        <ele>52</ele>
        <time>2020-06-01T17:18:43.000Z</time>
      </trkpt>
      <trkpt lat="47.21338" lon="-1.55155">
        <ele>52</ele>
        <time>2020-06-01T17:18:45.000Z</time>
      </trkpt>
      <trkpt lat="47.21329" lon="-1.55174">
        <ele>52</ele>
        <time>2020-06-01T17:18:47.000Z</time>
      </trkpt>
      <trkpt lat="47.21322" lon="-1.55193">
        <ele>52</ele>
        <time>2020-06-01T17:18:49.000Z</time>
      </trkpt>
      <trkpt lat="47.21315" lon="-1.55211">
        <ele>52</ele>
        <time>2020-06-01T17:18:51.000Z</time>
      </trkpt>
      <trkpt lat="47.21308" lon="-1.5523">
        <ele>53</ele>
        <time>2020-06-01T17:18:53.000Z</time>
      </trkpt>
      <trkpt lat="47.21301" lon="-1.55249">
        <ele>52</ele>
        <time>2020-06-01T17:18:55.000Z</time>
      </trkpt>
      <trkpt lat="47.21294" lon="-1.55267">
        <ele>52</ele>
        <time>2020-06-01T17:18:57.000Z</time>
      </trkpt>
      <trkpt lat="47.21287" lon="-1.55283">
        <ele>53</ele>
        <time>2020-06-01T17:18:59.000Z</time>
      </trkpt>
      <trkpt lat="47.2128" lon="-1.55295">
        <ele>53</ele>
        <time>2020-06-01T17:19:01.000Z</time>
      </trkpt>
      <trkpt lat="47.21267" lon="-1.55298">
        <ele>53</ele>
        <time>2020-06-01T17:19:03.000Z</time>
      </trkpt>
      <trkpt lat="47.21257" lon="-1.55307">
        <ele>53</ele>
        <time>2020-06-01T17:19:05.000Z</time>
      </trkpt>
      <trkpt lat="47.21259" lon="-1.55323">
        <ele>53</ele>
        <time>2020-06-01T17:19:07.000Z</time>
      </trkpt>
      <trkpt lat="47.21264" lon="-1.55338">
        <ele>54</ele>
        <time>2020-06-01T17:19:09.000Z</time>
      </trkpt>
      <trkpt lat="47.21272" lon="-1.55349">
        <ele>55</ele>
        <time>2020-06-01T17:19:11.000Z</time>
      </trkpt>
      <trkpt lat="47.21282" lon="-1.55359">
        <ele>55</ele>
        <time>2020-06-01T17:19:13.000Z</time>
      </trkpt>
      <trkpt lat="47.21283" lon="-1.55377">
        <ele>54</ele>
        <time>2020-06-01T17:19:15.000Z</time>
      </trkpt>
      <trkpt lat="47.21276" lon="-1.55394">
        <ele>54</ele>
        <time>2020-06-01T17:19:17.000Z</time>
      </trkpt>
      <trkpt lat="47.21267" lon="-1.55409">
        <ele>54</ele>
        <time>2020-06-01T17:19:19.000Z</time>
      </trkpt>
      <trkpt lat="47.21258" lon="-1.55424">
        <ele>54</ele>
        <time>2020-06-01T17:19:21.000Z</time>
      </trkpt>
      <trkpt lat="47.21249" lon="-1.5544">
        <ele>54</ele>
        <time>2020-06-01T17:19:23.000Z</time>
      </trkpt>
      <trkpt lat="47.21238" lon="-1.55455">
        <ele>54</ele>
        <time>2020-06-01T17:19:25.000Z</time>
      </trkpt>
      <trkpt lat="47.21229" lon="-1.55472">
        <ele>54</ele>
        <time>2020-06-01T17:19:27.000Z</time>
      </trkpt>
      <trkpt lat="47.21222" lon="-1.55491">
        <ele>54</ele>
        <time>2020-06-01T17:19:29.000Z</time>
      </trkpt>
      <trkpt lat="47.21216" lon="-1.5551">
        <ele>54</ele>
        <time>2020-06-01T17:19:31.000Z</time>
      </trkpt>
      <trkpt lat="47.21211" lon="-1.55531">
        <ele>54</ele>
        <time>2020-06-01T17:19:33.000Z</time>
      </trkpt>
      <trkpt lat="47.21205" lon="-1.5555">
        <ele>54</ele>
        <time>2020-06-01T17:19:35.000Z</time>
      </trkpt>
      <trkpt lat="47.21198" lon="-1.5557">
        <ele>54</ele>
        <time>2020-06-01T17:19:37.000Z</time>
      </trkpt>
      <trkpt lat="47.21191" lon="-1.55589">
        <ele>54</ele>
        <time>2020-06-01T17:19:39.000Z</time>
      </trkpt>
      <trkpt lat="47.21185" lon="-1.55609">
        <ele>53</ele>
        <time>2020-06-01T17:19:41.000Z</time>
      </trkpt>
      <trkpt lat="47.21178" lon="-1.55629">
        <ele>53</ele>
        <time>2020-06-01T17:19:43.000Z</time>
      </trkpt>
      <trkpt lat="47.21171" lon="-1.55649">
        <ele>53</ele>
        <time>2020-06-01T17:19:45.000Z</time>
      </trkpt>
      <trkpt lat="47.21164" lon="-1.55671">
        <ele>53</ele>
        <time>2020-06-01T17:19:47.000Z</time>
      </trkpt>
      <trkpt lat="47.21149" lon="-1.55673">
        <ele>53</ele>
        <time>2020-06-01T17:19:49.000Z</time>
      </trkpt>
      <trkpt lat="47.21136" lon="-1.5566">
        <ele>53</ele>
        <time>2020-06-01T17:19:51.000Z</time>
      </trkpt>
      <trkpt lat="47.21122" lon="-1.55648">
        <ele>53</ele>
        <time>2020-06-01T17:19:53.000Z</time>
      </trkpt>
      <trkpt lat="47.21108" lon="-1.55636">
        <ele>52</ele>
        <time>2020-06-01T17:19:55.000Z</time>
      </trkpt>
      <trkpt lat="47.21093" lon="-1.55625">
        <ele>52</ele>
        <time>2020-06-01T17:19:57.000Z</time>
      </trkpt>
      <trkpt lat="47.21077" lon="-1.55614">
        <ele>54</ele>
        <time>2020-06-01T17:19:59.000Z</time>
      </trkpt>
      <trkpt lat="47.21069" lon="-1.55609">
        <ele>54</ele>
        <time>2020-06-01T17:20:00.000Z</time>
      </trkpt>
      <trkpt lat="47.2106" lon="-1.55604">
        <ele>55</ele>
        <time>2020-06-01T17:20:01.000Z</time>
      </trkpt>
      <trkpt lat="47.21045" lon="-1.55594">
        <ele>55</ele>
        <time>2020-06-01T17:20:03.000Z</time>
      </trkpt>
      <trkpt lat="47.2103" lon="-1.55586">
        <ele>55</ele>
        <time>2020-06-01T17:20:05.000Z</time>
      </trkpt>
      <trkpt lat="47.21015" lon="-1.55583">
        <ele>54</ele>
        <time>2020-06-01T17:20:07.000Z</time>
      </trkpt>
      <trkpt lat="47.21002" lon="-1.55581">
        <ele>54</ele>
        <time>2020-06-01T17:20:09.000Z</time>
      </trkpt>
      <trkpt lat="47.20988" lon="-1.55578">
        <ele>54</ele>
        <time>2020-06-01T17:20:11.000Z</time>
      </trkpt>
      <trkpt lat="47.20976" lon="-1.55576">
        <ele>54</ele>
        <time>2020-06-01T17:20:13.000Z</time>
      </trkpt>
      <trkpt lat="47.20966" lon="-1.55574">
        <ele>54</ele>
        <time>2020-06-01T17:20:15.000Z</time>
      </trkpt>
      <trkpt lat="47.20956" lon="-1.55572">
        <ele>54</ele>
        <time>2020-06-01T17:20:18.000Z</time>
      </trkpt>
      <trkpt lat="47.20945" lon="-1.5557">
        <ele>54</ele>
        <time>2020-06-01T17:20:23.000Z</time>
      </trkpt>
      <trkpt lat="47.20934" lon="-1.55566">
        <ele>54</ele>
        <time>2020-06-01T17:20:25.000Z</time>
      </trkpt>
      <trkpt lat="47.20919" lon="-1.55563">
        <ele>54</ele>
        <time>2020-06-01T17:20:27.000Z</time>
      </trkpt>
      <trkpt lat="47.20905" lon="-1.55558">
        <ele>55</ele>
        <time>2020-06-01T17:20:29.000Z</time>
      </trkpt>
      <trkpt lat="47.2089" lon="-1.55554">
        <ele>56</ele>
        <time>2020-06-01T17:20:31.000Z</time>
      </trkpt>
      <trkpt lat="47.20876" lon="-1.5555">
        <ele>55</ele>
        <time>2020-06-01T17:20:33.000Z</time>
      </trkpt>
      <trkpt lat="47.20862" lon="-1.55547">
        <ele>56</ele>
        <time>2020-06-01T17:20:35.000Z</time>
      </trkpt>
      <trkpt lat="47.20847" lon="-1.55544">
        <ele>56</ele>
        <time>2020-06-01T17:20:37.000Z</time>
      </trkpt>
      <trkpt lat="47.20833" lon="-1.5554">
        <ele>57</ele>
        <time>2020-06-01T17:20:39.000Z</time>
      </trkpt>
      <trkpt lat="47.20818" lon="-1.55537">
        <ele>56</ele>
        <time>2020-06-01T17:20:41.000Z</time>
      </trkpt>
      <trkpt lat="47.20804" lon="-1.55533">
        <ele>56</ele>
        <time>2020-06-01T17:20:43.000Z</time>
      </trkpt>
      <trkpt lat="47.20789" lon="-1.5553">
        <ele>56</ele>
        <time>2020-06-01T17:20:45.000Z</time>
      </trkpt>
      <trkpt lat="47.20774" lon="-1.55526">
        <ele>55</ele>
        <time>2020-06-01T17:20:47.000Z</time>
      </trkpt>
      <trkpt lat="47.20758" lon="-1.55523">
        <ele>54</ele>
        <time>2020-06-01T17:20:49.000Z</time>
      </trkpt>
      <trkpt lat="47.20741" lon="-1.55519">
        <ele>53</ele>
        <time>2020-06-01T17:20:51.000Z</time>
      </trkpt>
      <trkpt lat="47.20725" lon="-1.55513">
        <ele>52</ele>
        <time>2020-06-01T17:20:53.000Z</time>
      </trkpt>
      <trkpt lat="47.20708" lon="-1.55509">
        <ele>52</ele>
        <time>2020-06-01T17:20:55.000Z</time>
      </trkpt>
      <trkpt lat="47.20693" lon="-1.55506">
        <ele>53</ele>
        <time>2020-06-01T17:20:57.000Z</time>
      </trkpt>
      <trkpt lat="47.20682" lon="-1.55503">
        <ele>52</ele>
        <time>2020-06-01T17:20:59.000Z</time>
      </trkpt>
      <trkpt lat="47.20673" lon="-1.55502">
        <ele>53</ele>
        <time>2020-06-01T17:21:02.000Z</time>
      </trkpt>
      <trkpt lat="47.2066" lon="-1.55501">
        <ele>53</ele>
        <time>2020-06-01T17:21:17.000Z</time>
      </trkpt>
      <trkpt lat="47.20648" lon="-1.55495">
        <ele>55</ele>
        <time>2020-06-01T17:21:19.000Z</time>
      </trkpt>
      <trkpt lat="47.20633" lon="-1.55492">
        <ele>55</ele>
        <time>2020-06-01T17:21:21.000Z</time>
      </trkpt>
      <trkpt lat="47.20617" lon="-1.55489">
        <ele>56</ele>
        <time>2020-06-01T17:21:23.000Z</time>
      </trkpt>
      <trkpt lat="47.20599" lon="-1.55487">
        <ele>56</ele>
        <time>2020-06-01T17:21:25.000Z</time>
      </trkpt>
      <trkpt lat="47.20584" lon="-1.55484">
        <ele>55</ele>
        <time>2020-06-01T17:21:27.000Z</time>
      </trkpt>
      <trkpt lat="47.2057" lon="-1.55483">
        <ele>55</ele>
        <time>2020-06-01T17:21:29.000Z</time>
      </trkpt>
      <trkpt lat="47.20558" lon="-1.55492">
        <ele>55</ele>
        <time>2020-06-01T17:21:31.000Z</time>
      </trkpt>
      <trkpt lat="47.20545" lon="-1.55505">
        <ele>55</ele>
        <time>2020-06-01T17:21:33.000Z</time>
      </trkpt>
      <trkpt lat="47.20528" lon="-1.55507">
        <ele>54</ele>
        <time>2020-06-01T17:21:35.000Z</time>
      </trkpt>
      <trkpt lat="47.20513" lon="-1.55496">
        <ele>54</ele>
        <time>2020-06-01T17:21:37.000Z</time>
      </trkpt>
      <trkpt lat="47.20505" lon="-1.55477">
        <ele>54</ele>
        <time>2020-06-01T17:21:39.000Z</time>
      </trkpt>
      <trkpt lat="47.20502" lon="-1.55455">
        <ele>55</ele>
        <time>2020-06-01T17:21:41.000Z</time>
      </trkpt>
      <trkpt lat="47.20507" lon="-1.55435">
        <ele>54</ele>
        <time>2020-06-01T17:21:43.000Z</time>
      </trkpt>
      <trkpt lat="47.20504" lon="-1.55417">
        <ele>53</ele>
        <time>2020-06-01T17:21:45.000Z</time>
      </trkpt>
      <trkpt lat="47.20497" lon="-1.55401">
        <ele>53</ele>
        <time>2020-06-01T17:21:47.000Z</time>
      </trkpt>
      <trkpt lat="47.2049" lon="-1.55386">
        <ele>53</ele>
        <time>2020-06-01T17:21:49.000Z</time>
      </trkpt>
      <trkpt lat="47.20483" lon="-1.55372">
        <ele>53</ele>
        <time>2020-06-01T17:21:51.000Z</time>
      </trkpt>
      <trkpt lat="47.20474" lon="-1.55361">
        <ele>52</ele>
        <time>2020-06-01T17:21:53.000Z</time>
      </trkpt>
      <trkpt lat="47.20466" lon="-1.55345">
        <ele>52</ele>
        <time>2020-06-01T17:21:55.000Z</time>
      </trkpt>
      <trkpt lat="47.20457" lon="-1.55327">
        <ele>53</ele>
        <time>2020-06-01T17:21:57.000Z</time>
      </trkpt>
      <trkpt lat="47.20448" lon="-1.55311">
        <ele>53</ele>
        <time>2020-06-01T17:21:59.000Z</time>
      </trkpt>
      <trkpt lat="47.20439" lon="-1.55294">
        <ele>54</ele>
        <time>2020-06-01T17:22:01.000Z</time>
      </trkpt>
      <trkpt lat="47.20431" lon="-1.55279">
        <ele>54</ele>
        <time>2020-06-01T17:22:03.000Z</time>
      </trkpt>
      <trkpt lat="47.20423" lon="-1.55262">
        <ele>53</ele>
        <time>2020-06-01T17:22:05.000Z</time>
      </trkpt>
      <trkpt lat="47.20416" lon="-1.55247">
        <ele>53</ele>
        <time>2020-06-01T17:22:07.000Z</time>
      </trkpt>
      <trkpt lat="47.20408" lon="-1.55231">
        <ele>53</ele>
        <time>2020-06-01T17:22:09.000Z</time>
      </trkpt>
      <trkpt lat="47.204" lon="-1.55216">
        <ele>53</ele>
        <time>2020-06-01T17:22:11.000Z</time>
      </trkpt>
      <trkpt lat="47.20392" lon="-1.55201">
        <ele>53</ele>
        <time>2020-06-01T17:22:13.000Z</time>
      </trkpt>
      <trkpt lat="47.20384" lon="-1.5519">
        <ele>54</ele>
        <time>2020-06-01T17:22:15.000Z</time>
      </trkpt>
      <trkpt lat="47.20371" lon="-1.55189">
        <ele>53</ele>
        <time>2020-06-01T17:22:17.000Z</time>
      </trkpt>
      <trkpt lat="47.20358" lon="-1.55198">
        <ele>57</ele>
        <time>2020-06-01T17:22:19.000Z</time>
      </trkpt>
      <trkpt lat="47.20348" lon="-1.55215">
        <ele>55</ele>
        <time>2020-06-01T17:22:21.000Z</time>
      </trkpt>
      <trkpt lat="47.20338" lon="-1.5523">
        <ele>54</ele>
        <time>2020-06-01T17:22:23.000Z</time>
      </trkpt>
      <trkpt lat="47.20326" lon="-1.55244">
        <ele>54</ele>
        <time>2020-06-01T17:22:25.000Z</time>
      </trkpt>
      <trkpt lat="47.20315" lon="-1.55259">
        <ele>55</ele>
        <time>2020-06-01T17:22:27.000Z</time>
      </trkpt>
      <trkpt lat="47.20305" lon="-1.55273">
        <ele>56</ele>
        <time>2020-06-01T17:22:29.000Z</time>
      </trkpt>
      <trkpt lat="47.20295" lon="-1.55286">
        <ele>57</ele>
        <time>2020-06-01T17:22:31.000Z</time>
      </trkpt>
      <trkpt lat="47.20285" lon="-1.55299">
        <ele>57</ele>
        <time>2020-06-01T17:22:33.000Z</time>
      </trkpt>
      <trkpt lat="47.20274" lon="-1.55313">
        <ele>56</ele>
        <time>2020-06-01T17:22:35.000Z</time>
      </trkpt>
      <trkpt lat="47.20264" lon="-1.55328">
        <ele>55</ele>
        <time>2020-06-01T17:22:37.000Z</time>
      </trkpt>
      <trkpt lat="47.20254" lon="-1.55343">
        <ele>55</ele>
        <time>2020-06-01T17:22:39.000Z</time>
      </trkpt>
      <trkpt lat="47.20243" lon="-1.55359">
        <ele>55</ele>
        <time>2020-06-01T17:22:41.000Z</time>
      </trkpt>
      <trkpt lat="47.20231" lon="-1.55372">
        <ele>56</ele>
        <time>2020-06-01T17:22:43.000Z</time>
      </trkpt>
      <trkpt lat="47.2022" lon="-1.55385">
        <ele>56</ele>
        <time>2020-06-01T17:22:45.000Z</time>
      </trkpt>
      <trkpt lat="47.20208" lon="-1.55399">
        <ele>55</ele>
        <time>2020-06-01T17:22:47.000Z</time>
      </trkpt>
      <trkpt lat="47.20198" lon="-1.55414">
        <ele>56</ele>
        <time>2020-06-01T17:22:49.000Z</time>
      </trkpt>
      <trkpt lat="47.20187" lon="-1.55429">
        <ele>56</ele>
        <time>2020-06-01T17:22:51.000Z</time>
      </trkpt>
      <trkpt lat="47.20182" lon="-1.55449">
        <ele>56</ele>
        <time>2020-06-01T17:22:53.000Z</time>
      </trkpt>
      <trkpt lat="47.20173" lon="-1.55465">
        <ele>56</ele>
        <time>2020-06-01T17:22:55.000Z</time>
      </trkpt>
      <trkpt lat="47.20163" lon="-1.55476">
        <ele>55</ele>
        <time>2020-06-01T17:22:57.000Z</time>
      </trkpt>
      <trkpt lat="47.20152" lon="-1.55469">
        <ele>55</ele>
        <time>2020-06-01T17:23:00.000Z</time>
      </trkpt>
      <trkpt lat="47.20143" lon="-1.55471">
        <ele>55</ele>
        <time>2020-06-01T17:23:03.000Z</time>
      </trkpt>
      <trkpt lat="47.20136" lon="-1.55482">
        <ele>55</ele>
        <time>2020-06-01T17:23:05.000Z</time>
      </trkpt>
      <trkpt lat="47.20126" lon="-1.55491">
        <ele>55</ele>
        <time>2020-06-01T17:23:07.000Z</time>
      </trkpt>
      <trkpt lat="47.20115" lon="-1.55503">
        <ele>55</ele>
        <time>2020-06-01T17:23:09.000Z</time>
      </trkpt>
      <trkpt lat="47.20106" lon="-1.55516">
        <ele>55</ele>
        <time>2020-06-01T17:23:11.000Z</time>
      </trkpt>
      <trkpt lat="47.20097" lon="-1.55526">
        <ele>54</ele>
        <time>2020-06-01T17:23:13.000Z</time>
      </trkpt>
      <trkpt lat="47.20088" lon="-1.55537">
        <ele>54</ele>
        <time>2020-06-01T17:23:15.000Z</time>
      </trkpt>
      <trkpt lat="47.20077" lon="-1.55549">
        <ele>55</ele>
        <time>2020-06-01T17:23:17.000Z</time>
      </trkpt>
      <trkpt lat="47.20068" lon="-1.55562">
        <ele>55</ele>
        <time>2020-06-01T17:23:19.000Z</time>
      </trkpt>
      <trkpt lat="47.20057" lon="-1.55575">
        <ele>54</ele>
        <time>2020-06-01T17:23:21.000Z</time>
      </trkpt>
      <trkpt lat="47.20047" lon="-1.55588">
        <ele>54</ele>
        <time>2020-06-01T17:23:23.000Z</time>
      </trkpt>
      <trkpt lat="47.20038" lon="-1.55602">
        <ele>54</ele>
        <time>2020-06-01T17:23:25.000Z</time>
      </trkpt>
      <trkpt lat="47.20029" lon="-1.55617">
        <ele>54</ele>
        <time>2020-06-01T17:23:27.000Z</time>
      </trkpt>
      <trkpt lat="47.20021" lon="-1.55631">
        <ele>55</ele>
        <time>2020-06-01T17:23:29.000Z</time>
      </trkpt>
      <trkpt lat="47.20007" lon="-1.55637">
        <ele>55</ele>
        <time>2020-06-01T17:23:31.000Z</time>
      </trkpt>
      <trkpt lat="47.19994" lon="-1.55639">
        <ele>54</ele>
        <time>2020-06-01T17:23:33.000Z</time>
      </trkpt>
      <trkpt lat="47.19981" lon="-1.55647">
        <ele>55</ele>
        <time>2020-06-01T17:23:35.000Z</time>
      </trkpt>
      <trkpt lat="47.19969" lon="-1.55654">
        <ele>55</ele>
        <time>2020-06-01T17:23:37.000Z</time>
      </trkpt>
      <trkpt lat="47.19957" lon="-1.55664">
        <ele>55</ele>
        <time>2020-06-01T17:23:39.000Z</time>
      </trkpt>
      <trkpt lat="47.19947" lon="-1.55676">
        <ele>54</ele>
        <time>2020-06-01T17:23:41.000Z</time>
      </trkpt>
      <trkpt lat="47.19939" lon="-1.55692">
        <ele>54</ele>
        <time>2020-06-01T17:23:43.000Z</time>
      </trkpt>
      <trkpt lat="47.19934" lon="-1.55712">
        <ele>54</ele>
        <time>2020-06-01T17:23:45.000Z</time>
      </trkpt>
      <trkpt lat="47.19931" lon="-1.55731">
        <ele>53</ele>
        <time>2020-06-01T17:23:47.000Z</time>
      </trkpt>
      <trkpt lat="47.19931" lon="-1.55751">
        <ele>53</ele>
        <time>2020-06-01T17:23:49.000Z</time>
      </trkpt>
      <trkpt lat="47.19931" lon="-1.5577">
        <ele>53</ele>
        <time>2020-06-01T17:23:51.000Z</time>
      </trkpt>
      <trkpt lat="47.19932" lon="-1.5579">
        <ele>53</ele>
        <time>2020-06-01T17:23:53.000Z</time>
      </trkpt>
      <trkpt lat="47.19932" lon="-1.5581">
        <ele>52</ele>
        <time>2020-06-01T17:23:55.000Z</time>
      </trkpt>
      <trkpt lat="47.19932" lon="-1.5583">
        <ele>52</ele>
        <time>2020-06-01T17:23:57.000Z</time>
      </trkpt>
      <trkpt lat="47.19932" lon="-1.55851">
        <ele>53</ele>
        <time>2020-06-01T17:23:59.000Z</time>
      </trkpt>
      <trkpt lat="47.19933" lon="-1.5587">
        <ele>52</ele>
        <time>2020-06-01T17:24:01.000Z</time>
      </trkpt>
      <trkpt lat="47.19933" lon="-1.5589">
        <ele>53</ele>
        <time>2020-06-01T17:24:03.000Z</time>
      </trkpt>
      <trkpt lat="47.19933" lon="-1.5591">
        <ele>53</ele>
        <time>2020-06-01T17:24:05.000Z</time>
      </trkpt>
      <trkpt lat="47.19933" lon="-1.5593">
        <ele>52</ele>
        <time>2020-06-01T17:24:07.000Z</time>
      </trkpt>
      <trkpt lat="47.19933" lon="-1.55951">
        <ele>53</ele>
        <time>2020-06-01T17:24:09.000Z</time>
      </trkpt>
      <trkpt lat="47.19934" lon="-1.55971">
        <ele>53</ele>
        <time>2020-06-01T17:24:11.000Z</time>
      </trkpt>
      <trkpt lat="47.19934" lon="-1.55991">
        <ele>53</ele>
        <time>2020-06-01T17:24:13.000Z</time>
      </trkpt>
      <trkpt lat="47.19935" lon="-1.56012">
        <ele>53</ele>
        <time>2020-06-01T17:24:15.000Z</time>
      </trkpt>
      <trkpt lat="47.19935" lon="-1.56031">
        <ele>53</ele>
        <time>2020-06-01T17:24:17.000Z</time>
      </trkpt>
      <trkpt lat="47.19937" lon="-1.56062">
        <ele>53</ele>
        <time>2020-06-01T17:24:20.000Z</time>
      </trkpt>
      <trkpt lat="47.19941" lon="-1.56081">
        <ele>53</ele>
        <time>2020-06-01T17:24:22.000Z</time>
      </trkpt>
      <trkpt lat="47.19949" lon="-1.56098">
        <ele>53</ele>
        <time>2020-06-01T17:24:24.000Z</time>
      </trkpt>
      <trkpt lat="47.19956" lon="-1.56112">
        <ele>53</ele>
        <time>2020-06-01T17:24:26.000Z</time>
      </trkpt>
      <trkpt lat="47.19959" lon="-1.56128">
        <ele>54</ele>
        <time>2020-06-01T17:24:28.000Z</time>
      </trkpt>
      <trkpt lat="47.19967" lon="-1.56138">
        <ele>54</ele>
        <time>2020-06-01T17:24:32.000Z</time>
      </trkpt>
      <trkpt lat="47.1997" lon="-1.56151">
        <ele>54</ele>
        <time>2020-06-01T17:24:35.000Z</time>
      </trkpt>
      <trkpt lat="47.19959" lon="-1.56168">
        <ele>55</ele>
        <time>2020-06-01T17:24:39.000Z</time>
      </trkpt>
      <trkpt lat="47.19942" lon="-1.56173">
        <ele>56</ele>
        <time>2020-06-01T17:24:42.000Z</time>
      </trkpt>
      <trkpt lat="47.19931" lon="-1.56175">
        <ele>57</ele>
        <time>2020-06-01T17:24:44.000Z</time>
      </trkpt>
      <trkpt lat="47.19919" lon="-1.56176">
        <ele>57</ele>
        <time>2020-06-01T17:24:46.000Z</time>
      </trkpt>
      <trkpt lat="47.19902" lon="-1.56178">
        <ele>58</ele>
        <time>2020-06-01T17:24:49.000Z</time>
      </trkpt>
      <trkpt lat="47.19885" lon="-1.56182">
        <ele>58</ele>
        <time>2020-06-01T17:24:52.000Z</time>
      </trkpt>
      <trkpt lat="47.19872" lon="-1.56184">
        <ele>59</ele>
        <time>2020-06-01T17:24:54.000Z</time>
      </trkpt>
      <trkpt lat="47.19861" lon="-1.56186">
        <ele>59</ele>
        <time>2020-06-01T17:24:56.000Z</time>
      </trkpt>
      <trkpt lat="47.1985" lon="-1.56188">
        <ele>59</ele>
        <time>2020-06-01T17:24:58.000Z</time>
      </trkpt>
      <trkpt lat="47.19832" lon="-1.56192">
        <ele>59</ele>
        <time>2020-06-01T17:25:01.000Z</time>
      </trkpt>
      <trkpt lat="47.19821" lon="-1.56194">
        <ele>59</ele>
        <time>2020-06-01T17:25:03.000Z</time>
      </trkpt>
      <trkpt lat="47.1981" lon="-1.56196">
        <ele>59</ele>
        <time>2020-06-01T17:25:05.000Z</time>
      </trkpt>
      <trkpt lat="47.19792" lon="-1.56199">
        <ele>59</ele>
        <time>2020-06-01T17:25:08.000Z</time>
      </trkpt>
      <trkpt lat="47.1978" lon="-1.56201">
        <ele>59</ele>
        <time>2020-06-01T17:25:10.000Z</time>
      </trkpt>
      <trkpt lat="47.19762" lon="-1.56204">
        <ele>58</ele>
        <time>2020-06-01T17:25:13.000Z</time>
      </trkpt>
      <trkpt lat="47.19743" lon="-1.56207">
        <ele>58</ele>
        <time>2020-06-01T17:25:16.000Z</time>
      </trkpt>
      <trkpt lat="47.1973" lon="-1.56209">
        <ele>57</ele>
        <time>2020-06-01T17:25:18.000Z</time>
      </trkpt>
      <trkpt lat="47.19717" lon="-1.56212">
        <ele>56</ele>
        <time>2020-06-01T17:25:20.000Z</time>
      </trkpt>
      <trkpt lat="47.19695" lon="-1.56216">
        <ele>55</ele>
        <time>2020-06-01T17:25:23.000Z</time>
      </trkpt>
      <trkpt lat="47.1968" lon="-1.56219">
        <ele>54</ele>
        <time>2020-06-01T17:25:25.000Z</time>
      </trkpt>
      <trkpt lat="47.19665" lon="-1.56225">
        <ele>54</ele>
        <time>2020-06-01T17:25:27.000Z</time>
      </trkpt>
      <trkpt lat="47.19649" lon="-1.56229">
        <ele>53</ele>
        <time>2020-06-01T17:25:29.000Z</time>
      </trkpt>
      <trkpt lat="47.19637" lon="-1.56244">
        <ele>52</ele>
        <time>2020-06-01T17:25:31.000Z</time>
      </trkpt>
      <trkpt lat="47.19636" lon="-1.56267">
        <ele>52</ele>
        <time>2020-06-01T17:25:33.000Z</time>
      </trkpt>
      <trkpt lat="47.19635" lon="-1.5629">
        <ele>53</ele>
        <time>2020-06-01T17:25:35.000Z</time>
      </trkpt>
      <trkpt lat="47.19634" lon="-1.56312">
        <ele>52</ele>
        <time>2020-06-01T17:25:37.000Z</time>
      </trkpt>
      <trkpt lat="47.19633" lon="-1.56335">
        <ele>52</ele>
        <time>2020-06-01T17:25:39.000Z</time>
      </trkpt>
      <trkpt lat="47.19632" lon="-1.56358">
        <ele>52</ele>
        <time>2020-06-01T17:25:41.000Z</time>
      </trkpt>
      <trkpt lat="47.19632" lon="-1.56379">
        <ele>53</ele>
        <time>2020-06-01T17:25:43.000Z</time>
      </trkpt>
      <trkpt lat="47.19633" lon="-1.56402">
        <ele>52</ele>
        <time>2020-06-01T17:25:45.000Z</time>
      </trkpt>
      <trkpt lat="47.19632" lon="-1.56424">
        <ele>52</ele>
        <time>2020-06-01T17:25:47.000Z</time>
      </trkpt>
      <trkpt lat="47.19633" lon="-1.56445">
        <ele>53</ele>
        <time>2020-06-01T17:25:49.000Z</time>
      </trkpt>
      <trkpt lat="47.19634" lon="-1.56468">
        <ele>53</ele>
        <time>2020-06-01T17:25:51.000Z</time>
      </trkpt>
      <trkpt lat="47.19635" lon="-1.5649">
        <ele>53</ele>
        <time>2020-06-01T17:25:53.000Z</time>
      </trkpt>
      <trkpt lat="47.19636" lon="-1.56512">
        <ele>53</ele>
        <time>2020-06-01T17:25:55.000Z</time>
      </trkpt>
      <trkpt lat="47.19635" lon="-1.56534">
        <ele>52</ele>
        <time>2020-06-01T17:25:57.000Z</time>
      </trkpt>
      <trkpt lat="47.19634" lon="-1.56555">
        <ele>53</ele>
        <time>2020-06-01T17:25:59.000Z</time>
      </trkpt>
      <trkpt lat="47.19634" lon="-1.56577">
        <ele>53</ele>
        <time>2020-06-01T17:26:01.000Z</time>
      </trkpt>
      <trkpt lat="47.19634" lon="-1.56608">
        <ele>55</ele>
        <time>2020-06-01T17:26:04.000Z</time>
      </trkpt>
      <trkpt lat="47.19632" lon="-1.56629">
        <ele>55</ele>
        <time>2020-06-01T17:26:06.000Z</time>
      </trkpt>
      <trkpt lat="47.19631" lon="-1.5665">
        <ele>56</ele>
        <time>2020-06-01T17:26:08.000Z</time>
      </trkpt>
      <trkpt lat="47.19631" lon="-1.56671">
        <ele>56</ele>
        <time>2020-06-01T17:26:10.000Z</time>
      </trkpt>
      <trkpt lat="47.19631" lon="-1.56692">
        <ele>56</ele>
        <time>2020-06-01T17:26:12.000Z</time>
      </trkpt>
      <trkpt lat="47.19629" lon="-1.56713">
        <ele>56</ele>
        <time>2020-06-01T17:26:14.000Z</time>
      </trkpt>
      <trkpt lat="47.19628" lon="-1.56734">
        <ele>56</ele>
        <time>2020-06-01T17:26:16.000Z</time>
      </trkpt>
      <trkpt lat="47.19625" lon="-1.56755">
        <ele>56</ele>
        <time>2020-06-01T17:26:18.000Z</time>
      </trkpt>
      <trkpt lat="47.19623" lon="-1.56776">
        <ele>56</ele>
        <time>2020-06-01T17:26:20.000Z</time>
      </trkpt>
      <trkpt lat="47.19622" lon="-1.56795">
        <ele>55</ele>
        <time>2020-06-01T17:26:22.000Z</time>
      </trkpt>
      <trkpt lat="47.19621" lon="-1.56816">
        <ele>55</ele>
        <time>2020-06-01T17:26:24.000Z</time>
      </trkpt>
      <trkpt lat="47.1962" lon="-1.56849">
        <ele>56</ele>
        <time>2020-06-01T17:26:27.000Z</time>
      </trkpt>
      <trkpt lat="47.1962" lon="-1.5687">
        <ele>56</ele>
        <time>2020-06-01T17:26:29.000Z</time>
      </trkpt>
      <trkpt lat="47.19618" lon="-1.5689">
        <ele>57</ele>
        <time>2020-06-01T17:26:31.000Z</time>
      </trkpt>
      <trkpt lat="47.19616" lon="-1.56911">
        <ele>57</ele>
        <time>2020-06-01T17:26:33.000Z</time>
      </trkpt>
      <trkpt lat="47.19615" lon="-1.56932">
        <ele>57</ele>
        <time>2020-06-01T17:26:35.000Z</time>
      </trkpt>
      <trkpt lat="47.19614" lon="-1.56953">
        <ele>56</ele>
        <time>2020-06-01T17:26:37.000Z</time>
      </trkpt>
      <trkpt lat="47.19612" lon="-1.56975">
        <ele>56</ele>
        <time>2020-06-01T17:26:39.000Z</time>
      </trkpt>
      <trkpt lat="47.1961" lon="-1.56996">
        <ele>56</ele>
        <time>2020-06-01T17:26:41.000Z</time>
      </trkpt>
      <trkpt lat="47.19608" lon="-1.57017">
        <ele>56</ele>
        <time>2020-06-01T17:26:43.000Z</time>
      </trkpt>
      <trkpt lat="47.19607" lon="-1.57038">
        <ele>56</ele>
        <time>2020-06-01T17:26:45.000Z</time>
      </trkpt>
      <trkpt lat="47.19605" lon="-1.57059">
        <ele>56</ele>
        <time>2020-06-01T17:26:47.000Z</time>
      </trkpt>
      <trkpt lat="47.19604" lon="-1.57091">
        <ele>56</ele>
        <time>2020-06-01T17:26:50.000Z</time>
      </trkpt>
      <trkpt lat="47.19602" lon="-1.57112">
        <ele>56</ele>
        <time>2020-06-01T17:26:52.000Z</time>
      </trkpt>
      <trkpt lat="47.19601" lon="-1.57132">
        <ele>57</ele>
        <time>2020-06-01T17:26:54.000Z</time>
      </trkpt>
      <trkpt lat="47.19599" lon="-1.57153">
        <ele>56</ele>
        <time>2020-06-01T17:26:56.000Z</time>
      </trkpt>
      <trkpt lat="47.19598" lon="-1.57173">
        <ele>55</ele>
        <time>2020-06-01T17:26:58.000Z</time>
      </trkpt>
      <trkpt lat="47.19597" lon="-1.57194">
        <ele>55</ele>
        <time>2020-06-01T17:27:00.000Z</time>
      </trkpt>
      <trkpt lat="47.19596" lon="-1.57216">
        <ele>55</ele>
        <time>2020-06-01T17:27:02.000Z</time>
      </trkpt>
      <trkpt lat="47.19594" lon="-1.57237">
        <ele>54</ele>
        <time>2020-06-01T17:27:04.000Z</time>
      </trkpt>
      <trkpt lat="47.19592" lon="-1.57256">
        <ele>54</ele>
        <time>2020-06-01T17:27:06.000Z</time>
      </trkpt>
      <trkpt lat="47.1959" lon="-1.57276">
        <ele>54</ele>
        <time>2020-06-01T17:27:08.000Z</time>
      </trkpt>
      <trkpt lat="47.19589" lon="-1.57297">
        <ele>53</ele>
        <time>2020-06-01T17:27:10.000Z</time>
      </trkpt>
      <trkpt lat="47.19586" lon="-1.57327">
        <ele>53</ele>
        <time>2020-06-01T17:27:13.000Z</time>
      </trkpt>
      <trkpt lat="47.19582" lon="-1.57346">
        <ele>53</ele>
        <time>2020-06-01T17:27:15.000Z</time>
      </trkpt>
      <trkpt lat="47.19578" lon="-1.57365">
        <ele>54</ele>
        <time>2020-06-01T17:27:17.000Z</time>
      </trkpt>
      <trkpt lat="47.19575" lon="-1.57384">
        <ele>53</ele>
        <time>2020-06-01T17:27:19.000Z</time>
      </trkpt>
      <trkpt lat="47.19571" lon="-1.57402">
        <ele>53</ele>
        <time>2020-06-01T17:27:21.000Z</time>
      </trkpt>
      <trkpt lat="47.19567" lon="-1.57422">
        <ele>54</ele>
        <time>2020-06-01T17:27:23.000Z</time>
      </trkpt>
      <trkpt lat="47.19563" lon="-1.57442">
        <ele>54</ele>
        <time>2020-06-01T17:27:25.000Z</time>
      </trkpt>
      <trkpt lat="47.19559" lon="-1.57462">
        <ele>55</ele>
        <time>2020-06-01T17:27:27.000Z</time>
      </trkpt>
      <trkpt lat="47.19556" lon="-1.57482">
        <ele>54</ele>
        <time>2020-06-01T17:27:29.000Z</time>
      </trkpt>
      <trkpt lat="47.19552" lon="-1.57501">
        <ele>54</ele>
        <time>2020-06-01T17:27:31.000Z</time>
      </trkpt>
      <trkpt lat="47.19548" lon="-1.57521">
        <ele>54</ele>
        <time>2020-06-01T17:27:33.000Z</time>
      </trkpt>
      <trkpt lat="47.19544" lon="-1.57541">
        <ele>54</ele>
        <time>2020-06-01T17:27:35.000Z</time>
      </trkpt>
      <trkpt lat="47.19539" lon="-1.57561">
        <ele>54</ele>
        <time>2020-06-01T17:27:37.000Z</time>
      </trkpt>
      <trkpt lat="47.19536" lon="-1.57582">
        <ele>53</ele>
        <time>2020-06-01T17:27:39.000Z</time>
      </trkpt>
      <trkpt lat="47.19531" lon="-1.57602">
        <ele>53</ele>
        <time>2020-06-01T17:27:41.000Z</time>
      </trkpt>
      <trkpt lat="47.19527" lon="-1.57621">
        <ele>53</ele>
        <time>2020-06-01T17:27:43.000Z</time>
      </trkpt>
      <trkpt lat="47.19523" lon="-1.5764">
        <ele>53</ele>
        <time>2020-06-01T17:27:45.000Z</time>
      </trkpt>
      <trkpt lat="47.19519" lon="-1.5766">
        <ele>53</ele>
        <time>2020-06-01T17:27:47.000Z</time>
      </trkpt>
      <trkpt lat="47.19515" lon="-1.57679">
        <ele>52</ele>
        <time>2020-06-01T17:27:49.000Z</time>
      </trkpt>
      <trkpt lat="47.19512" lon="-1.57698">
        <ele>52</ele>
        <time>2020-06-01T17:27:51.000Z</time>
      </trkpt>
      <trkpt lat="47.19508" lon="-1.57717">
        <ele>52</ele>
        <time>2020-06-01T17:27:53.000Z</time>
      </trkpt>
      <trkpt lat="47.19504" lon="-1.57736">
        <ele>52</ele>
        <time>2020-06-01T17:27:55.000Z</time>
      </trkpt>
      <trkpt lat="47.195" lon="-1.57755">
        <ele>52</ele>
        <time>2020-06-01T17:27:57.000Z</time>
      </trkpt>
      <trkpt lat="47.19495" lon="-1.57775">
        <ele>52</ele>
        <time>2020-06-01T17:27:59.000Z</time>
      </trkpt>
      <trkpt lat="47.19491" lon="-1.57796">
        <ele>52</ele>
        <time>2020-06-01T17:28:01.000Z</time>
      </trkpt>
      <trkpt lat="47.19486" lon="-1.57816">
        <ele>52</ele>
        <time>2020-06-01T17:28:03.000Z</time>
      </trkpt>
      <trkpt lat="47.19483" lon="-1.57836">
        <ele>53</ele>
        <time>2020-06-01T17:28:05.000Z</time>
      </trkpt>
      <trkpt lat="47.19482" lon="-1.57858">
        <ele>52</ele>
        <time>2020-06-01T17:28:07.000Z</time>
      </trkpt>
      <trkpt lat="47.19479" lon="-1.57877">
        <ele>52</ele>
        <time>2020-06-01T17:28:09.000Z</time>
      </trkpt>
      <trkpt lat="47.19475" lon="-1.57897">
        <ele>52</ele>
        <time>2020-06-01T17:28:11.000Z</time>
      </trkpt>
      <trkpt lat="47.19472" lon="-1.57918">
        <ele>52</ele>
        <time>2020-06-01T17:28:13.000Z</time>
      </trkpt>
      <trkpt lat="47.1947" lon="-1.57938">
        <ele>52</ele>
        <time>2020-06-01T17:28:15.000Z</time>
      </trkpt>
      <trkpt lat="47.19467" lon="-1.57958">
        <ele>52</ele>
        <time>2020-06-01T17:28:17.000Z</time>
      </trkpt>
      <trkpt lat="47.19465" lon="-1.57978">
        <ele>52</ele>
        <time>2020-06-01T17:28:19.000Z</time>
      </trkpt>
      <trkpt lat="47.19464" lon="-1.57998">
        <ele>52</ele>
        <time>2020-06-01T17:28:21.000Z</time>
      </trkpt>
      <trkpt lat="47.19463" lon="-1.58018">
        <ele>52</ele>
        <time>2020-06-01T17:28:23.000Z</time>
      </trkpt>
      <trkpt lat="47.19462" lon="-1.58037">
        <ele>52</ele>
        <time>2020-06-01T17:28:25.000Z</time>
      </trkpt>
      <trkpt lat="47.1946" lon="-1.58055">
        <ele>51</ele>
        <time>2020-06-01T17:28:27.000Z</time>
      </trkpt>
      <trkpt lat="47.19457" lon="-1.58074">
        <ele>51</ele>
        <time>2020-06-01T17:28:29.000Z</time>
      </trkpt>
      <trkpt lat="47.19454" lon="-1.5809">
        <ele>51</ele>
        <time>2020-06-01T17:28:31.000Z</time>
      </trkpt>
      <trkpt lat="47.19447" lon="-1.58104">
        <ele>51</ele>
        <time>2020-06-01T17:28:33.000Z</time>
      </trkpt>
      <trkpt lat="47.19437" lon="-1.58118">
        <ele>52</ele>
        <time>2020-06-01T17:28:35.000Z</time>
      </trkpt>
      <trkpt lat="47.19426" lon="-1.58131">
        <ele>52</ele>
        <time>2020-06-01T17:28:37.000Z</time>
      </trkpt>
      <trkpt lat="47.19414" lon="-1.58144">
        <ele>52</ele>
        <time>2020-06-01T17:28:39.000Z</time>
      </trkpt>
      <trkpt lat="47.19405" lon="-1.58158">
        <ele>53</ele>
        <time>2020-06-01T17:28:41.000Z</time>
      </trkpt>
      <trkpt lat="47.19396" lon="-1.58174">
        <ele>53</ele>
        <time>2020-06-01T17:28:43.000Z</time>
      </trkpt>
      <trkpt lat="47.19389" lon="-1.58191">
        <ele>53</ele>
        <time>2020-06-01T17:28:45.000Z</time>
      </trkpt>
      <trkpt lat="47.19381" lon="-1.58208">
        <ele>53</ele>
        <time>2020-06-01T17:28:47.000Z</time>
      </trkpt>
      <trkpt lat="47.19374" lon="-1.58226">
        <ele>53</ele>
        <time>2020-06-01T17:28:49.000Z</time>
      </trkpt>
      <trkpt lat="47.19367" lon="-1.58244">
        <ele>53</ele>
        <time>2020-06-01T17:28:51.000Z</time>
      </trkpt>
      <trkpt lat="47.1936" lon="-1.58262">
        <ele>53</ele>
        <time>2020-06-01T17:28:53.000Z</time>
      </trkpt>
      <trkpt lat="47.19351" lon="-1.58279">
        <ele>53</ele>
        <time>2020-06-01T17:28:55.000Z</time>
      </trkpt>
      <trkpt lat="47.1934" lon="-1.58292">
        <ele>53</ele>
        <time>2020-06-01T17:28:57.000Z</time>
      </trkpt>
      <trkpt lat="47.19327" lon="-1.58304">
        <ele>53</ele>
        <time>2020-06-01T17:28:59.000Z</time>
      </trkpt>
      <trkpt lat="47.19315" lon="-1.58314">
        <ele>54</ele>
        <time>2020-06-01T17:29:01.000Z</time>
      </trkpt>
      <trkpt lat="47.19304" lon="-1.58325">
        <ele>54</ele>
        <time>2020-06-01T17:29:03.000Z</time>
      </trkpt>
      <trkpt lat="47.19292" lon="-1.58335">
        <ele>54</ele>
        <time>2020-06-01T17:29:05.000Z</time>
      </trkpt>
      <trkpt lat="47.1928" lon="-1.58347">
        <ele>55</ele>
        <time>2020-06-01T17:29:07.000Z</time>
      </trkpt>
      <trkpt lat="47.19268" lon="-1.58359">
        <ele>54</ele>
        <time>2020-06-01T17:29:09.000Z</time>
      </trkpt>
      <trkpt lat="47.19256" lon="-1.5837">
        <ele>54</ele>
        <time>2020-06-01T17:29:11.000Z</time>
      </trkpt>
      <trkpt lat="47.19245" lon="-1.58381">
        <ele>54</ele>
        <time>2020-06-01T17:29:13.000Z</time>
      </trkpt>
      <trkpt lat="47.19233" lon="-1.58392">
        <ele>54</ele>
        <time>2020-06-01T17:29:15.000Z</time>
      </trkpt>
      <trkpt lat="47.19222" lon="-1.58403">
        <ele>54</ele>
        <time>2020-06-01T17:29:17.000Z</time>
      </trkpt>
      <trkpt lat="47.1921" lon="-1.58413">
        <ele>54</ele>
        <time>2020-06-01T17:29:19.000Z</time>
      </trkpt>
      <trkpt lat="47.19198" lon="-1.58423">
        <ele>54</ele>
        <time>2020-06-01T17:29:21.000Z</time>
      </trkpt>
      <trkpt lat="47.19187" lon="-1.58434">
        <ele>54</ele>
        <time>2020-06-01T17:29:23.000Z</time>
      </trkpt>
      <trkpt lat="47.19175" lon="-1.58445">
        <ele>54</ele>
        <time>2020-06-01T17:29:25.000Z</time>
      </trkpt>
      <trkpt lat="47.19165" lon="-1.58455">
        <ele>54</ele>
        <time>2020-06-01T17:29:27.000Z</time>
      </trkpt>
      <trkpt lat="47.19154" lon="-1.58466">
        <ele>54</ele>
        <time>2020-06-01T17:29:29.000Z</time>
      </trkpt>
      <trkpt lat="47.19145" lon="-1.58474">
        <ele>53</ele>
        <time>2020-06-01T17:29:31.000Z</time>
      </trkpt>
      <trkpt lat="47.19136" lon="-1.58485">
        <ele>53</ele>
        <time>2020-06-01T17:29:34.000Z</time>
      </trkpt>
      <trkpt lat="47.19124" lon="-1.58494">
        <ele>53</ele>
        <time>2020-06-01T17:29:36.000Z</time>
      </trkpt>
      <trkpt lat="47.19112" lon="-1.58506">
        <ele>53</ele>
        <time>2020-06-01T17:29:38.000Z</time>
      </trkpt>
      <trkpt lat="47.191" lon="-1.58517">
        <ele>54</ele>
        <time>2020-06-01T17:29:40.000Z</time>
      </trkpt>
      <trkpt lat="47.19089" lon="-1.58529">
        <ele>53</ele>
        <time>2020-06-01T17:29:42.000Z</time>
      </trkpt>
      <trkpt lat="47.19077" lon="-1.5854">
        <ele>53</ele>
        <time>2020-06-01T17:29:44.000Z</time>
      </trkpt>
      <trkpt lat="47.19066" lon="-1.58553">
        <ele>53</ele>
        <time>2020-06-01T17:29:46.000Z</time>
      </trkpt>
      <trkpt lat="47.19055" lon="-1.58565">
        <ele>54</ele>
        <time>2020-06-01T17:29:48.000Z</time>
      </trkpt>
      <trkpt lat="47.19044" lon="-1.58576">
        <ele>54</ele>
        <time>2020-06-01T17:29:50.000Z</time>
      </trkpt>
      <trkpt lat="47.19033" lon="-1.58588">
        <ele>53</ele>
        <time>2020-06-01T17:29:52.000Z</time>
      </trkpt>
      <trkpt lat="47.19022" lon="-1.58601">
        <ele>53</ele>
        <time>2020-06-01T17:29:54.000Z</time>
      </trkpt>
      <trkpt lat="47.19011" lon="-1.58612">
        <ele>53</ele>
        <time>2020-06-01T17:29:56.000Z</time>
      </trkpt>
      <trkpt lat="47.19" lon="-1.58623">
        <ele>54</ele>
        <time>2020-06-01T17:29:58.000Z</time>
      </trkpt>
      <trkpt lat="47.18989" lon="-1.58633">
        <ele>53</ele>
        <time>2020-06-01T17:30:00.000Z</time>
      </trkpt>
      <trkpt lat="47.18979" lon="-1.58644">
        <ele>53</ele>
        <time>2020-06-01T17:30:02.000Z</time>
      </trkpt>
      <trkpt lat="47.18968" lon="-1.58655">
        <ele>53</ele>
        <time>2020-06-01T17:30:04.000Z</time>
      </trkpt>
      <trkpt lat="47.18956" lon="-1.58665">
        <ele>54</ele>
        <time>2020-06-01T17:30:06.000Z</time>
      </trkpt>
      <trkpt lat="47.18945" lon="-1.58675">
        <ele>53</ele>
        <time>2020-06-01T17:30:08.000Z</time>
      </trkpt>
      <trkpt lat="47.18934" lon="-1.58686">
        <ele>53</ele>
        <time>2020-06-01T17:30:10.000Z</time>
      </trkpt>
      <trkpt lat="47.18923" lon="-1.58697">
        <ele>53</ele>
        <time>2020-06-01T17:30:12.000Z</time>
      </trkpt>
      <trkpt lat="47.18911" lon="-1.58706">
        <ele>53</ele>
        <time>2020-06-01T17:30:14.000Z</time>
      </trkpt>
      <trkpt lat="47.189" lon="-1.58714">
        <ele>53</ele>
        <time>2020-06-01T17:30:16.000Z</time>
      </trkpt>
      <trkpt lat="47.18888" lon="-1.58721">
        <ele>53</ele>
        <time>2020-06-01T17:30:18.000Z</time>
      </trkpt>
      <trkpt lat="47.18877" lon="-1.58728">
        <ele>54</ele>
        <time>2020-06-01T17:30:20.000Z</time>
      </trkpt>
      <trkpt lat="47.18865" lon="-1.58735">
        <ele>53</ele>
        <time>2020-06-01T17:30:22.000Z</time>
      </trkpt>
      <trkpt lat="47.18853" lon="-1.58739">
        <ele>53</ele>
        <time>2020-06-01T17:30:24.000Z</time>
      </trkpt>
      <trkpt lat="47.18842" lon="-1.58745">
        <ele>53</ele>
        <time>2020-06-01T17:30:26.000Z</time>
      </trkpt>
      <trkpt lat="47.18834" lon="-1.58757">
        <ele>53</ele>
        <time>2020-06-01T17:30:28.000Z</time>
      </trkpt>
      <trkpt lat="47.18832" lon="-1.58774">
        <ele>54</ele>
        <time>2020-06-01T17:30:30.000Z</time>
      </trkpt>
      <trkpt lat="47.18826" lon="-1.5879">
        <ele>54</ele>
        <time>2020-06-01T17:30:32.000Z</time>
      </trkpt>
      <trkpt lat="47.18815" lon="-1.58802">
        <ele>54</ele>
        <time>2020-06-01T17:30:34.000Z</time>
      </trkpt>
      <trkpt lat="47.18804" lon="-1.58811">
        <ele>54</ele>
        <time>2020-06-01T17:30:36.000Z</time>
      </trkpt>
      <trkpt lat="47.18793" lon="-1.5882">
        <ele>53</ele>
        <time>2020-06-01T17:30:38.000Z</time>
      </trkpt>
      <trkpt lat="47.18788" lon="-1.58838">
        <ele>54</ele>
        <time>2020-06-01T17:30:40.000Z</time>
      </trkpt>
      <trkpt lat="47.18784" lon="-1.58857">
        <ele>54</ele>
        <time>2020-06-01T17:30:42.000Z</time>
      </trkpt>
      <trkpt lat="47.18781" lon="-1.58876">
        <ele>54</ele>
        <time>2020-06-01T17:30:44.000Z</time>
      </trkpt>
      <trkpt lat="47.18777" lon="-1.58897">
        <ele>54</ele>
        <time>2020-06-01T17:30:46.000Z</time>
      </trkpt>
      <trkpt lat="47.18774" lon="-1.58917">
        <ele>53</ele>
        <time>2020-06-01T17:30:48.000Z</time>
      </trkpt>
      <trkpt lat="47.18771" lon="-1.58938">
        <ele>53</ele>
        <time>2020-06-01T17:30:50.000Z</time>
      </trkpt>
      <trkpt lat="47.18769" lon="-1.58959">
        <ele>53</ele>
        <time>2020-06-01T17:30:52.000Z</time>
      </trkpt>
      <trkpt lat="47.18767" lon="-1.58979">
        <ele>53</ele>
        <time>2020-06-01T17:30:54.000Z</time>
      </trkpt>
      <trkpt lat="47.18766" lon="-1.58999">
        <ele>54</ele>
        <time>2020-06-01T17:30:56.000Z</time>
      </trkpt>
      <trkpt lat="47.18763" lon="-1.59021">
        <ele>54</ele>
        <time>2020-06-01T17:30:58.000Z</time>
      </trkpt>
      <trkpt lat="47.18761" lon="-1.59042">
        <ele>54</ele>
        <time>2020-06-01T17:31:00.000Z</time>
      </trkpt>
      <trkpt lat="47.18759" lon="-1.59064">
        <ele>54</ele>
        <time>2020-06-01T17:31:02.000Z</time>
      </trkpt>
      <trkpt lat="47.18756" lon="-1.59086">
        <ele>54</ele>
        <time>2020-06-01T17:31:04.000Z</time>
      </trkpt>
      <trkpt lat="47.18753" lon="-1.59107">
        <ele>54</ele>
        <time>2020-06-01T17:31:06.000Z</time>
      </trkpt>
      <trkpt lat="47.18751" lon="-1.59128">
        <ele>54</ele>
        <time>2020-06-01T17:31:08.000Z</time>
      </trkpt>
      <trkpt lat="47.18749" lon="-1.5915">
        <ele>54</ele>
        <time>2020-06-01T17:31:10.000Z</time>
      </trkpt>
      <trkpt lat="47.18746" lon="-1.59171">
        <ele>54</ele>
        <time>2020-06-01T17:31:12.000Z</time>
      </trkpt>
      <trkpt lat="47.18744" lon="-1.59193">
        <ele>54</ele>
        <time>2020-06-01T17:31:14.000Z</time>
      </trkpt>
      <trkpt lat="47.18742" lon="-1.59214">
        <ele>54</ele>
        <time>2020-06-01T17:31:16.000Z</time>
      </trkpt>
      <trkpt lat="47.18739" lon="-1.59236">
        <ele>54</ele>
        <time>2020-06-01T17:31:18.000Z</time>
      </trkpt>
      <trkpt lat="47.18737" lon="-1.59258">
        <ele>54</ele>
        <time>2020-06-01T17:31:20.000Z</time>
      </trkpt>
      <trkpt lat="47.18735" lon="-1.59279">
        <ele>54</ele>
        <time>2020-06-01T17:31:22.000Z</time>
      </trkpt>
      <trkpt lat="47.18733" lon="-1.593">
        <ele>54</ele>
        <time>2020-06-01T17:31:24.000Z</time>
      </trkpt>
      <trkpt lat="47.1873" lon="-1.59321">
        <ele>54</ele>
        <time>2020-06-01T17:31:26.000Z</time>
      </trkpt>
      <trkpt lat="47.18729" lon="-1.59342">
        <ele>54</ele>
        <time>2020-06-01T17:31:28.000Z</time>
      </trkpt>
      <trkpt lat="47.18726" lon="-1.59364">
        <ele>54</ele>
        <time>2020-06-01T17:31:30.000Z</time>
      </trkpt>
      <trkpt lat="47.18724" lon="-1.59385">
        <ele>54</ele>
        <time>2020-06-01T17:31:32.000Z</time>
      </trkpt>
      <trkpt lat="47.18721" lon="-1.59407">
        <ele>54</ele>
        <time>2020-06-01T17:31:34.000Z</time>
      </trkpt>
      <trkpt lat="47.18719" lon="-1.59429">
        <ele>54</ele>
        <time>2020-06-01T17:31:36.000Z</time>
      </trkpt>
      <trkpt lat="47.18717" lon="-1.5945">
        <ele>54</ele>
        <time>2020-06-01T17:31:38.000Z</time>
      </trkpt>
      <trkpt lat="47.18714" lon="-1.59471">
        <ele>54</ele>
        <time>2020-06-01T17:31:40.000Z</time>
      </trkpt>
      <trkpt lat="47.18712" lon="-1.59493">
        <ele>53</ele>
        <time>2020-06-01T17:31:42.000Z</time>
      </trkpt>
      <trkpt lat="47.1871" lon="-1.59514">
        <ele>53</ele>
        <time>2020-06-01T17:31:44.000Z</time>
      </trkpt>
      <trkpt lat="47.18707" lon="-1.59536">
        <ele>54</ele>
        <time>2020-06-01T17:31:46.000Z</time>
      </trkpt>
      <trkpt lat="47.18705" lon="-1.59558">
        <ele>54</ele>
        <time>2020-06-01T17:31:48.000Z</time>
      </trkpt>
      <trkpt lat="47.18703" lon="-1.59579">
        <ele>54</ele>
        <time>2020-06-01T17:31:50.000Z</time>
      </trkpt>
      <trkpt lat="47.187" lon="-1.596">
        <ele>54</ele>
        <time>2020-06-01T17:31:52.000Z</time>
      </trkpt>
      <trkpt lat="47.18698" lon="-1.59621">
        <ele>54</ele>
        <time>2020-06-01T17:31:54.000Z</time>
      </trkpt>
      <trkpt lat="47.18695" lon="-1.59642">
        <ele>54</ele>
        <time>2020-06-01T17:31:56.000Z</time>
      </trkpt>
      <trkpt lat="47.18692" lon="-1.59663">
        <ele>55</ele>
        <time>2020-06-01T17:31:58.000Z</time>
      </trkpt>
      <trkpt lat="47.18689" lon="-1.59685">
        <ele>55</ele>
        <time>2020-06-01T17:32:00.000Z</time>
      </trkpt>
      <trkpt lat="47.18686" lon="-1.59707">
        <ele>55</ele>
        <time>2020-06-01T17:32:02.000Z</time>
      </trkpt>
      <trkpt lat="47.18685" lon="-1.59728">
        <ele>55</ele>
        <time>2020-06-01T17:32:04.000Z</time>
      </trkpt>
      <trkpt lat="47.18684" lon="-1.59752">
        <ele>55</ele>
        <time>2020-06-01T17:32:06.000Z</time>
      </trkpt>
      <trkpt lat="47.18684" lon="-1.59778">
        <ele>54</ele>
        <time>2020-06-01T17:32:08.000Z</time>
      </trkpt>
      <trkpt lat="47.18685" lon="-1.59791">
        <ele>54</ele>
        <time>2020-06-01T17:32:09.000Z</time>
      </trkpt>
      <trkpt lat="47.18685" lon="-1.59818">
        <ele>54</ele>
        <time>2020-06-01T17:32:11.000Z</time>
      </trkpt>
      <trkpt lat="47.18679" lon="-1.5983">
        <ele>54</ele>
        <time>2020-06-01T17:32:12.000Z</time>
      </trkpt>
      <trkpt lat="47.18665" lon="-1.59844">
        <ele>54</ele>
        <time>2020-06-01T17:32:14.000Z</time>
      </trkpt>
      <trkpt lat="47.18649" lon="-1.59846">
        <ele>54</ele>
        <time>2020-06-01T17:32:16.000Z</time>
      </trkpt>
      <trkpt lat="47.18637" lon="-1.59836">
        <ele>54</ele>
        <time>2020-06-01T17:32:18.000Z</time>
      </trkpt>
      <trkpt lat="47.18625" lon="-1.59831">
        <ele>53</ele>
        <time>2020-06-01T17:32:20.000Z</time>
      </trkpt>
      <trkpt lat="47.18617" lon="-1.5984">
        <ele>51</ele>
        <time>2020-06-01T17:32:22.000Z</time>
      </trkpt>
      <trkpt lat="47.18622" lon="-1.59857">
        <ele>51</ele>
        <time>2020-06-01T17:32:24.000Z</time>
      </trkpt>
      <trkpt lat="47.18624" lon="-1.59873">
        <ele>51</ele>
        <time>2020-06-01T17:32:26.000Z</time>
      </trkpt>
      <trkpt lat="47.1862" lon="-1.59893">
        <ele>52</ele>
        <time>2020-06-01T17:32:28.000Z</time>
      </trkpt>
      <trkpt lat="47.18614" lon="-1.59911">
        <ele>51</ele>
        <time>2020-06-01T17:32:30.000Z</time>
      </trkpt>
      <trkpt lat="47.18609" lon="-1.5993">
        <ele>52</ele>
        <time>2020-06-01T17:32:32.000Z</time>
      </trkpt>
      <trkpt lat="47.18604" lon="-1.59949">
        <ele>52</ele>
        <time>2020-06-01T17:32:34.000Z</time>
      </trkpt>
      <trkpt lat="47.18598" lon="-1.59969">
        <ele>52</ele>
        <time>2020-06-01T17:32:36.000Z</time>
      </trkpt>
      <trkpt lat="47.18592" lon="-1.59988">
        <ele>52</ele>
        <time>2020-06-01T17:32:38.000Z</time>
      </trkpt>
      <trkpt lat="47.18586" lon="-1.60007">
        <ele>52</ele>
        <time>2020-06-01T17:32:40.000Z</time>
      </trkpt>
      <trkpt lat="47.1858" lon="-1.60026">
        <ele>53</ele>
        <time>2020-06-01T17:32:42.000Z</time>
      </trkpt>
      <trkpt lat="47.18574" lon="-1.60044">
        <ele>53</ele>
        <time>2020-06-01T17:32:44.000Z</time>
      </trkpt>
      <trkpt lat="47.18567" lon="-1.60062">
        <ele>53</ele>
        <time>2020-06-01T17:32:46.000Z</time>
      </trkpt>
      <trkpt lat="47.1856" lon="-1.6008">
        <ele>53</ele>
        <time>2020-06-01T17:32:48.000Z</time>
      </trkpt>
      <trkpt lat="47.18553" lon="-1.60097">
        <ele>53</ele>
        <time>2020-06-01T17:32:50.000Z</time>
      </trkpt>
      <trkpt lat="47.18546" lon="-1.60114">
        <ele>53</ele>
        <time>2020-06-01T17:32:52.000Z</time>
      </trkpt>
      <trkpt lat="47.18539" lon="-1.60131">
        <ele>53</ele>
        <time>2020-06-01T17:32:54.000Z</time>
      </trkpt>
      <trkpt lat="47.18531" lon="-1.60147">
        <ele>53</ele>
        <time>2020-06-01T17:32:56.000Z</time>
      </trkpt>
      <trkpt lat="47.18524" lon="-1.60162">
        <ele>54</ele>
        <time>2020-06-01T17:32:58.000Z</time>
      </trkpt>
      <trkpt lat="47.18517" lon="-1.60178">
        <ele>53</ele>
        <time>2020-06-01T17:33:00.000Z</time>
      </trkpt>
      <trkpt lat="47.18509" lon="-1.60193">
        <ele>53</ele>
        <time>2020-06-01T17:33:02.000Z</time>
      </trkpt>
      <trkpt lat="47.18501" lon="-1.60209">
        <ele>53</ele>
        <time>2020-06-01T17:33:04.000Z</time>
      </trkpt>
      <trkpt lat="47.18493" lon="-1.60224">
        <ele>53</ele>
        <time>2020-06-01T17:33:06.000Z</time>
      </trkpt>
      <trkpt lat="47.18485" lon="-1.6024">
        <ele>53</ele>
        <time>2020-06-01T17:33:08.000Z</time>
      </trkpt>
      <trkpt lat="47.18477" lon="-1.60255">
        <ele>53</ele>
        <time>2020-06-01T17:33:10.000Z</time>
      </trkpt>
      <trkpt lat="47.18469" lon="-1.6027">
        <ele>53</ele>
        <time>2020-06-01T17:33:12.000Z</time>
      </trkpt>
      <trkpt lat="47.1846" lon="-1.60285">
        <ele>53</ele>
        <time>2020-06-01T17:33:14.000Z</time>
      </trkpt>
      <trkpt lat="47.18451" lon="-1.60299">
        <ele>53</ele>
        <time>2020-06-01T17:33:16.000Z</time>
      </trkpt>
      <trkpt lat="47.18442" lon="-1.60314">
        <ele>53</ele>
        <time>2020-06-01T17:33:18.000Z</time>
      </trkpt>
      <trkpt lat="47.18433" lon="-1.60329">
        <ele>53</ele>
        <time>2020-06-01T17:33:20.000Z</time>
      </trkpt>
      <trkpt lat="47.18424" lon="-1.60343">
        <ele>52</ele>
        <time>2020-06-01T17:33:22.000Z</time>
      </trkpt>
      <trkpt lat="47.18415" lon="-1.60357">
        <ele>52</ele>
        <time>2020-06-01T17:33:24.000Z</time>
      </trkpt>
      <trkpt lat="47.18405" lon="-1.6037">
        <ele>52</ele>
        <time>2020-06-01T17:33:26.000Z</time>
      </trkpt>
      <trkpt lat="47.18396" lon="-1.60383">
        <ele>52</ele>
        <time>2020-06-01T17:33:28.000Z</time>
      </trkpt>
      <trkpt lat="47.18386" lon="-1.60396">
        <ele>53</ele>
        <time>2020-06-01T17:33:30.000Z</time>
      </trkpt>
      <trkpt lat="47.18376" lon="-1.6041">
        <ele>53</ele>
        <time>2020-06-01T17:33:32.000Z</time>
      </trkpt>
      <trkpt lat="47.18366" lon="-1.60423">
        <ele>53</ele>
        <time>2020-06-01T17:33:34.000Z</time>
      </trkpt>
      <trkpt lat="47.18357" lon="-1.60435">
        <ele>53</ele>
        <time>2020-06-01T17:33:36.000Z</time>
      </trkpt>
      <trkpt lat="47.18347" lon="-1.60448">
        <ele>53</ele>
        <time>2020-06-01T17:33:38.000Z</time>
      </trkpt>
      <trkpt lat="47.18337" lon="-1.60459">
        <ele>53</ele>
        <time>2020-06-01T17:33:40.000Z</time>
      </trkpt>
      <trkpt lat="47.18328" lon="-1.60471">
        <ele>53</ele>
        <time>2020-06-01T17:33:42.000Z</time>
      </trkpt>
      <trkpt lat="47.18317" lon="-1.60483">
        <ele>53</ele>
        <time>2020-06-01T17:33:44.000Z</time>
      </trkpt>
      <trkpt lat="47.18306" lon="-1.60495">
        <ele>53</ele>
        <time>2020-06-01T17:33:46.000Z</time>
      </trkpt>
      <trkpt lat="47.18295" lon="-1.60507">
        <ele>53</ele>
        <time>2020-06-01T17:33:48.000Z</time>
      </trkpt>
      <trkpt lat="47.18284" lon="-1.60518">
        <ele>53</ele>
        <time>2020-06-01T17:33:50.000Z</time>
      </trkpt>
      <trkpt lat="47.18273" lon="-1.60529">
        <ele>53</ele>
        <time>2020-06-01T17:33:52.000Z</time>
      </trkpt>
      <trkpt lat="47.18261" lon="-1.6054">
        <ele>53</ele>
        <time>2020-06-01T17:33:54.000Z</time>
      </trkpt>
      <trkpt lat="47.18249" lon="-1.60549">
        <ele>53</ele>
        <time>2020-06-01T17:33:56.000Z</time>
      </trkpt>
      <trkpt lat="47.18237" lon="-1.60558">
        <ele>53</ele>
        <time>2020-06-01T17:33:58.000Z</time>
      </trkpt>
      <trkpt lat="47.18225" lon="-1.60565">
        <ele>54</ele>
        <time>2020-06-01T17:34:00.000Z</time>
      </trkpt>
      <trkpt lat="47.18214" lon="-1.60571">
        <ele>54</ele>
        <time>2020-06-01T17:34:02.000Z</time>
      </trkpt>
      <trkpt lat="47.18203" lon="-1.60576">
        <ele>54</ele>
        <time>2020-06-01T17:34:04.000Z</time>
      </trkpt>
      <trkpt lat="47.18193" lon="-1.60581">
        <ele>54</ele>
        <time>2020-06-01T17:34:06.000Z</time>
      </trkpt>
      <trkpt lat="47.18189" lon="-1.60599">
        <ele>54</ele>
        <time>2020-06-01T17:34:09.000Z</time>
      </trkpt>
      <trkpt lat="47.18178" lon="-1.60606">
        <ele>54</ele>
        <time>2020-06-01T17:34:11.000Z</time>
      </trkpt>
      <trkpt lat="47.18164" lon="-1.60606">
        <ele>53</ele>
        <time>2020-06-01T17:34:13.000Z</time>
      </trkpt>
      <trkpt lat="47.18151" lon="-1.60607">
        <ele>53</ele>
        <time>2020-06-01T17:34:15.000Z</time>
      </trkpt>
      <trkpt lat="47.18138" lon="-1.60606">
        <ele>54</ele>
        <time>2020-06-01T17:34:17.000Z</time>
      </trkpt>
      <trkpt lat="47.18126" lon="-1.60602">
        <ele>53</ele>
        <time>2020-06-01T17:34:19.000Z</time>
      </trkpt>
      <trkpt lat="47.18113" lon="-1.60598">
        <ele>53</ele>
        <time>2020-06-01T17:34:21.000Z</time>
      </trkpt>
      <trkpt lat="47.18101" lon="-1.60593">
        <ele>53</ele>
        <time>2020-06-01T17:34:23.000Z</time>
      </trkpt>
      <trkpt lat="47.18088" lon="-1.60587">
        <ele>53</ele>
        <time>2020-06-01T17:34:25.000Z</time>
      </trkpt>
      <trkpt lat="47.18076" lon="-1.6058">
        <ele>53</ele>
        <time>2020-06-01T17:34:27.000Z</time>
      </trkpt>
      <trkpt lat="47.18065" lon="-1.60573">
        <ele>53</ele>
        <time>2020-06-01T17:34:29.000Z</time>
      </trkpt>
      <trkpt lat="47.18053" lon="-1.60567">
        <ele>53</ele>
        <time>2020-06-01T17:34:31.000Z</time>
      </trkpt>
      <trkpt lat="47.18042" lon="-1.60561">
        <ele>52</ele>
        <time>2020-06-01T17:34:33.000Z</time>
      </trkpt>
      <trkpt lat="47.18031" lon="-1.60556">
        <ele>53</ele>
        <time>2020-06-01T17:34:35.000Z</time>
      </trkpt>
      <trkpt lat="47.18019" lon="-1.60556">
        <ele>53</ele>
        <time>2020-06-01T17:34:37.000Z</time>
      </trkpt>
      <trkpt lat="47.18006" lon="-1.60558">
        <ele>53</ele>
        <time>2020-06-01T17:34:39.000Z</time>
      </trkpt>
      <trkpt lat="47.17994" lon="-1.60561">
        <ele>54</ele>
        <time>2020-06-01T17:34:41.000Z</time>
      </trkpt>
      <trkpt lat="47.17983" lon="-1.60565">
        <ele>54</ele>
        <time>2020-06-01T17:34:43.000Z</time>
      </trkpt>
      <trkpt lat="47.17972" lon="-1.6057">
        <ele>54</ele>
        <time>2020-06-01T17:34:45.000Z</time>
      </trkpt>
      <trkpt lat="47.17962" lon="-1.60575">
        <ele>54</ele>
        <time>2020-06-01T17:34:47.000Z</time>
      </trkpt>
      <trkpt lat="47.17951" lon="-1.60581">
        <ele>54</ele>
        <time>2020-06-01T17:34:49.000Z</time>
      </trkpt>
      <trkpt lat="47.1794" lon="-1.60586">
        <ele>54</ele>
        <time>2020-06-01T17:34:51.000Z</time>
      </trkpt>
      <trkpt lat="47.1793" lon="-1.60589">
        <ele>55</ele>
        <time>2020-06-01T17:34:53.000Z</time>
      </trkpt>
      <trkpt lat="47.17917" lon="-1.60591">
        <ele>55</ele>
        <time>2020-06-01T17:34:56.000Z</time>
      </trkpt>
      <trkpt lat="47.17908" lon="-1.60595">
        <ele>55</ele>
        <time>2020-06-01T17:34:58.000Z</time>
      </trkpt>
      <trkpt lat="47.17902" lon="-1.60613">
        <ele>55</ele>
        <time>2020-06-01T17:35:00.000Z</time>
      </trkpt>
      <trkpt lat="47.17897" lon="-1.60633">
        <ele>54</ele>
        <time>2020-06-01T17:35:02.000Z</time>
      </trkpt>
      <trkpt lat="47.17891" lon="-1.60652">
        <ele>54</ele>
        <time>2020-06-01T17:35:04.000Z</time>
      </trkpt>
      <trkpt lat="47.17885" lon="-1.60672">
        <ele>53</ele>
        <time>2020-06-01T17:35:06.000Z</time>
      </trkpt>
      <trkpt lat="47.1788" lon="-1.60692">
        <ele>53</ele>
        <time>2020-06-01T17:35:08.000Z</time>
      </trkpt>
      <trkpt lat="47.17875" lon="-1.60713">
        <ele>52</ele>
        <time>2020-06-01T17:35:10.000Z</time>
      </trkpt>
      <trkpt lat="47.1787" lon="-1.60733">
        <ele>52</ele>
        <time>2020-06-01T17:35:12.000Z</time>
      </trkpt>
      <trkpt lat="47.17865" lon="-1.60752">
        <ele>52</ele>
        <time>2020-06-01T17:35:14.000Z</time>
      </trkpt>
      <trkpt lat="47.17862" lon="-1.60771">
        <ele>52</ele>
        <time>2020-06-01T17:35:16.000Z</time>
      </trkpt>
      <trkpt lat="47.17858" lon="-1.6079">
        <ele>52</ele>
        <time>2020-06-01T17:35:18.000Z</time>
      </trkpt>
      <trkpt lat="47.17854" lon="-1.60808">
        <ele>53</ele>
        <time>2020-06-01T17:35:20.000Z</time>
      </trkpt>
      <trkpt lat="47.17849" lon="-1.60827">
        <ele>53</ele>
        <time>2020-06-01T17:35:22.000Z</time>
      </trkpt>
      <trkpt lat="47.17843" lon="-1.60844">
        <ele>53</ele>
        <time>2020-06-01T17:35:24.000Z</time>
      </trkpt>
      <trkpt lat="47.17835" lon="-1.6086">
        <ele>53</ele>
        <time>2020-06-01T17:35:26.000Z</time>
      </trkpt>
      <trkpt lat="47.17826" lon="-1.60875">
        <ele>53</ele>
        <time>2020-06-01T17:35:28.000Z</time>
      </trkpt>
      <trkpt lat="47.17817" lon="-1.60888">
        <ele>53</ele>
        <time>2020-06-01T17:35:30.000Z</time>
      </trkpt>
      <trkpt lat="47.17805" lon="-1.60899">
        <ele>53</ele>
        <time>2020-06-01T17:35:32.000Z</time>
      </trkpt>
      <trkpt lat="47.17793" lon="-1.60908">
        <ele>53</ele>
        <time>2020-06-01T17:35:34.000Z</time>
      </trkpt>
      <trkpt lat="47.17781" lon="-1.60916">
        <ele>53</ele>
        <time>2020-06-01T17:35:36.000Z</time>
      </trkpt>
      <trkpt lat="47.17769" lon="-1.60926">
        <ele>53</ele>
        <time>2020-06-01T17:35:38.000Z</time>
      </trkpt>
      <trkpt lat="47.17757" lon="-1.60935">
        <ele>53</ele>
        <time>2020-06-01T17:35:40.000Z</time>
      </trkpt>
      <trkpt lat="47.17745" lon="-1.60945">
        <ele>53</ele>
        <time>2020-06-01T17:35:42.000Z</time>
      </trkpt>
      <trkpt lat="47.17733" lon="-1.60954">
        <ele>53</ele>
        <time>2020-06-01T17:35:44.000Z</time>
      </trkpt>
      <trkpt lat="47.17721" lon="-1.60962">
        <ele>53</ele>
        <time>2020-06-01T17:35:46.000Z</time>
      </trkpt>
      <trkpt lat="47.17708" lon="-1.6097">
        <ele>53</ele>
        <time>2020-06-01T17:35:48.000Z</time>
      </trkpt>
      <trkpt lat="47.17696" lon="-1.60977">
        <ele>52</ele>
        <time>2020-06-01T17:35:50.000Z</time>
      </trkpt>
      <trkpt lat="47.17682" lon="-1.60978">
        <ele>52</ele>
        <time>2020-06-01T17:35:52.000Z</time>
      </trkpt>
      <trkpt lat="47.17665" lon="-1.60975">
        <ele>51</ele>
        <time>2020-06-01T17:35:54.000Z</time>
      </trkpt>
      <trkpt lat="47.17651" lon="-1.60983">
        <ele>52</ele>
        <time>2020-06-01T17:35:56.000Z</time>
      </trkpt>
      <trkpt lat="47.17639" lon="-1.60994">
        <ele>51</ele>
        <time>2020-06-01T17:35:58.000Z</time>
      </trkpt>
      <trkpt lat="47.17626" lon="-1.61004">
        <ele>51</ele>
        <time>2020-06-01T17:36:00.000Z</time>
      </trkpt>
      <trkpt lat="47.17614" lon="-1.61015">
        <ele>51</ele>
        <time>2020-06-01T17:36:02.000Z</time>
      </trkpt>
      <trkpt lat="47.17602" lon="-1.61025">
        <ele>51</ele>
        <time>2020-06-01T17:36:04.000Z</time>
      </trkpt>
      <trkpt lat="47.1759" lon="-1.61035">
        <ele>51</ele>
        <time>2020-06-01T17:36:06.000Z</time>
      </trkpt>
      <trkpt lat="47.17578" lon="-1.61046">
        <ele>51</ele>
        <time>2020-06-01T17:36:08.000Z</time>
      </trkpt>
      <trkpt lat="47.17566" lon="-1.61056">
        <ele>51</ele>
        <time>2020-06-01T17:36:10.000Z</time>
      </trkpt>
      <trkpt lat="47.17554" lon="-1.61067">
        <ele>51</ele>
        <time>2020-06-01T17:36:12.000Z</time>
      </trkpt>
      <trkpt lat="47.17542" lon="-1.61077">
        <ele>52</ele>
        <time>2020-06-01T17:36:14.000Z</time>
      </trkpt>
      <trkpt lat="47.17531" lon="-1.61087">
        <ele>52</ele>
        <time>2020-06-01T17:36:16.000Z</time>
      </trkpt>
      <trkpt lat="47.17519" lon="-1.61096">
        <ele>52</ele>
        <time>2020-06-01T17:36:18.000Z</time>
      </trkpt>
      <trkpt lat="47.17508" lon="-1.61104">
        <ele>52</ele>
        <time>2020-06-01T17:36:20.000Z</time>
      </trkpt>
      <trkpt lat="47.17495" lon="-1.61107">
        <ele>52</ele>
        <time>2020-06-01T17:36:22.000Z</time>
      </trkpt>
      <trkpt lat="47.17483" lon="-1.61105">
        <ele>52</ele>
        <time>2020-06-01T17:36:24.000Z</time>
      </trkpt>
      <trkpt lat="47.17473" lon="-1.61101">
        <ele>53</ele>
        <time>2020-06-01T17:36:26.000Z</time>
      </trkpt>
      <trkpt lat="47.17463" lon="-1.61092">
        <ele>53</ele>
        <time>2020-06-01T17:36:28.000Z</time>
      </trkpt>
      <trkpt lat="47.17454" lon="-1.61083">
        <ele>54</ele>
        <time>2020-06-01T17:36:30.000Z</time>
      </trkpt>
      <trkpt lat="47.17447" lon="-1.61071">
        <ele>53</ele>
        <time>2020-06-01T17:36:32.000Z</time>
      </trkpt>
      <trkpt lat="47.17441" lon="-1.61057">
        <ele>54</ele>
        <time>2020-06-01T17:36:34.000Z</time>
      </trkpt>
      <trkpt lat="47.17435" lon="-1.61042">
        <ele>54</ele>
        <time>2020-06-01T17:36:36.000Z</time>
      </trkpt>
      <trkpt lat="47.17432" lon="-1.61027">
        <ele>54</ele>
        <time>2020-06-01T17:36:38.000Z</time>
      </trkpt>
      <trkpt lat="47.17424" lon="-1.61034">
        <ele>55</ele>
        <time>2020-06-01T17:36:43.000Z</time>
      </trkpt>
      <trkpt lat="47.17428" lon="-1.61052">
        <ele>55</ele>
        <time>2020-06-01T17:36:46.000Z</time>
      </trkpt>
      <trkpt lat="47.17434" lon="-1.61065">
        <ele>55</ele>
        <time>2020-06-01T17:36:48.000Z</time>
      </trkpt>
      <trkpt lat="47.1744" lon="-1.6108">
        <ele>55</ele>
        <time>2020-06-01T17:36:50.000Z</time>
      </trkpt>
      <trkpt lat="47.17446" lon="-1.61093">
        <ele>56</ele>
        <time>2020-06-01T17:36:52.000Z</time>
      </trkpt>
      <trkpt lat="47.17452" lon="-1.61107">
        <ele>56</ele>
        <time>2020-06-01T17:36:54.000Z</time>
      </trkpt>
      <trkpt lat="47.17458" lon="-1.61121">
        <ele>57</ele>
        <time>2020-06-01T17:36:56.000Z</time>
      </trkpt>
      <trkpt lat="47.17463" lon="-1.61135">
        <ele>57</ele>
        <time>2020-06-01T17:36:58.000Z</time>
      </trkpt>
      <trkpt lat="47.17468" lon="-1.61149">
        <ele>57</ele>
        <time>2020-06-01T17:37:00.000Z</time>
      </trkpt>
      <trkpt lat="47.17473" lon="-1.61163">
        <ele>58</ele>
        <time>2020-06-01T17:37:02.000Z</time>
      </trkpt>
      <trkpt lat="47.17478" lon="-1.61177">
        <ele>58</ele>
        <time>2020-06-01T17:37:04.000Z</time>
      </trkpt>
      <trkpt lat="47.17484" lon="-1.6119">
        <ele>59</ele>
        <time>2020-06-01T17:37:06.000Z</time>
      </trkpt>
      <trkpt lat="47.17489" lon="-1.61204">
        <ele>59</ele>
        <time>2020-06-01T17:37:08.000Z</time>
      </trkpt>
      <trkpt lat="47.17495" lon="-1.61217">
        <ele>59</ele>
        <time>2020-06-01T17:37:10.000Z</time>
      </trkpt>
      <trkpt lat="47.17501" lon="-1.61231">
        <ele>60</ele>
        <time>2020-06-01T17:37:12.000Z</time>
      </trkpt>
      <trkpt lat="47.17507" lon="-1.61243">
        <ele>59</ele>
        <time>2020-06-01T17:37:14.000Z</time>
      </trkpt>
      <trkpt lat="47.17514" lon="-1.61256">
        <ele>60</ele>
        <time>2020-06-01T17:37:16.000Z</time>
      </trkpt>
      <trkpt lat="47.17521" lon="-1.61268">
        <ele>60</ele>
        <time>2020-06-01T17:37:18.000Z</time>
      </trkpt>
      <trkpt lat="47.17529" lon="-1.61279">
        <ele>60</ele>
        <time>2020-06-01T17:37:20.000Z</time>
      </trkpt>
      <trkpt lat="47.17538" lon="-1.61287">
        <ele>60</ele>
        <time>2020-06-01T17:37:22.000Z</time>
      </trkpt>
      <trkpt lat="47.17547" lon="-1.61293">
        <ele>60</ele>
        <time>2020-06-01T17:37:24.000Z</time>
      </trkpt>
      <trkpt lat="47.17557" lon="-1.613">
        <ele>60</ele>
        <time>2020-06-01T17:37:26.000Z</time>
      </trkpt>
      <trkpt lat="47.17562" lon="-1.61315">
        <ele>60</ele>
        <time>2020-06-01T17:37:28.000Z</time>
      </trkpt>
      <trkpt lat="47.17562" lon="-1.61333">
        <ele>60</ele>
        <time>2020-06-01T17:37:30.000Z</time>
      </trkpt>
      <trkpt lat="47.17556" lon="-1.61347">
        <ele>60</ele>
        <time>2020-06-01T17:37:32.000Z</time>
      </trkpt>
      <trkpt lat="47.17546" lon="-1.61357">
        <ele>60</ele>
        <time>2020-06-01T17:37:34.000Z</time>
      </trkpt>
      <trkpt lat="47.17537" lon="-1.61367">
        <ele>60</ele>
        <time>2020-06-01T17:37:36.000Z</time>
      </trkpt>
      <trkpt lat="47.17531" lon="-1.61382">
        <ele>60</ele>
        <time>2020-06-01T17:37:38.000Z</time>
      </trkpt>
      <trkpt lat="47.17527" lon="-1.61397">
        <ele>60</ele>
        <time>2020-06-01T17:37:40.000Z</time>
      </trkpt>
      <trkpt lat="47.17523" lon="-1.61413">
        <ele>61</ele>
        <time>2020-06-01T17:37:42.000Z</time>
      </trkpt>
      <trkpt lat="47.17521" lon="-1.61427">
        <ele>62</ele>
        <time>2020-06-01T17:37:44.000Z</time>
      </trkpt>
      <trkpt lat="47.17518" lon="-1.61442">
        <ele>62</ele>
        <time>2020-06-01T17:37:46.000Z</time>
      </trkpt>
      <trkpt lat="47.17514" lon="-1.61455">
        <ele>63</ele>
        <time>2020-06-01T17:37:48.000Z</time>
      </trkpt>
      <trkpt lat="47.17505" lon="-1.61463">
        <ele>63</ele>
        <time>2020-06-01T17:37:50.000Z</time>
      </trkpt>
      <trkpt lat="47.17494" lon="-1.61468">
        <ele>64</ele>
        <time>2020-06-01T17:37:52.000Z</time>
      </trkpt>
      <trkpt lat="47.17483" lon="-1.61473">
        <ele>64</ele>
        <time>2020-06-01T17:37:54.000Z</time>
      </trkpt>
      <trkpt lat="47.17472" lon="-1.61477">
        <ele>65</ele>
        <time>2020-06-01T17:37:56.000Z</time>
      </trkpt>
      <trkpt lat="47.17461" lon="-1.61482">
        <ele>65</ele>
        <time>2020-06-01T17:37:58.000Z</time>
      </trkpt>
      <trkpt lat="47.1745" lon="-1.61487">
        <ele>66</ele>
        <time>2020-06-01T17:38:00.000Z</time>
      </trkpt>
      <trkpt lat="47.17439" lon="-1.61494">
        <ele>66</ele>
        <time>2020-06-01T17:38:02.000Z</time>
      </trkpt>
      <trkpt lat="47.1743" lon="-1.615">
        <ele>66</ele>
        <time>2020-06-01T17:38:04.000Z</time>
      </trkpt>
      <trkpt lat="47.1742" lon="-1.61506">
        <ele>67</ele>
        <time>2020-06-01T17:38:06.000Z</time>
      </trkpt>
      <trkpt lat="47.17411" lon="-1.61512">
        <ele>67</ele>
        <time>2020-06-01T17:38:08.000Z</time>
      </trkpt>
      <trkpt lat="47.17402" lon="-1.61519">
        <ele>67</ele>
        <time>2020-06-01T17:38:10.000Z</time>
      </trkpt>
      <trkpt lat="47.17393" lon="-1.61527">
        <ele>67</ele>
        <time>2020-06-01T17:38:12.000Z</time>
      </trkpt>
      <trkpt lat="47.17384" lon="-1.61535">
        <ele>68</ele>
        <time>2020-06-01T17:38:14.000Z</time>
      </trkpt>
      <trkpt lat="47.17377" lon="-1.61543">
        <ele>69</ele>
        <time>2020-06-01T17:38:16.000Z</time>
      </trkpt>
      <trkpt lat="47.17369" lon="-1.61552">
        <ele>70</ele>
        <time>2020-06-01T17:38:18.000Z</time>
      </trkpt>
      <trkpt lat="47.1736" lon="-1.61561">
        <ele>70</ele>
        <time>2020-06-01T17:38:20.000Z</time>
      </trkpt>
      <trkpt lat="47.17352" lon="-1.61571">
        <ele>70</ele>
        <time>2020-06-01T17:38:22.000Z</time>
      </trkpt>
      <trkpt lat="47.17344" lon="-1.6158">
        <ele>70</ele>
        <time>2020-06-01T17:38:24.000Z</time>
      </trkpt>
      <trkpt lat="47.17335" lon="-1.6159">
        <ele>70</ele>
        <time>2020-06-01T17:38:26.000Z</time>
      </trkpt>
      <trkpt lat="47.17326" lon="-1.616">
        <ele>70</ele>
        <time>2020-06-01T17:38:28.000Z</time>
      </trkpt>
      <trkpt lat="47.17317" lon="-1.61612">
        <ele>70</ele>
        <time>2020-06-01T17:38:30.000Z</time>
      </trkpt>
      <trkpt lat="47.1731" lon="-1.61624">
        <ele>70</ele>
        <time>2020-06-01T17:38:32.000Z</time>
      </trkpt>
      <trkpt lat="47.17302" lon="-1.61636">
        <ele>70</ele>
        <time>2020-06-01T17:38:34.000Z</time>
      </trkpt>
      <trkpt lat="47.17294" lon="-1.61649">
        <ele>70</ele>
        <time>2020-06-01T17:38:36.000Z</time>
      </trkpt>
      <trkpt lat="47.17287" lon="-1.61663">
        <ele>70</ele>
        <time>2020-06-01T17:38:38.000Z</time>
      </trkpt>
      <trkpt lat="47.17279" lon="-1.61678">
        <ele>70</ele>
        <time>2020-06-01T17:38:40.000Z</time>
      </trkpt>
      <trkpt lat="47.17272" lon="-1.61692">
        <ele>69</ele>
        <time>2020-06-01T17:38:42.000Z</time>
      </trkpt>
      <trkpt lat="47.17265" lon="-1.61707">
        <ele>69</ele>
        <time>2020-06-01T17:38:44.000Z</time>
      </trkpt>
      <trkpt lat="47.17258" lon="-1.61722">
        <ele>69</ele>
        <time>2020-06-01T17:38:46.000Z</time>
      </trkpt>
      <trkpt lat="47.17251" lon="-1.61737">
        <ele>69</ele>
        <time>2020-06-01T17:38:48.000Z</time>
      </trkpt>
      <trkpt lat="47.17247" lon="-1.61755">
        <ele>68</ele>
        <time>2020-06-01T17:38:50.000Z</time>
      </trkpt>
      <trkpt lat="47.17245" lon="-1.61773">
        <ele>68</ele>
        <time>2020-06-01T17:38:52.000Z</time>
      </trkpt>
      <trkpt lat="47.17234" lon="-1.61787">
        <ele>67</ele>
        <time>2020-06-01T17:38:54.000Z</time>
      </trkpt>
      <trkpt lat="47.17223" lon="-1.61795">
        <ele>67</ele>
        <time>2020-06-01T17:38:56.000Z</time>
      </trkpt>
      <trkpt lat="47.17212" lon="-1.61805">
        <ele>67</ele>
        <time>2020-06-01T17:38:58.000Z</time>
      </trkpt>
      <trkpt lat="47.17201" lon="-1.61815">
        <ele>67</ele>
        <time>2020-06-01T17:39:00.000Z</time>
      </trkpt>
      <trkpt lat="47.17191" lon="-1.61825">
        <ele>68</ele>
        <time>2020-06-01T17:39:02.000Z</time>
      </trkpt>
      <trkpt lat="47.17181" lon="-1.61835">
        <ele>68</ele>
        <time>2020-06-01T17:39:04.000Z</time>
      </trkpt>
      <trkpt lat="47.17171" lon="-1.61844">
        <ele>68</ele>
        <time>2020-06-01T17:39:06.000Z</time>
      </trkpt>
      <trkpt lat="47.17161" lon="-1.61854">
        <ele>67</ele>
        <time>2020-06-01T17:39:08.000Z</time>
      </trkpt>
      <trkpt lat="47.1715" lon="-1.61864">
        <ele>67</ele>
        <time>2020-06-01T17:39:10.000Z</time>
      </trkpt>
      <trkpt lat="47.1714" lon="-1.61874">
        <ele>67</ele>
        <time>2020-06-01T17:39:12.000Z</time>
      </trkpt>
      <trkpt lat="47.1713" lon="-1.61884">
        <ele>67</ele>
        <time>2020-06-01T17:39:14.000Z</time>
      </trkpt>
      <trkpt lat="47.17119" lon="-1.61894">
        <ele>68</ele>
        <time>2020-06-01T17:39:16.000Z</time>
      </trkpt>
      <trkpt lat="47.17108" lon="-1.61904">
        <ele>67</ele>
        <time>2020-06-01T17:39:18.000Z</time>
      </trkpt>
      <trkpt lat="47.17097" lon="-1.61915">
        <ele>67</ele>
        <time>2020-06-01T17:39:20.000Z</time>
      </trkpt>
      <trkpt lat="47.17087" lon="-1.61925">
        <ele>68</ele>
        <time>2020-06-01T17:39:22.000Z</time>
      </trkpt>
      <trkpt lat="47.17078" lon="-1.61935">
        <ele>68</ele>
        <time>2020-06-01T17:39:24.000Z</time>
      </trkpt>
      <trkpt lat="47.17068" lon="-1.61945">
        <ele>67</ele>
        <time>2020-06-01T17:39:26.000Z</time>
      </trkpt>
      <trkpt lat="47.17058" lon="-1.61957">
        <ele>68</ele>
        <time>2020-06-01T17:39:28.000Z</time>
      </trkpt>
      <trkpt lat="47.17049" lon="-1.61969">
        <ele>67</ele>
        <time>2020-06-01T17:39:30.000Z</time>
      </trkpt>
      <trkpt lat="47.1704" lon="-1.61982">
        <ele>67</ele>
        <time>2020-06-01T17:39:32.000Z</time>
      </trkpt>
      <trkpt lat="47.17031" lon="-1.61996">
        <ele>67</ele>
        <time>2020-06-01T17:39:34.000Z</time>
      </trkpt>
      <trkpt lat="47.17022" lon="-1.62009">
        <ele>67</ele>
        <time>2020-06-01T17:39:36.000Z</time>
      </trkpt>
      <trkpt lat="47.17013" lon="-1.62023">
        <ele>67</ele>
        <time>2020-06-01T17:39:38.000Z</time>
      </trkpt>
      <trkpt lat="47.17004" lon="-1.62038">
        <ele>67</ele>
        <time>2020-06-01T17:39:40.000Z</time>
      </trkpt>
      <trkpt lat="47.16995" lon="-1.62053">
        <ele>67</ele>
        <time>2020-06-01T17:39:42.000Z</time>
      </trkpt>
      <trkpt lat="47.16986" lon="-1.62068">
        <ele>68</ele>
        <time>2020-06-01T17:39:44.000Z</time>
      </trkpt>
      <trkpt lat="47.16977" lon="-1.62084">
        <ele>68</ele>
        <time>2020-06-01T17:39:46.000Z</time>
      </trkpt>
      <trkpt lat="47.16968" lon="-1.62099">
        <ele>67</ele>
        <time>2020-06-01T17:39:48.000Z</time>
      </trkpt>
      <trkpt lat="47.16961" lon="-1.62115">
        <ele>67</ele>
        <time>2020-06-01T17:39:50.000Z</time>
      </trkpt>
      <trkpt lat="47.16953" lon="-1.6213">
        <ele>67</ele>
        <time>2020-06-01T17:39:52.000Z</time>
      </trkpt>
      <trkpt lat="47.16945" lon="-1.62146">
        <ele>67</ele>
        <time>2020-06-01T17:39:54.000Z</time>
      </trkpt>
      <trkpt lat="47.16937" lon="-1.62162">
        <ele>68</ele>
        <time>2020-06-01T17:39:56.000Z</time>
      </trkpt>
      <trkpt lat="47.1693" lon="-1.62178">
        <ele>68</ele>
        <time>2020-06-01T17:39:58.000Z</time>
      </trkpt>
      <trkpt lat="47.16922" lon="-1.62194">
        <ele>68</ele>
        <time>2020-06-01T17:40:00.000Z</time>
      </trkpt>
      <trkpt lat="47.16913" lon="-1.62209">
        <ele>68</ele>
        <time>2020-06-01T17:40:02.000Z</time>
      </trkpt>
      <trkpt lat="47.16904" lon="-1.62222">
        <ele>68</ele>
        <time>2020-06-01T17:40:04.000Z</time>
      </trkpt>
      <trkpt lat="47.16894" lon="-1.62236">
        <ele>69</ele>
        <time>2020-06-01T17:40:06.000Z</time>
      </trkpt>
      <trkpt lat="47.16884" lon="-1.62247">
        <ele>69</ele>
        <time>2020-06-01T17:40:08.000Z</time>
      </trkpt>
      <trkpt lat="47.16873" lon="-1.62259">
        <ele>69</ele>
        <time>2020-06-01T17:40:10.000Z</time>
      </trkpt>
      <trkpt lat="47.16863" lon="-1.62271">
        <ele>69</ele>
        <time>2020-06-01T17:40:12.000Z</time>
      </trkpt>
      <trkpt lat="47.16853" lon="-1.62283">
        <ele>69</ele>
        <time>2020-06-01T17:40:14.000Z</time>
      </trkpt>
      <trkpt lat="47.16842" lon="-1.62297">
        <ele>69</ele>
        <time>2020-06-01T17:40:16.000Z</time>
      </trkpt>
      <trkpt lat="47.16832" lon="-1.62309">
        <ele>69</ele>
        <time>2020-06-01T17:40:18.000Z</time>
      </trkpt>
      <trkpt lat="47.1682" lon="-1.6232">
        <ele>69</ele>
        <time>2020-06-01T17:40:20.000Z</time>
      </trkpt>
      <trkpt lat="47.16808" lon="-1.62328">
        <ele>69</ele>
        <time>2020-06-01T17:40:22.000Z</time>
      </trkpt>
      <trkpt lat="47.16794" lon="-1.62335">
        <ele>69</ele>
        <time>2020-06-01T17:40:24.000Z</time>
      </trkpt>
      <trkpt lat="47.1678" lon="-1.62342">
        <ele>69</ele>
        <time>2020-06-01T17:40:26.000Z</time>
      </trkpt>
      <trkpt lat="47.16767" lon="-1.6235">
        <ele>68</ele>
        <time>2020-06-01T17:40:28.000Z</time>
      </trkpt>
      <trkpt lat="47.16754" lon="-1.6236">
        <ele>68</ele>
        <time>2020-06-01T17:40:30.000Z</time>
      </trkpt>
      <trkpt lat="47.16742" lon="-1.62373">
        <ele>67</ele>
        <time>2020-06-01T17:40:32.000Z</time>
      </trkpt>
      <trkpt lat="47.16735" lon="-1.62391">
        <ele>66</ele>
        <time>2020-06-01T17:40:34.000Z</time>
      </trkpt>
      <trkpt lat="47.16731" lon="-1.6241">
        <ele>66</ele>
        <time>2020-06-01T17:40:36.000Z</time>
      </trkpt>
      <trkpt lat="47.16729" lon="-1.62429">
        <ele>67</ele>
        <time>2020-06-01T17:40:38.000Z</time>
      </trkpt>
      <trkpt lat="47.16726" lon="-1.62446">
        <ele>67</ele>
        <time>2020-06-01T17:40:40.000Z</time>
      </trkpt>
      <trkpt lat="47.16721" lon="-1.62466">
        <ele>67</ele>
        <time>2020-06-01T17:40:42.000Z</time>
      </trkpt>
      <trkpt lat="47.16717" lon="-1.62484">
        <ele>66</ele>
        <time>2020-06-01T17:40:44.000Z</time>
      </trkpt>
      <trkpt lat="47.16721" lon="-1.62497">
        <ele>66</ele>
        <time>2020-06-01T17:40:46.000Z</time>
      </trkpt>
      <trkpt lat="47.16735" lon="-1.62501">
        <ele>67</ele>
        <time>2020-06-01T17:40:48.000Z</time>
      </trkpt>
      <trkpt lat="47.16747" lon="-1.62506">
        <ele>67</ele>
        <time>2020-06-01T17:40:50.000Z</time>
      </trkpt>
      <trkpt lat="47.16759" lon="-1.62512">
        <ele>67</ele>
        <time>2020-06-01T17:40:52.000Z</time>
      </trkpt>
      <trkpt lat="47.16771" lon="-1.62519">
        <ele>68</ele>
        <time>2020-06-01T17:40:54.000Z</time>
      </trkpt>
      <trkpt lat="47.16782" lon="-1.62527">
        <ele>68</ele>
        <time>2020-06-01T17:40:56.000Z</time>
      </trkpt>
      <trkpt lat="47.16792" lon="-1.62534">
        <ele>68</ele>
        <time>2020-06-01T17:40:58.000Z</time>
      </trkpt>
      <trkpt lat="47.16803" lon="-1.62541">
        <ele>68</ele>
        <time>2020-06-01T17:41:00.000Z</time>
      </trkpt>
      <trkpt lat="47.16813" lon="-1.62548">
        <ele>68</ele>
        <time>2020-06-01T17:41:02.000Z</time>
      </trkpt>
      <trkpt lat="47.16822" lon="-1.62557">
        <ele>68</ele>
        <time>2020-06-01T17:41:04.000Z</time>
      </trkpt>
      <trkpt lat="47.1683" lon="-1.62568">
        <ele>69</ele>
        <time>2020-06-01T17:41:06.000Z</time>
      </trkpt>
      <trkpt lat="47.16831" lon="-1.62584">
        <ele>68</ele>
        <time>2020-06-01T17:41:08.000Z</time>
      </trkpt>
      <trkpt lat="47.16824" lon="-1.62599">
        <ele>69</ele>
        <time>2020-06-01T17:41:10.000Z</time>
      </trkpt>
      <trkpt lat="47.16817" lon="-1.62612">
        <ele>69</ele>
        <time>2020-06-01T17:41:12.000Z</time>
      </trkpt>
      <trkpt lat="47.16809" lon="-1.62624">
        <ele>68</ele>
        <time>2020-06-01T17:41:14.000Z</time>
      </trkpt>
      <trkpt lat="47.16801" lon="-1.62636">
        <ele>68</ele>
        <time>2020-06-01T17:41:16.000Z</time>
      </trkpt>
      <trkpt lat="47.16794" lon="-1.62647">
        <ele>68</ele>
        <time>2020-06-01T17:41:18.000Z</time>
      </trkpt>
      <trkpt lat="47.16789" lon="-1.62658">
        <ele>68</ele>
        <time>2020-06-01T17:41:20.000Z</time>
      </trkpt>
      <trkpt lat="47.1678" lon="-1.62659">
        <ele>68</ele>
        <time>2020-06-01T17:41:23.000Z</time>
      </trkpt>
    </trkseg>
  </trk>
</gpx>